<?xml version="1.0" encoding="UTF-8" standalone="no" ?>
<gpx xmlns="http://www.topografix.com/GPX/1/1" creator="MapSource 6.15.11" version="1.1" xmlns:xsi="http://www.w3.org/2001/XMLSchema-instance" xsi:schemaLocation="http://www.topografix.com/GPX/1/1 http://www.topografix.com/GPX/1/1/gpx.xsd">

  <metadata>
    <link href="http://www.garmin.com">
      <text>Garmin International</text>
    </link>
    <time>2010-03-15T16:46:48Z</time>
    <bounds maxlat="45.7720580" maxlon="8.3838730" minlat="45.7223460" minlon="8.3335790"/>
  </metadata>

  <wpt lat="45.7565540" lon="8.3789050">
    <ele>465.0000000</ele>
    <time>2010-03-12T10:47:43Z</time>
    <name>ARRIVO PS 1/3</name>
    <sym>Diamond, Green</sym>
    <extensions>
      <gpxx:WaypointExtension xmlns:gpxx="http://www.garmin.com/xmlschemas/GpxExtensions/v3">
        <gpxx:DisplayMode>SymbolAndName</gpxx:DisplayMode>
      </gpxx:WaypointExtension>
    </extensions>
  </wpt>

  <wpt lat="45.7305120" lon="8.3341340">
    <ele>447.0000000</ele>
    <time>2010-03-14T10:06:40Z</time>
    <name>ARRIVO PS 2</name>
    <sym>Diamond, Green</sym>
    <extensions>
      <gpxx:WaypointExtension xmlns:gpxx="http://www.garmin.com/xmlschemas/GpxExtensions/v3">
        <gpxx:DisplayMode>SymbolAndName</gpxx:DisplayMode>
      </gpxx:WaypointExtension>
    </extensions>
  </wpt>

  <wpt lat="45.7664110" lon="8.3546060">
    <ele>914.0000000</ele>
    <time>2010-03-14T12:03:02Z</time>
    <name>PARTENZA PS 1</name>
    <sym>Bike Trail</sym>
    <extensions>
      <gpxx:WaypointExtension xmlns:gpxx="http://www.garmin.com/xmlschemas/GpxExtensions/v3">
        <gpxx:DisplayMode>SymbolAndName</gpxx:DisplayMode>
      </gpxx:WaypointExtension>
    </extensions>
  </wpt>

  <wpt lat="45.7243840" lon="8.3542190">
    <ele>805.0000000</ele>
    <time>2010-03-14T09:24:47Z</time>
    <name>PARTENZA PS 2</name>
    <sym>Bike Trail</sym>
    <extensions>
      <gpxx:WaypointExtension xmlns:gpxx="http://www.garmin.com/xmlschemas/GpxExtensions/v3">
        <gpxx:DisplayMode>SymbolAndName</gpxx:DisplayMode>
      </gpxx:WaypointExtension>
    </extensions>
  </wpt>

  <trk>
    <name>Percorso completo</name>
    <extensions>
      <gpxx:TrackExtension xmlns:gpxx="http://www.garmin.com/xmlschemas/GpxExtensions/v3">
        <gpxx:DisplayColor>White</gpxx:DisplayColor>
      </gpxx:TrackExtension>
    </extensions>
    <trkseg>
      <trkpt lat="45.7569030" lon="8.3824020">
        <ele>465.9000000</ele>
        <time>2010-03-12T08:27:50Z</time>
      </trkpt>
      <trkpt lat="45.7569030" lon="8.3824020">
        <ele>470.2200000</ele>
        <time>2010-03-12T08:27:51Z</time>
      </trkpt>
      <trkpt lat="45.7569030" lon="8.3824020">
        <ele>463.4900000</ele>
        <time>2010-03-12T08:27:52Z</time>
      </trkpt>
      <trkpt lat="45.7569030" lon="8.3824020">
        <ele>466.3800000</ele>
        <time>2010-03-12T08:27:53Z</time>
      </trkpt>
      <trkpt lat="45.7569040" lon="8.3824010">
        <ele>465.9000000</ele>
        <time>2010-03-12T08:29:17Z</time>
      </trkpt>
      <trkpt lat="45.7569880" lon="8.3823560">
        <ele>465.9000000</ele>
        <time>2010-03-12T08:29:23Z</time>
      </trkpt>
      <trkpt lat="45.7569990" lon="8.3822090">
        <ele>466.8600000</ele>
        <time>2010-03-12T08:29:28Z</time>
      </trkpt>
      <trkpt lat="45.7566330" lon="8.3817860">
        <ele>467.3400000</ele>
        <time>2010-03-12T08:29:44Z</time>
      </trkpt>
      <trkpt lat="45.7561710" lon="8.3812820">
        <ele>468.7800000</ele>
        <time>2010-03-12T08:30:02Z</time>
      </trkpt>
      <trkpt lat="45.7555640" lon="8.3806640">
        <ele>469.2600000</ele>
        <time>2010-03-12T08:30:22Z</time>
      </trkpt>
      <trkpt lat="45.7548710" lon="8.3803290">
        <ele>470.2200000</ele>
        <time>2010-03-12T08:30:41Z</time>
      </trkpt>
      <trkpt lat="45.7541610" lon="8.3803970">
        <ele>470.2200000</ele>
        <time>2010-03-12T08:31:00Z</time>
      </trkpt>
      <trkpt lat="45.7533920" lon="8.3805730">
        <ele>471.1800000</ele>
        <time>2010-03-12T08:31:20Z</time>
      </trkpt>
      <trkpt lat="45.7527340" lon="8.3807450">
        <ele>474.0700000</ele>
        <time>2010-03-12T08:31:38Z</time>
      </trkpt>
      <trkpt lat="45.7520710" lon="8.3809090">
        <ele>475.5100000</ele>
        <time>2010-03-12T08:31:56Z</time>
      </trkpt>
      <trkpt lat="45.7514100" lon="8.3810710">
        <ele>476.4700000</ele>
        <time>2010-03-12T08:32:13Z</time>
      </trkpt>
      <trkpt lat="45.7506150" lon="8.3812730">
        <ele>476.9500000</ele>
        <time>2010-03-12T08:32:33Z</time>
      </trkpt>
      <trkpt lat="45.7500030" lon="8.3814440">
        <ele>476.9500000</ele>
        <time>2010-03-12T08:32:49Z</time>
      </trkpt>
      <trkpt lat="45.7491350" lon="8.3816710">
        <ele>477.9100000</ele>
        <time>2010-03-12T08:33:10Z</time>
      </trkpt>
      <trkpt lat="45.7490080" lon="8.3817360">
        <ele>477.4300000</ele>
        <time>2010-03-12T08:33:13Z</time>
      </trkpt>
      <trkpt lat="45.7489670" lon="8.3817490">
        <ele>477.4300000</ele>
        <time>2010-03-12T08:33:14Z</time>
      </trkpt>
      <trkpt lat="45.7489290" lon="8.3817630">
        <ele>477.9100000</ele>
        <time>2010-03-12T08:33:15Z</time>
      </trkpt>
      <trkpt lat="45.7488150" lon="8.3818230">
        <ele>477.9100000</ele>
        <time>2010-03-12T08:33:18Z</time>
      </trkpt>
      <trkpt lat="45.7487760" lon="8.3818450">
        <ele>477.9100000</ele>
        <time>2010-03-12T08:33:19Z</time>
      </trkpt>
      <trkpt lat="45.7487380" lon="8.3818670">
        <ele>477.9100000</ele>
        <time>2010-03-12T08:33:20Z</time>
      </trkpt>
      <trkpt lat="45.7485430" lon="8.3819660">
        <ele>477.9100000</ele>
        <time>2010-03-12T08:33:25Z</time>
      </trkpt>
      <trkpt lat="45.7485030" lon="8.3819890">
        <ele>478.3900000</ele>
        <time>2010-03-12T08:33:26Z</time>
      </trkpt>
      <trkpt lat="45.7484630" lon="8.3820060">
        <ele>478.3900000</ele>
        <time>2010-03-12T08:33:27Z</time>
      </trkpt>
      <trkpt lat="45.7484230" lon="8.3820240">
        <ele>477.9100000</ele>
        <time>2010-03-12T08:33:28Z</time>
      </trkpt>
      <trkpt lat="45.7483830" lon="8.3820440">
        <ele>478.3900000</ele>
        <time>2010-03-12T08:33:29Z</time>
      </trkpt>
      <trkpt lat="45.7483410" lon="8.3820610">
        <ele>479.3500000</ele>
        <time>2010-03-12T08:33:30Z</time>
      </trkpt>
      <trkpt lat="45.7480870" lon="8.3821030">
        <ele>477.9100000</ele>
        <time>2010-03-12T08:33:36Z</time>
      </trkpt>
      <trkpt lat="45.7480440" lon="8.3820980">
        <ele>477.9100000</ele>
        <time>2010-03-12T08:33:37Z</time>
      </trkpt>
      <trkpt lat="45.7472830" lon="8.3819450">
        <ele>478.3900000</ele>
        <time>2010-03-12T08:33:54Z</time>
      </trkpt>
      <trkpt lat="45.7472400" lon="8.3819530">
        <ele>478.3900000</ele>
        <time>2010-03-12T08:33:55Z</time>
      </trkpt>
      <trkpt lat="45.7471990" lon="8.3819660">
        <ele>477.9100000</ele>
        <time>2010-03-12T08:33:56Z</time>
      </trkpt>
      <trkpt lat="45.7471590" lon="8.3819870">
        <ele>478.3900000</ele>
        <time>2010-03-12T08:33:57Z</time>
      </trkpt>
      <trkpt lat="45.7471200" lon="8.3820160">
        <ele>478.3900000</ele>
        <time>2010-03-12T08:33:58Z</time>
      </trkpt>
      <trkpt lat="45.7470850" lon="8.3820510">
        <ele>478.3900000</ele>
        <time>2010-03-12T08:33:59Z</time>
      </trkpt>
      <trkpt lat="45.7470540" lon="8.3820930">
        <ele>478.8700000</ele>
        <time>2010-03-12T08:34:00Z</time>
      </trkpt>
      <trkpt lat="45.7470260" lon="8.3821400">
        <ele>478.3900000</ele>
        <time>2010-03-12T08:34:01Z</time>
      </trkpt>
      <trkpt lat="45.7470020" lon="8.3821900">
        <ele>478.3900000</ele>
        <time>2010-03-12T08:34:02Z</time>
      </trkpt>
      <trkpt lat="45.7469820" lon="8.3822440">
        <ele>478.8700000</ele>
        <time>2010-03-12T08:34:03Z</time>
      </trkpt>
      <trkpt lat="45.7469630" lon="8.3823030">
        <ele>478.3900000</ele>
        <time>2010-03-12T08:34:04Z</time>
      </trkpt>
      <trkpt lat="45.7466930" lon="8.3832160">
        <ele>479.8400000</ele>
        <time>2010-03-12T08:34:20Z</time>
      </trkpt>
      <trkpt lat="45.7466690" lon="8.3832640">
        <ele>480.3200000</ele>
        <time>2010-03-12T08:34:21Z</time>
      </trkpt>
      <trkpt lat="45.7464740" lon="8.3835810">
        <ele>480.8000000</ele>
        <time>2010-03-12T08:34:28Z</time>
      </trkpt>
      <trkpt lat="45.7462580" lon="8.3838100">
        <ele>480.8000000</ele>
        <time>2010-03-12T08:34:34Z</time>
      </trkpt>
      <trkpt lat="45.7461810" lon="8.3838580">
        <ele>480.8000000</ele>
        <time>2010-03-12T08:34:36Z</time>
      </trkpt>
      <trkpt lat="45.7461410" lon="8.3838690">
        <ele>481.2800000</ele>
        <time>2010-03-12T08:34:37Z</time>
      </trkpt>
      <trkpt lat="45.7461000" lon="8.3838720">
        <ele>481.2800000</ele>
        <time>2010-03-12T08:34:38Z</time>
      </trkpt>
      <trkpt lat="45.7460170" lon="8.3838730">
        <ele>481.2800000</ele>
        <time>2010-03-12T08:34:40Z</time>
      </trkpt>
      <trkpt lat="45.7458870" lon="8.3838390">
        <ele>481.2800000</ele>
        <time>2010-03-12T08:34:43Z</time>
      </trkpt>
      <trkpt lat="45.7458450" lon="8.3838160">
        <ele>480.8000000</ele>
        <time>2010-03-12T08:34:44Z</time>
      </trkpt>
      <trkpt lat="45.7458050" lon="8.3837900">
        <ele>481.7600000</ele>
        <time>2010-03-12T08:34:45Z</time>
      </trkpt>
      <trkpt lat="45.7456350" lon="8.3836350">
        <ele>482.2400000</ele>
        <time>2010-03-12T08:34:50Z</time>
      </trkpt>
      <trkpt lat="45.7456000" lon="8.3836070">
        <ele>482.7200000</ele>
        <time>2010-03-12T08:34:51Z</time>
      </trkpt>
      <trkpt lat="45.7453810" lon="8.3834500">
        <ele>482.2400000</ele>
        <time>2010-03-12T08:34:57Z</time>
      </trkpt>
      <trkpt lat="45.7453470" lon="8.3834120">
        <ele>482.2400000</ele>
        <time>2010-03-12T08:34:58Z</time>
      </trkpt>
      <trkpt lat="45.7453190" lon="8.3833650">
        <ele>483.2000000</ele>
        <time>2010-03-12T08:34:59Z</time>
      </trkpt>
      <trkpt lat="45.7452960" lon="8.3833130">
        <ele>482.7200000</ele>
        <time>2010-03-12T08:35:00Z</time>
      </trkpt>
      <trkpt lat="45.7452800" lon="8.3832590">
        <ele>483.2000000</ele>
        <time>2010-03-12T08:35:01Z</time>
      </trkpt>
      <trkpt lat="45.7452730" lon="8.3832010">
        <ele>483.2000000</ele>
        <time>2010-03-12T08:35:02Z</time>
      </trkpt>
      <trkpt lat="45.7452690" lon="8.3831410">
        <ele>483.6800000</ele>
        <time>2010-03-12T08:35:03Z</time>
      </trkpt>
      <trkpt lat="45.7452700" lon="8.3830800">
        <ele>483.6800000</ele>
        <time>2010-03-12T08:35:04Z</time>
      </trkpt>
      <trkpt lat="45.7452730" lon="8.3830190">
        <ele>483.6800000</ele>
        <time>2010-03-12T08:35:05Z</time>
      </trkpt>
      <trkpt lat="45.7452810" lon="8.3828980">
        <ele>484.1600000</ele>
        <time>2010-03-12T08:35:07Z</time>
      </trkpt>
      <trkpt lat="45.7452830" lon="8.3828370">
        <ele>484.1600000</ele>
        <time>2010-03-12T08:35:08Z</time>
      </trkpt>
      <trkpt lat="45.7452930" lon="8.3826610">
        <ele>484.6400000</ele>
        <time>2010-03-12T08:35:11Z</time>
      </trkpt>
      <trkpt lat="45.7452910" lon="8.3826000">
        <ele>484.6400000</ele>
        <time>2010-03-12T08:35:12Z</time>
      </trkpt>
      <trkpt lat="45.7452720" lon="8.3824150">
        <ele>484.6400000</ele>
        <time>2010-03-12T08:35:15Z</time>
      </trkpt>
      <trkpt lat="45.7452610" lon="8.3823570">
        <ele>485.1200000</ele>
        <time>2010-03-12T08:35:16Z</time>
      </trkpt>
      <trkpt lat="45.7452480" lon="8.3823020">
        <ele>485.1200000</ele>
        <time>2010-03-12T08:35:17Z</time>
      </trkpt>
      <trkpt lat="45.7450110" lon="8.3818700">
        <ele>486.0800000</ele>
        <time>2010-03-12T08:35:26Z</time>
      </trkpt>
      <trkpt lat="45.7449860" lon="8.3818200">
        <ele>486.0800000</ele>
        <time>2010-03-12T08:35:27Z</time>
      </trkpt>
      <trkpt lat="45.7449660" lon="8.3817650">
        <ele>486.0800000</ele>
        <time>2010-03-12T08:35:28Z</time>
      </trkpt>
      <trkpt lat="45.7449270" lon="8.3815990">
        <ele>486.5600000</ele>
        <time>2010-03-12T08:35:31Z</time>
      </trkpt>
      <trkpt lat="45.7449230" lon="8.3815400">
        <ele>486.5600000</ele>
        <time>2010-03-12T08:35:32Z</time>
      </trkpt>
      <trkpt lat="45.7449580" lon="8.3805670">
        <ele>488.4900000</ele>
        <time>2010-03-12T08:35:48Z</time>
      </trkpt>
      <trkpt lat="45.7448590" lon="8.3794000">
        <ele>490.4100000</ele>
        <time>2010-03-12T08:36:08Z</time>
      </trkpt>
      <trkpt lat="45.7445740" lon="8.3784460">
        <ele>490.8900000</ele>
        <time>2010-03-12T08:36:25Z</time>
      </trkpt>
      <trkpt lat="45.7441910" lon="8.3775860">
        <ele>491.3700000</ele>
        <time>2010-03-12T08:36:42Z</time>
      </trkpt>
      <trkpt lat="45.7441560" lon="8.3774780">
        <ele>491.8500000</ele>
        <time>2010-03-12T08:36:44Z</time>
      </trkpt>
      <trkpt lat="45.7440140" lon="8.3765770">
        <ele>494.2600000</ele>
        <time>2010-03-12T08:37:01Z</time>
      </trkpt>
      <trkpt lat="45.7439290" lon="8.3758550">
        <ele>496.1800000</ele>
        <time>2010-03-12T08:37:15Z</time>
      </trkpt>
      <trkpt lat="45.7439300" lon="8.3752070">
        <ele>499.0600000</ele>
        <time>2010-03-12T08:37:28Z</time>
      </trkpt>
      <trkpt lat="45.7441520" lon="8.3744910">
        <ele>501.9500000</ele>
        <time>2010-03-12T08:37:43Z</time>
      </trkpt>
      <trkpt lat="45.7444490" lon="8.3737710">
        <ele>504.8300000</ele>
        <time>2010-03-12T08:37:59Z</time>
      </trkpt>
      <trkpt lat="45.7446890" lon="8.3727820">
        <ele>507.7100000</ele>
        <time>2010-03-12T08:38:19Z</time>
      </trkpt>
      <trkpt lat="45.7449550" lon="8.3724080">
        <ele>509.6400000</ele>
        <time>2010-03-12T08:38:30Z</time>
      </trkpt>
      <trkpt lat="45.7451610" lon="8.3720300">
        <ele>511.0800000</ele>
        <time>2010-03-12T08:38:41Z</time>
      </trkpt>
      <trkpt lat="45.7449270" lon="8.3716730">
        <ele>512.5200000</ele>
        <time>2010-03-12T08:38:51Z</time>
      </trkpt>
      <trkpt lat="45.7445270" lon="8.3718560">
        <ele>514.4400000</ele>
        <time>2010-03-12T08:39:05Z</time>
      </trkpt>
      <trkpt lat="45.7442420" lon="8.3717570">
        <ele>516.8500000</ele>
        <time>2010-03-12T08:39:17Z</time>
      </trkpt>
      <trkpt lat="45.7441700" lon="8.3711280">
        <ele>519.7300000</ele>
        <time>2010-03-12T08:39:34Z</time>
      </trkpt>
      <trkpt lat="45.7439960" lon="8.3705990">
        <ele>522.1300000</ele>
        <time>2010-03-12T08:39:49Z</time>
      </trkpt>
      <trkpt lat="45.7439220" lon="8.3700180">
        <ele>524.5400000</ele>
        <time>2010-03-12T08:40:05Z</time>
      </trkpt>
      <trkpt lat="45.7439720" lon="8.3694330">
        <ele>526.4600000</ele>
        <time>2010-03-12T08:40:21Z</time>
      </trkpt>
      <trkpt lat="45.7438620" lon="8.3688910">
        <ele>527.9000000</ele>
        <time>2010-03-12T08:40:36Z</time>
      </trkpt>
      <trkpt lat="45.7438470" lon="8.3687890">
        <ele>528.3800000</ele>
        <time>2010-03-12T08:40:39Z</time>
      </trkpt>
      <trkpt lat="45.7438480" lon="8.3687560">
        <ele>527.9000000</ele>
        <time>2010-03-12T08:40:40Z</time>
      </trkpt>
      <trkpt lat="45.7438450" lon="8.3687220">
        <ele>529.3400000</ele>
        <time>2010-03-12T08:40:41Z</time>
      </trkpt>
      <trkpt lat="45.7438360" lon="8.3686840">
        <ele>528.8600000</ele>
        <time>2010-03-12T08:40:42Z</time>
      </trkpt>
      <trkpt lat="45.7438260" lon="8.3686450">
        <ele>529.3400000</ele>
        <time>2010-03-12T08:40:43Z</time>
      </trkpt>
      <trkpt lat="45.7437340" lon="8.3680930">
        <ele>531.2700000</ele>
        <time>2010-03-12T08:40:58Z</time>
      </trkpt>
      <trkpt lat="45.7437180" lon="8.3673980">
        <ele>533.6700000</ele>
        <time>2010-03-12T08:41:16Z</time>
      </trkpt>
      <trkpt lat="45.7437840" lon="8.3667170">
        <ele>536.0700000</ele>
        <time>2010-03-12T08:41:33Z</time>
      </trkpt>
      <trkpt lat="45.7439760" lon="8.3658930">
        <ele>537.9900000</ele>
        <time>2010-03-12T08:41:54Z</time>
      </trkpt>
      <trkpt lat="45.7442200" lon="8.3654050">
        <ele>539.9200000</ele>
        <time>2010-03-12T08:42:09Z</time>
      </trkpt>
      <trkpt lat="45.7442890" lon="8.3648290">
        <ele>541.8400000</ele>
        <time>2010-03-12T08:42:24Z</time>
      </trkpt>
      <trkpt lat="45.7439990" lon="8.3644890">
        <ele>543.7600000</ele>
        <time>2010-03-12T08:42:38Z</time>
      </trkpt>
      <trkpt lat="45.7439150" lon="8.3640230">
        <ele>546.6500000</ele>
        <time>2010-03-12T08:42:51Z</time>
      </trkpt>
      <trkpt lat="45.7440950" lon="8.3634790">
        <ele>549.5300000</ele>
        <time>2010-03-12T08:43:07Z</time>
      </trkpt>
      <trkpt lat="45.7442240" lon="8.3630700">
        <ele>550.9700000</ele>
        <time>2010-03-12T08:43:19Z</time>
      </trkpt>
      <trkpt lat="45.7441630" lon="8.3626080">
        <ele>551.9300000</ele>
        <time>2010-03-12T08:43:31Z</time>
      </trkpt>
      <trkpt lat="45.7439360" lon="8.3622900">
        <ele>554.3400000</ele>
        <time>2010-03-12T08:43:43Z</time>
      </trkpt>
      <trkpt lat="45.7436250" lon="8.3621550">
        <ele>556.2600000</ele>
        <time>2010-03-12T08:43:55Z</time>
      </trkpt>
      <trkpt lat="45.7433010" lon="8.3620410">
        <ele>557.7000000</ele>
        <time>2010-03-12T08:44:08Z</time>
      </trkpt>
      <trkpt lat="45.7429340" lon="8.3619160">
        <ele>559.6200000</ele>
        <time>2010-03-12T08:44:22Z</time>
      </trkpt>
      <trkpt lat="45.7426700" lon="8.3617690">
        <ele>561.5500000</ele>
        <time>2010-03-12T08:44:32Z</time>
      </trkpt>
      <trkpt lat="45.7426560" lon="8.3617490">
        <ele>561.0700000</ele>
        <time>2010-03-12T08:44:33Z</time>
      </trkpt>
      <trkpt lat="45.7426380" lon="8.3617300">
        <ele>560.5900000</ele>
        <time>2010-03-12T08:44:34Z</time>
      </trkpt>
      <trkpt lat="45.7426160" lon="8.3617160">
        <ele>561.5500000</ele>
        <time>2010-03-12T08:44:35Z</time>
      </trkpt>
      <trkpt lat="45.7425890" lon="8.3617030">
        <ele>561.5500000</ele>
        <time>2010-03-12T08:44:36Z</time>
      </trkpt>
      <trkpt lat="45.7425630" lon="8.3616860">
        <ele>561.5500000</ele>
        <time>2010-03-12T08:44:37Z</time>
      </trkpt>
      <trkpt lat="45.7425370" lon="8.3616640">
        <ele>561.5500000</ele>
        <time>2010-03-12T08:44:38Z</time>
      </trkpt>
      <trkpt lat="45.7425110" lon="8.3616360">
        <ele>562.0300000</ele>
        <time>2010-03-12T08:44:39Z</time>
      </trkpt>
      <trkpt lat="45.7424860" lon="8.3616060">
        <ele>562.0300000</ele>
        <time>2010-03-12T08:44:40Z</time>
      </trkpt>
      <trkpt lat="45.7424600" lon="8.3615780">
        <ele>562.5100000</ele>
        <time>2010-03-12T08:44:41Z</time>
      </trkpt>
      <trkpt lat="45.7424340" lon="8.3615500">
        <ele>562.5100000</ele>
        <time>2010-03-12T08:44:42Z</time>
      </trkpt>
      <trkpt lat="45.7424090" lon="8.3615210">
        <ele>562.5100000</ele>
        <time>2010-03-12T08:44:43Z</time>
      </trkpt>
      <trkpt lat="45.7419990" lon="8.3611320">
        <ele>564.4300000</ele>
        <time>2010-03-12T08:45:00Z</time>
      </trkpt>
      <trkpt lat="45.7419190" lon="8.3610400">
        <ele>564.4300000</ele>
        <time>2010-03-12T08:45:04Z</time>
      </trkpt>
      <trkpt lat="45.7419040" lon="8.3610110">
        <ele>563.9500000</ele>
        <time>2010-03-12T08:45:05Z</time>
      </trkpt>
      <trkpt lat="45.7418830" lon="8.3609880">
        <ele>563.9500000</ele>
        <time>2010-03-12T08:45:06Z</time>
      </trkpt>
      <trkpt lat="45.7418600" lon="8.3609680">
        <ele>564.4300000</ele>
        <time>2010-03-12T08:45:07Z</time>
      </trkpt>
      <trkpt lat="45.7418370" lon="8.3609460">
        <ele>564.4300000</ele>
        <time>2010-03-12T08:45:08Z</time>
      </trkpt>
      <trkpt lat="45.7418150" lon="8.3609200">
        <ele>564.4300000</ele>
        <time>2010-03-12T08:45:09Z</time>
      </trkpt>
      <trkpt lat="45.7417960" lon="8.3608910">
        <ele>564.4300000</ele>
        <time>2010-03-12T08:45:10Z</time>
      </trkpt>
      <trkpt lat="45.7416170" lon="8.3603410">
        <ele>565.8700000</ele>
        <time>2010-03-12T08:45:25Z</time>
      </trkpt>
      <trkpt lat="45.7416190" lon="8.3599310">
        <ele>565.3900000</ele>
        <time>2010-03-12T08:45:38Z</time>
      </trkpt>
      <trkpt lat="45.7416210" lon="8.3598430">
        <ele>563.9500000</ele>
        <time>2010-03-12T08:45:41Z</time>
      </trkpt>
      <trkpt lat="45.7416280" lon="8.3595180">
        <ele>560.5900000</ele>
        <time>2010-03-12T08:45:52Z</time>
      </trkpt>
      <trkpt lat="45.7416320" lon="8.3593710">
        <ele>558.6600000</ele>
        <time>2010-03-12T08:45:57Z</time>
      </trkpt>
      <trkpt lat="45.7416320" lon="8.3593410">
        <ele>558.1800000</ele>
        <time>2010-03-12T08:45:59Z</time>
      </trkpt>
      <trkpt lat="45.7416320" lon="8.3593410">
        <ele>555.3000000</ele>
        <time>2010-03-12T08:46:03Z</time>
      </trkpt>
      <trkpt lat="45.7408370" lon="8.3573050">
        <ele>553.3800000</ele>
        <time>2010-03-12T08:46:06Z</time>
      </trkpt>
      <trkpt lat="45.7405220" lon="8.3564840">
        <ele>550.4900000</ele>
        <time>2010-03-12T08:46:14Z</time>
      </trkpt>
      <trkpt lat="45.7402800" lon="8.3558620">
        <ele>547.1300000</ele>
        <time>2010-03-12T08:46:20Z</time>
      </trkpt>
      <trkpt lat="45.7401090" lon="8.3554200">
        <ele>544.7200000</ele>
        <time>2010-03-12T08:46:24Z</time>
      </trkpt>
      <trkpt lat="45.7400400" lon="8.3551850">
        <ele>543.2800000</ele>
        <time>2010-03-12T08:46:26Z</time>
      </trkpt>
      <trkpt lat="45.7400190" lon="8.3550640">
        <ele>542.3200000</ele>
        <time>2010-03-12T08:46:27Z</time>
      </trkpt>
      <trkpt lat="45.7400140" lon="8.3549390">
        <ele>541.8400000</ele>
        <time>2010-03-12T08:46:28Z</time>
      </trkpt>
      <trkpt lat="45.7400270" lon="8.3548100">
        <ele>541.3600000</ele>
        <time>2010-03-12T08:46:29Z</time>
      </trkpt>
      <trkpt lat="45.7400570" lon="8.3546890">
        <ele>541.3600000</ele>
        <time>2010-03-12T08:46:30Z</time>
      </trkpt>
      <trkpt lat="45.7400950" lon="8.3545790">
        <ele>541.3600000</ele>
        <time>2010-03-12T08:46:31Z</time>
      </trkpt>
      <trkpt lat="45.7401190" lon="8.3544750">
        <ele>541.8400000</ele>
        <time>2010-03-12T08:46:32Z</time>
      </trkpt>
      <trkpt lat="45.7401160" lon="8.3543800">
        <ele>542.3200000</ele>
        <time>2010-03-12T08:46:33Z</time>
      </trkpt>
      <trkpt lat="45.7400930" lon="8.3543010">
        <ele>543.2800000</ele>
        <time>2010-03-12T08:46:34Z</time>
      </trkpt>
      <trkpt lat="45.7400650" lon="8.3542350">
        <ele>544.2400000</ele>
        <time>2010-03-12T08:46:35Z</time>
      </trkpt>
      <trkpt lat="45.7400400" lon="8.3541820">
        <ele>544.7200000</ele>
        <time>2010-03-12T08:46:36Z</time>
      </trkpt>
      <trkpt lat="45.7399990" lon="8.3537640">
        <ele>547.1300000</ele>
        <time>2010-03-12T08:46:46Z</time>
      </trkpt>
      <trkpt lat="45.7402650" lon="8.3536500">
        <ele>549.5300000</ele>
        <time>2010-03-12T08:46:56Z</time>
      </trkpt>
      <trkpt lat="45.7405690" lon="8.3537640">
        <ele>551.4500000</ele>
        <time>2010-03-12T08:47:08Z</time>
      </trkpt>
      <trkpt lat="45.7408680" lon="8.3538620">
        <ele>554.3400000</ele>
        <time>2010-03-12T08:47:21Z</time>
      </trkpt>
      <trkpt lat="45.7410930" lon="8.3539000">
        <ele>556.7400000</ele>
        <time>2010-03-12T08:47:32Z</time>
      </trkpt>
      <trkpt lat="45.7413000" lon="8.3537830">
        <ele>557.7000000</ele>
        <time>2010-03-12T08:47:43Z</time>
      </trkpt>
      <trkpt lat="45.7415060" lon="8.3538990">
        <ele>560.1100000</ele>
        <time>2010-03-12T08:47:54Z</time>
      </trkpt>
      <trkpt lat="45.7417650" lon="8.3541370">
        <ele>568.7600000</ele>
        <time>2010-03-12T08:48:08Z</time>
      </trkpt>
      <trkpt lat="45.7417840" lon="8.3541560">
        <ele>562.5100000</ele>
        <time>2010-03-12T08:48:09Z</time>
      </trkpt>
      <trkpt lat="45.7420120" lon="8.3543820">
        <ele>564.4300000</ele>
        <time>2010-03-12T08:48:21Z</time>
      </trkpt>
      <trkpt lat="45.7422850" lon="8.3545170">
        <ele>566.3500000</ele>
        <time>2010-03-12T08:48:34Z</time>
      </trkpt>
      <trkpt lat="45.7424860" lon="8.3546160">
        <ele>568.2800000</ele>
        <time>2010-03-12T08:48:46Z</time>
      </trkpt>
      <trkpt lat="45.7426510" lon="8.3546560">
        <ele>569.2400000</ele>
        <time>2010-03-12T08:48:54Z</time>
      </trkpt>
      <trkpt lat="45.7426680" lon="8.3546470">
        <ele>569.7200000</ele>
        <time>2010-03-12T08:48:55Z</time>
      </trkpt>
      <trkpt lat="45.7426840" lon="8.3546350">
        <ele>569.7200000</ele>
        <time>2010-03-12T08:48:56Z</time>
      </trkpt>
      <trkpt lat="45.7427010" lon="8.3546270">
        <ele>569.2400000</ele>
        <time>2010-03-12T08:48:57Z</time>
      </trkpt>
      <trkpt lat="45.7427200" lon="8.3546210">
        <ele>569.2400000</ele>
        <time>2010-03-12T08:48:58Z</time>
      </trkpt>
      <trkpt lat="45.7427370" lon="8.3546190">
        <ele>569.2400000</ele>
        <time>2010-03-12T08:48:59Z</time>
      </trkpt>
      <trkpt lat="45.7427530" lon="8.3546170">
        <ele>569.7200000</ele>
        <time>2010-03-12T08:49:00Z</time>
      </trkpt>
      <trkpt lat="45.7429700" lon="8.3545980">
        <ele>571.1600000</ele>
        <time>2010-03-12T08:49:11Z</time>
      </trkpt>
      <trkpt lat="45.7429820" lon="8.3545790">
        <ele>571.1600000</ele>
        <time>2010-03-12T08:49:12Z</time>
      </trkpt>
      <trkpt lat="45.7429960" lon="8.3545630">
        <ele>571.1600000</ele>
        <time>2010-03-12T08:49:13Z</time>
      </trkpt>
      <trkpt lat="45.7430070" lon="8.3545340">
        <ele>572.1200000</ele>
        <time>2010-03-12T08:49:14Z</time>
      </trkpt>
      <trkpt lat="45.7430140" lon="8.3544990">
        <ele>571.6400000</ele>
        <time>2010-03-12T08:49:15Z</time>
      </trkpt>
      <trkpt lat="45.7430210" lon="8.3544560">
        <ele>572.1200000</ele>
        <time>2010-03-12T08:49:16Z</time>
      </trkpt>
      <trkpt lat="45.7429080" lon="8.3541170">
        <ele>573.5600000</ele>
        <time>2010-03-12T08:49:27Z</time>
      </trkpt>
      <trkpt lat="45.7426560" lon="8.3539550">
        <ele>575.4900000</ele>
        <time>2010-03-12T08:49:40Z</time>
      </trkpt>
      <trkpt lat="45.7426290" lon="8.3536630">
        <ele>577.4100000</ele>
        <time>2010-03-12T08:49:52Z</time>
      </trkpt>
      <trkpt lat="45.7426350" lon="8.3533210">
        <ele>579.3300000</ele>
        <time>2010-03-12T08:50:05Z</time>
      </trkpt>
      <trkpt lat="45.7424190" lon="8.3529800">
        <ele>580.7700000</ele>
        <time>2010-03-12T08:50:20Z</time>
      </trkpt>
      <trkpt lat="45.7422950" lon="8.3528030">
        <ele>581.7300000</ele>
        <time>2010-03-12T08:50:29Z</time>
      </trkpt>
      <trkpt lat="45.7423960" lon="8.3525130">
        <ele>584.1400000</ele>
        <time>2010-03-12T08:50:40Z</time>
      </trkpt>
      <trkpt lat="45.7425500" lon="8.3522780">
        <ele>585.5800000</ele>
        <time>2010-03-12T08:50:51Z</time>
      </trkpt>
      <trkpt lat="45.7427740" lon="8.3520050">
        <ele>587.9800000</ele>
        <time>2010-03-12T08:51:05Z</time>
      </trkpt>
      <trkpt lat="45.7429940" lon="8.3518740">
        <ele>589.9100000</ele>
        <time>2010-03-12T08:51:17Z</time>
      </trkpt>
      <trkpt lat="45.7430490" lon="8.3515700">
        <ele>590.3900000</ele>
        <time>2010-03-12T08:51:26Z</time>
      </trkpt>
      <trkpt lat="45.7430410" lon="8.3515400">
        <ele>590.3900000</ele>
        <time>2010-03-12T08:51:27Z</time>
      </trkpt>
      <trkpt lat="45.7430320" lon="8.3515120">
        <ele>590.3900000</ele>
        <time>2010-03-12T08:51:28Z</time>
      </trkpt>
      <trkpt lat="45.7430220" lon="8.3514850">
        <ele>590.8700000</ele>
        <time>2010-03-12T08:51:29Z</time>
      </trkpt>
      <trkpt lat="45.7430110" lon="8.3514610">
        <ele>590.8700000</ele>
        <time>2010-03-12T08:51:30Z</time>
      </trkpt>
      <trkpt lat="45.7429820" lon="8.3514340">
        <ele>590.8700000</ele>
        <time>2010-03-12T08:51:32Z</time>
      </trkpt>
      <trkpt lat="45.7429560" lon="8.3514130">
        <ele>590.8700000</ele>
        <time>2010-03-12T08:51:33Z</time>
      </trkpt>
      <trkpt lat="45.7429300" lon="8.3513970">
        <ele>590.8700000</ele>
        <time>2010-03-12T08:51:34Z</time>
      </trkpt>
      <trkpt lat="45.7429050" lon="8.3513840">
        <ele>590.8700000</ele>
        <time>2010-03-12T08:51:35Z</time>
      </trkpt>
      <trkpt lat="45.7428810" lon="8.3513780">
        <ele>590.8700000</ele>
        <time>2010-03-12T08:51:36Z</time>
      </trkpt>
      <trkpt lat="45.7428570" lon="8.3513750">
        <ele>591.3500000</ele>
        <time>2010-03-12T08:51:37Z</time>
      </trkpt>
      <trkpt lat="45.7428340" lon="8.3513730">
        <ele>590.8700000</ele>
        <time>2010-03-12T08:51:38Z</time>
      </trkpt>
      <trkpt lat="45.7428150" lon="8.3513710">
        <ele>591.8300000</ele>
        <time>2010-03-12T08:51:39Z</time>
      </trkpt>
      <trkpt lat="45.7427960" lon="8.3513680">
        <ele>590.8700000</ele>
        <time>2010-03-12T08:51:40Z</time>
      </trkpt>
      <trkpt lat="45.7425010" lon="8.3512940">
        <ele>592.7900000</ele>
        <time>2010-03-12T08:51:53Z</time>
      </trkpt>
      <trkpt lat="45.7421860" lon="8.3512120">
        <ele>593.7500000</ele>
        <time>2010-03-12T08:52:07Z</time>
      </trkpt>
      <trkpt lat="45.7418980" lon="8.3509550">
        <ele>594.2300000</ele>
        <time>2010-03-12T08:52:22Z</time>
      </trkpt>
      <trkpt lat="45.7420660" lon="8.3506490">
        <ele>594.7100000</ele>
        <time>2010-03-12T08:52:33Z</time>
      </trkpt>
      <trkpt lat="45.7424260" lon="8.3503190">
        <ele>596.1500000</ele>
        <time>2010-03-12T08:52:49Z</time>
      </trkpt>
      <trkpt lat="45.7427360" lon="8.3502280">
        <ele>596.6400000</ele>
        <time>2010-03-12T08:53:02Z</time>
      </trkpt>
      <trkpt lat="45.7430520" lon="8.3501780">
        <ele>598.5600000</ele>
        <time>2010-03-12T08:53:15Z</time>
      </trkpt>
      <trkpt lat="45.7433730" lon="8.3498220">
        <ele>600.4800000</ele>
        <time>2010-03-12T08:53:30Z</time>
      </trkpt>
      <trkpt lat="45.7435290" lon="8.3497090">
        <ele>600.4800000</ele>
        <time>2010-03-12T08:53:37Z</time>
      </trkpt>
      <trkpt lat="45.7435480" lon="8.3496780">
        <ele>600.4800000</ele>
        <time>2010-03-12T08:53:38Z</time>
      </trkpt>
      <trkpt lat="45.7435680" lon="8.3496490">
        <ele>600.9600000</ele>
        <time>2010-03-12T08:53:39Z</time>
      </trkpt>
      <trkpt lat="45.7435850" lon="8.3496190">
        <ele>600.4800000</ele>
        <time>2010-03-12T08:53:40Z</time>
      </trkpt>
      <trkpt lat="45.7436010" lon="8.3495870">
        <ele>600.9600000</ele>
        <time>2010-03-12T08:53:41Z</time>
      </trkpt>
      <trkpt lat="45.7438360" lon="8.3491520">
        <ele>600.9600000</ele>
        <time>2010-03-12T08:53:55Z</time>
      </trkpt>
      <trkpt lat="45.7437710" lon="8.3487570">
        <ele>601.4400000</ele>
        <time>2010-03-12T08:54:06Z</time>
      </trkpt>
      <trkpt lat="45.7433310" lon="8.3486440">
        <ele>601.9200000</ele>
        <time>2010-03-12T08:54:21Z</time>
      </trkpt>
      <trkpt lat="45.7430210" lon="8.3484000">
        <ele>602.8800000</ele>
        <time>2010-03-12T08:54:34Z</time>
      </trkpt>
      <trkpt lat="45.7428410" lon="8.3479360">
        <ele>606.2500000</ele>
        <time>2010-03-12T08:54:50Z</time>
      </trkpt>
      <trkpt lat="45.7428320" lon="8.3478770">
        <ele>606.2500000</ele>
        <time>2010-03-12T08:54:52Z</time>
      </trkpt>
      <trkpt lat="45.7430450" lon="8.3476090">
        <ele>609.1300000</ele>
        <time>2010-03-12T08:55:06Z</time>
      </trkpt>
      <trkpt lat="45.7430610" lon="8.3475840">
        <ele>609.1300000</ele>
        <time>2010-03-12T08:55:07Z</time>
      </trkpt>
      <trkpt lat="45.7432920" lon="8.3472210">
        <ele>611.0600000</ele>
        <time>2010-03-12T08:55:23Z</time>
      </trkpt>
      <trkpt lat="45.7435810" lon="8.3468340">
        <ele>612.5000000</ele>
        <time>2010-03-12T08:55:39Z</time>
      </trkpt>
      <trkpt lat="45.7435650" lon="8.3464660">
        <ele>612.0200000</ele>
        <time>2010-03-12T08:55:51Z</time>
      </trkpt>
      <trkpt lat="45.7432810" lon="8.3460990">
        <ele>612.5000000</ele>
        <time>2010-03-12T08:56:05Z</time>
      </trkpt>
      <trkpt lat="45.7430470" lon="8.3455560">
        <ele>614.9000000</ele>
        <time>2010-03-12T08:56:22Z</time>
      </trkpt>
      <trkpt lat="45.7431720" lon="8.3451120">
        <ele>617.7800000</ele>
        <time>2010-03-12T08:56:36Z</time>
      </trkpt>
      <trkpt lat="45.7432820" lon="8.3445950">
        <ele>618.7500000</ele>
        <time>2010-03-12T08:56:51Z</time>
      </trkpt>
      <trkpt lat="45.7434800" lon="8.3441680">
        <ele>619.2300000</ele>
        <time>2010-03-12T08:57:05Z</time>
      </trkpt>
      <trkpt lat="45.7436560" lon="8.3437620">
        <ele>618.2600000</ele>
        <time>2010-03-12T08:57:16Z</time>
      </trkpt>
      <trkpt lat="45.7439080" lon="8.3436290">
        <ele>618.7500000</ele>
        <time>2010-03-12T08:57:25Z</time>
      </trkpt>
      <trkpt lat="45.7442040" lon="8.3437790">
        <ele>621.1500000</ele>
        <time>2010-03-12T08:57:39Z</time>
      </trkpt>
      <trkpt lat="45.7445000" lon="8.3438390">
        <ele>623.5500000</ele>
        <time>2010-03-12T08:57:55Z</time>
      </trkpt>
      <trkpt lat="45.7447870" lon="8.3439110">
        <ele>626.4400000</ele>
        <time>2010-03-12T08:58:10Z</time>
      </trkpt>
      <trkpt lat="45.7448940" lon="8.3440140">
        <ele>627.4000000</ele>
        <time>2010-03-12T08:58:17Z</time>
      </trkpt>
      <trkpt lat="45.7449120" lon="8.3440200">
        <ele>627.8800000</ele>
        <time>2010-03-12T08:58:18Z</time>
      </trkpt>
      <trkpt lat="45.7449300" lon="8.3440240">
        <ele>627.8800000</ele>
        <time>2010-03-12T08:58:19Z</time>
      </trkpt>
      <trkpt lat="45.7450130" lon="8.3440410">
        <ele>628.8400000</ele>
        <time>2010-03-12T08:58:32Z</time>
      </trkpt>
      <trkpt lat="45.7450260" lon="8.3440210">
        <ele>628.8400000</ele>
        <time>2010-03-12T08:58:46Z</time>
      </trkpt>
      <trkpt lat="45.7450400" lon="8.3440030">
        <ele>628.3600000</ele>
        <time>2010-03-12T08:58:47Z</time>
      </trkpt>
      <trkpt lat="45.7451850" lon="8.3436520">
        <ele>631.2400000</ele>
        <time>2010-03-12T08:59:01Z</time>
      </trkpt>
      <trkpt lat="45.7452590" lon="8.3434610">
        <ele>632.2000000</ele>
        <time>2010-03-12T08:59:09Z</time>
      </trkpt>
      <trkpt lat="45.7452750" lon="8.3434500">
        <ele>632.6800000</ele>
        <time>2010-03-12T08:59:10Z</time>
      </trkpt>
      <trkpt lat="45.7455130" lon="8.3434940">
        <ele>634.6100000</ele>
        <time>2010-03-12T08:59:23Z</time>
      </trkpt>
      <trkpt lat="45.7457620" lon="8.3435980">
        <ele>637.0100000</ele>
        <time>2010-03-12T08:59:36Z</time>
      </trkpt>
      <trkpt lat="45.7458810" lon="8.3433230">
        <ele>639.4100000</ele>
        <time>2010-03-12T08:59:48Z</time>
      </trkpt>
      <trkpt lat="45.7458830" lon="8.3429290">
        <ele>641.8200000</ele>
        <time>2010-03-12T09:00:03Z</time>
      </trkpt>
      <trkpt lat="45.7459680" lon="8.3425200">
        <ele>644.2200000</ele>
        <time>2010-03-12T09:00:19Z</time>
      </trkpt>
      <trkpt lat="45.7460740" lon="8.3421730">
        <ele>645.1800000</ele>
        <time>2010-03-12T09:00:33Z</time>
      </trkpt>
      <trkpt lat="45.7462390" lon="8.3419050">
        <ele>647.1000000</ele>
        <time>2010-03-12T09:00:46Z</time>
      </trkpt>
      <trkpt lat="45.7465450" lon="8.3419910">
        <ele>648.5500000</ele>
        <time>2010-03-12T09:01:00Z</time>
      </trkpt>
      <trkpt lat="45.7468400" lon="8.3422370">
        <ele>649.9900000</ele>
        <time>2010-03-12T09:01:15Z</time>
      </trkpt>
      <trkpt lat="45.7470800" lon="8.3425750">
        <ele>649.5100000</ele>
        <time>2010-03-12T09:01:29Z</time>
      </trkpt>
      <trkpt lat="45.7471740" lon="8.3429500">
        <ele>649.5100000</ele>
        <time>2010-03-12T09:01:40Z</time>
      </trkpt>
      <trkpt lat="45.7473490" lon="8.3436180">
        <ele>649.9900000</ele>
        <time>2010-03-12T09:01:58Z</time>
      </trkpt>
      <trkpt lat="45.7475170" lon="8.3439820">
        <ele>650.9500000</ele>
        <time>2010-03-12T09:02:10Z</time>
      </trkpt>
      <trkpt lat="45.7477680" lon="8.3440930">
        <ele>651.4300000</ele>
        <time>2010-03-12T09:02:21Z</time>
      </trkpt>
      <trkpt lat="45.7480100" lon="8.3436700">
        <ele>652.3900000</ele>
        <time>2010-03-12T09:02:35Z</time>
      </trkpt>
      <trkpt lat="45.7482310" lon="8.3432350">
        <ele>652.3900000</ele>
        <time>2010-03-12T09:02:48Z</time>
      </trkpt>
      <trkpt lat="45.7485250" lon="8.3426650">
        <ele>652.3900000</ele>
        <time>2010-03-12T09:03:04Z</time>
      </trkpt>
      <trkpt lat="45.7488680" lon="8.3421610">
        <ele>652.8700000</ele>
        <time>2010-03-12T09:03:20Z</time>
      </trkpt>
      <trkpt lat="45.7492220" lon="8.3420010">
        <ele>653.8300000</ele>
        <time>2010-03-12T09:03:33Z</time>
      </trkpt>
      <trkpt lat="45.7495390" lon="8.3420630">
        <ele>654.3100000</ele>
        <time>2010-03-12T09:03:44Z</time>
      </trkpt>
      <trkpt lat="45.7496790" lon="8.3422620">
        <ele>655.7600000</ele>
        <time>2010-03-12T09:03:50Z</time>
      </trkpt>
      <trkpt lat="45.7496890" lon="8.3422940">
        <ele>655.7600000</ele>
        <time>2010-03-12T09:03:51Z</time>
      </trkpt>
      <trkpt lat="45.7496970" lon="8.3423230">
        <ele>655.7600000</ele>
        <time>2010-03-12T09:03:52Z</time>
      </trkpt>
      <trkpt lat="45.7497370" lon="8.3424040">
        <ele>656.2400000</ele>
        <time>2010-03-12T09:03:57Z</time>
      </trkpt>
      <trkpt lat="45.7497690" lon="8.3424290">
        <ele>655.7600000</ele>
        <time>2010-03-12T09:03:58Z</time>
      </trkpt>
      <trkpt lat="45.7498070" lon="8.3424430">
        <ele>656.2400000</ele>
        <time>2010-03-12T09:03:59Z</time>
      </trkpt>
      <trkpt lat="45.7498430" lon="8.3424520">
        <ele>655.7600000</ele>
        <time>2010-03-12T09:04:00Z</time>
      </trkpt>
      <trkpt lat="45.7498770" lon="8.3424510">
        <ele>656.2400000</ele>
        <time>2010-03-12T09:04:01Z</time>
      </trkpt>
      <trkpt lat="45.7499050" lon="8.3424390">
        <ele>656.7200000</ele>
        <time>2010-03-12T09:04:02Z</time>
      </trkpt>
      <trkpt lat="45.7499310" lon="8.3424210">
        <ele>656.7200000</ele>
        <time>2010-03-12T09:04:03Z</time>
      </trkpt>
      <trkpt lat="45.7499500" lon="8.3423980">
        <ele>657.2000000</ele>
        <time>2010-03-12T09:04:04Z</time>
      </trkpt>
      <trkpt lat="45.7499670" lon="8.3423680">
        <ele>656.7200000</ele>
        <time>2010-03-12T09:04:05Z</time>
      </trkpt>
      <trkpt lat="45.7500750" lon="8.3421280">
        <ele>657.6800000</ele>
        <time>2010-03-12T09:04:12Z</time>
      </trkpt>
      <trkpt lat="45.7500920" lon="8.3421030">
        <ele>657.6800000</ele>
        <time>2010-03-12T09:04:13Z</time>
      </trkpt>
      <trkpt lat="45.7501090" lon="8.3420750">
        <ele>657.6800000</ele>
        <time>2010-03-12T09:04:14Z</time>
      </trkpt>
      <trkpt lat="45.7501310" lon="8.3420520">
        <ele>657.6800000</ele>
        <time>2010-03-12T09:04:15Z</time>
      </trkpt>
      <trkpt lat="45.7501560" lon="8.3420390">
        <ele>657.6800000</ele>
        <time>2010-03-12T09:04:16Z</time>
      </trkpt>
      <trkpt lat="45.7501830" lon="8.3420380">
        <ele>657.6800000</ele>
        <time>2010-03-12T09:04:17Z</time>
      </trkpt>
      <trkpt lat="45.7502120" lon="8.3420440">
        <ele>658.1600000</ele>
        <time>2010-03-12T09:04:18Z</time>
      </trkpt>
      <trkpt lat="45.7502420" lon="8.3420560">
        <ele>658.1600000</ele>
        <time>2010-03-12T09:04:19Z</time>
      </trkpt>
      <trkpt lat="45.7502720" lon="8.3420740">
        <ele>658.1600000</ele>
        <time>2010-03-12T09:04:20Z</time>
      </trkpt>
      <trkpt lat="45.7502990" lon="8.3420940">
        <ele>658.6400000</ele>
        <time>2010-03-12T09:04:21Z</time>
      </trkpt>
      <trkpt lat="45.7503270" lon="8.3421140">
        <ele>658.6400000</ele>
        <time>2010-03-12T09:04:22Z</time>
      </trkpt>
      <trkpt lat="45.7503550" lon="8.3421330">
        <ele>658.1600000</ele>
        <time>2010-03-12T09:04:23Z</time>
      </trkpt>
      <trkpt lat="45.7503830" lon="8.3421520">
        <ele>658.1600000</ele>
        <time>2010-03-12T09:04:24Z</time>
      </trkpt>
      <trkpt lat="45.7504090" lon="8.3421670">
        <ele>658.1600000</ele>
        <time>2010-03-12T09:04:25Z</time>
      </trkpt>
      <trkpt lat="45.7507130" lon="8.3423220">
        <ele>659.1200000</ele>
        <time>2010-03-12T09:04:36Z</time>
      </trkpt>
      <trkpt lat="45.7510110" lon="8.3424430">
        <ele>659.6000000</ele>
        <time>2010-03-12T09:04:47Z</time>
      </trkpt>
      <trkpt lat="45.7512800" lon="8.3425420">
        <ele>660.0800000</ele>
        <time>2010-03-12T09:04:57Z</time>
      </trkpt>
      <trkpt lat="45.7513110" lon="8.3425300">
        <ele>660.0800000</ele>
        <time>2010-03-12T09:04:58Z</time>
      </trkpt>
      <trkpt lat="45.7513410" lon="8.3425140">
        <ele>660.0800000</ele>
        <time>2010-03-12T09:04:59Z</time>
      </trkpt>
      <trkpt lat="45.7513670" lon="8.3425040">
        <ele>660.0800000</ele>
        <time>2010-03-12T09:05:00Z</time>
      </trkpt>
      <trkpt lat="45.7514720" lon="8.3421010">
        <ele>660.5600000</ele>
        <time>2010-03-12T09:05:08Z</time>
      </trkpt>
      <trkpt lat="45.7514570" lon="8.3420490">
        <ele>661.0400000</ele>
        <time>2010-03-12T09:05:09Z</time>
      </trkpt>
      <trkpt lat="45.7512800" lon="8.3416970">
        <ele>663.9300000</ele>
        <time>2010-03-12T09:05:19Z</time>
      </trkpt>
      <trkpt lat="45.7512620" lon="8.3416630">
        <ele>663.4500000</ele>
        <time>2010-03-12T09:05:20Z</time>
      </trkpt>
      <trkpt lat="45.7510850" lon="8.3414070">
        <ele>664.4100000</ele>
        <time>2010-03-12T09:05:30Z</time>
      </trkpt>
      <trkpt lat="45.7508670" lon="8.3411560">
        <ele>666.3300000</ele>
        <time>2010-03-12T09:05:42Z</time>
      </trkpt>
      <trkpt lat="45.7508080" lon="8.3411110">
        <ele>666.8100000</ele>
        <time>2010-03-12T09:05:45Z</time>
      </trkpt>
      <trkpt lat="45.7507840" lon="8.3410920">
        <ele>667.2900000</ele>
        <time>2010-03-12T09:05:46Z</time>
      </trkpt>
      <trkpt lat="45.7507590" lon="8.3410740">
        <ele>667.2900000</ele>
        <time>2010-03-12T09:05:47Z</time>
      </trkpt>
      <trkpt lat="45.7507320" lon="8.3410530">
        <ele>668.2500000</ele>
        <time>2010-03-12T09:05:48Z</time>
      </trkpt>
      <trkpt lat="45.7507020" lon="8.3410310">
        <ele>668.7300000</ele>
        <time>2010-03-12T09:05:49Z</time>
      </trkpt>
      <trkpt lat="45.7506740" lon="8.3410100">
        <ele>668.2500000</ele>
        <time>2010-03-12T09:05:50Z</time>
      </trkpt>
      <trkpt lat="45.7506450" lon="8.3409940">
        <ele>667.7700000</ele>
        <time>2010-03-12T09:05:51Z</time>
      </trkpt>
      <trkpt lat="45.7502770" lon="8.3407020">
        <ele>671.1400000</ele>
        <time>2010-03-12T09:06:07Z</time>
      </trkpt>
      <trkpt lat="45.7500550" lon="8.3402690">
        <ele>671.6200000</ele>
        <time>2010-03-12T09:06:22Z</time>
      </trkpt>
      <trkpt lat="45.7500080" lon="8.3398190">
        <ele>673.5400000</ele>
        <time>2010-03-12T09:06:35Z</time>
      </trkpt>
      <trkpt lat="45.7502930" lon="8.3393870">
        <ele>674.0200000</ele>
        <time>2010-03-12T09:06:49Z</time>
      </trkpt>
      <trkpt lat="45.7503650" lon="8.3392590">
        <ele>674.5000000</ele>
        <time>2010-03-12T09:06:53Z</time>
      </trkpt>
      <trkpt lat="45.7503880" lon="8.3392410">
        <ele>674.5000000</ele>
        <time>2010-03-12T09:06:54Z</time>
      </trkpt>
      <trkpt lat="45.7504150" lon="8.3392330">
        <ele>674.5000000</ele>
        <time>2010-03-12T09:06:55Z</time>
      </trkpt>
      <trkpt lat="45.7504430" lon="8.3392350">
        <ele>674.5000000</ele>
        <time>2010-03-12T09:06:56Z</time>
      </trkpt>
      <trkpt lat="45.7504730" lon="8.3392420">
        <ele>674.5000000</ele>
        <time>2010-03-12T09:06:57Z</time>
      </trkpt>
      <trkpt lat="45.7508190" lon="8.3391160">
        <ele>674.5000000</ele>
        <time>2010-03-12T09:07:09Z</time>
      </trkpt>
      <trkpt lat="45.7512010" lon="8.3389780">
        <ele>675.4600000</ele>
        <time>2010-03-12T09:07:22Z</time>
      </trkpt>
      <trkpt lat="45.7516080" lon="8.3391880">
        <ele>676.4200000</ele>
        <time>2010-03-12T09:07:36Z</time>
      </trkpt>
      <trkpt lat="45.7519330" lon="8.3391080">
        <ele>676.4200000</ele>
        <time>2010-03-12T09:07:47Z</time>
      </trkpt>
      <trkpt lat="45.7522820" lon="8.3386720">
        <ele>677.8700000</ele>
        <time>2010-03-12T09:08:01Z</time>
      </trkpt>
      <trkpt lat="45.7527390" lon="8.3383420">
        <ele>680.2700000</ele>
        <time>2010-03-12T09:08:19Z</time>
      </trkpt>
      <trkpt lat="45.7529930" lon="8.3384540">
        <ele>682.1900000</ele>
        <time>2010-03-12T09:08:29Z</time>
      </trkpt>
      <trkpt lat="45.7532700" lon="8.3386830">
        <ele>683.6300000</ele>
        <time>2010-03-12T09:08:41Z</time>
      </trkpt>
      <trkpt lat="45.7536530" lon="8.3387170">
        <ele>685.0800000</ele>
        <time>2010-03-12T09:08:56Z</time>
      </trkpt>
      <trkpt lat="45.7540340" lon="8.3386990">
        <ele>686.5200000</ele>
        <time>2010-03-12T09:09:11Z</time>
      </trkpt>
      <trkpt lat="45.7541560" lon="8.3388160">
        <ele>687.4800000</ele>
        <time>2010-03-12T09:09:17Z</time>
      </trkpt>
      <trkpt lat="45.7541800" lon="8.3388380">
        <ele>687.4800000</ele>
        <time>2010-03-12T09:09:18Z</time>
      </trkpt>
      <trkpt lat="45.7542040" lon="8.3388650">
        <ele>687.4800000</ele>
        <time>2010-03-12T09:09:19Z</time>
      </trkpt>
      <trkpt lat="45.7545080" lon="8.3388410">
        <ele>689.4000000</ele>
        <time>2010-03-12T09:09:32Z</time>
      </trkpt>
      <trkpt lat="45.7547590" lon="8.3388070">
        <ele>690.8400000</ele>
        <time>2010-03-12T09:09:43Z</time>
      </trkpt>
      <trkpt lat="45.7550530" lon="8.3391050">
        <ele>693.2500000</ele>
        <time>2010-03-12T09:09:57Z</time>
      </trkpt>
      <trkpt lat="45.7553260" lon="8.3392900">
        <ele>694.6900000</ele>
        <time>2010-03-12T09:10:10Z</time>
      </trkpt>
      <trkpt lat="45.7555450" lon="8.3389870">
        <ele>695.6500000</ele>
        <time>2010-03-12T09:10:22Z</time>
      </trkpt>
      <trkpt lat="45.7557600" lon="8.3384780">
        <ele>697.5700000</ele>
        <time>2010-03-12T09:10:39Z</time>
      </trkpt>
      <trkpt lat="45.7558670" lon="8.3380960">
        <ele>698.5300000</ele>
        <time>2010-03-12T09:10:51Z</time>
      </trkpt>
      <trkpt lat="45.7558800" lon="8.3380730">
        <ele>699.0200000</ele>
        <time>2010-03-12T09:10:52Z</time>
      </trkpt>
      <trkpt lat="45.7561380" lon="8.3377320">
        <ele>700.9400000</ele>
        <time>2010-03-12T09:11:08Z</time>
      </trkpt>
      <trkpt lat="45.7563550" lon="8.3375560">
        <ele>701.4200000</ele>
        <time>2010-03-12T09:11:19Z</time>
      </trkpt>
      <trkpt lat="45.7566810" lon="8.3374740">
        <ele>703.3400000</ele>
        <time>2010-03-12T09:11:34Z</time>
      </trkpt>
      <trkpt lat="45.7569360" lon="8.3377590">
        <ele>705.7500000</ele>
        <time>2010-03-12T09:11:48Z</time>
      </trkpt>
      <trkpt lat="45.7570990" lon="8.3381230">
        <ele>706.7100000</ele>
        <time>2010-03-12T09:12:02Z</time>
      </trkpt>
      <trkpt lat="45.7573740" lon="8.3381690">
        <ele>707.6700000</ele>
        <time>2010-03-12T09:12:14Z</time>
      </trkpt>
      <trkpt lat="45.7576980" lon="8.3380240">
        <ele>709.5900000</ele>
        <time>2010-03-12T09:12:30Z</time>
      </trkpt>
      <trkpt lat="45.7579370" lon="8.3383310">
        <ele>711.9900000</ele>
        <time>2010-03-12T09:12:44Z</time>
      </trkpt>
      <trkpt lat="45.7581830" lon="8.3385250">
        <ele>712.9500000</ele>
        <time>2010-03-12T09:12:57Z</time>
      </trkpt>
      <trkpt lat="45.7584850" lon="8.3386480">
        <ele>713.9200000</ele>
        <time>2010-03-12T09:13:11Z</time>
      </trkpt>
      <trkpt lat="45.7588430" lon="8.3388910">
        <ele>713.9200000</ele>
        <time>2010-03-12T09:13:26Z</time>
      </trkpt>
      <trkpt lat="45.7592830" lon="8.3388050">
        <ele>714.4000000</ele>
        <time>2010-03-12T09:13:42Z</time>
      </trkpt>
      <trkpt lat="45.7596980" lon="8.3389410">
        <ele>714.4000000</ele>
        <time>2010-03-12T09:13:57Z</time>
      </trkpt>
      <trkpt lat="45.7601280" lon="8.3392270">
        <ele>713.9200000</ele>
        <time>2010-03-12T09:14:14Z</time>
      </trkpt>
      <trkpt lat="45.7605180" lon="8.3395340">
        <ele>714.8800000</ele>
        <time>2010-03-12T09:14:29Z</time>
      </trkpt>
      <trkpt lat="45.7608560" lon="8.3396860">
        <ele>716.8000000</ele>
        <time>2010-03-12T09:14:43Z</time>
      </trkpt>
      <trkpt lat="45.7611140" lon="8.3400430">
        <ele>719.2000000</ele>
        <time>2010-03-12T09:14:59Z</time>
      </trkpt>
      <trkpt lat="45.7612420" lon="8.3403060">
        <ele>722.5700000</ele>
        <time>2010-03-12T09:15:11Z</time>
      </trkpt>
      <trkpt lat="45.7614590" lon="8.3405100">
        <ele>724.9700000</ele>
        <time>2010-03-12T09:15:26Z</time>
      </trkpt>
      <trkpt lat="45.7617080" lon="8.3407230">
        <ele>727.8600000</ele>
        <time>2010-03-12T09:15:43Z</time>
      </trkpt>
      <trkpt lat="45.7619870" lon="8.3409570">
        <ele>730.2600000</ele>
        <time>2010-03-12T09:16:02Z</time>
      </trkpt>
      <trkpt lat="45.7621720" lon="8.3411330">
        <ele>731.2200000</ele>
        <time>2010-03-12T09:16:15Z</time>
      </trkpt>
      <trkpt lat="45.7623140" lon="8.3413210">
        <ele>734.1000000</ele>
        <time>2010-03-12T09:16:27Z</time>
      </trkpt>
      <trkpt lat="45.7623220" lon="8.3413410">
        <ele>734.1000000</ele>
        <time>2010-03-12T09:16:28Z</time>
      </trkpt>
      <trkpt lat="45.7623250" lon="8.3414080">
        <ele>734.5800000</ele>
        <time>2010-03-12T09:16:31Z</time>
      </trkpt>
      <trkpt lat="45.7623090" lon="8.3414210">
        <ele>734.5800000</ele>
        <time>2010-03-12T09:16:32Z</time>
      </trkpt>
      <trkpt lat="45.7622880" lon="8.3414240">
        <ele>735.0700000</ele>
        <time>2010-03-12T09:16:33Z</time>
      </trkpt>
      <trkpt lat="45.7622670" lon="8.3414230">
        <ele>734.5800000</ele>
        <time>2010-03-12T09:16:34Z</time>
      </trkpt>
      <trkpt lat="45.7622470" lon="8.3414190">
        <ele>735.0700000</ele>
        <time>2010-03-12T09:16:35Z</time>
      </trkpt>
      <trkpt lat="45.7622290" lon="8.3414110">
        <ele>735.0700000</ele>
        <time>2010-03-12T09:16:36Z</time>
      </trkpt>
      <trkpt lat="45.7622110" lon="8.3414040">
        <ele>735.0700000</ele>
        <time>2010-03-12T09:16:37Z</time>
      </trkpt>
      <trkpt lat="45.7621900" lon="8.3413940">
        <ele>735.0700000</ele>
        <time>2010-03-12T09:16:38Z</time>
      </trkpt>
      <trkpt lat="45.7619830" lon="8.3413710">
        <ele>736.0300000</ele>
        <time>2010-03-12T09:16:49Z</time>
      </trkpt>
      <trkpt lat="45.7619750" lon="8.3413940">
        <ele>736.0300000</ele>
        <time>2010-03-12T09:16:50Z</time>
      </trkpt>
      <trkpt lat="45.7619740" lon="8.3414240">
        <ele>736.0300000</ele>
        <time>2010-03-12T09:16:51Z</time>
      </trkpt>
      <trkpt lat="45.7619790" lon="8.3414530">
        <ele>736.5100000</ele>
        <time>2010-03-12T09:16:52Z</time>
      </trkpt>
      <trkpt lat="45.7619870" lon="8.3414790">
        <ele>736.9900000</ele>
        <time>2010-03-12T09:16:53Z</time>
      </trkpt>
      <trkpt lat="45.7619970" lon="8.3415000">
        <ele>736.9900000</ele>
        <time>2010-03-12T09:16:54Z</time>
      </trkpt>
      <trkpt lat="45.7620080" lon="8.3415220">
        <ele>737.4700000</ele>
        <time>2010-03-12T09:16:55Z</time>
      </trkpt>
      <trkpt lat="45.7622080" lon="8.3415920">
        <ele>738.4300000</ele>
        <time>2010-03-12T09:17:06Z</time>
      </trkpt>
      <trkpt lat="45.7623220" lon="8.3417000">
        <ele>740.8300000</ele>
        <time>2010-03-12T09:17:14Z</time>
      </trkpt>
      <trkpt lat="45.7622650" lon="8.3417780">
        <ele>741.3100000</ele>
        <time>2010-03-12T09:17:18Z</time>
      </trkpt>
      <trkpt lat="45.7619830" lon="8.3416710">
        <ele>742.7600000</ele>
        <time>2010-03-12T09:17:33Z</time>
      </trkpt>
      <trkpt lat="45.7617260" lon="8.3415400">
        <ele>744.6800000</ele>
        <time>2010-03-12T09:17:48Z</time>
      </trkpt>
      <trkpt lat="45.7615900" lon="8.3414810">
        <ele>746.6000000</ele>
        <time>2010-03-12T09:17:56Z</time>
      </trkpt>
      <trkpt lat="45.7616050" lon="8.3416310">
        <ele>748.0400000</ele>
        <time>2010-03-12T09:18:03Z</time>
      </trkpt>
      <trkpt lat="45.7618330" lon="8.3417680">
        <ele>749.0000000</ele>
        <time>2010-03-12T09:18:17Z</time>
      </trkpt>
      <trkpt lat="45.7620540" lon="8.3419440">
        <ele>751.4100000</ele>
        <time>2010-03-12T09:18:31Z</time>
      </trkpt>
      <trkpt lat="45.7621850" lon="8.3420810">
        <ele>754.7700000</ele>
        <time>2010-03-12T09:18:40Z</time>
      </trkpt>
      <trkpt lat="45.7622640" lon="8.3423680">
        <ele>756.6900000</ele>
        <time>2010-03-12T09:18:53Z</time>
      </trkpt>
      <trkpt lat="45.7623050" lon="8.3424750">
        <ele>757.1800000</ele>
        <time>2010-03-12T09:18:58Z</time>
      </trkpt>
      <trkpt lat="45.7623580" lon="8.3425220">
        <ele>758.1400000</ele>
        <time>2010-03-12T09:19:02Z</time>
      </trkpt>
      <trkpt lat="45.7625020" lon="8.3425660">
        <ele>758.6200000</ele>
        <time>2010-03-12T09:19:10Z</time>
      </trkpt>
      <trkpt lat="45.7627060" lon="8.3426680">
        <ele>760.0600000</ele>
        <time>2010-03-12T09:19:22Z</time>
      </trkpt>
      <trkpt lat="45.7627240" lon="8.3427150">
        <ele>760.0600000</ele>
        <time>2010-03-12T09:19:24Z</time>
      </trkpt>
      <trkpt lat="45.7627970" lon="8.3429180">
        <ele>762.4600000</ele>
        <time>2010-03-12T09:19:37Z</time>
      </trkpt>
      <trkpt lat="45.7628140" lon="8.3429610">
        <ele>763.4200000</ele>
        <time>2010-03-12T09:19:40Z</time>
      </trkpt>
      <trkpt lat="45.7628180" lon="8.3430250">
        <ele>764.3900000</ele>
        <time>2010-03-12T09:19:44Z</time>
      </trkpt>
      <trkpt lat="45.7627550" lon="8.3430890">
        <ele>765.3500000</ele>
        <time>2010-03-12T09:19:51Z</time>
      </trkpt>
      <trkpt lat="45.7626950" lon="8.3430410">
        <ele>766.3100000</ele>
        <time>2010-03-12T09:19:57Z</time>
      </trkpt>
      <trkpt lat="45.7626610" lon="8.3429960">
        <ele>766.7900000</ele>
        <time>2010-03-12T09:20:01Z</time>
      </trkpt>
      <trkpt lat="45.7626490" lon="8.3429840">
        <ele>767.2700000</ele>
        <time>2010-03-12T09:20:02Z</time>
      </trkpt>
      <trkpt lat="45.7626060" lon="8.3428570">
        <ele>767.7500000</ele>
        <time>2010-03-12T09:20:09Z</time>
      </trkpt>
      <trkpt lat="45.7624620" lon="8.3428480">
        <ele>768.7100000</ele>
        <time>2010-03-12T09:20:18Z</time>
      </trkpt>
      <trkpt lat="45.7623920" lon="8.3429150">
        <ele>769.1900000</ele>
        <time>2010-03-12T09:20:22Z</time>
      </trkpt>
      <trkpt lat="45.7621430" lon="8.3429780">
        <ele>769.6700000</ele>
        <time>2010-03-12T09:20:35Z</time>
      </trkpt>
      <trkpt lat="45.7619270" lon="8.3428920">
        <ele>770.6300000</ele>
        <time>2010-03-12T09:20:45Z</time>
      </trkpt>
      <trkpt lat="45.7618840" lon="8.3429820">
        <ele>771.1100000</ele>
        <time>2010-03-12T09:20:50Z</time>
      </trkpt>
      <trkpt lat="45.7619640" lon="8.3430810">
        <ele>772.0800000</ele>
        <time>2010-03-12T09:20:57Z</time>
      </trkpt>
      <trkpt lat="45.7621580" lon="8.3431930">
        <ele>775.4400000</ele>
        <time>2010-03-12T09:21:12Z</time>
      </trkpt>
      <trkpt lat="45.7623160" lon="8.3433230">
        <ele>776.8800000</ele>
        <time>2010-03-12T09:21:24Z</time>
      </trkpt>
      <trkpt lat="45.7624810" lon="8.3434510">
        <ele>779.2900000</ele>
        <time>2010-03-12T09:21:38Z</time>
      </trkpt>
      <trkpt lat="45.7625590" lon="8.3435480">
        <ele>782.1700000</ele>
        <time>2010-03-12T09:21:47Z</time>
      </trkpt>
      <trkpt lat="45.7625420" lon="8.3436640">
        <ele>782.6500000</ele>
        <time>2010-03-12T09:21:52Z</time>
      </trkpt>
      <trkpt lat="45.7624830" lon="8.3437040">
        <ele>783.6100000</ele>
        <time>2010-03-12T09:21:57Z</time>
      </trkpt>
      <trkpt lat="45.7624110" lon="8.3436830">
        <ele>784.5700000</ele>
        <time>2010-03-12T09:22:02Z</time>
      </trkpt>
      <trkpt lat="45.7623700" lon="8.3436710">
        <ele>784.5700000</ele>
        <time>2010-03-12T09:22:05Z</time>
      </trkpt>
      <trkpt lat="45.7621990" lon="8.3436030">
        <ele>786.5000000</ele>
        <time>2010-03-12T09:22:18Z</time>
      </trkpt>
      <trkpt lat="45.7620070" lon="8.3435710">
        <ele>787.4600000</ele>
        <time>2010-03-12T09:22:30Z</time>
      </trkpt>
      <trkpt lat="45.7617910" lon="8.3437320">
        <ele>788.9000000</ele>
        <time>2010-03-12T09:22:43Z</time>
      </trkpt>
      <trkpt lat="45.7618080" lon="8.3439020">
        <ele>789.3800000</ele>
        <time>2010-03-12T09:22:50Z</time>
      </trkpt>
      <trkpt lat="45.7618570" lon="8.3439740">
        <ele>790.3400000</ele>
        <time>2010-03-12T09:22:54Z</time>
      </trkpt>
      <trkpt lat="45.7621080" lon="8.3440420">
        <ele>792.2600000</ele>
        <time>2010-03-12T09:23:08Z</time>
      </trkpt>
      <trkpt lat="45.7621350" lon="8.3440500">
        <ele>792.7400000</ele>
        <time>2010-03-12T09:23:10Z</time>
      </trkpt>
      <trkpt lat="45.7623340" lon="8.3440590">
        <ele>794.1900000</ele>
        <time>2010-03-12T09:23:23Z</time>
      </trkpt>
      <trkpt lat="45.7623950" lon="8.3440470">
        <ele>794.6700000</ele>
        <time>2010-03-12T09:23:27Z</time>
      </trkpt>
      <trkpt lat="45.7626120" lon="8.3440530">
        <ele>796.1100000</ele>
        <time>2010-03-12T09:23:41Z</time>
      </trkpt>
      <trkpt lat="45.7627630" lon="8.3440370">
        <ele>797.5500000</ele>
        <time>2010-03-12T09:23:52Z</time>
      </trkpt>
      <trkpt lat="45.7629290" lon="8.3440780">
        <ele>799.4700000</ele>
        <time>2010-03-12T09:24:21Z</time>
      </trkpt>
      <trkpt lat="45.7630790" lon="8.3441110">
        <ele>800.9200000</ele>
        <time>2010-03-12T09:24:30Z</time>
      </trkpt>
      <trkpt lat="45.7631760" lon="8.3441450">
        <ele>802.3600000</ele>
        <time>2010-03-12T09:24:36Z</time>
      </trkpt>
      <trkpt lat="45.7633140" lon="8.3442040">
        <ele>803.3200000</ele>
        <time>2010-03-12T09:24:46Z</time>
      </trkpt>
      <trkpt lat="45.7633540" lon="8.3442190">
        <ele>803.8000000</ele>
        <time>2010-03-12T09:24:49Z</time>
      </trkpt>
      <trkpt lat="45.7634640" lon="8.3442860">
        <ele>804.2800000</ele>
        <time>2010-03-12T09:24:56Z</time>
      </trkpt>
      <trkpt lat="45.7635090" lon="8.3443250">
        <ele>804.2800000</ele>
        <time>2010-03-12T09:24:59Z</time>
      </trkpt>
      <trkpt lat="45.7636670" lon="8.3444060">
        <ele>806.6800000</ele>
        <time>2010-03-12T09:25:11Z</time>
      </trkpt>
      <trkpt lat="45.7637600" lon="8.3444630">
        <ele>807.1600000</ele>
        <time>2010-03-12T09:25:17Z</time>
      </trkpt>
      <trkpt lat="45.7638780" lon="8.3445520">
        <ele>808.6100000</ele>
        <time>2010-03-12T09:25:26Z</time>
      </trkpt>
      <trkpt lat="45.7640220" lon="8.3446920">
        <ele>811.0100000</ele>
        <time>2010-03-12T09:25:38Z</time>
      </trkpt>
      <trkpt lat="45.7640730" lon="8.3447470">
        <ele>811.4900000</ele>
        <time>2010-03-12T09:25:43Z</time>
      </trkpt>
      <trkpt lat="45.7642700" lon="8.3449400">
        <ele>814.3700000</ele>
        <time>2010-03-12T09:25:58Z</time>
      </trkpt>
      <trkpt lat="45.7644280" lon="8.3451060">
        <ele>815.8200000</ele>
        <time>2010-03-12T09:26:11Z</time>
      </trkpt>
      <trkpt lat="45.7645470" lon="8.3453470">
        <ele>818.2200000</ele>
        <time>2010-03-12T09:26:26Z</time>
      </trkpt>
      <trkpt lat="45.7645940" lon="8.3453950">
        <ele>818.7000000</ele>
        <time>2010-03-12T09:26:30Z</time>
      </trkpt>
      <trkpt lat="45.7646940" lon="8.3455280">
        <ele>820.1400000</ele>
        <time>2010-03-12T09:26:39Z</time>
      </trkpt>
      <trkpt lat="45.7647340" lon="8.3455830">
        <ele>820.6200000</ele>
        <time>2010-03-12T09:26:43Z</time>
      </trkpt>
      <trkpt lat="45.7649120" lon="8.3457490">
        <ele>822.0600000</ele>
        <time>2010-03-12T09:26:57Z</time>
      </trkpt>
      <trkpt lat="45.7649660" lon="8.3458340">
        <ele>822.5500000</ele>
        <time>2010-03-12T09:27:03Z</time>
      </trkpt>
      <trkpt lat="45.7650210" lon="8.3460550">
        <ele>823.5100000</ele>
        <time>2010-03-12T09:27:16Z</time>
      </trkpt>
      <trkpt lat="45.7650170" lon="8.3460650">
        <ele>823.5100000</ele>
        <time>2010-03-12T09:27:17Z</time>
      </trkpt>
      <trkpt lat="45.7651580" lon="8.3465220">
        <ele>823.0300000</ele>
        <time>2010-03-12T09:27:28Z</time>
      </trkpt>
      <trkpt lat="45.7653010" lon="8.3466690">
        <ele>823.5100000</ele>
        <time>2010-03-12T09:27:35Z</time>
      </trkpt>
      <trkpt lat="45.7654620" lon="8.3469910">
        <ele>825.9100000</ele>
        <time>2010-03-12T09:27:48Z</time>
      </trkpt>
      <trkpt lat="45.7656450" lon="8.3471300">
        <ele>828.3100000</ele>
        <time>2010-03-12T09:28:00Z</time>
      </trkpt>
      <trkpt lat="45.7656550" lon="8.3471420">
        <ele>828.3100000</ele>
        <time>2010-03-12T09:28:01Z</time>
      </trkpt>
      <trkpt lat="45.7658260" lon="8.3472260">
        <ele>829.7600000</ele>
        <time>2010-03-12T09:28:14Z</time>
      </trkpt>
      <trkpt lat="45.7659070" lon="8.3472870">
        <ele>831.2000000</ele>
        <time>2010-03-12T09:28:21Z</time>
      </trkpt>
      <trkpt lat="45.7660330" lon="8.3473740">
        <ele>833.1200000</ele>
        <time>2010-03-12T09:28:32Z</time>
      </trkpt>
      <trkpt lat="45.7661130" lon="8.3474380">
        <ele>834.0800000</ele>
        <time>2010-03-12T09:28:39Z</time>
      </trkpt>
      <trkpt lat="45.7662480" lon="8.3475050">
        <ele>836.0000000</ele>
        <time>2010-03-12T09:28:51Z</time>
      </trkpt>
      <trkpt lat="45.7663100" lon="8.3475440">
        <ele>836.9600000</ele>
        <time>2010-03-12T09:28:56Z</time>
      </trkpt>
      <trkpt lat="45.7664530" lon="8.3475880">
        <ele>838.4100000</ele>
        <time>2010-03-12T09:29:06Z</time>
      </trkpt>
      <trkpt lat="45.7665590" lon="8.3477160">
        <ele>839.3700000</ele>
        <time>2010-03-12T09:29:16Z</time>
      </trkpt>
      <trkpt lat="45.7665860" lon="8.3477680">
        <ele>840.3300000</ele>
        <time>2010-03-12T09:29:21Z</time>
      </trkpt>
      <trkpt lat="45.7665930" lon="8.3478000">
        <ele>840.3300000</ele>
        <time>2010-03-12T09:29:23Z</time>
      </trkpt>
      <trkpt lat="45.7666070" lon="8.3478620">
        <ele>840.3300000</ele>
        <time>2010-03-12T09:29:26Z</time>
      </trkpt>
      <trkpt lat="45.7666740" lon="8.3479960">
        <ele>842.2500000</ele>
        <time>2010-03-12T09:29:38Z</time>
      </trkpt>
      <trkpt lat="45.7666870" lon="8.3480030">
        <ele>842.2500000</ele>
        <time>2010-03-12T09:30:06Z</time>
      </trkpt>
      <trkpt lat="45.7667750" lon="8.3480770">
        <ele>843.2100000</ele>
        <time>2010-03-12T09:30:15Z</time>
      </trkpt>
      <trkpt lat="45.7667870" lon="8.3480940">
        <ele>842.2500000</ele>
        <time>2010-03-12T09:30:17Z</time>
      </trkpt>
      <trkpt lat="45.7668900" lon="8.3481690">
        <ele>843.2100000</ele>
        <time>2010-03-12T09:30:26Z</time>
      </trkpt>
      <trkpt lat="45.7669880" lon="8.3482280">
        <ele>843.6900000</ele>
        <time>2010-03-12T09:30:38Z</time>
      </trkpt>
      <trkpt lat="45.7670560" lon="8.3484740">
        <ele>845.1400000</ele>
        <time>2010-03-12T09:30:49Z</time>
      </trkpt>
      <trkpt lat="45.7671430" lon="8.3486710">
        <ele>845.6200000</ele>
        <time>2010-03-12T09:30:57Z</time>
      </trkpt>
      <trkpt lat="45.7672400" lon="8.3487950">
        <ele>846.1000000</ele>
        <time>2010-03-12T09:31:06Z</time>
      </trkpt>
      <trkpt lat="45.7672890" lon="8.3488370">
        <ele>846.1000000</ele>
        <time>2010-03-12T09:31:09Z</time>
      </trkpt>
      <trkpt lat="45.7673720" lon="8.3489480">
        <ele>846.5800000</ele>
        <time>2010-03-12T09:31:14Z</time>
      </trkpt>
      <trkpt lat="45.7674700" lon="8.3490270">
        <ele>846.5800000</ele>
        <time>2010-03-12T09:31:20Z</time>
      </trkpt>
      <trkpt lat="45.7676350" lon="8.3490650">
        <ele>847.0600000</ele>
        <time>2010-03-12T09:31:30Z</time>
      </trkpt>
      <trkpt lat="45.7676650" lon="8.3490870">
        <ele>846.5800000</ele>
        <time>2010-03-12T09:31:32Z</time>
      </trkpt>
      <trkpt lat="45.7677320" lon="8.3491160">
        <ele>848.0200000</ele>
        <time>2010-03-12T09:31:37Z</time>
      </trkpt>
      <trkpt lat="45.7678350" lon="8.3490990">
        <ele>848.0200000</ele>
        <time>2010-03-12T09:31:43Z</time>
      </trkpt>
      <trkpt lat="45.7680610" lon="8.3490450">
        <ele>848.0200000</ele>
        <time>2010-03-12T09:31:56Z</time>
      </trkpt>
      <trkpt lat="45.7682960" lon="8.3489390">
        <ele>848.5000000</ele>
        <time>2010-03-12T09:32:08Z</time>
      </trkpt>
      <trkpt lat="45.7684110" lon="8.3488820">
        <ele>848.5000000</ele>
        <time>2010-03-12T09:32:17Z</time>
      </trkpt>
      <trkpt lat="45.7685650" lon="8.3487910">
        <ele>848.0200000</ele>
        <time>2010-03-12T09:32:26Z</time>
      </trkpt>
      <trkpt lat="45.7688030" lon="8.3488390">
        <ele>848.5000000</ele>
        <time>2010-03-12T09:32:37Z</time>
      </trkpt>
      <trkpt lat="45.7688680" lon="8.3488960">
        <ele>848.9800000</ele>
        <time>2010-03-12T09:32:41Z</time>
      </trkpt>
      <trkpt lat="45.7689910" lon="8.3490190">
        <ele>850.4200000</ele>
        <time>2010-03-12T09:32:51Z</time>
      </trkpt>
      <trkpt lat="45.7690380" lon="8.3490690">
        <ele>850.4200000</ele>
        <time>2010-03-12T09:32:54Z</time>
      </trkpt>
      <trkpt lat="45.7691440" lon="8.3492050">
        <ele>851.3800000</ele>
        <time>2010-03-12T09:33:03Z</time>
      </trkpt>
      <trkpt lat="45.7693260" lon="8.3493040">
        <ele>852.8300000</ele>
        <time>2010-03-12T09:33:16Z</time>
      </trkpt>
      <trkpt lat="45.7695160" lon="8.3493150">
        <ele>853.7900000</ele>
        <time>2010-03-12T09:33:28Z</time>
      </trkpt>
      <trkpt lat="45.7696550" lon="8.3492750">
        <ele>854.7500000</ele>
        <time>2010-03-12T09:33:37Z</time>
      </trkpt>
      <trkpt lat="45.7698290" lon="8.3492880">
        <ele>855.7100000</ele>
        <time>2010-03-12T09:33:49Z</time>
      </trkpt>
      <trkpt lat="45.7699570" lon="8.3493590">
        <ele>856.6700000</ele>
        <time>2010-03-12T09:33:57Z</time>
      </trkpt>
      <trkpt lat="45.7701080" lon="8.3495500">
        <ele>858.5900000</ele>
        <time>2010-03-12T09:34:12Z</time>
      </trkpt>
      <trkpt lat="45.7702230" lon="8.3497010">
        <ele>860.0400000</ele>
        <time>2010-03-12T09:34:23Z</time>
      </trkpt>
      <trkpt lat="45.7703640" lon="8.3498630">
        <ele>862.4400000</ele>
        <time>2010-03-12T09:34:37Z</time>
      </trkpt>
      <trkpt lat="45.7703980" lon="8.3499030">
        <ele>862.9200000</ele>
        <time>2010-03-12T09:34:40Z</time>
      </trkpt>
      <trkpt lat="45.7704440" lon="8.3499570">
        <ele>863.8800000</ele>
        <time>2010-03-12T09:34:45Z</time>
      </trkpt>
      <trkpt lat="45.7704910" lon="8.3499800">
        <ele>864.3600000</ele>
        <time>2010-03-12T09:34:49Z</time>
      </trkpt>
      <trkpt lat="45.7706170" lon="8.3500200">
        <ele>865.8000000</ele>
        <time>2010-03-12T09:34:59Z</time>
      </trkpt>
      <trkpt lat="45.7707870" lon="8.3500750">
        <ele>867.7300000</ele>
        <time>2010-03-12T09:35:12Z</time>
      </trkpt>
      <trkpt lat="45.7709430" lon="8.3500670">
        <ele>868.6900000</ele>
        <time>2010-03-12T09:35:24Z</time>
      </trkpt>
      <trkpt lat="45.7711390" lon="8.3500260">
        <ele>869.6500000</ele>
        <time>2010-03-12T09:35:37Z</time>
      </trkpt>
      <trkpt lat="45.7712210" lon="8.3500280">
        <ele>871.0900000</ele>
        <time>2010-03-12T09:35:44Z</time>
      </trkpt>
      <trkpt lat="45.7712700" lon="8.3500410">
        <ele>871.0900000</ele>
        <time>2010-03-12T09:35:48Z</time>
      </trkpt>
      <trkpt lat="45.7714010" lon="8.3500840">
        <ele>872.0500000</ele>
        <time>2010-03-12T09:35:57Z</time>
      </trkpt>
      <trkpt lat="45.7715290" lon="8.3501360">
        <ele>873.0100000</ele>
        <time>2010-03-12T09:36:07Z</time>
      </trkpt>
      <trkpt lat="45.7716500" lon="8.3502510">
        <ele>873.9800000</ele>
        <time>2010-03-12T09:36:18Z</time>
      </trkpt>
      <trkpt lat="45.7716660" lon="8.3502630">
        <ele>874.4600000</ele>
        <time>2010-03-12T09:36:19Z</time>
      </trkpt>
      <trkpt lat="45.7716960" lon="8.3502780">
        <ele>873.9800000</ele>
        <time>2010-03-12T09:36:21Z</time>
      </trkpt>
      <trkpt lat="45.7718530" lon="8.3504170">
        <ele>875.4200000</ele>
        <time>2010-03-12T09:36:34Z</time>
      </trkpt>
      <trkpt lat="45.7719700" lon="8.3505180">
        <ele>876.8600000</ele>
        <time>2010-03-12T09:36:47Z</time>
      </trkpt>
      <trkpt lat="45.7720580" lon="8.3506760">
        <ele>877.8200000</ele>
        <time>2010-03-12T09:36:57Z</time>
      </trkpt>
      <trkpt lat="45.7720290" lon="8.3507540">
        <ele>878.7800000</ele>
        <time>2010-03-12T09:37:46Z</time>
      </trkpt>
      <trkpt lat="45.7720000" lon="8.3507580">
        <ele>878.3000000</ele>
        <time>2010-03-12T09:37:51Z</time>
      </trkpt>
      <trkpt lat="45.7719430" lon="8.3508000">
        <ele>879.2600000</ele>
        <time>2010-03-12T09:38:00Z</time>
      </trkpt>
      <trkpt lat="45.7718080" lon="8.3508060">
        <ele>881.6700000</ele>
        <time>2010-03-12T09:38:18Z</time>
      </trkpt>
      <trkpt lat="45.7717520" lon="8.3508400">
        <ele>882.1500000</ele>
        <time>2010-03-12T09:38:26Z</time>
      </trkpt>
      <trkpt lat="45.7716080" lon="8.3509260">
        <ele>882.1500000</ele>
        <time>2010-03-12T09:38:42Z</time>
      </trkpt>
      <trkpt lat="45.7714870" lon="8.3510420">
        <ele>882.1500000</ele>
        <time>2010-03-12T09:38:56Z</time>
      </trkpt>
      <trkpt lat="45.7713810" lon="8.3511640">
        <ele>881.6700000</ele>
        <time>2010-03-12T09:39:10Z</time>
      </trkpt>
      <trkpt lat="45.7712750" lon="8.3512390">
        <ele>881.6700000</ele>
        <time>2010-03-12T09:39:24Z</time>
      </trkpt>
      <trkpt lat="45.7711700" lon="8.3513150">
        <ele>881.6700000</ele>
        <time>2010-03-12T09:39:38Z</time>
      </trkpt>
      <trkpt lat="45.7710660" lon="8.3513750">
        <ele>881.6700000</ele>
        <time>2010-03-12T09:39:52Z</time>
      </trkpt>
      <trkpt lat="45.7710320" lon="8.3514040">
        <ele>881.6700000</ele>
        <time>2010-03-12T09:40:13Z</time>
      </trkpt>
      <trkpt lat="45.7710050" lon="8.3514140">
        <ele>881.6700000</ele>
        <time>2010-03-12T09:40:36Z</time>
      </trkpt>
      <trkpt lat="45.7708610" lon="8.3515020">
        <ele>881.1900000</ele>
        <time>2010-03-12T09:40:52Z</time>
      </trkpt>
      <trkpt lat="45.7708150" lon="8.3515180">
        <ele>881.1900000</ele>
        <time>2010-03-12T09:41:10Z</time>
      </trkpt>
      <trkpt lat="45.7706440" lon="8.3516400">
        <ele>881.6700000</ele>
        <time>2010-03-12T09:41:29Z</time>
      </trkpt>
      <trkpt lat="45.7704970" lon="8.3516740">
        <ele>883.1100000</ele>
        <time>2010-03-12T09:41:46Z</time>
      </trkpt>
      <trkpt lat="45.7704110" lon="8.3516760">
        <ele>883.5900000</ele>
        <time>2010-03-12T09:41:58Z</time>
      </trkpt>
      <trkpt lat="45.7702780" lon="8.3517180">
        <ele>884.0700000</ele>
        <time>2010-03-12T09:42:11Z</time>
      </trkpt>
      <trkpt lat="45.7701460" lon="8.3518070">
        <ele>884.5500000</ele>
        <time>2010-03-12T09:42:26Z</time>
      </trkpt>
      <trkpt lat="45.7700770" lon="8.3518490">
        <ele>884.5500000</ele>
        <time>2010-03-12T09:42:35Z</time>
      </trkpt>
      <trkpt lat="45.7699970" lon="8.3519600">
        <ele>885.5100000</ele>
        <time>2010-03-12T09:42:48Z</time>
      </trkpt>
      <trkpt lat="45.7699410" lon="8.3520380">
        <ele>885.5100000</ele>
        <time>2010-03-12T09:43:01Z</time>
      </trkpt>
      <trkpt lat="45.7699040" lon="8.3520320">
        <ele>885.5100000</ele>
        <time>2010-03-12T09:43:17Z</time>
      </trkpt>
      <trkpt lat="45.7698830" lon="8.3520420">
        <ele>885.5100000</ele>
        <time>2010-03-12T09:43:20Z</time>
      </trkpt>
      <trkpt lat="45.7698550" lon="8.3520700">
        <ele>885.9900000</ele>
        <time>2010-03-12T09:43:24Z</time>
      </trkpt>
      <trkpt lat="45.7697510" lon="8.3522260">
        <ele>886.9500000</ele>
        <time>2010-03-12T09:43:36Z</time>
      </trkpt>
      <trkpt lat="45.7697290" lon="8.3522720">
        <ele>887.4300000</ele>
        <time>2010-03-12T09:43:42Z</time>
      </trkpt>
      <trkpt lat="45.7697020" lon="8.3524000">
        <ele>886.9500000</ele>
        <time>2010-03-12T09:43:54Z</time>
      </trkpt>
      <trkpt lat="45.7696730" lon="8.3525650">
        <ele>886.9500000</ele>
        <time>2010-03-12T09:47:40Z</time>
      </trkpt>
      <trkpt lat="45.7696710" lon="8.3527480">
        <ele>888.4000000</ele>
        <time>2010-03-12T09:47:51Z</time>
      </trkpt>
      <trkpt lat="45.7696720" lon="8.3529740">
        <ele>888.4000000</ele>
        <time>2010-03-12T09:48:05Z</time>
      </trkpt>
      <trkpt lat="45.7695900" lon="8.3531050">
        <ele>888.8800000</ele>
        <time>2010-03-12T09:48:21Z</time>
      </trkpt>
      <trkpt lat="45.7694720" lon="8.3532040">
        <ele>889.3600000</ele>
        <time>2010-03-12T09:48:31Z</time>
      </trkpt>
      <trkpt lat="45.7693650" lon="8.3534410">
        <ele>890.8000000</ele>
        <time>2010-03-12T09:48:51Z</time>
      </trkpt>
      <trkpt lat="45.7693090" lon="8.3535440">
        <ele>891.2800000</ele>
        <time>2010-03-12T09:48:59Z</time>
      </trkpt>
      <trkpt lat="45.7692820" lon="8.3536590">
        <ele>892.2400000</ele>
        <time>2010-03-12T09:49:08Z</time>
      </trkpt>
      <trkpt lat="45.7692340" lon="8.3537640">
        <ele>892.7200000</ele>
        <time>2010-03-12T09:49:19Z</time>
      </trkpt>
      <trkpt lat="45.7691110" lon="8.3539400">
        <ele>894.6400000</ele>
        <time>2010-03-12T09:49:38Z</time>
      </trkpt>
      <trkpt lat="45.7689930" lon="8.3540410">
        <ele>895.1200000</ele>
        <time>2010-03-12T09:49:52Z</time>
      </trkpt>
      <trkpt lat="45.7688960" lon="8.3540790">
        <ele>896.0900000</ele>
        <time>2010-03-12T09:50:06Z</time>
      </trkpt>
      <trkpt lat="45.7688120" lon="8.3541020">
        <ele>895.6100000</ele>
        <time>2010-03-12T09:50:16Z</time>
      </trkpt>
      <trkpt lat="45.7687360" lon="8.3542320">
        <ele>895.6100000</ele>
        <time>2010-03-12T09:50:30Z</time>
      </trkpt>
      <trkpt lat="45.7686840" lon="8.3543490">
        <ele>896.0900000</ele>
        <time>2010-03-12T09:50:41Z</time>
      </trkpt>
      <trkpt lat="45.7686740" lon="8.3545290">
        <ele>896.0900000</ele>
        <time>2010-03-12T09:51:04Z</time>
      </trkpt>
      <trkpt lat="45.7686820" lon="8.3545790">
        <ele>896.0900000</ele>
        <time>2010-03-12T09:51:09Z</time>
      </trkpt>
      <trkpt lat="45.7686070" lon="8.3547390">
        <ele>896.5700000</ele>
        <time>2010-03-12T09:51:22Z</time>
      </trkpt>
      <trkpt lat="45.7685990" lon="8.3547470">
        <ele>896.5700000</ele>
        <time>2010-03-12T09:51:24Z</time>
      </trkpt>
      <trkpt lat="45.7685460" lon="8.3548010">
        <ele>896.5700000</ele>
        <time>2010-03-12T09:51:29Z</time>
      </trkpt>
      <trkpt lat="45.7684300" lon="8.3549260">
        <ele>896.5700000</ele>
        <time>2010-03-12T09:51:42Z</time>
      </trkpt>
      <trkpt lat="45.7684240" lon="8.3549470">
        <ele>899.9300000</ele>
        <time>2010-03-12T09:54:23Z</time>
      </trkpt>
      <trkpt lat="45.7684240" lon="8.3549470">
        <ele>896.0900000</ele>
        <time>2010-03-12T09:54:24Z</time>
      </trkpt>
      <trkpt lat="45.7684240" lon="8.3549480">
        <ele>889.3600000</ele>
        <time>2010-03-12T09:54:48Z</time>
      </trkpt>
      <trkpt lat="45.7684240" lon="8.3549480">
        <ele>896.0900000</ele>
        <time>2010-03-12T09:54:49Z</time>
      </trkpt>
      <trkpt lat="45.7684240" lon="8.3549480">
        <ele>899.4500000</ele>
        <time>2010-03-12T09:54:52Z</time>
      </trkpt>
      <trkpt lat="45.7684240" lon="8.3549480">
        <ele>896.5700000</ele>
        <time>2010-03-12T09:54:53Z</time>
      </trkpt>
      <trkpt lat="45.7684240" lon="8.3549480">
        <ele>893.6800000</ele>
        <time>2010-03-12T09:55:19Z</time>
      </trkpt>
      <trkpt lat="45.7684240" lon="8.3549480">
        <ele>896.5700000</ele>
        <time>2010-03-12T09:55:23Z</time>
      </trkpt>
      <trkpt lat="45.7684150" lon="8.3549610">
        <ele>893.2000000</ele>
        <time>2010-03-12T10:00:47Z</time>
      </trkpt>
      <trkpt lat="45.7682850" lon="8.3550590">
        <ele>894.1600000</ele>
        <time>2010-03-12T10:01:18Z</time>
      </trkpt>
      <trkpt lat="45.7681680" lon="8.3551350">
        <ele>893.6800000</ele>
        <time>2010-03-12T10:01:28Z</time>
      </trkpt>
      <trkpt lat="45.7680770" lon="8.3551980">
        <ele>893.6800000</ele>
        <time>2010-03-12T10:01:41Z</time>
      </trkpt>
      <trkpt lat="45.7680410" lon="8.3551970">
        <ele>893.6800000</ele>
        <time>2010-03-12T10:01:44Z</time>
      </trkpt>
      <trkpt lat="45.7679310" lon="8.3550780">
        <ele>894.1600000</ele>
        <time>2010-03-12T10:01:53Z</time>
      </trkpt>
      <trkpt lat="45.7677900" lon="8.3549560">
        <ele>894.1600000</ele>
        <time>2010-03-12T10:02:04Z</time>
      </trkpt>
      <trkpt lat="45.7676320" lon="8.3548930">
        <ele>894.6400000</ele>
        <time>2010-03-12T10:02:18Z</time>
      </trkpt>
      <trkpt lat="45.7675330" lon="8.3548640">
        <ele>895.1200000</ele>
        <time>2010-03-12T10:02:29Z</time>
      </trkpt>
      <trkpt lat="45.7674530" lon="8.3548490">
        <ele>895.1200000</ele>
        <time>2010-03-12T10:02:39Z</time>
      </trkpt>
      <trkpt lat="45.7673440" lon="8.3548580">
        <ele>896.0900000</ele>
        <time>2010-03-12T10:02:50Z</time>
      </trkpt>
      <trkpt lat="45.7672340" lon="8.3548980">
        <ele>897.0500000</ele>
        <time>2010-03-12T10:03:00Z</time>
      </trkpt>
      <trkpt lat="45.7671270" lon="8.3549670">
        <ele>898.0100000</ele>
        <time>2010-03-12T10:03:13Z</time>
      </trkpt>
      <trkpt lat="45.7670370" lon="8.3550140">
        <ele>898.9700000</ele>
        <time>2010-03-12T10:03:25Z</time>
      </trkpt>
      <trkpt lat="45.7669540" lon="8.3550880">
        <ele>898.9700000</ele>
        <time>2010-03-12T10:03:41Z</time>
      </trkpt>
      <trkpt lat="45.7668710" lon="8.3551080">
        <ele>899.9300000</ele>
        <time>2010-03-12T10:03:57Z</time>
      </trkpt>
      <trkpt lat="45.7667080" lon="8.3551310">
        <ele>899.9300000</ele>
        <time>2010-03-12T10:04:13Z</time>
      </trkpt>
      <trkpt lat="45.7666030" lon="8.3550470">
        <ele>900.4100000</ele>
        <time>2010-03-12T10:04:42Z</time>
      </trkpt>
      <trkpt lat="45.7664840" lon="8.3550240">
        <ele>900.4100000</ele>
        <time>2010-03-12T10:04:55Z</time>
      </trkpt>
      <trkpt lat="45.7663960" lon="8.3549660">
        <ele>901.3700000</ele>
        <time>2010-03-12T10:05:08Z</time>
      </trkpt>
      <trkpt lat="45.7663520" lon="8.3549720">
        <ele>901.3700000</ele>
        <time>2010-03-12T10:05:22Z</time>
      </trkpt>
      <trkpt lat="45.7663570" lon="8.3549790">
        <ele>899.9300000</ele>
        <time>2010-03-12T10:05:30Z</time>
      </trkpt>
      <trkpt lat="45.7663230" lon="8.3550670">
        <ele>899.9300000</ele>
        <time>2010-03-12T10:11:15Z</time>
      </trkpt>
      <trkpt lat="45.7663120" lon="8.3551180">
        <ele>905.2200000</ele>
        <time>2010-03-12T10:11:22Z</time>
      </trkpt>
      <trkpt lat="45.7663120" lon="8.3551180">
        <ele>899.9300000</ele>
        <time>2010-03-12T10:11:23Z</time>
      </trkpt>
      <trkpt lat="45.7663120" lon="8.3551180">
        <ele>906.6600000</ele>
        <time>2010-03-12T10:11:24Z</time>
      </trkpt>
      <trkpt lat="45.7663120" lon="8.3551180">
        <ele>900.4100000</ele>
        <time>2010-03-12T10:11:25Z</time>
      </trkpt>
      <trkpt lat="45.7663120" lon="8.3551180">
        <ele>911.4700000</ele>
        <time>2010-03-12T10:11:29Z</time>
      </trkpt>
      <trkpt lat="45.7663120" lon="8.3551180">
        <ele>900.4100000</ele>
        <time>2010-03-12T10:11:30Z</time>
      </trkpt>
      <trkpt lat="45.7663120" lon="8.3551180">
        <ele>904.2600000</ele>
        <time>2010-03-12T10:11:32Z</time>
      </trkpt>
      <trkpt lat="45.7663120" lon="8.3551180">
        <ele>900.8900000</ele>
        <time>2010-03-12T10:11:33Z</time>
      </trkpt>
      <trkpt lat="45.7663120" lon="8.3551180">
        <ele>905.7000000</ele>
        <time>2010-03-12T10:11:35Z</time>
      </trkpt>
      <trkpt lat="45.7663120" lon="8.3551180">
        <ele>900.4100000</ele>
        <time>2010-03-12T10:11:36Z</time>
      </trkpt>
      <trkpt lat="45.7662790" lon="8.3551120">
        <ele>898.9700000</ele>
        <time>2010-03-12T10:12:17Z</time>
      </trkpt>
      <trkpt lat="45.7661680" lon="8.3550220">
        <ele>895.6100000</ele>
        <time>2010-03-12T10:12:26Z</time>
      </trkpt>
      <trkpt lat="45.7661590" lon="8.3550090">
        <ele>894.1600000</ele>
        <time>2010-03-12T10:12:41Z</time>
      </trkpt>
      <trkpt lat="45.7660760" lon="8.3550530">
        <ele>891.7600000</ele>
        <time>2010-03-12T10:12:51Z</time>
      </trkpt>
      <trkpt lat="45.7660290" lon="8.3550780">
        <ele>890.8000000</ele>
        <time>2010-03-12T10:12:54Z</time>
      </trkpt>
      <trkpt lat="45.7659730" lon="8.3551050">
        <ele>887.4300000</ele>
        <time>2010-03-12T10:12:59Z</time>
      </trkpt>
      <trkpt lat="45.7659430" lon="8.3552990">
        <ele>885.0300000</ele>
        <time>2010-03-12T10:13:10Z</time>
      </trkpt>
      <trkpt lat="45.7659460" lon="8.3554230">
        <ele>882.6300000</ele>
        <time>2010-03-12T10:13:14Z</time>
      </trkpt>
      <trkpt lat="45.7660090" lon="8.3556330">
        <ele>877.8200000</ele>
        <time>2010-03-12T10:13:21Z</time>
      </trkpt>
      <trkpt lat="45.7660420" lon="8.3557260">
        <ele>875.4200000</ele>
        <time>2010-03-12T10:13:25Z</time>
      </trkpt>
      <trkpt lat="45.7660470" lon="8.3557700">
        <ele>874.9400000</ele>
        <time>2010-03-12T10:13:27Z</time>
      </trkpt>
      <trkpt lat="45.7659000" lon="8.3558980">
        <ele>871.0900000</ele>
        <time>2010-03-12T10:13:34Z</time>
      </trkpt>
      <trkpt lat="45.7657350" lon="8.3559930">
        <ele>868.6900000</ele>
        <time>2010-03-12T10:13:40Z</time>
      </trkpt>
      <trkpt lat="45.7655670" lon="8.3561440">
        <ele>865.3200000</ele>
        <time>2010-03-12T10:13:46Z</time>
      </trkpt>
      <trkpt lat="45.7654700" lon="8.3563120">
        <ele>860.0400000</ele>
        <time>2010-03-12T10:13:52Z</time>
      </trkpt>
      <trkpt lat="45.7653710" lon="8.3564600">
        <ele>857.1500000</ele>
        <time>2010-03-12T10:13:57Z</time>
      </trkpt>
      <trkpt lat="45.7653340" lon="8.3565190">
        <ele>856.1900000</ele>
        <time>2010-03-12T10:13:59Z</time>
      </trkpt>
      <trkpt lat="45.7652830" lon="8.3565730">
        <ele>854.7500000</ele>
        <time>2010-03-12T10:14:02Z</time>
      </trkpt>
      <trkpt lat="45.7654200" lon="8.3567810">
        <ele>854.7500000</ele>
        <time>2010-03-12T10:14:27Z</time>
      </trkpt>
      <trkpt lat="45.7653500" lon="8.3568350">
        <ele>851.3800000</ele>
        <time>2010-03-12T10:14:34Z</time>
      </trkpt>
      <trkpt lat="45.7653230" lon="8.3568720">
        <ele>849.9400000</ele>
        <time>2010-03-12T10:14:36Z</time>
      </trkpt>
      <trkpt lat="45.7653160" lon="8.3569610">
        <ele>848.5000000</ele>
        <time>2010-03-12T10:14:38Z</time>
      </trkpt>
      <trkpt lat="45.7652600" lon="8.3570900">
        <ele>848.0200000</ele>
        <time>2010-03-12T10:14:42Z</time>
      </trkpt>
      <trkpt lat="45.7650880" lon="8.3571040">
        <ele>846.1000000</ele>
        <time>2010-03-12T10:14:49Z</time>
      </trkpt>
      <trkpt lat="45.7649960" lon="8.3571560">
        <ele>843.2100000</ele>
        <time>2010-03-12T10:14:54Z</time>
      </trkpt>
      <trkpt lat="45.7649740" lon="8.3571980">
        <ele>842.2500000</ele>
        <time>2010-03-12T10:14:56Z</time>
      </trkpt>
      <trkpt lat="45.7649830" lon="8.3574390">
        <ele>840.8100000</ele>
        <time>2010-03-12T10:15:03Z</time>
      </trkpt>
      <trkpt lat="45.7649230" lon="8.3576360">
        <ele>840.8100000</ele>
        <time>2010-03-12T10:15:14Z</time>
      </trkpt>
      <trkpt lat="45.7648920" lon="8.3576580">
        <ele>840.3300000</ele>
        <time>2010-03-12T10:15:16Z</time>
      </trkpt>
      <trkpt lat="45.7647080" lon="8.3576640">
        <ele>837.9300000</ele>
        <time>2010-03-12T10:15:21Z</time>
      </trkpt>
      <trkpt lat="45.7646180" lon="8.3576980">
        <ele>835.5200000</ele>
        <time>2010-03-12T10:15:24Z</time>
      </trkpt>
      <trkpt lat="45.7644790" lon="8.3578290">
        <ele>831.6800000</ele>
        <time>2010-03-12T10:15:29Z</time>
      </trkpt>
      <trkpt lat="45.7644040" lon="8.3580060">
        <ele>829.2700000</ele>
        <time>2010-03-12T10:15:33Z</time>
      </trkpt>
      <trkpt lat="45.7643650" lon="8.3581330">
        <ele>826.8700000</ele>
        <time>2010-03-12T10:15:36Z</time>
      </trkpt>
      <trkpt lat="45.7643180" lon="8.3583310">
        <ele>823.5100000</ele>
        <time>2010-03-12T10:15:41Z</time>
      </trkpt>
      <trkpt lat="45.7643230" lon="8.3583740">
        <ele>823.0300000</ele>
        <time>2010-03-12T10:15:42Z</time>
      </trkpt>
      <trkpt lat="45.7644280" lon="8.3586290">
        <ele>820.6200000</ele>
        <time>2010-03-12T10:15:52Z</time>
      </trkpt>
      <trkpt lat="45.7644940" lon="8.3587430">
        <ele>821.1000000</ele>
        <time>2010-03-12T10:16:03Z</time>
      </trkpt>
      <trkpt lat="45.7645010" lon="8.3587470">
        <ele>820.6200000</ele>
        <time>2010-03-12T10:16:08Z</time>
      </trkpt>
      <trkpt lat="45.7645100" lon="8.3587990">
        <ele>821.1000000</ele>
        <time>2010-03-12T10:16:11Z</time>
      </trkpt>
      <trkpt lat="45.7645430" lon="8.3589390">
        <ele>818.7000000</ele>
        <time>2010-03-12T10:16:22Z</time>
      </trkpt>
      <trkpt lat="45.7645630" lon="8.3590930">
        <ele>817.2600000</ele>
        <time>2010-03-12T10:16:34Z</time>
      </trkpt>
      <trkpt lat="45.7646650" lon="8.3592150">
        <ele>813.8900000</ele>
        <time>2010-03-12T10:16:42Z</time>
      </trkpt>
      <trkpt lat="45.7646940" lon="8.3593140">
        <ele>810.0500000</ele>
        <time>2010-03-12T10:16:46Z</time>
      </trkpt>
      <trkpt lat="45.7647780" lon="8.3593360">
        <ele>809.0900000</ele>
        <time>2010-03-12T10:16:50Z</time>
      </trkpt>
      <trkpt lat="45.7648270" lon="8.3594090">
        <ele>806.2000000</ele>
        <time>2010-03-12T10:16:54Z</time>
      </trkpt>
      <trkpt lat="45.7649610" lon="8.3594400">
        <ele>804.7600000</ele>
        <time>2010-03-12T10:17:05Z</time>
      </trkpt>
      <trkpt lat="45.7649800" lon="8.3595080">
        <ele>808.1300000</ele>
        <time>2010-03-12T10:17:17Z</time>
      </trkpt>
      <trkpt lat="45.7649420" lon="8.3596150">
        <ele>808.1300000</ele>
        <time>2010-03-12T10:17:55Z</time>
      </trkpt>
      <trkpt lat="45.7649220" lon="8.3596280">
        <ele>808.6100000</ele>
        <time>2010-03-12T10:21:57Z</time>
      </trkpt>
      <trkpt lat="45.7648650" lon="8.3597070">
        <ele>806.6800000</ele>
        <time>2010-03-12T10:22:02Z</time>
      </trkpt>
      <trkpt lat="45.7648120" lon="8.3597680">
        <ele>805.2400000</ele>
        <time>2010-03-12T10:22:05Z</time>
      </trkpt>
      <trkpt lat="45.7646870" lon="8.3598210">
        <ele>800.4400000</ele>
        <time>2010-03-12T10:22:10Z</time>
      </trkpt>
      <trkpt lat="45.7644860" lon="8.3599660">
        <ele>797.0700000</ele>
        <time>2010-03-12T10:22:16Z</time>
      </trkpt>
      <trkpt lat="45.7643510" lon="8.3599950">
        <ele>795.1500000</ele>
        <time>2010-03-12T10:22:20Z</time>
      </trkpt>
      <trkpt lat="45.7642140" lon="8.3600220">
        <ele>793.2200000</ele>
        <time>2010-03-12T10:22:23Z</time>
      </trkpt>
      <trkpt lat="45.7641740" lon="8.3600340">
        <ele>792.7400000</ele>
        <time>2010-03-12T10:22:24Z</time>
      </trkpt>
      <trkpt lat="45.7639280" lon="8.3601880">
        <ele>791.3000000</ele>
        <time>2010-03-12T10:22:34Z</time>
      </trkpt>
      <trkpt lat="45.7639120" lon="8.3602150">
        <ele>790.8200000</ele>
        <time>2010-03-12T10:22:35Z</time>
      </trkpt>
      <trkpt lat="45.7637960" lon="8.3603200">
        <ele>787.9400000</ele>
        <time>2010-03-12T10:22:41Z</time>
      </trkpt>
      <trkpt lat="45.7637850" lon="8.3603440">
        <ele>786.9800000</ele>
        <time>2010-03-12T10:22:42Z</time>
      </trkpt>
      <trkpt lat="45.7637510" lon="8.3605120">
        <ele>783.1300000</ele>
        <time>2010-03-12T10:22:47Z</time>
      </trkpt>
      <trkpt lat="45.7637180" lon="8.3606570">
        <ele>780.2500000</ele>
        <time>2010-03-12T10:22:55Z</time>
      </trkpt>
      <trkpt lat="45.7636360" lon="8.3608730">
        <ele>776.4000000</ele>
        <time>2010-03-12T10:23:02Z</time>
      </trkpt>
      <trkpt lat="45.7635330" lon="8.3609730">
        <ele>772.5600000</ele>
        <time>2010-03-12T10:23:07Z</time>
      </trkpt>
      <trkpt lat="45.7635080" lon="8.3609960">
        <ele>772.0800000</ele>
        <time>2010-03-12T10:23:08Z</time>
      </trkpt>
      <trkpt lat="45.7634310" lon="8.3610330">
        <ele>771.1100000</ele>
        <time>2010-03-12T10:23:11Z</time>
      </trkpt>
      <trkpt lat="45.7633750" lon="8.3610600">
        <ele>769.6700000</ele>
        <time>2010-03-12T10:23:14Z</time>
      </trkpt>
      <trkpt lat="45.7632110" lon="8.3611580">
        <ele>765.8300000</ele>
        <time>2010-03-12T10:23:22Z</time>
      </trkpt>
      <trkpt lat="45.7631900" lon="8.3611660">
        <ele>765.3500000</ele>
        <time>2010-03-12T10:23:23Z</time>
      </trkpt>
      <trkpt lat="45.7631470" lon="8.3612850">
        <ele>765.3500000</ele>
        <time>2010-03-12T10:23:26Z</time>
      </trkpt>
      <trkpt lat="45.7631210" lon="8.3615340">
        <ele>763.4200000</ele>
        <time>2010-03-12T10:23:37Z</time>
      </trkpt>
      <trkpt lat="45.7630750" lon="8.3616750">
        <ele>760.5400000</ele>
        <time>2010-03-12T10:23:45Z</time>
      </trkpt>
      <trkpt lat="45.7630660" lon="8.3617580">
        <ele>759.1000000</ele>
        <time>2010-03-12T10:23:48Z</time>
      </trkpt>
      <trkpt lat="45.7630220" lon="8.3618340">
        <ele>757.1800000</ele>
        <time>2010-03-12T10:23:51Z</time>
      </trkpt>
      <trkpt lat="45.7629180" lon="8.3619450">
        <ele>754.2900000</ele>
        <time>2010-03-12T10:23:56Z</time>
      </trkpt>
      <trkpt lat="45.7628740" lon="8.3620170">
        <ele>752.3700000</ele>
        <time>2010-03-12T10:23:58Z</time>
      </trkpt>
      <trkpt lat="45.7627110" lon="8.3621150">
        <ele>749.4900000</ele>
        <time>2010-03-12T10:24:06Z</time>
      </trkpt>
      <trkpt lat="45.7626880" lon="8.3621080">
        <ele>749.0000000</ele>
        <time>2010-03-12T10:24:07Z</time>
      </trkpt>
      <trkpt lat="45.7626090" lon="8.3620750">
        <ele>746.6000000</ele>
        <time>2010-03-12T10:24:11Z</time>
      </trkpt>
      <trkpt lat="45.7625360" lon="8.3620750">
        <ele>744.2000000</ele>
        <time>2010-03-12T10:24:15Z</time>
      </trkpt>
      <trkpt lat="45.7624880" lon="8.3620910">
        <ele>742.7600000</ele>
        <time>2010-03-12T10:24:17Z</time>
      </trkpt>
      <trkpt lat="45.7624730" lon="8.3620890">
        <ele>742.2800000</ele>
        <time>2010-03-12T10:24:18Z</time>
      </trkpt>
      <trkpt lat="45.7624220" lon="8.3621890">
        <ele>740.3500000</ele>
        <time>2010-03-12T10:24:22Z</time>
      </trkpt>
      <trkpt lat="45.7624220" lon="8.3623170">
        <ele>737.9500000</ele>
        <time>2010-03-12T10:24:25Z</time>
      </trkpt>
      <trkpt lat="45.7624480" lon="8.3624470">
        <ele>736.5100000</ele>
        <time>2010-03-12T10:24:31Z</time>
      </trkpt>
      <trkpt lat="45.7624700" lon="8.3625460">
        <ele>733.1400000</ele>
        <time>2010-03-12T10:24:37Z</time>
      </trkpt>
      <trkpt lat="45.7624780" lon="8.3625670">
        <ele>733.1400000</ele>
        <time>2010-03-12T10:24:38Z</time>
      </trkpt>
      <trkpt lat="45.7624600" lon="8.3627500">
        <ele>728.8200000</ele>
        <time>2010-03-12T10:24:45Z</time>
      </trkpt>
      <trkpt lat="45.7624600" lon="8.3627720">
        <ele>728.8200000</ele>
        <time>2010-03-12T10:24:46Z</time>
      </trkpt>
      <trkpt lat="45.7624400" lon="8.3628200">
        <ele>727.8600000</ele>
        <time>2010-03-12T10:24:59Z</time>
      </trkpt>
      <trkpt lat="45.7624490" lon="8.3630440">
        <ele>726.4100000</ele>
        <time>2010-03-12T10:25:05Z</time>
      </trkpt>
      <trkpt lat="45.7626000" lon="8.3631660">
        <ele>724.4900000</ele>
        <time>2010-03-12T10:25:16Z</time>
      </trkpt>
      <trkpt lat="45.7626100" lon="8.3632230">
        <ele>724.0100000</ele>
        <time>2010-03-12T10:31:44Z</time>
      </trkpt>
      <trkpt lat="45.7625980" lon="8.3632570">
        <ele>723.0500000</ele>
        <time>2010-03-12T10:31:46Z</time>
      </trkpt>
      <trkpt lat="45.7624830" lon="8.3634110">
        <ele>722.0900000</ele>
        <time>2010-03-12T10:31:56Z</time>
      </trkpt>
      <trkpt lat="45.7624500" lon="8.3634750">
        <ele>725.4500000</ele>
        <time>2010-03-12T10:32:06Z</time>
      </trkpt>
      <trkpt lat="45.7624130" lon="8.3635990">
        <ele>724.9700000</ele>
        <time>2010-03-12T10:32:18Z</time>
      </trkpt>
      <trkpt lat="45.7622940" lon="8.3637760">
        <ele>722.0900000</ele>
        <time>2010-03-12T10:32:25Z</time>
      </trkpt>
      <trkpt lat="45.7622350" lon="8.3638780">
        <ele>721.1300000</ele>
        <time>2010-03-12T10:32:28Z</time>
      </trkpt>
      <trkpt lat="45.7621590" lon="8.3640760">
        <ele>719.6800000</ele>
        <time>2010-03-12T10:32:38Z</time>
      </trkpt>
      <trkpt lat="45.7621500" lon="8.3641410">
        <ele>718.2400000</ele>
        <time>2010-03-12T10:32:41Z</time>
      </trkpt>
      <trkpt lat="45.7620920" lon="8.3642630">
        <ele>714.8800000</ele>
        <time>2010-03-12T10:32:46Z</time>
      </trkpt>
      <trkpt lat="45.7620430" lon="8.3642980">
        <ele>711.5100000</ele>
        <time>2010-03-12T10:32:49Z</time>
      </trkpt>
      <trkpt lat="45.7620120" lon="8.3643220">
        <ele>708.6300000</ele>
        <time>2010-03-12T10:32:52Z</time>
      </trkpt>
      <trkpt lat="45.7618480" lon="8.3644950">
        <ele>704.3000000</ele>
        <time>2010-03-12T10:32:58Z</time>
      </trkpt>
      <trkpt lat="45.7617650" lon="8.3645760">
        <ele>702.8600000</ele>
        <time>2010-03-12T10:33:00Z</time>
      </trkpt>
      <trkpt lat="45.7616740" lon="8.3646910">
        <ele>701.4200000</ele>
        <time>2010-03-12T10:33:03Z</time>
      </trkpt>
      <trkpt lat="45.7616140" lon="8.3647870">
        <ele>700.9400000</ele>
        <time>2010-03-12T10:33:07Z</time>
      </trkpt>
      <trkpt lat="45.7614630" lon="8.3649270">
        <ele>698.0500000</ele>
        <time>2010-03-12T10:33:14Z</time>
      </trkpt>
      <trkpt lat="45.7612990" lon="8.3650290">
        <ele>695.1700000</ele>
        <time>2010-03-12T10:33:19Z</time>
      </trkpt>
      <trkpt lat="45.7612500" lon="8.3652990">
        <ele>694.6900000</ele>
        <time>2010-03-12T10:33:25Z</time>
      </trkpt>
      <trkpt lat="45.7611890" lon="8.3655050">
        <ele>695.6500000</ele>
        <time>2010-03-12T10:33:32Z</time>
      </trkpt>
      <trkpt lat="45.7611470" lon="8.3656270">
        <ele>696.1300000</ele>
        <time>2010-03-12T10:33:36Z</time>
      </trkpt>
      <trkpt lat="45.7611160" lon="8.3656860">
        <ele>697.0900000</ele>
        <time>2010-03-12T10:33:40Z</time>
      </trkpt>
      <trkpt lat="45.7610720" lon="8.3657530">
        <ele>697.0900000</ele>
        <time>2010-03-12T10:33:44Z</time>
      </trkpt>
      <trkpt lat="45.7609280" lon="8.3660780">
        <ele>697.0900000</ele>
        <time>2010-03-12T10:33:55Z</time>
      </trkpt>
      <trkpt lat="45.7607700" lon="8.3664610">
        <ele>697.5700000</ele>
        <time>2010-03-12T10:34:08Z</time>
      </trkpt>
      <trkpt lat="45.7606930" lon="8.3666080">
        <ele>698.0500000</ele>
        <time>2010-03-12T10:34:15Z</time>
      </trkpt>
      <trkpt lat="45.7606290" lon="8.3667590">
        <ele>695.1700000</ele>
        <time>2010-03-12T10:34:21Z</time>
      </trkpt>
      <trkpt lat="45.7606100" lon="8.3669250">
        <ele>690.8400000</ele>
        <time>2010-03-12T10:34:26Z</time>
      </trkpt>
      <trkpt lat="45.7605820" lon="8.3669850">
        <ele>689.4000000</ele>
        <time>2010-03-12T10:34:28Z</time>
      </trkpt>
      <trkpt lat="45.7605210" lon="8.3670400">
        <ele>687.9600000</ele>
        <time>2010-03-12T10:34:31Z</time>
      </trkpt>
      <trkpt lat="45.7604140" lon="8.3671450">
        <ele>683.6300000</ele>
        <time>2010-03-12T10:34:39Z</time>
      </trkpt>
      <trkpt lat="45.7604020" lon="8.3671680">
        <ele>682.6700000</ele>
        <time>2010-03-12T10:34:40Z</time>
      </trkpt>
      <trkpt lat="45.7603230" lon="8.3671970">
        <ele>680.7500000</ele>
        <time>2010-03-12T10:34:46Z</time>
      </trkpt>
      <trkpt lat="45.7602990" lon="8.3672240">
        <ele>678.3500000</ele>
        <time>2010-03-12T10:34:49Z</time>
      </trkpt>
      <trkpt lat="45.7602640" lon="8.3672700">
        <ele>676.9100000</ele>
        <time>2010-03-12T10:34:51Z</time>
      </trkpt>
      <trkpt lat="45.7602370" lon="8.3673340">
        <ele>675.4600000</ele>
        <time>2010-03-12T10:34:53Z</time>
      </trkpt>
      <trkpt lat="45.7602240" lon="8.3673520">
        <ele>675.4600000</ele>
        <time>2010-03-12T10:34:54Z</time>
      </trkpt>
      <trkpt lat="45.7601330" lon="8.3673760">
        <ele>674.5000000</ele>
        <time>2010-03-12T10:34:58Z</time>
      </trkpt>
      <trkpt lat="45.7599790" lon="8.3674020">
        <ele>669.7000000</ele>
        <time>2010-03-12T10:35:06Z</time>
      </trkpt>
      <trkpt lat="45.7599080" lon="8.3674210">
        <ele>667.2900000</ele>
        <time>2010-03-12T10:35:09Z</time>
      </trkpt>
      <trkpt lat="45.7598550" lon="8.3674280">
        <ele>665.3700000</ele>
        <time>2010-03-12T10:35:11Z</time>
      </trkpt>
      <trkpt lat="45.7598030" lon="8.3675380">
        <ele>662.0100000</ele>
        <time>2010-03-12T10:35:16Z</time>
      </trkpt>
      <trkpt lat="45.7598190" lon="8.3678230">
        <ele>658.1600000</ele>
        <time>2010-03-12T10:35:22Z</time>
      </trkpt>
      <trkpt lat="45.7599010" lon="8.3679340">
        <ele>655.7600000</ele>
        <time>2010-03-12T10:35:26Z</time>
      </trkpt>
      <trkpt lat="45.7599510" lon="8.3680950">
        <ele>652.8700000</ele>
        <time>2010-03-12T10:35:32Z</time>
      </trkpt>
      <trkpt lat="45.7599750" lon="8.3681710">
        <ele>651.4300000</ele>
        <time>2010-03-12T10:35:34Z</time>
      </trkpt>
      <trkpt lat="45.7599950" lon="8.3682490">
        <ele>650.4700000</ele>
        <time>2010-03-12T10:35:36Z</time>
      </trkpt>
      <trkpt lat="45.7600020" lon="8.3683970">
        <ele>648.5500000</ele>
        <time>2010-03-12T10:35:40Z</time>
      </trkpt>
      <trkpt lat="45.7599480" lon="8.3684730">
        <ele>646.6200000</ele>
        <time>2010-03-12T10:35:44Z</time>
      </trkpt>
      <trkpt lat="45.7598190" lon="8.3685720">
        <ele>643.7400000</ele>
        <time>2010-03-12T10:35:51Z</time>
      </trkpt>
      <trkpt lat="45.7597730" lon="8.3686210">
        <ele>641.3400000</ele>
        <time>2010-03-12T10:35:57Z</time>
      </trkpt>
      <trkpt lat="45.7596990" lon="8.3686500">
        <ele>637.9700000</ele>
        <time>2010-03-12T10:36:02Z</time>
      </trkpt>
      <trkpt lat="45.7595850" lon="8.3686470">
        <ele>635.0900000</ele>
        <time>2010-03-12T10:36:11Z</time>
      </trkpt>
      <trkpt lat="45.7596000" lon="8.3686210">
        <ele>635.5700000</ele>
        <time>2010-03-12T10:36:52Z</time>
      </trkpt>
      <trkpt lat="45.7594610" lon="8.3687270">
        <ele>634.1300000</ele>
        <time>2010-03-12T10:37:01Z</time>
      </trkpt>
      <trkpt lat="45.7593810" lon="8.3688380">
        <ele>633.1700000</ele>
        <time>2010-03-12T10:37:05Z</time>
      </trkpt>
      <trkpt lat="45.7592320" lon="8.3691390">
        <ele>629.3200000</ele>
        <time>2010-03-12T10:37:15Z</time>
      </trkpt>
      <trkpt lat="45.7591780" lon="8.3692230">
        <ele>628.3600000</ele>
        <time>2010-03-12T10:37:17Z</time>
      </trkpt>
      <trkpt lat="45.7591320" lon="8.3694160">
        <ele>626.4400000</ele>
        <time>2010-03-12T10:37:22Z</time>
      </trkpt>
      <trkpt lat="45.7591220" lon="8.3695440">
        <ele>624.0300000</ele>
        <time>2010-03-12T10:37:26Z</time>
      </trkpt>
      <trkpt lat="45.7589700" lon="8.3698180">
        <ele>620.1900000</ele>
        <time>2010-03-12T10:37:32Z</time>
      </trkpt>
      <trkpt lat="45.7589540" lon="8.3699980">
        <ele>619.7100000</ele>
        <time>2010-03-12T10:37:35Z</time>
      </trkpt>
      <trkpt lat="45.7588910" lon="8.3702090">
        <ele>617.7800000</ele>
        <time>2010-03-12T10:37:39Z</time>
      </trkpt>
      <trkpt lat="45.7588650" lon="8.3702890">
        <ele>616.8200000</ele>
        <time>2010-03-12T10:37:41Z</time>
      </trkpt>
      <trkpt lat="45.7587990" lon="8.3703590">
        <ele>615.3800000</ele>
        <time>2010-03-12T10:37:44Z</time>
      </trkpt>
      <trkpt lat="45.7586900" lon="8.3705290">
        <ele>612.5000000</ele>
        <time>2010-03-12T10:37:49Z</time>
      </trkpt>
      <trkpt lat="45.7585320" lon="8.3706840">
        <ele>609.6100000</ele>
        <time>2010-03-12T10:37:58Z</time>
      </trkpt>
      <trkpt lat="45.7584060" lon="8.3708580">
        <ele>606.7300000</ele>
        <time>2010-03-12T10:38:04Z</time>
      </trkpt>
      <trkpt lat="45.7583380" lon="8.3709300">
        <ele>605.7700000</ele>
        <time>2010-03-12T10:38:07Z</time>
      </trkpt>
      <trkpt lat="45.7582980" lon="8.3711000">
        <ele>603.3600000</ele>
        <time>2010-03-12T10:38:20Z</time>
      </trkpt>
      <trkpt lat="45.7582950" lon="8.3712020">
        <ele>600.4800000</ele>
        <time>2010-03-12T10:38:36Z</time>
      </trkpt>
      <trkpt lat="45.7583270" lon="8.3712700">
        <ele>597.6000000</ele>
        <time>2010-03-12T10:38:40Z</time>
      </trkpt>
      <trkpt lat="45.7583260" lon="8.3712870">
        <ele>597.1200000</ele>
        <time>2010-03-12T10:38:43Z</time>
      </trkpt>
      <trkpt lat="45.7583230" lon="8.3713300">
        <ele>595.6700000</ele>
        <time>2010-03-12T10:38:45Z</time>
      </trkpt>
      <trkpt lat="45.7583020" lon="8.3714890">
        <ele>592.3100000</ele>
        <time>2010-03-12T10:38:51Z</time>
      </trkpt>
      <trkpt lat="45.7582800" lon="8.3715900">
        <ele>590.3900000</ele>
        <time>2010-03-12T10:38:55Z</time>
      </trkpt>
      <trkpt lat="45.7582640" lon="8.3716490">
        <ele>589.9100000</ele>
        <time>2010-03-12T10:38:58Z</time>
      </trkpt>
      <trkpt lat="45.7582730" lon="8.3719020">
        <ele>585.5800000</ele>
        <time>2010-03-12T10:39:06Z</time>
      </trkpt>
      <trkpt lat="45.7582800" lon="8.3719410">
        <ele>584.6200000</ele>
        <time>2010-03-12T10:39:07Z</time>
      </trkpt>
      <trkpt lat="45.7582780" lon="8.3720320">
        <ele>583.1800000</ele>
        <time>2010-03-12T10:39:11Z</time>
      </trkpt>
      <trkpt lat="45.7582420" lon="8.3720700">
        <ele>581.7300000</ele>
        <time>2010-03-12T10:39:14Z</time>
      </trkpt>
      <trkpt lat="45.7582190" lon="8.3720770">
        <ele>579.8100000</ele>
        <time>2010-03-12T10:39:15Z</time>
      </trkpt>
      <trkpt lat="45.7581290" lon="8.3720970">
        <ele>577.4100000</ele>
        <time>2010-03-12T10:39:19Z</time>
      </trkpt>
      <trkpt lat="45.7580050" lon="8.3720860">
        <ele>574.5300000</ele>
        <time>2010-03-12T10:39:25Z</time>
      </trkpt>
      <trkpt lat="45.7579240" lon="8.3721710">
        <ele>571.1600000</ele>
        <time>2010-03-12T10:39:31Z</time>
      </trkpt>
      <trkpt lat="45.7578910" lon="8.3722240">
        <ele>568.2800000</ele>
        <time>2010-03-12T10:39:35Z</time>
      </trkpt>
      <trkpt lat="45.7578230" lon="8.3723040">
        <ele>564.9100000</ele>
        <time>2010-03-12T10:39:40Z</time>
      </trkpt>
      <trkpt lat="45.7577460" lon="8.3724170">
        <ele>562.0300000</ele>
        <time>2010-03-12T10:39:44Z</time>
      </trkpt>
      <trkpt lat="45.7576950" lon="8.3725270">
        <ele>559.6200000</ele>
        <time>2010-03-12T10:39:49Z</time>
      </trkpt>
      <trkpt lat="45.7576540" lon="8.3726100">
        <ele>558.1800000</ele>
        <time>2010-03-12T10:39:52Z</time>
      </trkpt>
      <trkpt lat="45.7576280" lon="8.3726760">
        <ele>556.7400000</ele>
        <time>2010-03-12T10:39:54Z</time>
      </trkpt>
      <trkpt lat="45.7575720" lon="8.3728660">
        <ele>552.9000000</ele>
        <time>2010-03-12T10:40:00Z</time>
      </trkpt>
      <trkpt lat="45.7575050" lon="8.3729060">
        <ele>552.4100000</ele>
        <time>2010-03-12T10:40:02Z</time>
      </trkpt>
      <trkpt lat="45.7573040" lon="8.3730050">
        <ele>552.4100000</ele>
        <time>2010-03-12T10:40:13Z</time>
      </trkpt>
      <trkpt lat="45.7572860" lon="8.3730290">
        <ele>551.9300000</ele>
        <time>2010-03-12T10:40:14Z</time>
      </trkpt>
      <trkpt lat="45.7571740" lon="8.3730690">
        <ele>550.0100000</ele>
        <time>2010-03-12T10:40:19Z</time>
      </trkpt>
      <trkpt lat="45.7571220" lon="8.3730390">
        <ele>549.0500000</ele>
        <time>2010-03-12T10:40:21Z</time>
      </trkpt>
      <trkpt lat="45.7570070" lon="8.3730280">
        <ele>546.6500000</ele>
        <time>2010-03-12T10:40:26Z</time>
      </trkpt>
      <trkpt lat="45.7569070" lon="8.3731810">
        <ele>543.2800000</ele>
        <time>2010-03-12T10:40:32Z</time>
      </trkpt>
      <trkpt lat="45.7568910" lon="8.3732160">
        <ele>542.3200000</ele>
        <time>2010-03-12T10:40:33Z</time>
      </trkpt>
      <trkpt lat="45.7568310" lon="8.3733720">
        <ele>540.8800000</ele>
        <time>2010-03-12T10:40:37Z</time>
      </trkpt>
      <trkpt lat="45.7568150" lon="8.3734720">
        <ele>539.9200000</ele>
        <time>2010-03-12T10:40:39Z</time>
      </trkpt>
      <trkpt lat="45.7567760" lon="8.3735970">
        <ele>538.4800000</ele>
        <time>2010-03-12T10:40:42Z</time>
      </trkpt>
      <trkpt lat="45.7567150" lon="8.3737150">
        <ele>537.5100000</ele>
        <time>2010-03-12T10:40:45Z</time>
      </trkpt>
      <trkpt lat="45.7566040" lon="8.3738250">
        <ele>536.0700000</ele>
        <time>2010-03-12T10:40:50Z</time>
      </trkpt>
      <trkpt lat="45.7565650" lon="8.3738640">
        <ele>534.6300000</ele>
        <time>2010-03-12T10:40:52Z</time>
      </trkpt>
      <trkpt lat="45.7565290" lon="8.3739280">
        <ele>533.1900000</ele>
        <time>2010-03-12T10:40:55Z</time>
      </trkpt>
      <trkpt lat="45.7564220" lon="8.3740540">
        <ele>529.3400000</ele>
        <time>2010-03-12T10:41:01Z</time>
      </trkpt>
      <trkpt lat="45.7564120" lon="8.3740730">
        <ele>528.8600000</ele>
        <time>2010-03-12T10:41:02Z</time>
      </trkpt>
      <trkpt lat="45.7564140" lon="8.3741440">
        <ele>527.9000000</ele>
        <time>2010-03-12T10:41:04Z</time>
      </trkpt>
      <trkpt lat="45.7564040" lon="8.3742930">
        <ele>525.5000000</ele>
        <time>2010-03-12T10:41:08Z</time>
      </trkpt>
      <trkpt lat="45.7563750" lon="8.3744430">
        <ele>520.6900000</ele>
        <time>2010-03-12T10:41:14Z</time>
      </trkpt>
      <trkpt lat="45.7563230" lon="8.3745910">
        <ele>516.8500000</ele>
        <time>2010-03-12T10:41:19Z</time>
      </trkpt>
      <trkpt lat="45.7563160" lon="8.3746220">
        <ele>516.8500000</ele>
        <time>2010-03-12T10:41:20Z</time>
      </trkpt>
      <trkpt lat="45.7563080" lon="8.3747020">
        <ele>514.9200000</ele>
        <time>2010-03-12T10:41:35Z</time>
      </trkpt>
      <trkpt lat="45.7562760" lon="8.3747700">
        <ele>511.0800000</ele>
        <time>2010-03-12T10:41:51Z</time>
      </trkpt>
      <trkpt lat="45.7562710" lon="8.3748260">
        <ele>509.1600000</ele>
        <time>2010-03-12T10:41:54Z</time>
      </trkpt>
      <trkpt lat="45.7562720" lon="8.3749190">
        <ele>507.2300000</ele>
        <time>2010-03-12T10:41:57Z</time>
      </trkpt>
      <trkpt lat="45.7562390" lon="8.3750170">
        <ele>503.8700000</ele>
        <time>2010-03-12T10:42:00Z</time>
      </trkpt>
      <trkpt lat="45.7562330" lon="8.3751440">
        <ele>501.9500000</ele>
        <time>2010-03-12T10:42:03Z</time>
      </trkpt>
      <trkpt lat="45.7562260" lon="8.3752250">
        <ele>500.9800000</ele>
        <time>2010-03-12T10:42:05Z</time>
      </trkpt>
      <trkpt lat="45.7562310" lon="8.3752850">
        <ele>500.0200000</ele>
        <time>2010-03-12T10:42:07Z</time>
      </trkpt>
      <trkpt lat="45.7562330" lon="8.3753080">
        <ele>499.5400000</ele>
        <time>2010-03-12T10:42:08Z</time>
      </trkpt>
      <trkpt lat="45.7562280" lon="8.3753540">
        <ele>498.1000000</ele>
        <time>2010-03-12T10:42:10Z</time>
      </trkpt>
      <trkpt lat="45.7562530" lon="8.3754480">
        <ele>495.7000000</ele>
        <time>2010-03-12T10:42:13Z</time>
      </trkpt>
      <trkpt lat="45.7562700" lon="8.3754980">
        <ele>494.7400000</ele>
        <time>2010-03-12T10:42:15Z</time>
      </trkpt>
      <trkpt lat="45.7563000" lon="8.3755590">
        <ele>491.8500000</ele>
        <time>2010-03-12T10:42:18Z</time>
      </trkpt>
      <trkpt lat="45.7563460" lon="8.3756020">
        <ele>490.8900000</ele>
        <time>2010-03-12T10:42:21Z</time>
      </trkpt>
      <trkpt lat="45.7563760" lon="8.3756850">
        <ele>487.5300000</ele>
        <time>2010-03-12T10:42:25Z</time>
      </trkpt>
      <trkpt lat="45.7563470" lon="8.3757970">
        <ele>483.6800000</ele>
        <time>2010-03-12T10:42:30Z</time>
      </trkpt>
      <trkpt lat="45.7563230" lon="8.3759320">
        <ele>479.8400000</ele>
        <time>2010-03-12T10:42:35Z</time>
      </trkpt>
      <trkpt lat="45.7563220" lon="8.3759700">
        <ele>478.8700000</ele>
        <time>2010-03-12T10:42:37Z</time>
      </trkpt>
      <trkpt lat="45.7563690" lon="8.3760010">
        <ele>478.3900000</ele>
        <time>2010-03-12T10:42:55Z</time>
      </trkpt>
      <trkpt lat="45.7564100" lon="8.3760430">
        <ele>477.9100000</ele>
        <time>2010-03-12T10:43:06Z</time>
      </trkpt>
      <trkpt lat="45.7564100" lon="8.3760400">
        <ele>477.4300000</ele>
        <time>2010-03-12T10:43:19Z</time>
      </trkpt>
      <trkpt lat="45.7564340" lon="8.3760040">
        <ele>477.9100000</ele>
        <time>2010-03-12T10:43:25Z</time>
      </trkpt>
      <trkpt lat="45.7564620" lon="8.3759820">
        <ele>477.4300000</ele>
        <time>2010-03-12T10:43:29Z</time>
      </trkpt>
      <trkpt lat="45.7565090" lon="8.3758560">
        <ele>478.3900000</ele>
        <time>2010-03-12T10:43:43Z</time>
      </trkpt>
      <trkpt lat="45.7565100" lon="8.3758310">
        <ele>477.9100000</ele>
        <time>2010-03-12T10:43:45Z</time>
      </trkpt>
      <trkpt lat="45.7566290" lon="8.3757220">
        <ele>478.8700000</ele>
        <time>2010-03-12T10:43:58Z</time>
      </trkpt>
      <trkpt lat="45.7567120" lon="8.3756710">
        <ele>479.8400000</ele>
        <time>2010-03-12T10:44:07Z</time>
      </trkpt>
      <trkpt lat="45.7568160" lon="8.3756160">
        <ele>480.3200000</ele>
        <time>2010-03-12T10:44:18Z</time>
      </trkpt>
      <trkpt lat="45.7568160" lon="8.3756160">
        <ele>480.3200000</ele>
        <time>2010-03-12T10:44:19Z</time>
      </trkpt>
      <trkpt lat="45.7568480" lon="8.3756180">
        <ele>480.8000000</ele>
        <time>2010-03-12T10:44:22Z</time>
      </trkpt>
      <trkpt lat="45.7569410" lon="8.3756120">
        <ele>480.8000000</ele>
        <time>2010-03-12T10:44:33Z</time>
      </trkpt>
      <trkpt lat="45.7570100" lon="8.3755910">
        <ele>479.8400000</ele>
        <time>2010-03-12T10:44:41Z</time>
      </trkpt>
      <trkpt lat="45.7570770" lon="8.3755890">
        <ele>479.3500000</ele>
        <time>2010-03-12T10:44:54Z</time>
      </trkpt>
      <trkpt lat="45.7570830" lon="8.3755940">
        <ele>479.8400000</ele>
        <time>2010-03-12T10:45:07Z</time>
      </trkpt>
      <trkpt lat="45.7570800" lon="8.3755710">
        <ele>479.3500000</ele>
        <time>2010-03-12T10:45:15Z</time>
      </trkpt>
      <trkpt lat="45.7570790" lon="8.3755780">
        <ele>479.8400000</ele>
        <time>2010-03-12T10:45:24Z</time>
      </trkpt>
      <trkpt lat="45.7571010" lon="8.3755740">
        <ele>479.8400000</ele>
        <time>2010-03-12T10:45:35Z</time>
      </trkpt>
      <trkpt lat="45.7571100" lon="8.3756380">
        <ele>480.3200000</ele>
        <time>2010-03-12T10:45:46Z</time>
      </trkpt>
      <trkpt lat="45.7569590" lon="8.3759670">
        <ele>479.3500000</ele>
        <time>2010-03-12T10:45:57Z</time>
      </trkpt>
      <trkpt lat="45.7567410" lon="8.3762530">
        <ele>478.3900000</ele>
        <time>2010-03-12T10:46:08Z</time>
      </trkpt>
      <trkpt lat="45.7567140" lon="8.3762970">
        <ele>478.3900000</ele>
        <time>2010-03-12T10:46:20Z</time>
      </trkpt>
      <trkpt lat="45.7567140" lon="8.3762970">
        <ele>478.3900000</ele>
        <time>2010-03-12T10:46:22Z</time>
      </trkpt>
      <trkpt lat="45.7565470" lon="8.3764140">
        <ele>475.9900000</ele>
        <time>2010-03-12T10:46:29Z</time>
      </trkpt>
      <trkpt lat="45.7563700" lon="8.3768110">
        <ele>475.0300000</ele>
        <time>2010-03-12T10:46:42Z</time>
      </trkpt>
      <trkpt lat="45.7563440" lon="8.3770520">
        <ele>473.1100000</ele>
        <time>2010-03-12T10:46:49Z</time>
      </trkpt>
      <trkpt lat="45.7563490" lon="8.3771980">
        <ele>472.6300000</ele>
        <time>2010-03-12T10:46:52Z</time>
      </trkpt>
      <trkpt lat="45.7565630" lon="8.3774240">
        <ele>472.6300000</ele>
        <time>2010-03-12T10:47:01Z</time>
      </trkpt>
      <trkpt lat="45.7564870" lon="8.3778170">
        <ele>471.1800000</ele>
        <time>2010-03-12T10:47:13Z</time>
      </trkpt>
      <trkpt lat="45.7564450" lon="8.3780470">
        <ele>468.7800000</ele>
        <time>2010-03-12T10:47:18Z</time>
      </trkpt>
      <trkpt lat="45.7564850" lon="8.3785540">
        <ele>467.3400000</ele>
        <time>2010-03-12T10:47:28Z</time>
      </trkpt>
      <trkpt lat="45.7565540" lon="8.3789050">
        <ele>452.4400000</ele>
        <time>2010-03-12T10:47:39Z</time>
      </trkpt>
      <trkpt lat="45.7565540" lon="8.3789050">
        <ele>470.2200000</ele>
        <time>2010-03-12T10:47:40Z</time>
      </trkpt>
      <trkpt lat="45.7565540" lon="8.3789050">
        <ele>464.9300000</ele>
        <time>2010-03-12T10:47:43Z</time>
      </trkpt>
      <trkpt lat="45.7565540" lon="8.3789050">
        <ele>475.0300000</ele>
        <time>2010-03-12T10:47:44Z</time>
      </trkpt>
      <trkpt lat="45.7565540" lon="8.3789050">
        <ele>454.8400000</ele>
        <time>2010-03-12T10:47:45Z</time>
      </trkpt>
      <trkpt lat="45.7565540" lon="8.3789050">
        <ele>475.0300000</ele>
        <time>2010-03-12T10:47:46Z</time>
      </trkpt>
      <trkpt lat="45.7565540" lon="8.3789050">
        <ele>467.3400000</ele>
        <time>2010-03-12T10:47:47Z</time>
      </trkpt>
      <trkpt lat="45.7565540" lon="8.3789050">
        <ele>461.0900000</ele>
        <time>2010-03-12T10:47:48Z</time>
      </trkpt>
      <trkpt lat="45.7565540" lon="8.3789050">
        <ele>467.8200000</ele>
        <time>2010-03-12T10:47:49Z</time>
      </trkpt>
      <trkpt lat="45.7565540" lon="8.3789050">
        <ele>466.8600000</ele>
        <time>2010-03-12T10:47:51Z</time>
      </trkpt>
      <trkpt lat="45.7565560" lon="8.3789840">
        <ele>466.8600000</ele>
        <time>2010-03-12T10:47:55Z</time>
      </trkpt>
      <trkpt lat="45.7566120" lon="8.3795720">
        <ele>465.9000000</ele>
        <time>2010-03-12T10:48:09Z</time>
      </trkpt>
      <trkpt lat="45.7565880" lon="8.3801680">
        <ele>465.4200000</ele>
        <time>2010-03-12T10:48:23Z</time>
      </trkpt>
      <trkpt lat="45.7564450" lon="8.3807520">
        <ele>463.9700000</ele>
        <time>2010-03-12T10:48:33Z</time>
      </trkpt>
      <trkpt lat="45.7564360" lon="8.3808090">
        <ele>463.4900000</ele>
        <time>2010-03-12T10:48:34Z</time>
      </trkpt>
      <trkpt lat="45.7564290" lon="8.3808680">
        <ele>463.0100000</ele>
        <time>2010-03-12T10:48:35Z</time>
      </trkpt>
      <trkpt lat="45.7564260" lon="8.3809220">
        <ele>463.0100000</ele>
        <time>2010-03-12T10:48:36Z</time>
      </trkpt>
      <trkpt lat="45.7564240" lon="8.3809690">
        <ele>463.0100000</ele>
        <time>2010-03-12T10:48:37Z</time>
      </trkpt>
      <trkpt lat="45.7564090" lon="8.3811370">
        <ele>462.5300000</ele>
        <time>2010-03-12T10:48:47Z</time>
      </trkpt>
      <trkpt lat="45.7564190" lon="8.3811720">
        <ele>462.5300000</ele>
        <time>2010-03-12T10:48:50Z</time>
      </trkpt>
      <trkpt lat="45.7564220" lon="8.3811920">
        <ele>462.5300000</ele>
        <time>2010-03-12T10:48:51Z</time>
      </trkpt>
      <trkpt lat="45.7564250" lon="8.3812190">
        <ele>462.5300000</ele>
        <time>2010-03-12T10:48:52Z</time>
      </trkpt>
      <trkpt lat="45.7564250" lon="8.3812480">
        <ele>462.5300000</ele>
        <time>2010-03-12T10:48:53Z</time>
      </trkpt>
      <trkpt lat="45.7564190" lon="8.3812770">
        <ele>462.5300000</ele>
        <time>2010-03-12T10:48:54Z</time>
      </trkpt>
      <trkpt lat="45.7564120" lon="8.3813080">
        <ele>462.0500000</ele>
        <time>2010-03-12T10:48:55Z</time>
      </trkpt>
      <trkpt lat="45.7563990" lon="8.3813390">
        <ele>462.5300000</ele>
        <time>2010-03-12T10:48:56Z</time>
      </trkpt>
      <trkpt lat="45.7564400" lon="8.3816370">
        <ele>461.5700000</ele>
        <time>2010-03-12T10:49:06Z</time>
      </trkpt>
      <trkpt lat="45.7568960" lon="8.3821640">
        <ele>460.1300000</ele>
        <time>2010-03-12T10:49:24Z</time>
      </trkpt>
      <trkpt lat="45.7569610" lon="8.3822470">
        <ele>459.6500000</ele>
        <time>2010-03-12T10:49:27Z</time>
      </trkpt>
      <trkpt lat="45.7569620" lon="8.3822860">
        <ele>459.1700000</ele>
        <time>2010-03-12T10:49:28Z</time>
      </trkpt>
      <trkpt lat="45.7569210" lon="8.3823710">
        <ele>459.1700000</ele>
        <time>2010-03-12T10:49:36Z</time>
      </trkpt>
      <trkpt lat="45.7569260" lon="8.3823920">
        <ele>459.1700000</ele>
        <time>2010-03-12T10:49:53Z</time>
      </trkpt>
      <trkpt lat="45.7569250" lon="8.3823850">
        <ele>463.0100000</ele>
        <time>2010-03-12T10:50:27Z</time>
      </trkpt>
      <trkpt lat="45.7569250" lon="8.3823850">
        <ele>447.6300000</ele>
        <time>2010-03-12T10:50:28Z</time>
      </trkpt>
      <trkpt lat="45.7569250" lon="8.3823850">
        <ele>461.5700000</ele>
        <time>2010-03-12T10:50:29Z</time>
      </trkpt>
      <trkpt lat="45.7569250" lon="8.3823850">
        <ele>445.7100000</ele>
        <time>2010-03-12T10:50:30Z</time>
      </trkpt>
      <trkpt lat="45.7569250" lon="8.3823850">
        <ele>461.5700000</ele>
        <time>2010-03-12T10:50:31Z</time>
      </trkpt>
      <trkpt lat="45.7569250" lon="8.3823850">
        <ele>457.2400000</ele>
        <time>2010-03-12T10:50:34Z</time>
      </trkpt>
      <trkpt lat="45.7569250" lon="8.3823850">
        <ele>460.6100000</ele>
        <time>2010-03-12T10:50:35Z</time>
      </trkpt>
      <trkpt lat="45.7569220" lon="8.3823860">
        <ele>456.2800000</ele>
        <time>2010-03-12T10:50:58Z</time>
      </trkpt>
      <trkpt lat="45.7569220" lon="8.3823860">
        <ele>460.1300000</ele>
        <time>2010-03-12T10:50:59Z</time>
      </trkpt>
      <trkpt lat="45.7569220" lon="8.3823860">
        <ele>463.4900000</ele>
        <time>2010-03-12T10:51:00Z</time>
      </trkpt>
      <trkpt lat="45.7569200" lon="8.3823860">
        <ele>460.1300000</ele>
        <time>2010-03-12T10:51:01Z</time>
      </trkpt>
      <trkpt lat="45.7569200" lon="8.3823860">
        <ele>460.1300000</ele>
        <time>2010-03-12T10:51:14Z</time>
      </trkpt>
      <trkpt lat="45.7569850" lon="8.3824740">
        <ele>468.3000000</ele>
        <time>2010-03-14T08:30:04Z</time>
      </trkpt>
      <trkpt lat="45.7570010" lon="8.3823950">
        <ele>469.7400000</ele>
        <time>2010-03-14T08:30:08Z</time>
      </trkpt>
      <trkpt lat="45.7570200" lon="8.3823550">
        <ele>469.7400000</ele>
        <time>2010-03-14T08:30:10Z</time>
      </trkpt>
      <trkpt lat="45.7569880" lon="8.3822160">
        <ele>470.2200000</ele>
        <time>2010-03-14T08:30:15Z</time>
      </trkpt>
      <trkpt lat="45.7565540" lon="8.3817000">
        <ele>471.6600000</ele>
        <time>2010-03-14T08:30:37Z</time>
      </trkpt>
      <trkpt lat="45.7561020" lon="8.3812090">
        <ele>472.1400000</ele>
        <time>2010-03-14T08:30:58Z</time>
      </trkpt>
      <trkpt lat="45.7556640" lon="8.3807420">
        <ele>472.6300000</ele>
        <time>2010-03-14T08:31:17Z</time>
      </trkpt>
      <trkpt lat="45.7552320" lon="8.3804450">
        <ele>473.5900000</ele>
        <time>2010-03-14T08:31:33Z</time>
      </trkpt>
      <trkpt lat="45.7547200" lon="8.3803180">
        <ele>474.5500000</ele>
        <time>2010-03-14T08:31:50Z</time>
      </trkpt>
      <trkpt lat="45.7541380" lon="8.3804050">
        <ele>474.5500000</ele>
        <time>2010-03-14T08:32:08Z</time>
      </trkpt>
      <trkpt lat="45.7535950" lon="8.3805370">
        <ele>475.5100000</ele>
        <time>2010-03-14T08:32:25Z</time>
      </trkpt>
      <trkpt lat="45.7529140" lon="8.3807030">
        <ele>477.4300000</ele>
        <time>2010-03-14T08:32:46Z</time>
      </trkpt>
      <trkpt lat="45.7522320" lon="8.3808710">
        <ele>480.3200000</ele>
        <time>2010-03-14T08:33:07Z</time>
      </trkpt>
      <trkpt lat="45.7514650" lon="8.3810750">
        <ele>480.8000000</ele>
        <time>2010-03-14T08:33:30Z</time>
      </trkpt>
      <trkpt lat="45.7507600" lon="8.3812380">
        <ele>481.2800000</ele>
        <time>2010-03-14T08:33:51Z</time>
      </trkpt>
      <trkpt lat="45.7500950" lon="8.3814210">
        <ele>481.7600000</ele>
        <time>2010-03-14T08:34:10Z</time>
      </trkpt>
      <trkpt lat="45.7492830" lon="8.3816200">
        <ele>482.2400000</ele>
        <time>2010-03-14T08:34:32Z</time>
      </trkpt>
      <trkpt lat="45.7487600" lon="8.3818520">
        <ele>482.7200000</ele>
        <time>2010-03-14T08:34:47Z</time>
      </trkpt>
      <trkpt lat="45.7482290" lon="8.3821310">
        <ele>483.2000000</ele>
        <time>2010-03-14T08:35:02Z</time>
      </trkpt>
      <trkpt lat="45.7477270" lon="8.3820710">
        <ele>483.6800000</ele>
        <time>2010-03-14T08:35:16Z</time>
      </trkpt>
      <trkpt lat="45.7471500" lon="8.3820380">
        <ele>484.6400000</ele>
        <time>2010-03-14T08:35:32Z</time>
      </trkpt>
      <trkpt lat="45.7469040" lon="8.3825470">
        <ele>484.6400000</ele>
        <time>2010-03-14T08:35:44Z</time>
      </trkpt>
      <trkpt lat="45.7466210" lon="8.3833400">
        <ele>485.6000000</ele>
        <time>2010-03-14T08:36:01Z</time>
      </trkpt>
      <trkpt lat="45.7461830" lon="8.3838430">
        <ele>486.5600000</ele>
        <time>2010-03-14T08:36:17Z</time>
      </trkpt>
      <trkpt lat="45.7457090" lon="8.3837090">
        <ele>488.0100000</ele>
        <time>2010-03-14T08:36:31Z</time>
      </trkpt>
      <trkpt lat="45.7452670" lon="8.3832440">
        <ele>488.4900000</ele>
        <time>2010-03-14T08:36:47Z</time>
      </trkpt>
      <trkpt lat="45.7452670" lon="8.3825730">
        <ele>490.4100000</ele>
        <time>2010-03-14T08:37:00Z</time>
      </trkpt>
      <trkpt lat="45.7451080" lon="8.3820300">
        <ele>490.8900000</ele>
        <time>2010-03-14T08:37:12Z</time>
      </trkpt>
      <trkpt lat="45.7449220" lon="8.3815430">
        <ele>491.8500000</ele>
        <time>2010-03-14T08:37:24Z</time>
      </trkpt>
      <trkpt lat="45.7449430" lon="8.3807230">
        <ele>494.2600000</ele>
        <time>2010-03-14T08:37:40Z</time>
      </trkpt>
      <trkpt lat="45.7449050" lon="8.3797280">
        <ele>496.1800000</ele>
        <time>2010-03-14T08:38:00Z</time>
      </trkpt>
      <trkpt lat="45.7447260" lon="8.3788910">
        <ele>497.6200000</ele>
        <time>2010-03-14T08:38:18Z</time>
      </trkpt>
      <trkpt lat="45.7444320" lon="8.3781680">
        <ele>498.1000000</ele>
        <time>2010-03-14T08:38:35Z</time>
      </trkpt>
      <trkpt lat="45.7441440" lon="8.3773820">
        <ele>499.5400000</ele>
        <time>2010-03-14T08:38:53Z</time>
      </trkpt>
      <trkpt lat="45.7440360" lon="8.3766840">
        <ele>500.9800000</ele>
        <time>2010-03-14T08:39:09Z</time>
      </trkpt>
      <trkpt lat="45.7439730" lon="8.3761750">
        <ele>502.9100000</ele>
        <time>2010-03-14T08:39:22Z</time>
      </trkpt>
      <trkpt lat="45.7439120" lon="8.3756760">
        <ele>504.8300000</ele>
        <time>2010-03-14T08:39:36Z</time>
      </trkpt>
      <trkpt lat="45.7439080" lon="8.3752020">
        <ele>506.7500000</ele>
        <time>2010-03-14T08:39:49Z</time>
      </trkpt>
      <trkpt lat="45.7440220" lon="8.3748440">
        <ele>508.1900000</ele>
        <time>2010-03-14T08:40:03Z</time>
      </trkpt>
      <trkpt lat="45.7440590" lon="8.3746770">
        <ele>509.1600000</ele>
        <time>2010-03-14T08:40:13Z</time>
      </trkpt>
      <trkpt lat="45.7440780" lon="8.3746080">
        <ele>509.1600000</ele>
        <time>2010-03-14T08:40:17Z</time>
      </trkpt>
      <trkpt lat="45.7440860" lon="8.3745680">
        <ele>509.1600000</ele>
        <time>2010-03-14T08:40:19Z</time>
      </trkpt>
      <trkpt lat="45.7441240" lon="8.3744940">
        <ele>509.6400000</ele>
        <time>2010-03-14T08:40:23Z</time>
      </trkpt>
      <trkpt lat="45.7442890" lon="8.3741660">
        <ele>511.0800000</ele>
        <time>2010-03-14T08:40:39Z</time>
      </trkpt>
      <trkpt lat="45.7444180" lon="8.3737380">
        <ele>512.5200000</ele>
        <time>2010-03-14T08:40:54Z</time>
      </trkpt>
      <trkpt lat="45.7445420" lon="8.3732780">
        <ele>514.4400000</ele>
        <time>2010-03-14T08:41:09Z</time>
      </trkpt>
      <trkpt lat="45.7446550" lon="8.3727480">
        <ele>515.4000000</ele>
        <time>2010-03-14T08:41:25Z</time>
      </trkpt>
      <trkpt lat="45.7449060" lon="8.3723850">
        <ele>516.8500000</ele>
        <time>2010-03-14T08:41:39Z</time>
      </trkpt>
      <trkpt lat="45.7451100" lon="8.3719900">
        <ele>518.7700000</ele>
        <time>2010-03-14T08:41:53Z</time>
      </trkpt>
      <trkpt lat="45.7448780" lon="8.3716640">
        <ele>520.2100000</ele>
        <time>2010-03-14T08:42:06Z</time>
      </trkpt>
      <trkpt lat="45.7445330" lon="8.3718660">
        <ele>522.1300000</ele>
        <time>2010-03-14T08:42:20Z</time>
      </trkpt>
      <trkpt lat="45.7442530" lon="8.3717920">
        <ele>524.5400000</ele>
        <time>2010-03-14T08:42:33Z</time>
      </trkpt>
      <trkpt lat="45.7441790" lon="8.3712180">
        <ele>526.4600000</ele>
        <time>2010-03-14T08:42:50Z</time>
      </trkpt>
      <trkpt lat="45.7440150" lon="8.3707170">
        <ele>528.8600000</ele>
        <time>2010-03-14T08:43:06Z</time>
      </trkpt>
      <trkpt lat="45.7439470" lon="8.3703450">
        <ele>529.8200000</ele>
        <time>2010-03-14T08:43:18Z</time>
      </trkpt>
      <trkpt lat="45.7439460" lon="8.3698250">
        <ele>532.2300000</ele>
        <time>2010-03-14T08:43:32Z</time>
      </trkpt>
      <trkpt lat="45.7439470" lon="8.3692460">
        <ele>534.6300000</ele>
        <time>2010-03-14T08:43:49Z</time>
      </trkpt>
      <trkpt lat="45.7438200" lon="8.3688540">
        <ele>536.0700000</ele>
        <time>2010-03-14T08:44:02Z</time>
      </trkpt>
      <trkpt lat="45.7437390" lon="8.3686020">
        <ele>537.0300000</ele>
        <time>2010-03-14T08:44:10Z</time>
      </trkpt>
      <trkpt lat="45.7437110" lon="8.3681570">
        <ele>538.4800000</ele>
        <time>2010-03-14T08:44:23Z</time>
      </trkpt>
      <trkpt lat="45.7436940" lon="8.3676020">
        <ele>540.8800000</ele>
        <time>2010-03-14T08:44:39Z</time>
      </trkpt>
      <trkpt lat="45.7437250" lon="8.3669470">
        <ele>543.2800000</ele>
        <time>2010-03-14T08:44:58Z</time>
      </trkpt>
      <trkpt lat="45.7438400" lon="8.3663150">
        <ele>544.7200000</ele>
        <time>2010-03-14T08:45:15Z</time>
      </trkpt>
      <trkpt lat="45.7440730" lon="8.3655970">
        <ele>547.1300000</ele>
        <time>2010-03-14T08:45:36Z</time>
      </trkpt>
      <trkpt lat="45.7442850" lon="8.3650580">
        <ele>549.0500000</ele>
        <time>2010-03-14T08:45:54Z</time>
      </trkpt>
      <trkpt lat="45.7441370" lon="8.3646520">
        <ele>551.4500000</ele>
        <time>2010-03-14T08:46:08Z</time>
      </trkpt>
      <trkpt lat="45.7438780" lon="8.3642390">
        <ele>553.3800000</ele>
        <time>2010-03-14T08:46:26Z</time>
      </trkpt>
      <trkpt lat="45.7439870" lon="8.3636940">
        <ele>556.2600000</ele>
        <time>2010-03-14T08:46:44Z</time>
      </trkpt>
      <trkpt lat="45.7441740" lon="8.3632460">
        <ele>559.1400000</ele>
        <time>2010-03-14T08:47:00Z</time>
      </trkpt>
      <trkpt lat="45.7441730" lon="8.3627070">
        <ele>560.5900000</ele>
        <time>2010-03-14T08:47:16Z</time>
      </trkpt>
      <trkpt lat="45.7439780" lon="8.3623630">
        <ele>562.5100000</ele>
        <time>2010-03-14T08:47:29Z</time>
      </trkpt>
      <trkpt lat="45.7437240" lon="8.3622100">
        <ele>563.4700000</ele>
        <time>2010-03-14T08:47:41Z</time>
      </trkpt>
      <trkpt lat="45.7434060" lon="8.3620620">
        <ele>564.9100000</ele>
        <time>2010-03-14T08:47:54Z</time>
      </trkpt>
      <trkpt lat="45.7430840" lon="8.3619460">
        <ele>566.8300000</ele>
        <time>2010-03-14T08:48:11Z</time>
      </trkpt>
      <trkpt lat="45.7428060" lon="8.3618220">
        <ele>568.7600000</ele>
        <time>2010-03-14T08:48:25Z</time>
      </trkpt>
      <trkpt lat="45.7425650" lon="8.3617310">
        <ele>569.7200000</ele>
        <time>2010-03-14T08:48:37Z</time>
      </trkpt>
      <trkpt lat="45.7423230" lon="8.3614810">
        <ele>571.1600000</ele>
        <time>2010-03-14T08:48:50Z</time>
      </trkpt>
      <trkpt lat="45.7419970" lon="8.3611500">
        <ele>572.6000000</ele>
        <time>2010-03-14T08:49:08Z</time>
      </trkpt>
      <trkpt lat="45.7418220" lon="8.3607910">
        <ele>573.5600000</ele>
        <time>2010-03-14T08:49:23Z</time>
      </trkpt>
      <trkpt lat="45.7417500" lon="8.3605070">
        <ele>577.4100000</ele>
        <time>2010-03-14T08:49:38Z</time>
      </trkpt>
      <trkpt lat="45.7417510" lon="8.3604460">
        <ele>577.4100000</ele>
        <time>2010-03-14T08:49:41Z</time>
      </trkpt>
      <trkpt lat="45.7417390" lon="8.3603330">
        <ele>578.8500000</ele>
        <time>2010-03-14T08:49:48Z</time>
      </trkpt>
      <trkpt lat="45.7416990" lon="8.3601270">
        <ele>582.7000000</ele>
        <time>2010-03-14T08:50:03Z</time>
      </trkpt>
      <trkpt lat="45.7416840" lon="8.3600750">
        <ele>583.6600000</ele>
        <time>2010-03-14T08:50:08Z</time>
      </trkpt>
      <trkpt lat="45.7416460" lon="8.3599600">
        <ele>585.5800000</ele>
        <time>2010-03-14T08:50:16Z</time>
      </trkpt>
      <trkpt lat="45.7416200" lon="8.3599230">
        <ele>586.0600000</ele>
        <time>2010-03-14T08:50:19Z</time>
      </trkpt>
      <trkpt lat="45.7414590" lon="8.3599250">
        <ele>589.4300000</ele>
        <time>2010-03-14T08:50:34Z</time>
      </trkpt>
      <trkpt lat="45.7414090" lon="8.3599230">
        <ele>590.3900000</ele>
        <time>2010-03-14T08:50:38Z</time>
      </trkpt>
      <trkpt lat="45.7413910" lon="8.3599120">
        <ele>590.8700000</ele>
        <time>2010-03-14T08:50:40Z</time>
      </trkpt>
      <trkpt lat="45.7413610" lon="8.3598720">
        <ele>592.3100000</ele>
        <time>2010-03-14T08:50:44Z</time>
      </trkpt>
      <trkpt lat="45.7413430" lon="8.3597250">
        <ele>593.7500000</ele>
        <time>2010-03-14T08:50:55Z</time>
      </trkpt>
      <trkpt lat="45.7413970" lon="8.3595420">
        <ele>596.6400000</ele>
        <time>2010-03-14T08:51:10Z</time>
      </trkpt>
      <trkpt lat="45.7414150" lon="8.3593430">
        <ele>599.5200000</ele>
        <time>2010-03-14T08:51:23Z</time>
      </trkpt>
      <trkpt lat="45.7414270" lon="8.3592560">
        <ele>600.4800000</ele>
        <time>2010-03-14T08:51:30Z</time>
      </trkpt>
      <trkpt lat="45.7414240" lon="8.3591100">
        <ele>601.4400000</ele>
        <time>2010-03-14T08:51:40Z</time>
      </trkpt>
      <trkpt lat="45.7413920" lon="8.3589800">
        <ele>603.8500000</ele>
        <time>2010-03-14T08:51:52Z</time>
      </trkpt>
      <trkpt lat="45.7413360" lon="8.3589850">
        <ele>604.8100000</ele>
        <time>2010-03-14T08:51:59Z</time>
      </trkpt>
      <trkpt lat="45.7413090" lon="8.3590230">
        <ele>605.2900000</ele>
        <time>2010-03-14T08:52:04Z</time>
      </trkpt>
      <trkpt lat="45.7412510" lon="8.3592020">
        <ele>607.2100000</ele>
        <time>2010-03-14T08:52:19Z</time>
      </trkpt>
      <trkpt lat="45.7411550" lon="8.3593010">
        <ele>608.6500000</ele>
        <time>2010-03-14T08:52:31Z</time>
      </trkpt>
      <trkpt lat="45.7410440" lon="8.3594520">
        <ele>610.5700000</ele>
        <time>2010-03-14T08:52:47Z</time>
      </trkpt>
      <trkpt lat="45.7409520" lon="8.3596280">
        <ele>612.5000000</ele>
        <time>2010-03-14T08:53:02Z</time>
      </trkpt>
      <trkpt lat="45.7407890" lon="8.3598740">
        <ele>614.4200000</ele>
        <time>2010-03-14T08:53:22Z</time>
      </trkpt>
      <trkpt lat="45.7407160" lon="8.3600140">
        <ele>615.8600000</ele>
        <time>2010-03-14T08:53:35Z</time>
      </trkpt>
      <trkpt lat="45.7405870" lon="8.3601810">
        <ele>618.2600000</ele>
        <time>2010-03-14T08:53:51Z</time>
      </trkpt>
      <trkpt lat="45.7404280" lon="8.3602880">
        <ele>620.6700000</ele>
        <time>2010-03-14T08:54:07Z</time>
      </trkpt>
      <trkpt lat="45.7403080" lon="8.3603610">
        <ele>622.5900000</ele>
        <time>2010-03-14T08:54:19Z</time>
      </trkpt>
      <trkpt lat="45.7401470" lon="8.3604770">
        <ele>624.9900000</ele>
        <time>2010-03-14T08:54:36Z</time>
      </trkpt>
      <trkpt lat="45.7400170" lon="8.3605860">
        <ele>626.9200000</ele>
        <time>2010-03-14T08:54:51Z</time>
      </trkpt>
      <trkpt lat="45.7398760" lon="8.3606660">
        <ele>628.3600000</ele>
        <time>2010-03-14T08:55:06Z</time>
      </trkpt>
      <trkpt lat="45.7398210" lon="8.3606910">
        <ele>629.8000000</ele>
        <time>2010-03-14T08:55:14Z</time>
      </trkpt>
      <trkpt lat="45.7397290" lon="8.3608300">
        <ele>631.2400000</ele>
        <time>2010-03-14T08:55:26Z</time>
      </trkpt>
      <trkpt lat="45.7396860" lon="8.3608680">
        <ele>631.7200000</ele>
        <time>2010-03-14T08:55:30Z</time>
      </trkpt>
      <trkpt lat="45.7396270" lon="8.3610490">
        <ele>633.1700000</ele>
        <time>2010-03-14T08:55:43Z</time>
      </trkpt>
      <trkpt lat="45.7396080" lon="8.3612610">
        <ele>634.6100000</ele>
        <time>2010-03-14T08:55:56Z</time>
      </trkpt>
      <trkpt lat="45.7395830" lon="8.3614330">
        <ele>635.0900000</ele>
        <time>2010-03-14T08:56:07Z</time>
      </trkpt>
      <trkpt lat="45.7395700" lon="8.3614880">
        <ele>635.5700000</ele>
        <time>2010-03-14T08:56:11Z</time>
      </trkpt>
      <trkpt lat="45.7395830" lon="8.3615380">
        <ele>636.5300000</ele>
        <time>2010-03-14T08:56:14Z</time>
      </trkpt>
      <trkpt lat="45.7395870" lon="8.3615690">
        <ele>636.5300000</ele>
        <time>2010-03-14T08:56:16Z</time>
      </trkpt>
      <trkpt lat="45.7396150" lon="8.3616930">
        <ele>637.9700000</ele>
        <time>2010-03-14T08:56:25Z</time>
      </trkpt>
      <trkpt lat="45.7395530" lon="8.3618200">
        <ele>639.4100000</ele>
        <time>2010-03-14T08:56:35Z</time>
      </trkpt>
      <trkpt lat="45.7394480" lon="8.3617400">
        <ele>641.8200000</ele>
        <time>2010-03-14T08:56:49Z</time>
      </trkpt>
      <trkpt lat="45.7393290" lon="8.3617090">
        <ele>644.7000000</ele>
        <time>2010-03-14T08:57:02Z</time>
      </trkpt>
      <trkpt lat="45.7392460" lon="8.3616320">
        <ele>647.5900000</ele>
        <time>2010-03-14T08:57:14Z</time>
      </trkpt>
      <trkpt lat="45.7392490" lon="8.3616170">
        <ele>647.5900000</ele>
        <time>2010-03-14T08:57:16Z</time>
      </trkpt>
      <trkpt lat="45.7392930" lon="8.3615310">
        <ele>649.5100000</ele>
        <time>2010-03-14T08:57:25Z</time>
      </trkpt>
      <trkpt lat="45.7393150" lon="8.3614920">
        <ele>649.9900000</ele>
        <time>2010-03-14T08:57:30Z</time>
      </trkpt>
      <trkpt lat="45.7393850" lon="8.3613090">
        <ele>651.9100000</ele>
        <time>2010-03-14T08:57:44Z</time>
      </trkpt>
      <trkpt lat="45.7394010" lon="8.3612100">
        <ele>653.3500000</ele>
        <time>2010-03-14T08:57:54Z</time>
      </trkpt>
      <trkpt lat="45.7393940" lon="8.3611070">
        <ele>653.8300000</ele>
        <time>2010-03-14T08:58:01Z</time>
      </trkpt>
      <trkpt lat="45.7394020" lon="8.3608550">
        <ele>655.7600000</ele>
        <time>2010-03-14T08:58:14Z</time>
      </trkpt>
      <trkpt lat="45.7394350" lon="8.3606460">
        <ele>657.6800000</ele>
        <time>2010-03-14T08:58:26Z</time>
      </trkpt>
      <trkpt lat="45.7394310" lon="8.3605910">
        <ele>658.1600000</ele>
        <time>2010-03-14T08:58:30Z</time>
      </trkpt>
      <trkpt lat="45.7394100" lon="8.3605340">
        <ele>658.1600000</ele>
        <time>2010-03-14T08:58:34Z</time>
      </trkpt>
      <trkpt lat="45.7393280" lon="8.3604760">
        <ele>659.6000000</ele>
        <time>2010-03-14T08:58:42Z</time>
      </trkpt>
      <trkpt lat="45.7392710" lon="8.3604330">
        <ele>662.0100000</ele>
        <time>2010-03-14T08:58:53Z</time>
      </trkpt>
      <trkpt lat="45.7392180" lon="8.3603990">
        <ele>662.9700000</ele>
        <time>2010-03-14T08:58:59Z</time>
      </trkpt>
      <trkpt lat="45.7391030" lon="8.3604950">
        <ele>665.8500000</ele>
        <time>2010-03-14T08:59:12Z</time>
      </trkpt>
      <trkpt lat="45.7390760" lon="8.3605740">
        <ele>666.8100000</ele>
        <time>2010-03-14T08:59:17Z</time>
      </trkpt>
      <trkpt lat="45.7391040" lon="8.3606720">
        <ele>668.2500000</ele>
        <time>2010-03-14T08:59:25Z</time>
      </trkpt>
      <trkpt lat="45.7391170" lon="8.3607340">
        <ele>669.2200000</ele>
        <time>2010-03-14T08:59:31Z</time>
      </trkpt>
      <trkpt lat="45.7390930" lon="8.3608300">
        <ele>671.1400000</ele>
        <time>2010-03-14T08:59:42Z</time>
      </trkpt>
      <trkpt lat="45.7390520" lon="8.3610710">
        <ele>672.5800000</ele>
        <time>2010-03-14T08:59:55Z</time>
      </trkpt>
      <trkpt lat="45.7389890" lon="8.3611480">
        <ele>674.5000000</ele>
        <time>2010-03-14T09:00:05Z</time>
      </trkpt>
      <trkpt lat="45.7389650" lon="8.3611470">
        <ele>674.9800000</ele>
        <time>2010-03-14T09:00:07Z</time>
      </trkpt>
      <trkpt lat="45.7388770" lon="8.3610720">
        <ele>676.4200000</ele>
        <time>2010-03-14T09:00:18Z</time>
      </trkpt>
      <trkpt lat="45.7388710" lon="8.3610410">
        <ele>676.9100000</ele>
        <time>2010-03-14T09:00:20Z</time>
      </trkpt>
      <trkpt lat="45.7388400" lon="8.3610170">
        <ele>676.9100000</ele>
        <time>2010-03-14T09:00:23Z</time>
      </trkpt>
      <trkpt lat="45.7387510" lon="8.3609770">
        <ele>678.3500000</ele>
        <time>2010-03-14T09:00:30Z</time>
      </trkpt>
      <trkpt lat="45.7385950" lon="8.3608610">
        <ele>679.7900000</ele>
        <time>2010-03-14T09:00:46Z</time>
      </trkpt>
      <trkpt lat="45.7385780" lon="8.3608440">
        <ele>680.7500000</ele>
        <time>2010-03-14T09:00:48Z</time>
      </trkpt>
      <trkpt lat="45.7384650" lon="8.3606610">
        <ele>683.1500000</ele>
        <time>2010-03-14T09:01:04Z</time>
      </trkpt>
      <trkpt lat="45.7384120" lon="8.3605880">
        <ele>684.1200000</ele>
        <time>2010-03-14T09:01:12Z</time>
      </trkpt>
      <trkpt lat="45.7383580" lon="8.3605930">
        <ele>685.0800000</ele>
        <time>2010-03-14T09:01:17Z</time>
      </trkpt>
      <trkpt lat="45.7383810" lon="8.3607750">
        <ele>687.0000000</ele>
        <time>2010-03-14T09:01:32Z</time>
      </trkpt>
      <trkpt lat="45.7383810" lon="8.3607890">
        <ele>687.0000000</ele>
        <time>2010-03-14T09:01:33Z</time>
      </trkpt>
      <trkpt lat="45.7384190" lon="8.3608740">
        <ele>687.4800000</ele>
        <time>2010-03-14T09:01:41Z</time>
      </trkpt>
      <trkpt lat="45.7383300" lon="8.3609020">
        <ele>689.8800000</ele>
        <time>2010-03-14T09:01:53Z</time>
      </trkpt>
      <trkpt lat="45.7383060" lon="8.3608750">
        <ele>689.8800000</ele>
        <time>2010-03-14T09:01:56Z</time>
      </trkpt>
      <trkpt lat="45.7382610" lon="8.3608110">
        <ele>691.3300000</ele>
        <time>2010-03-14T09:02:03Z</time>
      </trkpt>
      <trkpt lat="45.7381930" lon="8.3606120">
        <ele>693.7300000</ele>
        <time>2010-03-14T09:02:18Z</time>
      </trkpt>
      <trkpt lat="45.7381040" lon="8.3604470">
        <ele>696.6100000</ele>
        <time>2010-03-14T09:02:32Z</time>
      </trkpt>
      <trkpt lat="45.7380210" lon="8.3603780">
        <ele>698.0500000</ele>
        <time>2010-03-14T09:02:43Z</time>
      </trkpt>
      <trkpt lat="45.7378920" lon="8.3603570">
        <ele>699.5000000</ele>
        <time>2010-03-14T09:02:55Z</time>
      </trkpt>
      <trkpt lat="45.7377970" lon="8.3603030">
        <ele>701.4200000</ele>
        <time>2010-03-14T09:03:07Z</time>
      </trkpt>
      <trkpt lat="45.7376420" lon="8.3602390">
        <ele>703.3400000</ele>
        <time>2010-03-14T09:03:20Z</time>
      </trkpt>
      <trkpt lat="45.7374410" lon="8.3600860">
        <ele>705.7500000</ele>
        <time>2010-03-14T09:03:38Z</time>
      </trkpt>
      <trkpt lat="45.7373460" lon="8.3599620">
        <ele>707.1900000</ele>
        <time>2010-03-14T09:03:50Z</time>
      </trkpt>
      <trkpt lat="45.7371780" lon="8.3597630">
        <ele>708.1500000</ele>
        <time>2010-03-14T09:04:05Z</time>
      </trkpt>
      <trkpt lat="45.7369860" lon="8.3596590">
        <ele>709.1100000</ele>
        <time>2010-03-14T09:04:20Z</time>
      </trkpt>
      <trkpt lat="45.7369000" lon="8.3596780">
        <ele>709.1100000</ele>
        <time>2010-03-14T09:04:36Z</time>
      </trkpt>
      <trkpt lat="45.7367570" lon="8.3596140">
        <ele>711.0300000</ele>
        <time>2010-03-14T09:05:06Z</time>
      </trkpt>
      <trkpt lat="45.7365580" lon="8.3595530">
        <ele>713.4400000</ele>
        <time>2010-03-14T09:05:23Z</time>
      </trkpt>
      <trkpt lat="45.7365390" lon="8.3595530">
        <ele>713.9200000</ele>
        <time>2010-03-14T09:05:25Z</time>
      </trkpt>
      <trkpt lat="45.7363530" lon="8.3594060">
        <ele>715.3600000</ele>
        <time>2010-03-14T09:05:42Z</time>
      </trkpt>
      <trkpt lat="45.7362800" lon="8.3593290">
        <ele>716.3200000</ele>
        <time>2010-03-14T09:05:50Z</time>
      </trkpt>
      <trkpt lat="45.7361460" lon="8.3592530">
        <ele>717.7600000</ele>
        <time>2010-03-14T09:06:03Z</time>
      </trkpt>
      <trkpt lat="45.7360000" lon="8.3591770">
        <ele>719.6800000</ele>
        <time>2010-03-14T09:06:16Z</time>
      </trkpt>
      <trkpt lat="45.7358130" lon="8.3591100">
        <ele>721.1300000</ele>
        <time>2010-03-14T09:06:31Z</time>
      </trkpt>
      <trkpt lat="45.7356250" lon="8.3590230">
        <ele>721.6100000</ele>
        <time>2010-03-14T09:06:45Z</time>
      </trkpt>
      <trkpt lat="45.7355470" lon="8.3589600">
        <ele>722.0900000</ele>
        <time>2010-03-14T09:06:54Z</time>
      </trkpt>
      <trkpt lat="45.7355140" lon="8.3589550">
        <ele>722.5700000</ele>
        <time>2010-03-14T09:06:57Z</time>
      </trkpt>
      <trkpt lat="45.7353180" lon="8.3588700">
        <ele>723.0500000</ele>
        <time>2010-03-14T09:07:12Z</time>
      </trkpt>
      <trkpt lat="45.7352730" lon="8.3588360">
        <ele>722.5700000</ele>
        <time>2010-03-14T09:07:16Z</time>
      </trkpt>
      <trkpt lat="45.7351900" lon="8.3587040">
        <ele>720.1600000</ele>
        <time>2010-03-14T09:07:22Z</time>
      </trkpt>
      <trkpt lat="45.7350030" lon="8.3584080">
        <ele>719.2000000</ele>
        <time>2010-03-14T09:07:30Z</time>
      </trkpt>
      <trkpt lat="45.7348520" lon="8.3581430">
        <ele>720.1600000</ele>
        <time>2010-03-14T09:07:38Z</time>
      </trkpt>
      <trkpt lat="45.7346770" lon="8.3580060">
        <ele>720.1600000</ele>
        <time>2010-03-14T09:07:48Z</time>
      </trkpt>
      <trkpt lat="45.7346670" lon="8.3579940">
        <ele>720.1600000</ele>
        <time>2010-03-14T09:07:49Z</time>
      </trkpt>
      <trkpt lat="45.7345520" lon="8.3579250">
        <ele>721.1300000</ele>
        <time>2010-03-14T09:07:57Z</time>
      </trkpt>
      <trkpt lat="45.7345140" lon="8.3579020">
        <ele>721.6100000</ele>
        <time>2010-03-14T09:08:01Z</time>
      </trkpt>
      <trkpt lat="45.7344760" lon="8.3578950">
        <ele>721.6100000</ele>
        <time>2010-03-14T09:08:04Z</time>
      </trkpt>
      <trkpt lat="45.7344160" lon="8.3578910">
        <ele>722.0900000</ele>
        <time>2010-03-14T09:08:08Z</time>
      </trkpt>
      <trkpt lat="45.7343070" lon="8.3578930">
        <ele>723.5300000</ele>
        <time>2010-03-14T09:08:20Z</time>
      </trkpt>
      <trkpt lat="45.7342940" lon="8.3578950">
        <ele>723.5300000</ele>
        <time>2010-03-14T09:08:22Z</time>
      </trkpt>
      <trkpt lat="45.7342500" lon="8.3579210">
        <ele>724.4900000</ele>
        <time>2010-03-14T09:08:26Z</time>
      </trkpt>
      <trkpt lat="45.7342220" lon="8.3579250">
        <ele>724.9700000</ele>
        <time>2010-03-14T09:08:28Z</time>
      </trkpt>
      <trkpt lat="45.7340400" lon="8.3580040">
        <ele>728.3400000</ele>
        <time>2010-03-14T09:08:40Z</time>
      </trkpt>
      <trkpt lat="45.7338810" lon="8.3580270">
        <ele>730.7400000</ele>
        <time>2010-03-14T09:08:52Z</time>
      </trkpt>
      <trkpt lat="45.7337080" lon="8.3580450">
        <ele>732.6600000</ele>
        <time>2010-03-14T09:09:03Z</time>
      </trkpt>
      <trkpt lat="45.7335500" lon="8.3580860">
        <ele>734.5800000</ele>
        <time>2010-03-14T09:09:16Z</time>
      </trkpt>
      <trkpt lat="45.7334300" lon="8.3580840">
        <ele>735.0700000</ele>
        <time>2010-03-14T09:09:23Z</time>
      </trkpt>
      <trkpt lat="45.7333380" lon="8.3580570">
        <ele>735.5500000</ele>
        <time>2010-03-14T09:09:30Z</time>
      </trkpt>
      <trkpt lat="45.7333140" lon="8.3580530">
        <ele>736.0300000</ele>
        <time>2010-03-14T09:09:32Z</time>
      </trkpt>
      <trkpt lat="45.7332310" lon="8.3580330">
        <ele>736.5100000</ele>
        <time>2010-03-14T09:09:39Z</time>
      </trkpt>
      <trkpt lat="45.7331620" lon="8.3580260">
        <ele>736.9900000</ele>
        <time>2010-03-14T09:09:44Z</time>
      </trkpt>
      <trkpt lat="45.7330650" lon="8.3579720">
        <ele>738.4300000</ele>
        <time>2010-03-14T09:09:55Z</time>
      </trkpt>
      <trkpt lat="45.7330090" lon="8.3579740">
        <ele>739.3900000</ele>
        <time>2010-03-14T09:10:06Z</time>
      </trkpt>
      <trkpt lat="45.7328350" lon="8.3579280">
        <ele>741.3100000</ele>
        <time>2010-03-14T09:10:20Z</time>
      </trkpt>
      <trkpt lat="45.7327360" lon="8.3579510">
        <ele>743.2400000</ele>
        <time>2010-03-14T09:10:30Z</time>
      </trkpt>
      <trkpt lat="45.7326560" lon="8.3580180">
        <ele>745.1600000</ele>
        <time>2010-03-14T09:10:42Z</time>
      </trkpt>
      <trkpt lat="45.7326040" lon="8.3580520">
        <ele>748.5200000</ele>
        <time>2010-03-14T09:10:58Z</time>
      </trkpt>
      <trkpt lat="45.7325430" lon="8.3580700">
        <ele>749.4900000</ele>
        <time>2010-03-14T09:11:08Z</time>
      </trkpt>
      <trkpt lat="45.7324130" lon="8.3580950">
        <ele>750.4500000</ele>
        <time>2010-03-14T09:11:20Z</time>
      </trkpt>
      <trkpt lat="45.7323620" lon="8.3580440">
        <ele>751.4100000</ele>
        <time>2010-03-14T09:11:29Z</time>
      </trkpt>
      <trkpt lat="45.7322900" lon="8.3579360">
        <ele>752.3700000</ele>
        <time>2010-03-14T09:11:41Z</time>
      </trkpt>
      <trkpt lat="45.7322370" lon="8.3579300">
        <ele>753.8100000</ele>
        <time>2010-03-14T09:11:57Z</time>
      </trkpt>
      <trkpt lat="45.7321460" lon="8.3579690">
        <ele>755.2500000</ele>
        <time>2010-03-14T09:12:08Z</time>
      </trkpt>
      <trkpt lat="45.7320360" lon="8.3579810">
        <ele>756.6900000</ele>
        <time>2010-03-14T09:12:13Z</time>
      </trkpt>
      <trkpt lat="45.7317480" lon="8.3580220">
        <ele>757.6600000</ele>
        <time>2010-03-14T09:12:24Z</time>
      </trkpt>
      <trkpt lat="45.7317300" lon="8.3580150">
        <ele>757.6600000</ele>
        <time>2010-03-14T09:12:26Z</time>
      </trkpt>
      <trkpt lat="45.7316980" lon="8.3579990">
        <ele>757.6600000</ele>
        <time>2010-03-14T09:12:29Z</time>
      </trkpt>
      <trkpt lat="45.7315890" lon="8.3578560">
        <ele>757.1800000</ele>
        <time>2010-03-14T09:12:40Z</time>
      </trkpt>
      <trkpt lat="45.7315220" lon="8.3577960">
        <ele>758.1400000</ele>
        <time>2010-03-14T09:12:46Z</time>
      </trkpt>
      <trkpt lat="45.7314170" lon="8.3576880">
        <ele>757.1800000</ele>
        <time>2010-03-14T09:12:53Z</time>
      </trkpt>
      <trkpt lat="45.7313540" lon="8.3576580">
        <ele>757.6600000</ele>
        <time>2010-03-14T09:12:56Z</time>
      </trkpt>
      <trkpt lat="45.7312150" lon="8.3575400">
        <ele>758.1400000</ele>
        <time>2010-03-14T09:13:03Z</time>
      </trkpt>
      <trkpt lat="45.7311430" lon="8.3574340">
        <ele>758.6200000</ele>
        <time>2010-03-14T09:13:09Z</time>
      </trkpt>
      <trkpt lat="45.7310630" lon="8.3573300">
        <ele>759.5800000</ele>
        <time>2010-03-14T09:13:16Z</time>
      </trkpt>
      <trkpt lat="45.7309970" lon="8.3572330">
        <ele>761.5000000</ele>
        <time>2010-03-14T09:13:26Z</time>
      </trkpt>
      <trkpt lat="45.7309720" lon="8.3572020">
        <ele>761.5000000</ele>
        <time>2010-03-14T09:13:31Z</time>
      </trkpt>
      <trkpt lat="45.7308540" lon="8.3572370">
        <ele>762.9400000</ele>
        <time>2010-03-14T09:13:41Z</time>
      </trkpt>
      <trkpt lat="45.7307370" lon="8.3572230">
        <ele>765.3500000</ele>
        <time>2010-03-14T09:13:49Z</time>
      </trkpt>
      <trkpt lat="45.7306540" lon="8.3572080">
        <ele>766.3100000</ele>
        <time>2010-03-14T09:13:55Z</time>
      </trkpt>
      <trkpt lat="45.7305420" lon="8.3571710">
        <ele>767.2700000</ele>
        <time>2010-03-14T09:14:04Z</time>
      </trkpt>
      <trkpt lat="45.7304270" lon="8.3570360">
        <ele>768.7100000</ele>
        <time>2010-03-14T09:14:17Z</time>
      </trkpt>
      <trkpt lat="45.7304230" lon="8.3570230">
        <ele>769.6700000</ele>
        <time>2010-03-14T09:14:19Z</time>
      </trkpt>
      <trkpt lat="45.7303600" lon="8.3569270">
        <ele>771.6000000</ele>
        <time>2010-03-14T09:14:29Z</time>
      </trkpt>
      <trkpt lat="45.7303130" lon="8.3567960">
        <ele>774.0000000</ele>
        <time>2010-03-14T09:14:40Z</time>
      </trkpt>
      <trkpt lat="45.7302940" lon="8.3567810">
        <ele>774.4800000</ele>
        <time>2010-03-14T09:14:42Z</time>
      </trkpt>
      <trkpt lat="45.7301500" lon="8.3567010">
        <ele>775.9200000</ele>
        <time>2010-03-14T09:14:55Z</time>
      </trkpt>
      <trkpt lat="45.7301320" lon="8.3566800">
        <ele>775.9200000</ele>
        <time>2010-03-14T09:14:57Z</time>
      </trkpt>
      <trkpt lat="45.7300070" lon="8.3565130">
        <ele>776.4000000</ele>
        <time>2010-03-14T09:15:10Z</time>
      </trkpt>
      <trkpt lat="45.7299920" lon="8.3564890">
        <ele>776.8800000</ele>
        <time>2010-03-14T09:15:13Z</time>
      </trkpt>
      <trkpt lat="45.7298900" lon="8.3562920">
        <ele>777.3600000</ele>
        <time>2010-03-14T09:15:22Z</time>
      </trkpt>
      <trkpt lat="45.7298340" lon="8.3560050">
        <ele>780.2500000</ele>
        <time>2010-03-14T09:15:31Z</time>
      </trkpt>
      <trkpt lat="45.7298170" lon="8.3559190">
        <ele>780.7300000</ele>
        <time>2010-03-14T09:15:33Z</time>
      </trkpt>
      <trkpt lat="45.7297740" lon="8.3554980">
        <ele>779.2900000</ele>
        <time>2010-03-14T09:15:46Z</time>
      </trkpt>
      <trkpt lat="45.7297750" lon="8.3554180">
        <ele>778.8100000</ele>
        <time>2010-03-14T09:15:48Z</time>
      </trkpt>
      <trkpt lat="45.7297660" lon="8.3553300">
        <ele>778.3200000</ele>
        <time>2010-03-14T09:15:50Z</time>
      </trkpt>
      <trkpt lat="45.7295280" lon="8.3550380">
        <ele>777.3600000</ele>
        <time>2010-03-14T09:16:01Z</time>
      </trkpt>
      <trkpt lat="45.7294630" lon="8.3549470">
        <ele>777.3600000</ele>
        <time>2010-03-14T09:16:05Z</time>
      </trkpt>
      <trkpt lat="45.7294030" lon="8.3547900">
        <ele>778.3200000</ele>
        <time>2010-03-14T09:16:12Z</time>
      </trkpt>
      <trkpt lat="45.7293900" lon="8.3547370">
        <ele>778.3200000</ele>
        <time>2010-03-14T09:16:15Z</time>
      </trkpt>
      <trkpt lat="45.7292800" lon="8.3546310">
        <ele>779.2900000</ele>
        <time>2010-03-14T09:16:25Z</time>
      </trkpt>
      <trkpt lat="45.7291780" lon="8.3544780">
        <ele>782.6500000</ele>
        <time>2010-03-14T09:16:36Z</time>
      </trkpt>
      <trkpt lat="45.7290590" lon="8.3543890">
        <ele>782.1700000</ele>
        <time>2010-03-14T09:16:45Z</time>
      </trkpt>
      <trkpt lat="45.7289890" lon="8.3543890">
        <ele>781.6900000</ele>
        <time>2010-03-14T09:16:48Z</time>
      </trkpt>
      <trkpt lat="45.7288320" lon="8.3544240">
        <ele>782.1700000</ele>
        <time>2010-03-14T09:16:58Z</time>
      </trkpt>
      <trkpt lat="45.7288050" lon="8.3544480">
        <ele>781.6900000</ele>
        <time>2010-03-14T09:17:00Z</time>
      </trkpt>
      <trkpt lat="45.7287210" lon="8.3545600">
        <ele>781.2100000</ele>
        <time>2010-03-14T09:17:05Z</time>
      </trkpt>
      <trkpt lat="45.7287010" lon="8.3546330">
        <ele>780.7300000</ele>
        <time>2010-03-14T09:17:07Z</time>
      </trkpt>
      <trkpt lat="45.7286160" lon="8.3549050">
        <ele>779.2900000</ele>
        <time>2010-03-14T09:17:16Z</time>
      </trkpt>
      <trkpt lat="45.7285230" lon="8.3549670">
        <ele>779.7700000</ele>
        <time>2010-03-14T09:17:21Z</time>
      </trkpt>
      <trkpt lat="45.7284710" lon="8.3549690">
        <ele>779.2900000</ele>
        <time>2010-03-14T09:17:24Z</time>
      </trkpt>
      <trkpt lat="45.7282800" lon="8.3548900">
        <ele>779.2900000</ele>
        <time>2010-03-14T09:17:35Z</time>
      </trkpt>
      <trkpt lat="45.7282570" lon="8.3548740">
        <ele>779.2900000</ele>
        <time>2010-03-14T09:17:37Z</time>
      </trkpt>
      <trkpt lat="45.7281590" lon="8.3548270">
        <ele>779.2900000</ele>
        <time>2010-03-14T09:17:42Z</time>
      </trkpt>
      <trkpt lat="45.7280960" lon="8.3548200">
        <ele>779.2900000</ele>
        <time>2010-03-14T09:17:46Z</time>
      </trkpt>
      <trkpt lat="45.7277990" lon="8.3547810">
        <ele>780.2500000</ele>
        <time>2010-03-14T09:17:57Z</time>
      </trkpt>
      <trkpt lat="45.7275880" lon="8.3548420">
        <ele>779.7700000</ele>
        <time>2010-03-14T09:18:09Z</time>
      </trkpt>
      <trkpt lat="45.7275620" lon="8.3548500">
        <ele>779.7700000</ele>
        <time>2010-03-14T09:18:11Z</time>
      </trkpt>
      <trkpt lat="45.7274890" lon="8.3548260">
        <ele>779.7700000</ele>
        <time>2010-03-14T09:18:17Z</time>
      </trkpt>
      <trkpt lat="45.7273010" lon="8.3548550">
        <ele>781.2100000</ele>
        <time>2010-03-14T09:18:29Z</time>
      </trkpt>
      <trkpt lat="45.7271180" lon="8.3548000">
        <ele>781.2100000</ele>
        <time>2010-03-14T09:18:40Z</time>
      </trkpt>
      <trkpt lat="45.7269640" lon="8.3548450">
        <ele>782.1700000</ele>
        <time>2010-03-14T09:18:49Z</time>
      </trkpt>
      <trkpt lat="45.7268070" lon="8.3549380">
        <ele>783.1300000</ele>
        <time>2010-03-14T09:19:00Z</time>
      </trkpt>
      <trkpt lat="45.7265680" lon="8.3550230">
        <ele>782.6500000</ele>
        <time>2010-03-14T09:19:12Z</time>
      </trkpt>
      <trkpt lat="45.7264620" lon="8.3551090">
        <ele>783.6100000</ele>
        <time>2010-03-14T09:19:19Z</time>
      </trkpt>
      <trkpt lat="45.7263520" lon="8.3552160">
        <ele>784.5700000</ele>
        <time>2010-03-14T09:19:26Z</time>
      </trkpt>
      <trkpt lat="45.7262680" lon="8.3552380">
        <ele>784.0900000</ele>
        <time>2010-03-14T09:19:31Z</time>
      </trkpt>
      <trkpt lat="45.7261760" lon="8.3553110">
        <ele>785.0500000</ele>
        <time>2010-03-14T09:19:37Z</time>
      </trkpt>
      <trkpt lat="45.7259940" lon="8.3554570">
        <ele>786.5000000</ele>
        <time>2010-03-14T09:19:50Z</time>
      </trkpt>
      <trkpt lat="45.7259730" lon="8.3554800">
        <ele>786.9800000</ele>
        <time>2010-03-14T09:19:52Z</time>
      </trkpt>
      <trkpt lat="45.7258450" lon="8.3555120">
        <ele>788.4200000</ele>
        <time>2010-03-14T09:20:05Z</time>
      </trkpt>
      <trkpt lat="45.7257370" lon="8.3554780">
        <ele>789.3800000</ele>
        <time>2010-03-14T09:20:19Z</time>
      </trkpt>
      <trkpt lat="45.7255300" lon="8.3554300">
        <ele>789.8600000</ele>
        <time>2010-03-14T09:20:34Z</time>
      </trkpt>
      <trkpt lat="45.7253880" lon="8.3552840">
        <ele>792.7400000</ele>
        <time>2010-03-14T09:20:49Z</time>
      </trkpt>
      <trkpt lat="45.7253060" lon="8.3552020">
        <ele>794.1900000</ele>
        <time>2010-03-14T09:21:00Z</time>
      </trkpt>
      <trkpt lat="45.7252360" lon="8.3551150">
        <ele>794.6700000</ele>
        <time>2010-03-14T09:21:12Z</time>
      </trkpt>
      <trkpt lat="45.7251510" lon="8.3550560">
        <ele>796.5900000</ele>
        <time>2010-03-14T09:21:23Z</time>
      </trkpt>
      <trkpt lat="45.7251010" lon="8.3549960">
        <ele>797.0700000</ele>
        <time>2010-03-14T09:21:32Z</time>
      </trkpt>
      <trkpt lat="45.7250090" lon="8.3549260">
        <ele>798.9900000</ele>
        <time>2010-03-14T09:21:44Z</time>
      </trkpt>
      <trkpt lat="45.7249470" lon="8.3549010">
        <ele>799.9500000</ele>
        <time>2010-03-14T09:21:54Z</time>
      </trkpt>
      <trkpt lat="45.7248420" lon="8.3548600">
        <ele>800.9200000</ele>
        <time>2010-03-14T09:22:06Z</time>
      </trkpt>
      <trkpt lat="45.7247560" lon="8.3547960">
        <ele>802.3600000</ele>
        <time>2010-03-14T09:22:15Z</time>
      </trkpt>
      <trkpt lat="45.7246720" lon="8.3547270">
        <ele>802.8400000</ele>
        <time>2010-03-14T09:22:27Z</time>
      </trkpt>
      <trkpt lat="45.7245930" lon="8.3546290">
        <ele>804.2800000</ele>
        <time>2010-03-14T09:22:40Z</time>
      </trkpt>
      <trkpt lat="45.7244950" lon="8.3545050">
        <ele>804.7600000</ele>
        <time>2010-03-14T09:22:52Z</time>
      </trkpt>
      <trkpt lat="45.7244710" lon="8.3544910">
        <ele>805.7200000</ele>
        <time>2010-03-14T09:22:55Z</time>
      </trkpt>
      <trkpt lat="45.7244460" lon="8.3543690">
        <ele>806.2000000</ele>
        <time>2010-03-14T09:23:06Z</time>
      </trkpt>
      <trkpt lat="45.7244240" lon="8.3543140">
        <ele>806.6800000</ele>
        <time>2010-03-14T09:23:10Z</time>
      </trkpt>
      <trkpt lat="45.7244250" lon="8.3542730">
        <ele>807.1600000</ele>
        <time>2010-03-14T09:23:12Z</time>
      </trkpt>
      <trkpt lat="45.7244090" lon="8.3542040">
        <ele>806.2000000</ele>
        <time>2010-03-14T09:23:27Z</time>
      </trkpt>
      <trkpt lat="45.7243950" lon="8.3542160">
        <ele>806.6800000</ele>
        <time>2010-03-14T09:23:44Z</time>
      </trkpt>
      <trkpt lat="45.7243850" lon="8.3542210">
        <ele>805.7200000</ele>
        <time>2010-03-14T09:24:32Z</time>
      </trkpt>
      <trkpt lat="45.7243850" lon="8.3542210">
        <ele>800.9200000</ele>
        <time>2010-03-14T09:24:33Z</time>
      </trkpt>
      <trkpt lat="45.7243850" lon="8.3542210">
        <ele>802.3600000</ele>
        <time>2010-03-14T09:24:34Z</time>
      </trkpt>
      <trkpt lat="45.7243850" lon="8.3542210">
        <ele>809.0900000</ele>
        <time>2010-03-14T09:24:35Z</time>
      </trkpt>
      <trkpt lat="45.7243840" lon="8.3542190">
        <ele>807.1600000</ele>
        <time>2010-03-14T09:24:36Z</time>
      </trkpt>
      <trkpt lat="45.7243550" lon="8.3541150">
        <ele>806.6800000</ele>
        <time>2010-03-14T09:26:27Z</time>
      </trkpt>
      <trkpt lat="45.7244010" lon="8.3540140">
        <ele>806.6800000</ele>
        <time>2010-03-14T09:27:16Z</time>
      </trkpt>
      <trkpt lat="45.7244180" lon="8.3539800">
        <ele>806.2000000</ele>
        <time>2010-03-14T09:28:23Z</time>
      </trkpt>
      <trkpt lat="45.7243760" lon="8.3539420">
        <ele>804.7600000</ele>
        <time>2010-03-14T09:30:41Z</time>
      </trkpt>
      <trkpt lat="45.7243710" lon="8.3539880">
        <ele>805.2400000</ele>
        <time>2010-03-14T09:30:56Z</time>
      </trkpt>
      <trkpt lat="45.7243810" lon="8.3539970">
        <ele>805.7200000</ele>
        <time>2010-03-14T09:31:15Z</time>
      </trkpt>
      <trkpt lat="45.7243860" lon="8.3540180">
        <ele>805.2400000</ele>
        <time>2010-03-14T09:31:41Z</time>
      </trkpt>
      <trkpt lat="45.7243700" lon="8.3540230">
        <ele>804.2800000</ele>
        <time>2010-03-14T09:33:44Z</time>
      </trkpt>
      <trkpt lat="45.7243060" lon="8.3539150">
        <ele>803.3200000</ele>
        <time>2010-03-14T09:33:49Z</time>
      </trkpt>
      <trkpt lat="45.7241080" lon="8.3537900">
        <ele>801.4000000</ele>
        <time>2010-03-14T09:33:58Z</time>
      </trkpt>
      <trkpt lat="45.7240410" lon="8.3536820">
        <ele>800.4400000</ele>
        <time>2010-03-14T09:34:03Z</time>
      </trkpt>
      <trkpt lat="45.7237680" lon="8.3534580">
        <ele>798.0300000</ele>
        <time>2010-03-14T09:34:13Z</time>
      </trkpt>
      <trkpt lat="45.7237510" lon="8.3533400">
        <ele>795.6300000</ele>
        <time>2010-03-14T09:34:16Z</time>
      </trkpt>
      <trkpt lat="45.7236210" lon="8.3531010">
        <ele>791.3000000</ele>
        <time>2010-03-14T09:34:21Z</time>
      </trkpt>
      <trkpt lat="45.7235400" lon="8.3530380">
        <ele>789.3800000</ele>
        <time>2010-03-14T09:34:23Z</time>
      </trkpt>
      <trkpt lat="45.7233580" lon="8.3530320">
        <ele>788.4200000</ele>
        <time>2010-03-14T09:34:27Z</time>
      </trkpt>
      <trkpt lat="45.7232360" lon="8.3530050">
        <ele>787.4600000</ele>
        <time>2010-03-14T09:34:31Z</time>
      </trkpt>
      <trkpt lat="45.7231320" lon="8.3527650">
        <ele>783.6100000</ele>
        <time>2010-03-14T09:34:37Z</time>
      </trkpt>
      <trkpt lat="45.7230880" lon="8.3527230">
        <ele>783.1300000</ele>
        <time>2010-03-14T09:34:38Z</time>
      </trkpt>
      <trkpt lat="45.7229870" lon="8.3526400">
        <ele>781.6900000</ele>
        <time>2010-03-14T09:34:44Z</time>
      </trkpt>
      <trkpt lat="45.7229900" lon="8.3526380">
        <ele>782.1700000</ele>
        <time>2010-03-14T09:34:45Z</time>
      </trkpt>
      <trkpt lat="45.7229550" lon="8.3524200">
        <ele>783.1300000</ele>
        <time>2010-03-14T09:34:54Z</time>
      </trkpt>
      <trkpt lat="45.7229790" lon="8.3521830">
        <ele>784.0900000</ele>
        <time>2010-03-14T09:34:59Z</time>
      </trkpt>
      <trkpt lat="45.7229990" lon="8.3520270">
        <ele>785.5300000</ele>
        <time>2010-03-14T09:35:04Z</time>
      </trkpt>
      <trkpt lat="45.7229430" lon="8.3516360">
        <ele>787.4600000</ele>
        <time>2010-03-14T09:35:17Z</time>
      </trkpt>
      <trkpt lat="45.7229170" lon="8.3515700">
        <ele>787.4600000</ele>
        <time>2010-03-14T09:35:20Z</time>
      </trkpt>
      <trkpt lat="45.7227400" lon="8.3513430">
        <ele>786.9800000</ele>
        <time>2010-03-14T09:35:32Z</time>
      </trkpt>
      <trkpt lat="45.7227220" lon="8.3512920">
        <ele>787.4600000</ele>
        <time>2010-03-14T09:35:34Z</time>
      </trkpt>
      <trkpt lat="45.7226750" lon="8.3511940">
        <ele>788.4200000</ele>
        <time>2010-03-14T09:35:39Z</time>
      </trkpt>
      <trkpt lat="45.7225700" lon="8.3508580">
        <ele>787.9400000</ele>
        <time>2010-03-14T09:35:51Z</time>
      </trkpt>
      <trkpt lat="45.7225020" lon="8.3507770">
        <ele>786.9800000</ele>
        <time>2010-03-14T09:35:54Z</time>
      </trkpt>
      <trkpt lat="45.7223940" lon="8.3507060">
        <ele>783.6100000</ele>
        <time>2010-03-14T09:35:59Z</time>
      </trkpt>
      <trkpt lat="45.7223460" lon="8.3506470">
        <ele>784.0900000</ele>
        <time>2010-03-14T09:36:11Z</time>
      </trkpt>
      <trkpt lat="45.7223570" lon="8.3506390">
        <ele>784.0900000</ele>
        <time>2010-03-14T09:37:46Z</time>
      </trkpt>
      <trkpt lat="45.7225930" lon="8.3504720">
        <ele>786.0200000</ele>
        <time>2010-03-14T09:37:57Z</time>
      </trkpt>
      <trkpt lat="45.7226980" lon="8.3502750">
        <ele>786.9800000</ele>
        <time>2010-03-14T09:38:07Z</time>
      </trkpt>
      <trkpt lat="45.7227010" lon="8.3499860">
        <ele>784.0900000</ele>
        <time>2010-03-14T09:38:16Z</time>
      </trkpt>
      <trkpt lat="45.7226830" lon="8.3499340">
        <ele>781.6900000</ele>
        <time>2010-03-14T09:38:18Z</time>
      </trkpt>
      <trkpt lat="45.7225810" lon="8.3495850">
        <ele>777.8400000</ele>
        <time>2010-03-14T09:38:24Z</time>
      </trkpt>
      <trkpt lat="45.7225420" lon="8.3493110">
        <ele>774.4800000</ele>
        <time>2010-03-14T09:38:28Z</time>
      </trkpt>
      <trkpt lat="45.7225510" lon="8.3492400">
        <ele>774.4800000</ele>
        <time>2010-03-14T09:38:29Z</time>
      </trkpt>
      <trkpt lat="45.7225940" lon="8.3490480">
        <ele>774.4800000</ele>
        <time>2010-03-14T09:38:35Z</time>
      </trkpt>
      <trkpt lat="45.7226770" lon="8.3488700">
        <ele>775.4400000</ele>
        <time>2010-03-14T09:38:43Z</time>
      </trkpt>
      <trkpt lat="45.7227070" lon="8.3486990">
        <ele>775.4400000</ele>
        <time>2010-03-14T09:38:49Z</time>
      </trkpt>
      <trkpt lat="45.7227060" lon="8.3485880">
        <ele>774.4800000</ele>
        <time>2010-03-14T09:38:55Z</time>
      </trkpt>
      <trkpt lat="45.7226910" lon="8.3484280">
        <ele>770.6300000</ele>
        <time>2010-03-14T09:38:59Z</time>
      </trkpt>
      <trkpt lat="45.7226770" lon="8.3483790">
        <ele>769.6700000</ele>
        <time>2010-03-14T09:39:01Z</time>
      </trkpt>
      <trkpt lat="45.7226630" lon="8.3483300">
        <ele>768.2300000</ele>
        <time>2010-03-14T09:39:15Z</time>
      </trkpt>
      <trkpt lat="45.7225710" lon="8.3482010">
        <ele>764.8700000</ele>
        <time>2010-03-14T09:41:14Z</time>
      </trkpt>
      <trkpt lat="45.7225600" lon="8.3480450">
        <ele>762.9400000</ele>
        <time>2010-03-14T09:41:25Z</time>
      </trkpt>
      <trkpt lat="45.7225470" lon="8.3480090">
        <ele>762.9400000</ele>
        <time>2010-03-14T09:43:09Z</time>
      </trkpt>
      <trkpt lat="45.7226200" lon="8.3477360">
        <ele>759.1000000</ele>
        <time>2010-03-14T09:43:18Z</time>
      </trkpt>
      <trkpt lat="45.7227560" lon="8.3475270">
        <ele>757.1800000</ele>
        <time>2010-03-14T09:43:25Z</time>
      </trkpt>
      <trkpt lat="45.7227790" lon="8.3474460">
        <ele>756.2100000</ele>
        <time>2010-03-14T09:43:27Z</time>
      </trkpt>
      <trkpt lat="45.7228270" lon="8.3472500">
        <ele>752.3700000</ele>
        <time>2010-03-14T09:43:32Z</time>
      </trkpt>
      <trkpt lat="45.7228620" lon="8.3471020">
        <ele>750.4500000</ele>
        <time>2010-03-14T09:43:35Z</time>
      </trkpt>
      <trkpt lat="45.7228820" lon="8.3470510">
        <ele>749.0000000</ele>
        <time>2010-03-14T09:43:37Z</time>
      </trkpt>
      <trkpt lat="45.7228820" lon="8.3470000">
        <ele>747.5600000</ele>
        <time>2010-03-14T09:43:39Z</time>
      </trkpt>
      <trkpt lat="45.7228640" lon="8.3468470">
        <ele>744.2000000</ele>
        <time>2010-03-14T09:43:44Z</time>
      </trkpt>
      <trkpt lat="45.7228810" lon="8.3466740">
        <ele>742.7600000</ele>
        <time>2010-03-14T09:43:51Z</time>
      </trkpt>
      <trkpt lat="45.7228860" lon="8.3466460">
        <ele>741.7900000</ele>
        <time>2010-03-14T09:44:13Z</time>
      </trkpt>
      <trkpt lat="45.7229130" lon="8.3465190">
        <ele>739.3900000</ele>
        <time>2010-03-14T09:44:33Z</time>
      </trkpt>
      <trkpt lat="45.7229180" lon="8.3464730">
        <ele>737.4700000</ele>
        <time>2010-03-14T09:44:36Z</time>
      </trkpt>
      <trkpt lat="45.7230130" lon="8.3464150">
        <ele>736.9900000</ele>
        <time>2010-03-14T09:44:46Z</time>
      </trkpt>
      <trkpt lat="45.7231130" lon="8.3462940">
        <ele>737.4700000</ele>
        <time>2010-03-14T09:45:02Z</time>
      </trkpt>
      <trkpt lat="45.7231130" lon="8.3462890">
        <ele>737.4700000</ele>
        <time>2010-03-14T09:45:26Z</time>
      </trkpt>
      <trkpt lat="45.7232150" lon="8.3460870">
        <ele>735.5500000</ele>
        <time>2010-03-14T09:45:31Z</time>
      </trkpt>
      <trkpt lat="45.7233000" lon="8.3459720">
        <ele>733.6200000</ele>
        <time>2010-03-14T09:45:35Z</time>
      </trkpt>
      <trkpt lat="45.7234050" lon="8.3459120">
        <ele>730.7400000</ele>
        <time>2010-03-14T09:46:44Z</time>
      </trkpt>
      <trkpt lat="45.7234360" lon="8.3458930">
        <ele>728.8200000</ele>
        <time>2010-03-14T09:46:58Z</time>
      </trkpt>
      <trkpt lat="45.7234460" lon="8.3458700">
        <ele>727.8600000</ele>
        <time>2010-03-14T09:47:00Z</time>
      </trkpt>
      <trkpt lat="45.7235500" lon="8.3458200">
        <ele>724.9700000</ele>
        <time>2010-03-14T09:47:04Z</time>
      </trkpt>
      <trkpt lat="45.7236210" lon="8.3457720">
        <ele>723.5300000</ele>
        <time>2010-03-14T09:47:06Z</time>
      </trkpt>
      <trkpt lat="45.7237320" lon="8.3456870">
        <ele>720.6500000</ele>
        <time>2010-03-14T09:47:10Z</time>
      </trkpt>
      <trkpt lat="45.7237650" lon="8.3456720">
        <ele>719.2000000</ele>
        <time>2010-03-14T09:47:12Z</time>
      </trkpt>
      <trkpt lat="45.7239300" lon="8.3455940">
        <ele>716.3200000</ele>
        <time>2010-03-14T09:47:17Z</time>
      </trkpt>
      <trkpt lat="45.7240050" lon="8.3455810">
        <ele>714.8800000</ele>
        <time>2010-03-14T09:47:21Z</time>
      </trkpt>
      <trkpt lat="45.7241390" lon="8.3455420">
        <ele>713.9200000</ele>
        <time>2010-03-14T09:47:25Z</time>
      </trkpt>
      <trkpt lat="45.7243200" lon="8.3456070">
        <ele>710.5500000</ele>
        <time>2010-03-14T09:47:31Z</time>
      </trkpt>
      <trkpt lat="45.7245040" lon="8.3456980">
        <ele>709.1100000</ele>
        <time>2010-03-14T09:47:38Z</time>
      </trkpt>
      <trkpt lat="45.7245180" lon="8.3456980">
        <ele>707.6700000</ele>
        <time>2010-03-14T09:47:39Z</time>
      </trkpt>
      <trkpt lat="45.7245480" lon="8.3456990">
        <ele>705.2600000</ele>
        <time>2010-03-14T09:47:41Z</time>
      </trkpt>
      <trkpt lat="45.7246400" lon="8.3457170">
        <ele>701.9000000</ele>
        <time>2010-03-14T09:47:47Z</time>
      </trkpt>
      <trkpt lat="45.7246760" lon="8.3457390">
        <ele>700.9400000</ele>
        <time>2010-03-14T09:47:49Z</time>
      </trkpt>
      <trkpt lat="45.7247480" lon="8.3458750">
        <ele>696.6100000</ele>
        <time>2010-03-14T09:47:54Z</time>
      </trkpt>
      <trkpt lat="45.7247510" lon="8.3458940">
        <ele>696.1300000</ele>
        <time>2010-03-14T09:47:55Z</time>
      </trkpt>
      <trkpt lat="45.7247700" lon="8.3459270">
        <ele>695.1700000</ele>
        <time>2010-03-14T09:47:56Z</time>
      </trkpt>
      <trkpt lat="45.7248270" lon="8.3459870">
        <ele>693.7300000</ele>
        <time>2010-03-14T09:47:58Z</time>
      </trkpt>
      <trkpt lat="45.7248890" lon="8.3460610">
        <ele>693.2500000</ele>
        <time>2010-03-14T09:48:01Z</time>
      </trkpt>
      <trkpt lat="45.7249010" lon="8.3460720">
        <ele>692.2900000</ele>
        <time>2010-03-14T09:48:02Z</time>
      </trkpt>
      <trkpt lat="45.7250080" lon="8.3460920">
        <ele>689.4000000</ele>
        <time>2010-03-14T09:48:12Z</time>
      </trkpt>
      <trkpt lat="45.7250410" lon="8.3461080">
        <ele>687.4800000</ele>
        <time>2010-03-14T09:48:16Z</time>
      </trkpt>
      <trkpt lat="45.7250510" lon="8.3461320">
        <ele>686.0400000</ele>
        <time>2010-03-14T09:48:19Z</time>
      </trkpt>
      <trkpt lat="45.7250670" lon="8.3462100">
        <ele>683.6300000</ele>
        <time>2010-03-14T09:48:22Z</time>
      </trkpt>
      <trkpt lat="45.7250640" lon="8.3462850">
        <ele>683.1500000</ele>
        <time>2010-03-14T09:48:33Z</time>
      </trkpt>
      <trkpt lat="45.7250720" lon="8.3463190">
        <ele>682.6700000</ele>
        <time>2010-03-14T09:49:40Z</time>
      </trkpt>
      <trkpt lat="45.7250840" lon="8.3463310">
        <ele>682.6700000</ele>
        <time>2010-03-14T09:49:41Z</time>
      </trkpt>
      <trkpt lat="45.7252170" lon="8.3463150">
        <ele>679.3100000</ele>
        <time>2010-03-14T09:49:46Z</time>
      </trkpt>
      <trkpt lat="45.7252380" lon="8.3463300">
        <ele>678.8300000</ele>
        <time>2010-03-14T09:49:47Z</time>
      </trkpt>
      <trkpt lat="45.7252810" lon="8.3463380">
        <ele>676.4200000</ele>
        <time>2010-03-14T09:49:49Z</time>
      </trkpt>
      <trkpt lat="45.7253210" lon="8.3463070">
        <ele>673.0600000</ele>
        <time>2010-03-14T09:49:53Z</time>
      </trkpt>
      <trkpt lat="45.7254540" lon="8.3461990">
        <ele>669.7000000</ele>
        <time>2010-03-14T09:49:58Z</time>
      </trkpt>
      <trkpt lat="45.7254700" lon="8.3462020">
        <ele>668.7300000</ele>
        <time>2010-03-14T09:49:59Z</time>
      </trkpt>
      <trkpt lat="45.7255900" lon="8.3461900">
        <ele>666.3300000</ele>
        <time>2010-03-14T09:50:03Z</time>
      </trkpt>
      <trkpt lat="45.7257240" lon="8.3462280">
        <ele>662.4900000</ele>
        <time>2010-03-14T09:50:08Z</time>
      </trkpt>
      <trkpt lat="45.7259150" lon="8.3462790">
        <ele>658.6400000</ele>
        <time>2010-03-14T09:50:22Z</time>
      </trkpt>
      <trkpt lat="45.7259260" lon="8.3462840">
        <ele>659.6000000</ele>
        <time>2010-03-14T09:51:05Z</time>
      </trkpt>
      <trkpt lat="45.7261690" lon="8.3462780">
        <ele>655.2800000</ele>
        <time>2010-03-14T09:51:14Z</time>
      </trkpt>
      <trkpt lat="45.7264380" lon="8.3462840">
        <ele>651.4300000</ele>
        <time>2010-03-14T09:51:19Z</time>
      </trkpt>
      <trkpt lat="45.7265620" lon="8.3462810">
        <ele>650.4700000</ele>
        <time>2010-03-14T09:51:21Z</time>
      </trkpt>
      <trkpt lat="45.7267700" lon="8.3462220">
        <ele>648.5500000</ele>
        <time>2010-03-14T09:51:24Z</time>
      </trkpt>
      <trkpt lat="45.7269590" lon="8.3461730">
        <ele>646.6200000</ele>
        <time>2010-03-14T09:51:27Z</time>
      </trkpt>
      <trkpt lat="45.7272250" lon="8.3461810">
        <ele>645.1800000</ele>
        <time>2010-03-14T09:51:32Z</time>
      </trkpt>
      <trkpt lat="45.7273980" lon="8.3460640">
        <ele>643.7400000</ele>
        <time>2010-03-14T09:51:37Z</time>
      </trkpt>
      <trkpt lat="45.7274830" lon="8.3459190">
        <ele>641.3400000</ele>
        <time>2010-03-14T09:51:41Z</time>
      </trkpt>
      <trkpt lat="45.7275880" lon="8.3458640">
        <ele>639.4100000</ele>
        <time>2010-03-14T09:51:45Z</time>
      </trkpt>
      <trkpt lat="45.7277030" lon="8.3458480">
        <ele>638.4500000</ele>
        <time>2010-03-14T09:51:54Z</time>
      </trkpt>
      <trkpt lat="45.7277890" lon="8.3458170">
        <ele>639.8900000</ele>
        <time>2010-03-14T09:52:05Z</time>
      </trkpt>
      <trkpt lat="45.7278190" lon="8.3458040">
        <ele>639.4100000</ele>
        <time>2010-03-14T09:52:07Z</time>
      </trkpt>
      <trkpt lat="45.7280730" lon="8.3457690">
        <ele>637.0100000</ele>
        <time>2010-03-14T09:52:14Z</time>
      </trkpt>
      <trkpt lat="45.7281440" lon="8.3457660">
        <ele>637.4900000</ele>
        <time>2010-03-14T09:52:17Z</time>
      </trkpt>
      <trkpt lat="45.7284070" lon="8.3456770">
        <ele>636.5300000</ele>
        <time>2010-03-14T09:52:26Z</time>
      </trkpt>
      <trkpt lat="45.7286040" lon="8.3456490">
        <ele>639.4100000</ele>
        <time>2010-03-14T09:52:35Z</time>
      </trkpt>
      <trkpt lat="45.7286810" lon="8.3455450">
        <ele>640.3800000</ele>
        <time>2010-03-14T09:52:45Z</time>
      </trkpt>
      <trkpt lat="45.7286910" lon="8.3455510">
        <ele>640.3800000</ele>
        <time>2010-03-14T09:53:19Z</time>
      </trkpt>
      <trkpt lat="45.7286950" lon="8.3455510">
        <ele>640.3800000</ele>
        <time>2010-03-14T09:53:34Z</time>
      </trkpt>
      <trkpt lat="45.7287450" lon="8.3455250">
        <ele>640.3800000</ele>
        <time>2010-03-14T09:53:38Z</time>
      </trkpt>
      <trkpt lat="45.7288640" lon="8.3454530">
        <ele>642.3000000</ele>
        <time>2010-03-14T09:53:43Z</time>
      </trkpt>
      <trkpt lat="45.7289480" lon="8.3454240">
        <ele>642.3000000</ele>
        <time>2010-03-14T09:53:46Z</time>
      </trkpt>
      <trkpt lat="45.7290520" lon="8.3453630">
        <ele>643.2600000</ele>
        <time>2010-03-14T09:53:51Z</time>
      </trkpt>
      <trkpt lat="45.7291350" lon="8.3451930">
        <ele>641.3400000</ele>
        <time>2010-03-14T09:53:58Z</time>
      </trkpt>
      <trkpt lat="45.7291970" lon="8.3451250">
        <ele>638.9300000</ele>
        <time>2010-03-14T09:54:02Z</time>
      </trkpt>
      <trkpt lat="45.7293270" lon="8.3448910">
        <ele>634.6100000</ele>
        <time>2010-03-14T09:54:08Z</time>
      </trkpt>
      <trkpt lat="45.7293810" lon="8.3447920">
        <ele>631.7200000</ele>
        <time>2010-03-14T09:54:11Z</time>
      </trkpt>
      <trkpt lat="45.7294130" lon="8.3447310">
        <ele>629.8000000</ele>
        <time>2010-03-14T09:54:14Z</time>
      </trkpt>
      <trkpt lat="45.7295090" lon="8.3445210">
        <ele>625.4700000</ele>
        <time>2010-03-14T09:55:40Z</time>
      </trkpt>
      <trkpt lat="45.7295800" lon="8.3443530">
        <ele>622.5900000</ele>
        <time>2010-03-14T09:55:43Z</time>
      </trkpt>
      <trkpt lat="45.7295950" lon="8.3443280">
        <ele>622.5900000</ele>
        <time>2010-03-14T09:55:44Z</time>
      </trkpt>
      <trkpt lat="45.7297290" lon="8.3440930">
        <ele>619.2300000</ele>
        <time>2010-03-14T09:55:50Z</time>
      </trkpt>
      <trkpt lat="45.7297830" lon="8.3439360">
        <ele>615.8600000</ele>
        <time>2010-03-14T09:55:56Z</time>
      </trkpt>
      <trkpt lat="45.7298510" lon="8.3437910">
        <ele>613.4600000</ele>
        <time>2010-03-14T09:56:03Z</time>
      </trkpt>
      <trkpt lat="45.7298660" lon="8.3437750">
        <ele>612.9800000</ele>
        <time>2010-03-14T09:56:04Z</time>
      </trkpt>
      <trkpt lat="45.7299380" lon="8.3436810">
        <ele>610.5700000</ele>
        <time>2010-03-14T09:56:08Z</time>
      </trkpt>
      <trkpt lat="45.7300330" lon="8.3435780">
        <ele>605.7700000</ele>
        <time>2010-03-14T09:56:12Z</time>
      </trkpt>
      <trkpt lat="45.7300850" lon="8.3434690">
        <ele>602.4000000</ele>
        <time>2010-03-14T09:56:16Z</time>
      </trkpt>
      <trkpt lat="45.7300940" lon="8.3434420">
        <ele>601.9200000</ele>
        <time>2010-03-14T09:56:18Z</time>
      </trkpt>
      <trkpt lat="45.7301720" lon="8.3432750">
        <ele>598.5600000</ele>
        <time>2010-03-14T09:56:28Z</time>
      </trkpt>
      <trkpt lat="45.7302330" lon="8.3431580">
        <ele>594.7100000</ele>
        <time>2010-03-14T09:56:34Z</time>
      </trkpt>
      <trkpt lat="45.7302460" lon="8.3430580">
        <ele>592.7900000</ele>
        <time>2010-03-14T09:56:38Z</time>
      </trkpt>
      <trkpt lat="45.7302530" lon="8.3430480">
        <ele>592.3100000</ele>
        <time>2010-03-14T09:56:41Z</time>
      </trkpt>
      <trkpt lat="45.7302840" lon="8.3430410">
        <ele>591.8300000</ele>
        <time>2010-03-14T09:56:43Z</time>
      </trkpt>
      <trkpt lat="45.7303080" lon="8.3429950">
        <ele>590.3900000</ele>
        <time>2010-03-14T09:56:46Z</time>
      </trkpt>
      <trkpt lat="45.7303270" lon="8.3428960">
        <ele>587.5000000</ele>
        <time>2010-03-14T09:56:49Z</time>
      </trkpt>
      <trkpt lat="45.7303020" lon="8.3427360">
        <ele>583.6600000</ele>
        <time>2010-03-14T09:56:55Z</time>
      </trkpt>
      <trkpt lat="45.7303040" lon="8.3427280">
        <ele>583.6600000</ele>
        <time>2010-03-14T09:56:56Z</time>
      </trkpt>
      <trkpt lat="45.7303040" lon="8.3427280">
        <ele>583.1800000</ele>
        <time>2010-03-14T09:58:07Z</time>
      </trkpt>
      <trkpt lat="45.7303250" lon="8.3427060">
        <ele>581.7300000</ele>
        <time>2010-03-14T09:58:09Z</time>
      </trkpt>
      <trkpt lat="45.7303990" lon="8.3426090">
        <ele>579.8100000</ele>
        <time>2010-03-14T09:58:14Z</time>
      </trkpt>
      <trkpt lat="45.7304380" lon="8.3424870">
        <ele>575.9700000</ele>
        <time>2010-03-14T09:58:19Z</time>
      </trkpt>
      <trkpt lat="45.7304770" lon="8.3423900">
        <ele>575.0100000</ele>
        <time>2010-03-14T09:58:21Z</time>
      </trkpt>
      <trkpt lat="45.7306950" lon="8.3418900">
        <ele>572.6000000</ele>
        <time>2010-03-14T09:58:30Z</time>
      </trkpt>
      <trkpt lat="45.7307460" lon="8.3417340">
        <ele>571.6400000</ele>
        <time>2010-03-14T09:58:33Z</time>
      </trkpt>
      <trkpt lat="45.7307730" lon="8.3416060">
        <ele>570.2000000</ele>
        <time>2010-03-14T09:58:36Z</time>
      </trkpt>
      <trkpt lat="45.7308630" lon="8.3413630">
        <ele>566.8300000</ele>
        <time>2010-03-14T09:58:47Z</time>
      </trkpt>
      <trkpt lat="45.7308690" lon="8.3413570">
        <ele>566.3500000</ele>
        <time>2010-03-14T09:58:48Z</time>
      </trkpt>
      <trkpt lat="45.7308730" lon="8.3413530">
        <ele>566.3500000</ele>
        <time>2010-03-14T09:58:54Z</time>
      </trkpt>
      <trkpt lat="45.7308590" lon="8.3412830">
        <ele>564.4300000</ele>
        <time>2010-03-14T09:58:57Z</time>
      </trkpt>
      <trkpt lat="45.7308600" lon="8.3411830">
        <ele>562.5100000</ele>
        <time>2010-03-14T09:59:00Z</time>
      </trkpt>
      <trkpt lat="45.7308790" lon="8.3410440">
        <ele>558.1800000</ele>
        <time>2010-03-14T09:59:05Z</time>
      </trkpt>
      <trkpt lat="45.7309210" lon="8.3408810">
        <ele>553.3800000</ele>
        <time>2010-03-14T09:59:10Z</time>
      </trkpt>
      <trkpt lat="45.7309130" lon="8.3407900">
        <ele>550.0100000</ele>
        <time>2010-03-14T09:59:13Z</time>
      </trkpt>
      <trkpt lat="45.7309240" lon="8.3407140">
        <ele>548.5700000</ele>
        <time>2010-03-14T09:59:16Z</time>
      </trkpt>
      <trkpt lat="45.7309440" lon="8.3407040">
        <ele>548.5700000</ele>
        <time>2010-03-14T09:59:44Z</time>
      </trkpt>
      <trkpt lat="45.7309460" lon="8.3406940">
        <ele>548.5700000</ele>
        <time>2010-03-14T10:01:22Z</time>
      </trkpt>
      <trkpt lat="45.7309880" lon="8.3406230">
        <ele>547.6100000</ele>
        <time>2010-03-14T10:01:31Z</time>
      </trkpt>
      <trkpt lat="45.7310230" lon="8.3406140">
        <ele>547.6100000</ele>
        <time>2010-03-14T10:01:33Z</time>
      </trkpt>
      <trkpt lat="45.7311210" lon="8.3404280">
        <ele>547.6100000</ele>
        <time>2010-03-14T10:01:40Z</time>
      </trkpt>
      <trkpt lat="45.7311410" lon="8.3403160">
        <ele>548.5700000</ele>
        <time>2010-03-14T10:01:44Z</time>
      </trkpt>
      <trkpt lat="45.7311740" lon="8.3401390">
        <ele>548.0900000</ele>
        <time>2010-03-14T10:01:51Z</time>
      </trkpt>
      <trkpt lat="45.7311770" lon="8.3400850">
        <ele>546.6500000</ele>
        <time>2010-03-14T10:01:53Z</time>
      </trkpt>
      <trkpt lat="45.7311970" lon="8.3398350">
        <ele>543.2800000</ele>
        <time>2010-03-14T10:01:58Z</time>
      </trkpt>
      <trkpt lat="45.7312090" lon="8.3397690">
        <ele>541.8400000</ele>
        <time>2010-03-14T10:02:00Z</time>
      </trkpt>
      <trkpt lat="45.7312360" lon="8.3396820">
        <ele>539.4400000</ele>
        <time>2010-03-14T10:02:04Z</time>
      </trkpt>
      <trkpt lat="45.7312630" lon="8.3395020">
        <ele>536.0700000</ele>
        <time>2010-03-14T10:02:08Z</time>
      </trkpt>
      <trkpt lat="45.7312630" lon="8.3393250">
        <ele>532.2300000</ele>
        <time>2010-03-14T10:02:11Z</time>
      </trkpt>
      <trkpt lat="45.7312280" lon="8.3390680">
        <ele>527.9000000</ele>
        <time>2010-03-14T10:02:15Z</time>
      </trkpt>
      <trkpt lat="45.7311950" lon="8.3389560">
        <ele>526.9400000</ele>
        <time>2010-03-14T10:02:17Z</time>
      </trkpt>
      <trkpt lat="45.7311710" lon="8.3388320">
        <ele>525.9800000</ele>
        <time>2010-03-14T10:02:19Z</time>
      </trkpt>
      <trkpt lat="45.7311460" lon="8.3387610">
        <ele>524.5400000</ele>
        <time>2010-03-14T10:02:21Z</time>
      </trkpt>
      <trkpt lat="45.7311500" lon="8.3385860">
        <ele>521.6500000</ele>
        <time>2010-03-14T10:02:25Z</time>
      </trkpt>
      <trkpt lat="45.7311390" lon="8.3385390">
        <ele>521.1700000</ele>
        <time>2010-03-14T10:02:26Z</time>
      </trkpt>
      <trkpt lat="45.7310800" lon="8.3383790">
        <ele>518.7700000</ele>
        <time>2010-03-14T10:02:36Z</time>
      </trkpt>
      <trkpt lat="45.7310990" lon="8.3383590">
        <ele>518.7700000</ele>
        <time>2010-03-14T10:03:32Z</time>
      </trkpt>
      <trkpt lat="45.7310430" lon="8.3382260">
        <ele>515.8800000</ele>
        <time>2010-03-14T10:04:03Z</time>
      </trkpt>
      <trkpt lat="45.7310140" lon="8.3381910">
        <ele>515.4000000</ele>
        <time>2010-03-14T10:04:04Z</time>
      </trkpt>
      <trkpt lat="45.7309950" lon="8.3381020">
        <ele>514.4400000</ele>
        <time>2010-03-14T10:04:06Z</time>
      </trkpt>
      <trkpt lat="45.7309710" lon="8.3379170">
        <ele>511.5600000</ele>
        <time>2010-03-14T10:04:09Z</time>
      </trkpt>
      <trkpt lat="45.7309550" lon="8.3376750">
        <ele>508.6700000</ele>
        <time>2010-03-14T10:04:12Z</time>
      </trkpt>
      <trkpt lat="45.7308490" lon="8.3371280">
        <ele>502.9100000</ele>
        <time>2010-03-14T10:04:18Z</time>
      </trkpt>
      <trkpt lat="45.7308200" lon="8.3367850">
        <ele>500.0200000</ele>
        <time>2010-03-14T10:04:22Z</time>
      </trkpt>
      <trkpt lat="45.7308270" lon="8.3365400">
        <ele>497.6200000</ele>
        <time>2010-03-14T10:04:26Z</time>
      </trkpt>
      <trkpt lat="45.7308520" lon="8.3362480">
        <ele>493.7700000</ele>
        <time>2010-03-14T10:04:34Z</time>
      </trkpt>
      <trkpt lat="45.7308810" lon="8.3361100">
        <ele>491.3700000</ele>
        <time>2010-03-14T10:04:37Z</time>
      </trkpt>
      <trkpt lat="45.7308940" lon="8.3360430">
        <ele>489.9300000</ele>
        <time>2010-03-14T10:04:39Z</time>
      </trkpt>
      <trkpt lat="45.7308720" lon="8.3358840">
        <ele>486.0800000</ele>
        <time>2010-03-14T10:04:43Z</time>
      </trkpt>
      <trkpt lat="45.7308380" lon="8.3357600">
        <ele>483.2000000</ele>
        <time>2010-03-14T10:04:46Z</time>
      </trkpt>
      <trkpt lat="45.7308150" lon="8.3356320">
        <ele>479.3500000</ele>
        <time>2010-03-14T10:04:48Z</time>
      </trkpt>
      <trkpt lat="45.7308040" lon="8.3355240">
        <ele>477.4300000</ele>
        <time>2010-03-14T10:04:50Z</time>
      </trkpt>
      <trkpt lat="45.7307260" lon="8.3352490">
        <ele>473.1100000</ele>
        <time>2010-03-14T10:04:54Z</time>
      </trkpt>
      <trkpt lat="45.7307030" lon="8.3350660">
        <ele>469.2600000</ele>
        <time>2010-03-14T10:04:57Z</time>
      </trkpt>
      <trkpt lat="45.7307010" lon="8.3349530">
        <ele>466.8600000</ele>
        <time>2010-03-14T10:05:00Z</time>
      </trkpt>
      <trkpt lat="45.7306980" lon="8.3347770">
        <ele>463.0100000</ele>
        <time>2010-03-14T10:05:05Z</time>
      </trkpt>
      <trkpt lat="45.7306640" lon="8.3347190">
        <ele>461.5700000</ele>
        <time>2010-03-14T10:05:07Z</time>
      </trkpt>
      <trkpt lat="45.7306020" lon="8.3345620">
        <ele>457.2400000</ele>
        <time>2010-03-14T10:05:14Z</time>
      </trkpt>
      <trkpt lat="45.7305960" lon="8.3345320">
        <ele>457.2400000</ele>
        <time>2010-03-14T10:05:39Z</time>
      </trkpt>
      <trkpt lat="45.7305790" lon="8.3345090">
        <ele>455.8000000</ele>
        <time>2010-03-14T10:05:41Z</time>
      </trkpt>
      <trkpt lat="45.7305800" lon="8.3344460">
        <ele>454.3600000</ele>
        <time>2010-03-14T10:05:43Z</time>
      </trkpt>
      <trkpt lat="45.7305340" lon="8.3343090">
        <ele>450.0300000</ele>
        <time>2010-03-14T10:05:49Z</time>
      </trkpt>
      <trkpt lat="45.7305410" lon="8.3342930">
        <ele>450.0300000</ele>
        <time>2010-03-14T10:05:50Z</time>
      </trkpt>
      <trkpt lat="45.7305220" lon="8.3342210">
        <ele>448.5900000</ele>
        <time>2010-03-14T10:05:53Z</time>
      </trkpt>
      <trkpt lat="45.7305090" lon="8.3341770">
        <ele>447.1500000</ele>
        <time>2010-03-14T10:05:55Z</time>
      </trkpt>
      <trkpt lat="45.7305060" lon="8.3341700">
        <ele>446.6700000</ele>
        <time>2010-03-14T10:06:09Z</time>
      </trkpt>
      <trkpt lat="45.7305160" lon="8.3341390">
        <ele>445.2300000</ele>
        <time>2010-03-14T10:06:22Z</time>
      </trkpt>
      <trkpt lat="45.7305130" lon="8.3341240">
        <ele>446.1900000</ele>
        <time>2010-03-14T10:08:03Z</time>
      </trkpt>
      <trkpt lat="45.7304990" lon="8.3341360">
        <ele>445.2300000</ele>
        <time>2010-03-14T10:08:05Z</time>
      </trkpt>
      <trkpt lat="45.7304930" lon="8.3341300">
        <ele>444.7500000</ele>
        <time>2010-03-14T10:08:06Z</time>
      </trkpt>
      <trkpt lat="45.7304480" lon="8.3340210">
        <ele>442.3400000</ele>
        <time>2010-03-14T10:08:12Z</time>
      </trkpt>
      <trkpt lat="45.7304360" lon="8.3339760">
        <ele>441.3800000</ele>
        <time>2010-03-14T10:08:14Z</time>
      </trkpt>
      <trkpt lat="45.7304320" lon="8.3338660">
        <ele>438.5000000</ele>
        <time>2010-03-14T10:08:18Z</time>
      </trkpt>
      <trkpt lat="45.7304370" lon="8.3338060">
        <ele>437.5400000</ele>
        <time>2010-03-14T10:08:20Z</time>
      </trkpt>
      <trkpt lat="45.7304540" lon="8.3337530">
        <ele>437.0600000</ele>
        <time>2010-03-14T10:08:23Z</time>
      </trkpt>
      <trkpt lat="45.7305260" lon="8.3336840">
        <ele>433.6900000</ele>
        <time>2010-03-14T10:08:29Z</time>
      </trkpt>
      <trkpt lat="45.7305780" lon="8.3335910">
        <ele>429.8500000</ele>
        <time>2010-03-14T10:08:34Z</time>
      </trkpt>
      <trkpt lat="45.7306250" lon="8.3335790">
        <ele>428.4000000</ele>
        <time>2010-03-14T10:08:43Z</time>
      </trkpt>
      <trkpt lat="45.7306260" lon="8.3336000">
        <ele>428.8900000</ele>
        <time>2010-03-14T10:10:53Z</time>
      </trkpt>
      <trkpt lat="45.7306400" lon="8.3336460">
        <ele>428.8900000</ele>
        <time>2010-03-14T10:11:40Z</time>
      </trkpt>
      <trkpt lat="45.7306360" lon="8.3336680">
        <ele>429.3700000</ele>
        <time>2010-03-14T10:11:52Z</time>
      </trkpt>
      <trkpt lat="45.7306350" lon="8.3337100">
        <ele>429.8500000</ele>
        <time>2010-03-14T10:13:39Z</time>
      </trkpt>
      <trkpt lat="45.7307710" lon="8.3340150">
        <ele>430.8100000</ele>
        <time>2010-03-14T10:13:55Z</time>
      </trkpt>
      <trkpt lat="45.7309940" lon="8.3343210">
        <ele>432.7300000</ele>
        <time>2010-03-14T10:14:11Z</time>
      </trkpt>
      <trkpt lat="45.7312600" lon="8.3345380">
        <ele>433.2100000</ele>
        <time>2010-03-14T10:14:26Z</time>
      </trkpt>
      <trkpt lat="45.7316560" lon="8.3346810">
        <ele>435.1300000</ele>
        <time>2010-03-14T10:14:44Z</time>
      </trkpt>
      <trkpt lat="45.7319140" lon="8.3351450">
        <ele>437.0600000</ele>
        <time>2010-03-14T10:15:02Z</time>
      </trkpt>
      <trkpt lat="45.7320780" lon="8.3356990">
        <ele>438.9800000</ele>
        <time>2010-03-14T10:15:21Z</time>
      </trkpt>
      <trkpt lat="45.7323600" lon="8.3362150">
        <ele>439.9400000</ele>
        <time>2010-03-14T10:15:41Z</time>
      </trkpt>
      <trkpt lat="45.7326310" lon="8.3366200">
        <ele>442.3400000</ele>
        <time>2010-03-14T10:15:58Z</time>
      </trkpt>
      <trkpt lat="45.7328920" lon="8.3370200">
        <ele>444.2700000</ele>
        <time>2010-03-14T10:16:14Z</time>
      </trkpt>
      <trkpt lat="45.7331690" lon="8.3374400">
        <ele>445.7100000</ele>
        <time>2010-03-14T10:16:31Z</time>
      </trkpt>
      <trkpt lat="45.7333910" lon="8.3377820">
        <ele>447.1500000</ele>
        <time>2010-03-14T10:16:45Z</time>
      </trkpt>
      <trkpt lat="45.7336620" lon="8.3381480">
        <ele>449.0700000</ele>
        <time>2010-03-14T10:17:01Z</time>
      </trkpt>
      <trkpt lat="45.7339160" lon="8.3385670">
        <ele>450.5200000</ele>
        <time>2010-03-14T10:17:18Z</time>
      </trkpt>
      <trkpt lat="45.7341010" lon="8.3389960">
        <ele>452.4400000</ele>
        <time>2010-03-14T10:17:35Z</time>
      </trkpt>
      <trkpt lat="45.7341800" lon="8.3395810">
        <ele>455.3200000</ele>
        <time>2010-03-14T10:17:55Z</time>
      </trkpt>
      <trkpt lat="45.7341570" lon="8.3401000">
        <ele>456.7600000</ele>
        <time>2010-03-14T10:18:12Z</time>
      </trkpt>
      <trkpt lat="45.7341790" lon="8.3405500">
        <ele>458.2100000</ele>
        <time>2010-03-14T10:18:27Z</time>
      </trkpt>
      <trkpt lat="45.7343100" lon="8.3409690">
        <ele>460.1300000</ele>
        <time>2010-03-14T10:18:42Z</time>
      </trkpt>
      <trkpt lat="45.7343160" lon="8.3414080">
        <ele>462.5300000</ele>
        <time>2010-03-14T10:18:57Z</time>
      </trkpt>
      <trkpt lat="45.7341460" lon="8.3417390">
        <ele>465.9000000</ele>
        <time>2010-03-14T10:19:10Z</time>
      </trkpt>
      <trkpt lat="45.7340990" lon="8.3421380">
        <ele>467.3400000</ele>
        <time>2010-03-14T10:19:25Z</time>
      </trkpt>
      <trkpt lat="45.7341880" lon="8.3425630">
        <ele>468.7800000</ele>
        <time>2010-03-14T10:19:41Z</time>
      </trkpt>
      <trkpt lat="45.7341980" lon="8.3430800">
        <ele>470.2200000</ele>
        <time>2010-03-14T10:19:59Z</time>
      </trkpt>
      <trkpt lat="45.7341960" lon="8.3435400">
        <ele>472.1400000</ele>
        <time>2010-03-14T10:20:15Z</time>
      </trkpt>
      <trkpt lat="45.7343010" lon="8.3439150">
        <ele>474.0700000</ele>
        <time>2010-03-14T10:20:29Z</time>
      </trkpt>
      <trkpt lat="45.7345130" lon="8.3443170">
        <ele>475.5100000</ele>
        <time>2010-03-14T10:20:46Z</time>
      </trkpt>
      <trkpt lat="45.7346920" lon="8.3446260">
        <ele>476.9500000</ele>
        <time>2010-03-14T10:20:59Z</time>
      </trkpt>
      <trkpt lat="45.7349410" lon="8.3448540">
        <ele>478.3900000</ele>
        <time>2010-03-14T10:21:12Z</time>
      </trkpt>
      <trkpt lat="45.7352280" lon="8.3450280">
        <ele>479.8400000</ele>
        <time>2010-03-14T10:21:27Z</time>
      </trkpt>
      <trkpt lat="45.7355850" lon="8.3452010">
        <ele>480.8000000</ele>
        <time>2010-03-14T10:21:45Z</time>
      </trkpt>
      <trkpt lat="45.7359320" lon="8.3453670">
        <ele>483.2000000</ele>
        <time>2010-03-14T10:22:02Z</time>
      </trkpt>
      <trkpt lat="45.7361300" lon="8.3455880">
        <ele>484.6400000</ele>
        <time>2010-03-14T10:22:14Z</time>
      </trkpt>
      <trkpt lat="45.7363300" lon="8.3458500">
        <ele>486.5600000</ele>
        <time>2010-03-14T10:22:26Z</time>
      </trkpt>
      <trkpt lat="45.7365930" lon="8.3461240">
        <ele>488.0100000</ele>
        <time>2010-03-14T10:22:41Z</time>
      </trkpt>
      <trkpt lat="45.7369050" lon="8.3462530">
        <ele>489.9300000</ele>
        <time>2010-03-14T10:22:56Z</time>
      </trkpt>
      <trkpt lat="45.7372770" lon="8.3463260">
        <ele>491.8500000</ele>
        <time>2010-03-14T10:23:13Z</time>
      </trkpt>
      <trkpt lat="45.7376230" lon="8.3463790">
        <ele>492.8100000</ele>
        <time>2010-03-14T10:23:28Z</time>
      </trkpt>
      <trkpt lat="45.7379350" lon="8.3464180">
        <ele>494.7400000</ele>
        <time>2010-03-14T10:23:42Z</time>
      </trkpt>
      <trkpt lat="45.7382470" lon="8.3464760">
        <ele>496.1800000</ele>
        <time>2010-03-14T10:23:57Z</time>
      </trkpt>
      <trkpt lat="45.7384590" lon="8.3467010">
        <ele>498.1000000</ele>
        <time>2010-03-14T10:24:11Z</time>
      </trkpt>
      <trkpt lat="45.7385330" lon="8.3471510">
        <ele>499.5400000</ele>
        <time>2010-03-14T10:24:27Z</time>
      </trkpt>
      <trkpt lat="45.7383710" lon="8.3475370">
        <ele>500.9800000</ele>
        <time>2010-03-14T10:24:44Z</time>
      </trkpt>
      <trkpt lat="45.7380720" lon="8.3476180">
        <ele>502.9100000</ele>
        <time>2010-03-14T10:25:00Z</time>
      </trkpt>
      <trkpt lat="45.7378130" lon="8.3474380">
        <ele>505.3100000</ele>
        <time>2010-03-14T10:25:15Z</time>
      </trkpt>
      <trkpt lat="45.7375400" lon="8.3473140">
        <ele>506.7500000</ele>
        <time>2010-03-14T10:25:30Z</time>
      </trkpt>
      <trkpt lat="45.7372750" lon="8.3473540">
        <ele>507.2300000</ele>
        <time>2010-03-14T10:25:44Z</time>
      </trkpt>
      <trkpt lat="45.7369830" lon="8.3475550">
        <ele>508.6700000</ele>
        <time>2010-03-14T10:26:00Z</time>
      </trkpt>
      <trkpt lat="45.7367600" lon="8.3478190">
        <ele>510.6000000</ele>
        <time>2010-03-14T10:26:16Z</time>
      </trkpt>
      <trkpt lat="45.7366960" lon="8.3482560">
        <ele>512.0400000</ele>
        <time>2010-03-14T10:26:32Z</time>
      </trkpt>
      <trkpt lat="45.7367690" lon="8.3487140">
        <ele>513.9600000</ele>
        <time>2010-03-14T10:26:48Z</time>
      </trkpt>
      <trkpt lat="45.7368410" lon="8.3491540">
        <ele>515.4000000</ele>
        <time>2010-03-14T10:27:03Z</time>
      </trkpt>
      <trkpt lat="45.7369400" lon="8.3496570">
        <ele>517.3300000</ele>
        <time>2010-03-14T10:27:20Z</time>
      </trkpt>
      <trkpt lat="45.7371180" lon="8.3500190">
        <ele>519.2500000</ele>
        <time>2010-03-14T10:27:35Z</time>
      </trkpt>
      <trkpt lat="45.7373290" lon="8.3501920">
        <ele>520.2100000</ele>
        <time>2010-03-14T10:27:47Z</time>
      </trkpt>
      <trkpt lat="45.7376130" lon="8.3504120">
        <ele>522.1300000</ele>
        <time>2010-03-14T10:28:02Z</time>
      </trkpt>
      <trkpt lat="45.7378790" lon="8.3507230">
        <ele>523.5800000</ele>
        <time>2010-03-14T10:28:18Z</time>
      </trkpt>
      <trkpt lat="45.7380860" lon="8.3510670">
        <ele>525.9800000</ele>
        <time>2010-03-14T10:28:33Z</time>
      </trkpt>
      <trkpt lat="45.7383240" lon="8.3514820">
        <ele>527.4200000</ele>
        <time>2010-03-14T10:28:50Z</time>
      </trkpt>
      <trkpt lat="45.7385290" lon="8.3518380">
        <ele>530.3000000</ele>
        <time>2010-03-14T10:29:05Z</time>
      </trkpt>
      <trkpt lat="45.7387470" lon="8.3522500">
        <ele>531.7500000</ele>
        <time>2010-03-14T10:29:22Z</time>
      </trkpt>
      <trkpt lat="45.7390450" lon="8.3525040">
        <ele>533.6700000</ele>
        <time>2010-03-14T10:29:38Z</time>
      </trkpt>
      <trkpt lat="45.7394130" lon="8.3525190">
        <ele>535.5900000</ele>
        <time>2010-03-14T10:29:55Z</time>
      </trkpt>
      <trkpt lat="45.7398080" lon="8.3524490">
        <ele>537.9900000</ele>
        <time>2010-03-14T10:30:14Z</time>
      </trkpt>
      <trkpt lat="45.7401380" lon="8.3523930">
        <ele>539.9200000</ele>
        <time>2010-03-14T10:30:30Z</time>
      </trkpt>
      <trkpt lat="45.7404870" lon="8.3524210">
        <ele>541.3600000</ele>
        <time>2010-03-14T10:30:46Z</time>
      </trkpt>
      <trkpt lat="45.7407820" lon="8.3525180">
        <ele>542.3200000</ele>
        <time>2010-03-14T10:31:00Z</time>
      </trkpt>
      <trkpt lat="45.7411020" lon="8.3526560">
        <ele>544.7200000</ele>
        <time>2010-03-14T10:31:16Z</time>
      </trkpt>
      <trkpt lat="45.7412080" lon="8.3530450">
        <ele>545.6900000</ele>
        <time>2010-03-14T10:31:30Z</time>
      </trkpt>
      <trkpt lat="45.7409840" lon="8.3532930">
        <ele>547.6100000</ele>
        <time>2010-03-14T10:31:44Z</time>
      </trkpt>
      <trkpt lat="45.7406720" lon="8.3532230">
        <ele>549.0500000</ele>
        <time>2010-03-14T10:31:59Z</time>
      </trkpt>
      <trkpt lat="45.7403590" lon="8.3532240">
        <ele>551.4500000</ele>
        <time>2010-03-14T10:32:15Z</time>
      </trkpt>
      <trkpt lat="45.7400550" lon="8.3533570">
        <ele>553.3800000</ele>
        <time>2010-03-14T10:32:31Z</time>
      </trkpt>
      <trkpt lat="45.7398680" lon="8.3535720">
        <ele>554.3400000</ele>
        <time>2010-03-14T10:32:44Z</time>
      </trkpt>
      <trkpt lat="45.7397360" lon="8.3539710">
        <ele>556.7400000</ele>
        <time>2010-03-14T10:33:01Z</time>
      </trkpt>
      <trkpt lat="45.7398750" lon="8.3542970">
        <ele>557.7000000</ele>
        <time>2010-03-14T10:33:16Z</time>
      </trkpt>
      <trkpt lat="45.7400420" lon="8.3546120">
        <ele>559.6200000</ele>
        <time>2010-03-14T10:33:32Z</time>
      </trkpt>
      <trkpt lat="45.7400920" lon="8.3547080">
        <ele>559.1400000</ele>
        <time>2010-03-14T10:33:45Z</time>
      </trkpt>
      <trkpt lat="45.7400930" lon="8.3546840">
        <ele>559.1400000</ele>
        <time>2010-03-14T10:35:16Z</time>
      </trkpt>
      <trkpt lat="45.7401110" lon="8.3546330">
        <ele>557.7000000</ele>
        <time>2010-03-14T10:40:15Z</time>
      </trkpt>
      <trkpt lat="45.7400440" lon="8.3543030">
        <ele>559.6200000</ele>
        <time>2010-03-14T10:40:29Z</time>
      </trkpt>
      <trkpt lat="45.7399420" lon="8.3540390">
        <ele>561.0700000</ele>
        <time>2010-03-14T10:40:41Z</time>
      </trkpt>
      <trkpt lat="45.7400670" lon="8.3536460">
        <ele>562.9900000</ele>
        <time>2010-03-14T10:40:56Z</time>
      </trkpt>
      <trkpt lat="45.7403300" lon="8.3536300">
        <ele>564.4300000</ele>
        <time>2010-03-14T10:41:10Z</time>
      </trkpt>
      <trkpt lat="45.7406840" lon="8.3537150">
        <ele>567.3200000</ele>
        <time>2010-03-14T10:41:29Z</time>
      </trkpt>
      <trkpt lat="45.7409730" lon="8.3538460">
        <ele>570.2000000</ele>
        <time>2010-03-14T10:41:45Z</time>
      </trkpt>
      <trkpt lat="45.7412160" lon="8.3537350">
        <ele>571.6400000</ele>
        <time>2010-03-14T10:41:59Z</time>
      </trkpt>
      <trkpt lat="45.7413920" lon="8.3538190">
        <ele>573.0800000</ele>
        <time>2010-03-14T10:42:09Z</time>
      </trkpt>
      <trkpt lat="45.7416580" lon="8.3539960">
        <ele>575.0100000</ele>
        <time>2010-03-14T10:42:24Z</time>
      </trkpt>
      <trkpt lat="45.7418740" lon="8.3542370">
        <ele>576.9300000</ele>
        <time>2010-03-14T10:42:38Z</time>
      </trkpt>
      <trkpt lat="45.7419800" lon="8.3543270">
        <ele>577.4100000</ele>
        <time>2010-03-14T10:42:45Z</time>
      </trkpt>
      <trkpt lat="45.7420270" lon="8.3543690">
        <ele>578.3700000</ele>
        <time>2010-03-14T10:42:48Z</time>
      </trkpt>
      <trkpt lat="45.7423240" lon="8.3544590">
        <ele>580.2900000</ele>
        <time>2010-03-14T10:43:07Z</time>
      </trkpt>
      <trkpt lat="45.7424670" lon="8.3545890">
        <ele>582.2200000</ele>
        <time>2010-03-14T10:43:21Z</time>
      </trkpt>
      <trkpt lat="45.7427060" lon="8.3545790">
        <ele>583.1800000</ele>
        <time>2010-03-14T10:43:35Z</time>
      </trkpt>
      <trkpt lat="45.7429270" lon="8.3544200">
        <ele>584.6200000</ele>
        <time>2010-03-14T10:43:50Z</time>
      </trkpt>
      <trkpt lat="45.7429450" lon="8.3541970">
        <ele>586.0600000</ele>
        <time>2010-03-14T10:44:03Z</time>
      </trkpt>
      <trkpt lat="45.7428080" lon="8.3540550">
        <ele>587.5000000</ele>
        <time>2010-03-14T10:44:14Z</time>
      </trkpt>
      <trkpt lat="45.7427150" lon="8.3540240">
        <ele>587.9800000</ele>
        <time>2010-03-14T10:44:20Z</time>
      </trkpt>
      <trkpt lat="45.7426300" lon="8.3540090">
        <ele>588.9500000</ele>
        <time>2010-03-14T10:44:26Z</time>
      </trkpt>
      <trkpt lat="45.7426180" lon="8.3537030">
        <ele>589.9100000</ele>
        <time>2010-03-14T10:44:37Z</time>
      </trkpt>
      <trkpt lat="45.7426140" lon="8.3533220">
        <ele>592.3100000</ele>
        <time>2010-03-14T10:44:53Z</time>
      </trkpt>
      <trkpt lat="45.7424770" lon="8.3531180">
        <ele>593.7500000</ele>
        <time>2010-03-14T10:45:07Z</time>
      </trkpt>
      <trkpt lat="45.7423010" lon="8.3529360">
        <ele>594.7100000</ele>
        <time>2010-03-14T10:45:21Z</time>
      </trkpt>
      <trkpt lat="45.7423380" lon="8.3525680">
        <ele>596.6400000</ele>
        <time>2010-03-14T10:45:35Z</time>
      </trkpt>
      <trkpt lat="45.7424830" lon="8.3522840">
        <ele>597.6000000</ele>
        <time>2010-03-14T10:45:49Z</time>
      </trkpt>
      <trkpt lat="45.7426480" lon="8.3520120">
        <ele>600.0000000</ele>
        <time>2010-03-14T10:46:05Z</time>
      </trkpt>
      <trkpt lat="45.7428400" lon="8.3517760">
        <ele>601.4400000</ele>
        <time>2010-03-14T10:46:19Z</time>
      </trkpt>
      <trkpt lat="45.7428640" lon="8.3517480">
        <ele>601.4400000</ele>
        <time>2010-03-14T10:46:21Z</time>
      </trkpt>
      <trkpt lat="45.7429560" lon="8.3514960">
        <ele>603.3600000</ele>
        <time>2010-03-14T10:46:35Z</time>
      </trkpt>
      <trkpt lat="45.7429260" lon="8.3514170">
        <ele>602.8800000</ele>
        <time>2010-03-14T10:46:39Z</time>
      </trkpt>
      <trkpt lat="45.7426770" lon="8.3514000">
        <ele>604.3300000</ele>
        <time>2010-03-14T10:46:51Z</time>
      </trkpt>
      <trkpt lat="45.7424280" lon="8.3514640">
        <ele>605.7700000</ele>
        <time>2010-03-14T10:47:03Z</time>
      </trkpt>
      <trkpt lat="45.7420990" lon="8.3513020">
        <ele>606.7300000</ele>
        <time>2010-03-14T10:47:19Z</time>
      </trkpt>
      <trkpt lat="45.7418750" lon="8.3509340">
        <ele>607.2100000</ele>
        <time>2010-03-14T10:47:36Z</time>
      </trkpt>
      <trkpt lat="45.7421190" lon="8.3505830">
        <ele>608.1700000</ele>
        <time>2010-03-14T10:47:51Z</time>
      </trkpt>
      <trkpt lat="45.7423700" lon="8.3503080">
        <ele>608.6500000</ele>
        <time>2010-03-14T10:48:05Z</time>
      </trkpt>
      <trkpt lat="45.7427030" lon="8.3501560">
        <ele>609.6100000</ele>
        <time>2010-03-14T10:48:20Z</time>
      </trkpt>
      <trkpt lat="45.7430940" lon="8.3500110">
        <ele>611.5400000</ele>
        <time>2010-03-14T10:48:38Z</time>
      </trkpt>
      <trkpt lat="45.7433290" lon="8.3497780">
        <ele>612.9800000</ele>
        <time>2010-03-14T10:48:50Z</time>
      </trkpt>
      <trkpt lat="45.7434210" lon="8.3497190">
        <ele>613.4600000</ele>
        <time>2010-03-14T10:48:54Z</time>
      </trkpt>
      <trkpt lat="45.7435090" lon="8.3496060">
        <ele>613.4600000</ele>
        <time>2010-03-14T10:48:59Z</time>
      </trkpt>
      <trkpt lat="45.7437100" lon="8.3492720">
        <ele>613.9400000</ele>
        <time>2010-03-14T10:49:12Z</time>
      </trkpt>
      <trkpt lat="45.7438560" lon="8.3488760">
        <ele>613.4600000</ele>
        <time>2010-03-14T10:49:25Z</time>
      </trkpt>
      <trkpt lat="45.7435440" lon="8.3486680">
        <ele>614.4200000</ele>
        <time>2010-03-14T10:49:41Z</time>
      </trkpt>
      <trkpt lat="45.7432670" lon="8.3487010">
        <ele>614.9000000</ele>
        <time>2010-03-14T10:49:54Z</time>
      </trkpt>
      <trkpt lat="45.7430710" lon="8.3485710">
        <ele>616.3400000</ele>
        <time>2010-03-14T10:50:05Z</time>
      </trkpt>
      <trkpt lat="45.7428480" lon="8.3480740">
        <ele>618.2600000</ele>
        <time>2010-03-14T10:50:23Z</time>
      </trkpt>
      <trkpt lat="45.7429320" lon="8.3476810">
        <ele>620.6700000</ele>
        <time>2010-03-14T10:50:39Z</time>
      </trkpt>
      <trkpt lat="45.7431200" lon="8.3474080">
        <ele>622.5900000</ele>
        <time>2010-03-14T10:50:54Z</time>
      </trkpt>
      <trkpt lat="45.7433300" lon="8.3471550">
        <ele>624.5100000</ele>
        <time>2010-03-14T10:51:07Z</time>
      </trkpt>
      <trkpt lat="45.7436020" lon="8.3467710">
        <ele>625.4700000</ele>
        <time>2010-03-14T10:51:24Z</time>
      </trkpt>
      <trkpt lat="45.7436280" lon="8.3466830">
        <ele>624.9900000</ele>
        <time>2010-03-14T10:51:27Z</time>
      </trkpt>
      <trkpt lat="45.7433920" lon="8.3463320">
        <ele>625.4700000</ele>
        <time>2010-03-14T10:51:42Z</time>
      </trkpt>
      <trkpt lat="45.7431130" lon="8.3458460">
        <ele>626.9200000</ele>
        <time>2010-03-14T10:52:01Z</time>
      </trkpt>
      <trkpt lat="45.7430720" lon="8.3454070">
        <ele>627.4000000</ele>
        <time>2010-03-14T10:52:15Z</time>
      </trkpt>
      <trkpt lat="45.7432010" lon="8.3448700">
        <ele>630.2800000</ele>
        <time>2010-03-14T10:52:32Z</time>
      </trkpt>
      <trkpt lat="45.7433950" lon="8.3443510">
        <ele>631.2400000</ele>
        <time>2010-03-14T10:52:50Z</time>
      </trkpt>
      <trkpt lat="45.7435420" lon="8.3439220">
        <ele>631.2400000</ele>
        <time>2010-03-14T10:53:03Z</time>
      </trkpt>
      <trkpt lat="45.7438690" lon="8.3436230">
        <ele>630.2800000</ele>
        <time>2010-03-14T10:53:16Z</time>
      </trkpt>
      <trkpt lat="45.7441970" lon="8.3437340">
        <ele>633.1700000</ele>
        <time>2010-03-14T10:53:29Z</time>
      </trkpt>
      <trkpt lat="45.7445440" lon="8.3438120">
        <ele>636.0500000</ele>
        <time>2010-03-14T10:53:47Z</time>
      </trkpt>
      <trkpt lat="45.7447900" lon="8.3439330">
        <ele>637.9700000</ele>
        <time>2010-03-14T10:54:01Z</time>
      </trkpt>
      <trkpt lat="45.7450410" lon="8.3439620">
        <ele>640.8600000</ele>
        <time>2010-03-14T10:54:17Z</time>
      </trkpt>
      <trkpt lat="45.7451820" lon="8.3436530">
        <ele>642.7800000</ele>
        <time>2010-03-14T10:54:33Z</time>
      </trkpt>
      <trkpt lat="45.7453740" lon="8.3434240">
        <ele>644.2200000</ele>
        <time>2010-03-14T10:54:51Z</time>
      </trkpt>
      <trkpt lat="45.7455960" lon="8.3435230">
        <ele>646.6200000</ele>
        <time>2010-03-14T10:55:09Z</time>
      </trkpt>
      <trkpt lat="45.7457850" lon="8.3434850">
        <ele>649.0300000</ele>
        <time>2010-03-14T10:55:25Z</time>
      </trkpt>
      <trkpt lat="45.7458460" lon="8.3432610">
        <ele>650.9500000</ele>
        <time>2010-03-14T10:55:41Z</time>
      </trkpt>
      <trkpt lat="45.7458090" lon="8.3430180">
        <ele>652.3900000</ele>
        <time>2010-03-14T10:55:56Z</time>
      </trkpt>
      <trkpt lat="45.7458840" lon="8.3426490">
        <ele>654.3100000</ele>
        <time>2010-03-14T10:56:13Z</time>
      </trkpt>
      <trkpt lat="45.7459910" lon="8.3423380">
        <ele>656.2400000</ele>
        <time>2010-03-14T10:56:29Z</time>
      </trkpt>
      <trkpt lat="45.7461560" lon="8.3419610">
        <ele>657.2000000</ele>
        <time>2010-03-14T10:56:48Z</time>
      </trkpt>
      <trkpt lat="45.7464240" lon="8.3419260">
        <ele>658.1600000</ele>
        <time>2010-03-14T10:57:03Z</time>
      </trkpt>
      <trkpt lat="45.7467430" lon="8.3421600">
        <ele>659.1200000</ele>
        <time>2010-03-14T10:57:22Z</time>
      </trkpt>
      <trkpt lat="45.7470740" lon="8.3425620">
        <ele>659.6000000</ele>
        <time>2010-03-14T10:57:41Z</time>
      </trkpt>
      <trkpt lat="45.7471750" lon="8.3429420">
        <ele>659.6000000</ele>
        <time>2010-03-14T10:57:52Z</time>
      </trkpt>
      <trkpt lat="45.7473340" lon="8.3435430">
        <ele>660.5600000</ele>
        <time>2010-03-14T10:58:08Z</time>
      </trkpt>
      <trkpt lat="45.7475430" lon="8.3440260">
        <ele>660.5600000</ele>
        <time>2010-03-14T10:58:23Z</time>
      </trkpt>
      <trkpt lat="45.7477280" lon="8.3441650">
        <ele>660.5600000</ele>
        <time>2010-03-14T10:58:31Z</time>
      </trkpt>
      <trkpt lat="45.7479560" lon="8.3438290">
        <ele>662.0100000</ele>
        <time>2010-03-14T10:58:43Z</time>
      </trkpt>
      <trkpt lat="45.7482470" lon="8.3432360">
        <ele>662.9700000</ele>
        <time>2010-03-14T10:58:58Z</time>
      </trkpt>
      <trkpt lat="45.7484720" lon="8.3427160">
        <ele>661.5200000</ele>
        <time>2010-03-14T10:59:09Z</time>
      </trkpt>
      <trkpt lat="45.7489030" lon="8.3421460">
        <ele>662.9700000</ele>
        <time>2010-03-14T10:59:25Z</time>
      </trkpt>
      <trkpt lat="45.7492580" lon="8.3419990">
        <ele>663.9300000</ele>
        <time>2010-03-14T10:59:37Z</time>
      </trkpt>
      <trkpt lat="45.7496260" lon="8.3421540">
        <ele>664.8900000</ele>
        <time>2010-03-14T10:59:50Z</time>
      </trkpt>
      <trkpt lat="45.7497740" lon="8.3424660">
        <ele>665.8500000</ele>
        <time>2010-03-14T10:59:59Z</time>
      </trkpt>
      <trkpt lat="45.7498880" lon="8.3424740">
        <ele>665.8500000</ele>
        <time>2010-03-14T11:00:03Z</time>
      </trkpt>
      <trkpt lat="45.7500260" lon="8.3422430">
        <ele>666.8100000</ele>
        <time>2010-03-14T11:00:10Z</time>
      </trkpt>
      <trkpt lat="45.7500850" lon="8.3420540">
        <ele>667.2900000</ele>
        <time>2010-03-14T11:00:15Z</time>
      </trkpt>
      <trkpt lat="45.7502910" lon="8.3419610">
        <ele>667.7700000</ele>
        <time>2010-03-14T11:00:23Z</time>
      </trkpt>
      <trkpt lat="45.7506760" lon="8.3419960">
        <ele>668.7300000</ele>
        <time>2010-03-14T11:00:37Z</time>
      </trkpt>
      <trkpt lat="45.7508560" lon="8.3420480">
        <ele>669.2200000</ele>
        <time>2010-03-14T11:00:43Z</time>
      </trkpt>
      <trkpt lat="45.7510080" lon="8.3421550">
        <ele>669.2200000</ele>
        <time>2010-03-14T11:00:49Z</time>
      </trkpt>
      <trkpt lat="45.7512660" lon="8.3422750">
        <ele>670.1800000</ele>
        <time>2010-03-14T11:00:59Z</time>
      </trkpt>
      <trkpt lat="45.7514670" lon="8.3420720">
        <ele>671.1400000</ele>
        <time>2010-03-14T11:01:09Z</time>
      </trkpt>
      <trkpt lat="45.7513120" lon="8.3417470">
        <ele>672.1000000</ele>
        <time>2010-03-14T11:01:20Z</time>
      </trkpt>
      <trkpt lat="45.7511140" lon="8.3414560">
        <ele>674.5000000</ele>
        <time>2010-03-14T11:01:34Z</time>
      </trkpt>
      <trkpt lat="45.7510080" lon="8.3413780">
        <ele>674.9800000</ele>
        <time>2010-03-14T11:01:40Z</time>
      </trkpt>
      <trkpt lat="45.7508710" lon="8.3411810">
        <ele>675.9400000</ele>
        <time>2010-03-14T11:01:49Z</time>
      </trkpt>
      <trkpt lat="45.7505520" lon="8.3409120">
        <ele>677.8700000</ele>
        <time>2010-03-14T11:02:05Z</time>
      </trkpt>
      <trkpt lat="45.7502960" lon="8.3407260">
        <ele>679.7900000</ele>
        <time>2010-03-14T11:02:19Z</time>
      </trkpt>
      <trkpt lat="45.7501120" lon="8.3403440">
        <ele>681.2300000</ele>
        <time>2010-03-14T11:02:34Z</time>
      </trkpt>
      <trkpt lat="45.7499870" lon="8.3399530">
        <ele>682.1900000</ele>
        <time>2010-03-14T11:02:49Z</time>
      </trkpt>
      <trkpt lat="45.7502460" lon="8.3394690">
        <ele>684.1200000</ele>
        <time>2010-03-14T11:03:04Z</time>
      </trkpt>
      <trkpt lat="45.7503560" lon="8.3392750">
        <ele>683.1500000</ele>
        <time>2010-03-14T11:03:10Z</time>
      </trkpt>
      <trkpt lat="45.7507290" lon="8.3391630">
        <ele>683.1500000</ele>
        <time>2010-03-14T11:03:23Z</time>
      </trkpt>
      <trkpt lat="45.7512030" lon="8.3389660">
        <ele>684.1200000</ele>
        <time>2010-03-14T11:03:39Z</time>
      </trkpt>
      <trkpt lat="45.7517400" lon="8.3391460">
        <ele>685.0800000</ele>
        <time>2010-03-14T11:03:57Z</time>
      </trkpt>
      <trkpt lat="45.7521250" lon="8.3388310">
        <ele>685.0800000</ele>
        <time>2010-03-14T11:04:11Z</time>
      </trkpt>
      <trkpt lat="45.7526400" lon="8.3383380">
        <ele>687.0000000</ele>
        <time>2010-03-14T11:04:31Z</time>
      </trkpt>
      <trkpt lat="45.7529620" lon="8.3384250">
        <ele>688.9200000</ele>
        <time>2010-03-14T11:04:43Z</time>
      </trkpt>
      <trkpt lat="45.7532200" lon="8.3386840">
        <ele>690.3600000</ele>
        <time>2010-03-14T11:04:57Z</time>
      </trkpt>
      <trkpt lat="45.7535250" lon="8.3387680">
        <ele>692.2900000</ele>
        <time>2010-03-14T11:05:11Z</time>
      </trkpt>
      <trkpt lat="45.7538850" lon="8.3386910">
        <ele>692.7700000</ele>
        <time>2010-03-14T11:05:27Z</time>
      </trkpt>
      <trkpt lat="45.7541910" lon="8.3388510">
        <ele>694.6900000</ele>
        <time>2010-03-14T11:05:42Z</time>
      </trkpt>
      <trkpt lat="45.7544930" lon="8.3388220">
        <ele>696.1300000</ele>
        <time>2010-03-14T11:05:55Z</time>
      </trkpt>
      <trkpt lat="45.7547450" lon="8.3387810">
        <ele>697.5700000</ele>
        <time>2010-03-14T11:06:08Z</time>
      </trkpt>
      <trkpt lat="45.7550250" lon="8.3390830">
        <ele>699.5000000</ele>
        <time>2010-03-14T11:06:24Z</time>
      </trkpt>
      <trkpt lat="45.7553190" lon="8.3392680">
        <ele>700.9400000</ele>
        <time>2010-03-14T11:06:41Z</time>
      </trkpt>
      <trkpt lat="45.7555540" lon="8.3389640">
        <ele>701.9000000</ele>
        <time>2010-03-14T11:06:56Z</time>
      </trkpt>
      <trkpt lat="45.7557300" lon="8.3385300">
        <ele>703.3400000</ele>
        <time>2010-03-14T11:07:12Z</time>
      </trkpt>
      <trkpt lat="45.7558660" lon="8.3380250">
        <ele>704.7800000</ele>
        <time>2010-03-14T11:07:30Z</time>
      </trkpt>
      <trkpt lat="45.7560510" lon="8.3376850">
        <ele>706.7100000</ele>
        <time>2010-03-14T11:07:43Z</time>
      </trkpt>
      <trkpt lat="45.7563200" lon="8.3375110">
        <ele>707.6700000</ele>
        <time>2010-03-14T11:07:57Z</time>
      </trkpt>
      <trkpt lat="45.7566220" lon="8.3374220">
        <ele>709.1100000</ele>
        <time>2010-03-14T11:08:11Z</time>
      </trkpt>
      <trkpt lat="45.7567570" lon="8.3374660">
        <ele>709.5900000</ele>
        <time>2010-03-14T11:08:17Z</time>
      </trkpt>
      <trkpt lat="45.7570020" lon="8.3378860">
        <ele>711.5100000</ele>
        <time>2010-03-14T11:08:35Z</time>
      </trkpt>
      <trkpt lat="45.7572140" lon="8.3381490">
        <ele>712.4700000</ele>
        <time>2010-03-14T11:08:48Z</time>
      </trkpt>
      <trkpt lat="45.7575170" lon="8.3380310">
        <ele>714.8800000</ele>
        <time>2010-03-14T11:09:02Z</time>
      </trkpt>
      <trkpt lat="45.7578240" lon="8.3381410">
        <ele>716.3200000</ele>
        <time>2010-03-14T11:09:18Z</time>
      </trkpt>
      <trkpt lat="45.7580020" lon="8.3383960">
        <ele>717.7600000</ele>
        <time>2010-03-14T11:09:32Z</time>
      </trkpt>
      <trkpt lat="45.7582770" lon="8.3385120">
        <ele>718.7200000</ele>
        <time>2010-03-14T11:09:46Z</time>
      </trkpt>
      <trkpt lat="45.7586190" lon="8.3387700">
        <ele>719.6800000</ele>
        <time>2010-03-14T11:10:03Z</time>
      </trkpt>
      <trkpt lat="45.7590650" lon="8.3388480">
        <ele>720.1600000</ele>
        <time>2010-03-14T11:10:16Z</time>
      </trkpt>
      <trkpt lat="45.7597320" lon="8.3389530">
        <ele>720.6500000</ele>
        <time>2010-03-14T11:10:34Z</time>
      </trkpt>
      <trkpt lat="45.7603700" lon="8.3393940">
        <ele>720.1600000</ele>
        <time>2010-03-14T11:10:52Z</time>
      </trkpt>
      <trkpt lat="45.7608210" lon="8.3396550">
        <ele>722.0900000</ele>
        <time>2010-03-14T11:11:07Z</time>
      </trkpt>
      <trkpt lat="45.7610780" lon="8.3399920">
        <ele>724.4900000</ele>
        <time>2010-03-14T11:11:25Z</time>
      </trkpt>
      <trkpt lat="45.7612250" lon="8.3402950">
        <ele>727.8600000</ele>
        <time>2010-03-14T11:11:42Z</time>
      </trkpt>
      <trkpt lat="45.7613920" lon="8.3404690">
        <ele>729.7800000</ele>
        <time>2010-03-14T11:11:56Z</time>
      </trkpt>
      <trkpt lat="45.7615550" lon="8.3406060">
        <ele>731.7000000</ele>
        <time>2010-03-14T11:12:11Z</time>
      </trkpt>
      <trkpt lat="45.7617570" lon="8.3407460">
        <ele>733.1400000</ele>
        <time>2010-03-14T11:12:29Z</time>
      </trkpt>
      <trkpt lat="45.7619630" lon="8.3409170">
        <ele>735.0700000</ele>
        <time>2010-03-14T11:12:48Z</time>
      </trkpt>
      <trkpt lat="45.7622040" lon="8.3411710">
        <ele>736.9900000</ele>
        <time>2010-03-14T11:13:10Z</time>
      </trkpt>
      <trkpt lat="45.7623090" lon="8.3413540">
        <ele>738.9100000</ele>
        <time>2010-03-14T11:13:24Z</time>
      </trkpt>
      <trkpt lat="45.7623050" lon="8.3413710">
        <ele>738.9100000</ele>
        <time>2010-03-14T11:13:25Z</time>
      </trkpt>
      <trkpt lat="45.7622970" lon="8.3413820">
        <ele>739.3900000</ele>
        <time>2010-03-14T11:13:26Z</time>
      </trkpt>
      <trkpt lat="45.7622860" lon="8.3413860">
        <ele>739.3900000</ele>
        <time>2010-03-14T11:13:27Z</time>
      </trkpt>
      <trkpt lat="45.7622730" lon="8.3413860">
        <ele>739.8700000</ele>
        <time>2010-03-14T11:13:28Z</time>
      </trkpt>
      <trkpt lat="45.7622620" lon="8.3413860">
        <ele>739.8700000</ele>
        <time>2010-03-14T11:13:29Z</time>
      </trkpt>
      <trkpt lat="45.7622530" lon="8.3413860">
        <ele>739.3900000</ele>
        <time>2010-03-14T11:13:30Z</time>
      </trkpt>
      <trkpt lat="45.7622400" lon="8.3413840">
        <ele>739.8700000</ele>
        <time>2010-03-14T11:13:31Z</time>
      </trkpt>
      <trkpt lat="45.7622270" lon="8.3413770">
        <ele>740.3500000</ele>
        <time>2010-03-14T11:13:32Z</time>
      </trkpt>
      <trkpt lat="45.7622120" lon="8.3413680">
        <ele>739.8700000</ele>
        <time>2010-03-14T11:13:33Z</time>
      </trkpt>
      <trkpt lat="45.7619900" lon="8.3413650">
        <ele>740.8300000</ele>
        <time>2010-03-14T11:13:51Z</time>
      </trkpt>
      <trkpt lat="45.7620980" lon="8.3415490">
        <ele>743.2400000</ele>
        <time>2010-03-14T11:14:05Z</time>
      </trkpt>
      <trkpt lat="45.7621160" lon="8.3415490">
        <ele>742.7600000</ele>
        <time>2010-03-14T11:14:08Z</time>
      </trkpt>
      <trkpt lat="45.7621770" lon="8.3415640">
        <ele>743.2400000</ele>
        <time>2010-03-14T11:14:14Z</time>
      </trkpt>
      <trkpt lat="45.7622720" lon="8.3416190">
        <ele>743.7200000</ele>
        <time>2010-03-14T11:14:23Z</time>
      </trkpt>
      <trkpt lat="45.7623050" lon="8.3417180">
        <ele>745.1600000</ele>
        <time>2010-03-14T11:14:30Z</time>
      </trkpt>
      <trkpt lat="45.7622760" lon="8.3417530">
        <ele>745.1600000</ele>
        <time>2010-03-14T11:14:34Z</time>
      </trkpt>
      <trkpt lat="45.7622270" lon="8.3417410">
        <ele>746.1200000</ele>
        <time>2010-03-14T11:14:39Z</time>
      </trkpt>
      <trkpt lat="45.7621770" lon="8.3417270">
        <ele>745.6400000</ele>
        <time>2010-03-14T11:14:44Z</time>
      </trkpt>
      <trkpt lat="45.7619990" lon="8.3416600">
        <ele>747.0800000</ele>
        <time>2010-03-14T11:14:59Z</time>
      </trkpt>
      <trkpt lat="45.7618250" lon="8.3415880">
        <ele>748.0400000</ele>
        <time>2010-03-14T11:15:14Z</time>
      </trkpt>
      <trkpt lat="45.7617500" lon="8.3415390">
        <ele>749.0000000</ele>
        <time>2010-03-14T11:15:21Z</time>
      </trkpt>
      <trkpt lat="45.7616640" lon="8.3415050">
        <ele>749.9700000</ele>
        <time>2010-03-14T11:15:30Z</time>
      </trkpt>
      <trkpt lat="45.7616200" lon="8.3415070">
        <ele>750.4500000</ele>
        <time>2010-03-14T11:15:34Z</time>
      </trkpt>
      <trkpt lat="45.7615980" lon="8.3415210">
        <ele>750.9300000</ele>
        <time>2010-03-14T11:15:36Z</time>
      </trkpt>
      <trkpt lat="45.7616670" lon="8.3416470">
        <ele>752.3700000</ele>
        <time>2010-03-14T11:15:49Z</time>
      </trkpt>
      <trkpt lat="45.7616930" lon="8.3416510">
        <ele>752.3700000</ele>
        <time>2010-03-14T11:15:52Z</time>
      </trkpt>
      <trkpt lat="45.7618360" lon="8.3417310">
        <ele>754.2900000</ele>
        <time>2010-03-14T11:16:07Z</time>
      </trkpt>
      <trkpt lat="45.7618860" lon="8.3417570">
        <ele>754.2900000</ele>
        <time>2010-03-14T11:16:12Z</time>
      </trkpt>
      <trkpt lat="45.7619680" lon="8.3418080">
        <ele>755.7300000</ele>
        <time>2010-03-14T11:16:24Z</time>
      </trkpt>
      <trkpt lat="45.7621080" lon="8.3419310">
        <ele>757.1800000</ele>
        <time>2010-03-14T11:16:37Z</time>
      </trkpt>
      <trkpt lat="45.7621600" lon="8.3420030">
        <ele>757.6600000</ele>
        <time>2010-03-14T11:16:44Z</time>
      </trkpt>
      <trkpt lat="45.7621890" lon="8.3420470">
        <ele>758.1400000</ele>
        <time>2010-03-14T11:16:47Z</time>
      </trkpt>
      <trkpt lat="45.7622010" lon="8.3420850">
        <ele>758.1400000</ele>
        <time>2010-03-14T11:16:49Z</time>
      </trkpt>
      <trkpt lat="45.7622370" lon="8.3421590">
        <ele>759.5800000</ele>
        <time>2010-03-14T11:16:55Z</time>
      </trkpt>
      <trkpt lat="45.7622410" lon="8.3423150">
        <ele>760.5400000</ele>
        <time>2010-03-14T11:17:07Z</time>
      </trkpt>
      <trkpt lat="45.7622470" lon="8.3423470">
        <ele>760.5400000</ele>
        <time>2010-03-14T11:17:09Z</time>
      </trkpt>
      <trkpt lat="45.7622920" lon="8.3424380">
        <ele>761.0200000</ele>
        <time>2010-03-14T11:17:15Z</time>
      </trkpt>
      <trkpt lat="45.7623490" lon="8.3424620">
        <ele>761.5000000</ele>
        <time>2010-03-14T11:17:20Z</time>
      </trkpt>
      <trkpt lat="45.7623680" lon="8.3424540">
        <ele>761.5000000</ele>
        <time>2010-03-14T11:17:22Z</time>
      </trkpt>
      <trkpt lat="45.7625110" lon="8.3424570">
        <ele>762.9400000</ele>
        <time>2010-03-14T11:17:38Z</time>
      </trkpt>
      <trkpt lat="45.7625190" lon="8.3424640">
        <ele>762.9400000</ele>
        <time>2010-03-14T11:17:39Z</time>
      </trkpt>
      <trkpt lat="45.7625710" lon="8.3425250">
        <ele>763.4200000</ele>
        <time>2010-03-14T11:17:45Z</time>
      </trkpt>
      <trkpt lat="45.7626400" lon="8.3425670">
        <ele>763.9000000</ele>
        <time>2010-03-14T11:17:54Z</time>
      </trkpt>
      <trkpt lat="45.7627240" lon="8.3427240">
        <ele>765.3500000</ele>
        <time>2010-03-14T11:18:05Z</time>
      </trkpt>
      <trkpt lat="45.7628050" lon="8.3429210">
        <ele>767.2700000</ele>
        <time>2010-03-14T11:18:20Z</time>
      </trkpt>
      <trkpt lat="45.7628130" lon="8.3429610">
        <ele>767.2700000</ele>
        <time>2010-03-14T11:18:23Z</time>
      </trkpt>
      <trkpt lat="45.7628040" lon="8.3430440">
        <ele>768.7100000</ele>
        <time>2010-03-14T11:18:30Z</time>
      </trkpt>
      <trkpt lat="45.7627680" lon="8.3430660">
        <ele>769.1900000</ele>
        <time>2010-03-14T11:18:35Z</time>
      </trkpt>
      <trkpt lat="45.7627520" lon="8.3430620">
        <ele>769.1900000</ele>
        <time>2010-03-14T11:18:37Z</time>
      </trkpt>
      <trkpt lat="45.7626940" lon="8.3430070">
        <ele>770.1500000</ele>
        <time>2010-03-14T11:18:44Z</time>
      </trkpt>
      <trkpt lat="45.7626450" lon="8.3429360">
        <ele>771.6000000</ele>
        <time>2010-03-14T11:18:52Z</time>
      </trkpt>
      <trkpt lat="45.7626230" lon="8.3428760">
        <ele>772.0800000</ele>
        <time>2010-03-14T11:18:58Z</time>
      </trkpt>
      <trkpt lat="45.7625850" lon="8.3428310">
        <ele>772.5600000</ele>
        <time>2010-03-14T11:19:04Z</time>
      </trkpt>
      <trkpt lat="45.7625280" lon="8.3428330">
        <ele>773.0400000</ele>
        <time>2010-03-14T11:19:09Z</time>
      </trkpt>
      <trkpt lat="45.7623740" lon="8.3428920">
        <ele>774.0000000</ele>
        <time>2010-03-14T11:19:23Z</time>
      </trkpt>
      <trkpt lat="45.7621370" lon="8.3429350">
        <ele>774.4800000</ele>
        <time>2010-03-14T11:19:40Z</time>
      </trkpt>
      <trkpt lat="45.7619450" lon="8.3428880">
        <ele>774.4800000</ele>
        <time>2010-03-14T11:19:54Z</time>
      </trkpt>
      <trkpt lat="45.7618890" lon="8.3429450">
        <ele>776.4000000</ele>
        <time>2010-03-14T11:20:05Z</time>
      </trkpt>
      <trkpt lat="45.7618930" lon="8.3429530">
        <ele>776.8800000</ele>
        <time>2010-03-14T11:20:06Z</time>
      </trkpt>
      <trkpt lat="45.7621090" lon="8.3430690">
        <ele>778.8100000</ele>
        <time>2010-03-14T11:20:22Z</time>
      </trkpt>
      <trkpt lat="45.7622070" lon="8.3431460">
        <ele>780.2500000</ele>
        <time>2010-03-14T11:20:32Z</time>
      </trkpt>
      <trkpt lat="45.7622570" lon="8.3431960">
        <ele>780.7300000</ele>
        <time>2010-03-14T11:20:37Z</time>
      </trkpt>
      <trkpt lat="45.7623710" lon="8.3433030">
        <ele>783.6100000</ele>
        <time>2010-03-14T11:20:51Z</time>
      </trkpt>
      <trkpt lat="45.7624240" lon="8.3433660">
        <ele>783.6100000</ele>
        <time>2010-03-14T11:20:57Z</time>
      </trkpt>
      <trkpt lat="45.7624650" lon="8.3433970">
        <ele>784.5700000</ele>
        <time>2010-03-14T11:21:02Z</time>
      </trkpt>
      <trkpt lat="45.7624980" lon="8.3434250">
        <ele>785.0500000</ele>
        <time>2010-03-14T11:21:05Z</time>
      </trkpt>
      <trkpt lat="45.7625310" lon="8.3434850">
        <ele>786.0200000</ele>
        <time>2010-03-14T11:21:11Z</time>
      </trkpt>
      <trkpt lat="45.7625330" lon="8.3435520">
        <ele>786.9800000</ele>
        <time>2010-03-14T11:21:15Z</time>
      </trkpt>
      <trkpt lat="45.7625090" lon="8.3435910">
        <ele>787.4600000</ele>
        <time>2010-03-14T11:21:19Z</time>
      </trkpt>
      <trkpt lat="45.7624280" lon="8.3436070">
        <ele>788.4200000</ele>
        <time>2010-03-14T11:21:27Z</time>
      </trkpt>
      <trkpt lat="45.7623420" lon="8.3435880">
        <ele>789.3800000</ele>
        <time>2010-03-14T11:21:33Z</time>
      </trkpt>
      <trkpt lat="45.7622720" lon="8.3435860">
        <ele>790.3400000</ele>
        <time>2010-03-14T11:21:40Z</time>
      </trkpt>
      <trkpt lat="45.7621460" lon="8.3435680">
        <ele>791.3000000</ele>
        <time>2010-03-14T11:21:52Z</time>
      </trkpt>
      <trkpt lat="45.7619500" lon="8.3435760">
        <ele>792.2600000</ele>
        <time>2010-03-14T11:22:06Z</time>
      </trkpt>
      <trkpt lat="45.7618180" lon="8.3437670">
        <ele>793.7100000</ele>
        <time>2010-03-14T11:22:18Z</time>
      </trkpt>
      <trkpt lat="45.7618160" lon="8.3438580">
        <ele>794.6700000</ele>
        <time>2010-03-14T11:22:22Z</time>
      </trkpt>
      <trkpt lat="45.7618780" lon="8.3439380">
        <ele>795.6300000</ele>
        <time>2010-03-14T11:22:29Z</time>
      </trkpt>
      <trkpt lat="45.7620810" lon="8.3439990">
        <ele>797.5500000</ele>
        <time>2010-03-14T11:22:47Z</time>
      </trkpt>
      <trkpt lat="45.7623380" lon="8.3439890">
        <ele>798.9900000</ele>
        <time>2010-03-14T11:23:08Z</time>
      </trkpt>
      <trkpt lat="45.7624790" lon="8.3439990">
        <ele>800.4400000</ele>
        <time>2010-03-14T11:23:19Z</time>
      </trkpt>
      <trkpt lat="45.7627230" lon="8.3439990">
        <ele>801.8800000</ele>
        <time>2010-03-14T11:23:38Z</time>
      </trkpt>
      <trkpt lat="45.7628520" lon="8.3440270">
        <ele>803.3200000</ele>
        <time>2010-03-14T11:23:49Z</time>
      </trkpt>
      <trkpt lat="45.7629800" lon="8.3440690">
        <ele>803.8000000</ele>
        <time>2010-03-14T11:23:59Z</time>
      </trkpt>
      <trkpt lat="45.7630040" lon="8.3440740">
        <ele>804.2800000</ele>
        <time>2010-03-14T11:24:01Z</time>
      </trkpt>
      <trkpt lat="45.7631980" lon="8.3441500">
        <ele>806.6800000</ele>
        <time>2010-03-14T11:24:18Z</time>
      </trkpt>
      <trkpt lat="45.7633460" lon="8.3442050">
        <ele>807.6400000</ele>
        <time>2010-03-14T11:24:31Z</time>
      </trkpt>
      <trkpt lat="45.7635040" lon="8.3442760">
        <ele>808.6100000</ele>
        <time>2010-03-14T11:24:44Z</time>
      </trkpt>
      <trkpt lat="45.7636050" lon="8.3443240">
        <ele>809.5700000</ele>
        <time>2010-03-14T11:24:53Z</time>
      </trkpt>
      <trkpt lat="45.7636940" lon="8.3443610">
        <ele>811.0100000</ele>
        <time>2010-03-14T11:25:00Z</time>
      </trkpt>
      <trkpt lat="45.7637490" lon="8.3443700">
        <ele>811.0100000</ele>
        <time>2010-03-14T11:25:05Z</time>
      </trkpt>
      <trkpt lat="45.7639040" lon="8.3445140">
        <ele>812.9300000</ele>
        <time>2010-03-14T11:25:17Z</time>
      </trkpt>
      <trkpt lat="45.7640500" lon="8.3446800">
        <ele>815.3400000</ele>
        <time>2010-03-14T11:25:30Z</time>
      </trkpt>
      <trkpt lat="45.7642010" lon="8.3448080">
        <ele>817.2600000</ele>
        <time>2010-03-14T11:25:46Z</time>
      </trkpt>
      <trkpt lat="45.7642470" lon="8.3448560">
        <ele>817.7400000</ele>
        <time>2010-03-14T11:25:51Z</time>
      </trkpt>
      <trkpt lat="45.7642740" lon="8.3448850">
        <ele>818.7000000</ele>
        <time>2010-03-14T11:25:55Z</time>
      </trkpt>
      <trkpt lat="45.7643110" lon="8.3449150">
        <ele>818.7000000</ele>
        <time>2010-03-14T11:25:58Z</time>
      </trkpt>
      <trkpt lat="45.7643730" lon="8.3449840">
        <ele>819.1800000</ele>
        <time>2010-03-14T11:26:04Z</time>
      </trkpt>
      <trkpt lat="45.7644930" lon="8.3451660">
        <ele>821.1000000</ele>
        <time>2010-03-14T11:26:19Z</time>
      </trkpt>
      <trkpt lat="45.7645010" lon="8.3451830">
        <ele>821.5800000</ele>
        <time>2010-03-14T11:26:20Z</time>
      </trkpt>
      <trkpt lat="45.7645620" lon="8.3452700">
        <ele>822.0600000</ele>
        <time>2010-03-14T11:26:29Z</time>
      </trkpt>
      <trkpt lat="45.7646120" lon="8.3453400">
        <ele>823.0300000</ele>
        <time>2010-03-14T11:26:35Z</time>
      </trkpt>
      <trkpt lat="45.7647240" lon="8.3454650">
        <ele>823.5100000</ele>
        <time>2010-03-14T11:26:48Z</time>
      </trkpt>
      <trkpt lat="45.7647960" lon="8.3455960">
        <ele>824.9500000</ele>
        <time>2010-03-14T11:26:59Z</time>
      </trkpt>
      <trkpt lat="45.7649160" lon="8.3457360">
        <ele>826.3900000</ele>
        <time>2010-03-14T11:27:14Z</time>
      </trkpt>
      <trkpt lat="45.7649440" lon="8.3457810">
        <ele>826.8700000</ele>
        <time>2010-03-14T11:27:17Z</time>
      </trkpt>
      <trkpt lat="45.7649800" lon="8.3458250">
        <ele>827.3500000</ele>
        <time>2010-03-14T11:27:21Z</time>
      </trkpt>
      <trkpt lat="45.7650030" lon="8.3458890">
        <ele>827.3500000</ele>
        <time>2010-03-14T11:27:25Z</time>
      </trkpt>
      <trkpt lat="45.7650160" lon="8.3460280">
        <ele>827.8300000</ele>
        <time>2010-03-14T11:27:36Z</time>
      </trkpt>
      <trkpt lat="45.7650430" lon="8.3462340">
        <ele>827.3500000</ele>
        <time>2010-03-14T11:27:46Z</time>
      </trkpt>
      <trkpt lat="45.7650580" lon="8.3463170">
        <ele>827.8300000</ele>
        <time>2010-03-14T11:27:50Z</time>
      </trkpt>
      <trkpt lat="45.7650820" lon="8.3464080">
        <ele>827.3500000</ele>
        <time>2010-03-14T11:27:54Z</time>
      </trkpt>
      <trkpt lat="45.7651520" lon="8.3465380">
        <ele>827.8300000</ele>
        <time>2010-03-14T11:28:01Z</time>
      </trkpt>
      <trkpt lat="45.7652710" lon="8.3467120">
        <ele>828.3100000</ele>
        <time>2010-03-14T11:28:13Z</time>
      </trkpt>
      <trkpt lat="45.7653820" lon="8.3468730">
        <ele>829.7600000</ele>
        <time>2010-03-14T11:28:24Z</time>
      </trkpt>
      <trkpt lat="45.7655260" lon="8.3470090">
        <ele>831.6800000</ele>
        <time>2010-03-14T11:28:36Z</time>
      </trkpt>
      <trkpt lat="45.7656930" lon="8.3470930">
        <ele>833.1200000</ele>
        <time>2010-03-14T11:28:49Z</time>
      </trkpt>
      <trkpt lat="45.7658610" lon="8.3471990">
        <ele>836.0000000</ele>
        <time>2010-03-14T11:29:04Z</time>
      </trkpt>
      <trkpt lat="45.7659050" lon="8.3472480">
        <ele>836.4800000</ele>
        <time>2010-03-14T11:29:08Z</time>
      </trkpt>
      <trkpt lat="45.7659530" lon="8.3473010">
        <ele>837.4500000</ele>
        <time>2010-03-14T11:29:13Z</time>
      </trkpt>
      <trkpt lat="45.7661300" lon="8.3474440">
        <ele>839.8500000</ele>
        <time>2010-03-14T11:29:31Z</time>
      </trkpt>
      <trkpt lat="45.7661830" lon="8.3474620">
        <ele>840.3300000</ele>
        <time>2010-03-14T11:29:36Z</time>
      </trkpt>
      <trkpt lat="45.7662750" lon="8.3474700">
        <ele>841.2900000</ele>
        <time>2010-03-14T11:29:46Z</time>
      </trkpt>
      <trkpt lat="45.7663050" lon="8.3474830">
        <ele>841.7700000</ele>
        <time>2010-03-14T11:29:49Z</time>
      </trkpt>
      <trkpt lat="45.7663310" lon="8.3474830">
        <ele>842.2500000</ele>
        <time>2010-03-14T11:29:51Z</time>
      </trkpt>
      <trkpt lat="45.7664460" lon="8.3475520">
        <ele>842.7300000</ele>
        <time>2010-03-14T11:30:02Z</time>
      </trkpt>
      <trkpt lat="45.7665220" lon="8.3476660">
        <ele>843.6900000</ele>
        <time>2010-03-14T11:30:11Z</time>
      </trkpt>
      <trkpt lat="45.7666100" lon="8.3478950">
        <ele>845.1400000</ele>
        <time>2010-03-14T11:30:26Z</time>
      </trkpt>
      <trkpt lat="45.7666250" lon="8.3479420">
        <ele>845.6200000</ele>
        <time>2010-03-14T11:30:30Z</time>
      </trkpt>
      <trkpt lat="45.7667210" lon="8.3480650">
        <ele>847.0600000</ele>
        <time>2010-03-14T11:30:40Z</time>
      </trkpt>
      <trkpt lat="45.7669060" lon="8.3481920">
        <ele>848.0200000</ele>
        <time>2010-03-14T11:30:55Z</time>
      </trkpt>
      <trkpt lat="45.7670290" lon="8.3485230">
        <ele>849.4600000</ele>
        <time>2010-03-14T11:31:13Z</time>
      </trkpt>
      <trkpt lat="45.7670760" lon="8.3487140">
        <ele>850.9000000</ele>
        <time>2010-03-14T11:31:24Z</time>
      </trkpt>
      <trkpt lat="45.7672680" lon="8.3489340">
        <ele>850.9000000</ele>
        <time>2010-03-14T11:31:37Z</time>
      </trkpt>
      <trkpt lat="45.7672840" lon="8.3489510">
        <ele>850.4200000</ele>
        <time>2010-03-14T11:31:38Z</time>
      </trkpt>
      <trkpt lat="45.7674840" lon="8.3490640">
        <ele>851.3800000</ele>
        <time>2010-03-14T11:31:50Z</time>
      </trkpt>
      <trkpt lat="45.7675190" lon="8.3490850">
        <ele>851.3800000</ele>
        <time>2010-03-14T11:31:52Z</time>
      </trkpt>
      <trkpt lat="45.7678330" lon="8.3490950">
        <ele>852.3500000</ele>
        <time>2010-03-14T11:32:06Z</time>
      </trkpt>
      <trkpt lat="45.7680230" lon="8.3490300">
        <ele>852.3500000</ele>
        <time>2010-03-14T11:32:13Z</time>
      </trkpt>
      <trkpt lat="45.7680710" lon="8.3490520">
        <ele>853.3100000</ele>
        <time>2010-03-14T11:32:16Z</time>
      </trkpt>
      <trkpt lat="45.7683830" lon="8.3489320">
        <ele>853.7900000</ele>
        <time>2010-03-14T11:32:28Z</time>
      </trkpt>
      <trkpt lat="45.7686500" lon="8.3488470">
        <ele>853.7900000</ele>
        <time>2010-03-14T11:32:38Z</time>
      </trkpt>
      <trkpt lat="45.7688760" lon="8.3489220">
        <ele>854.7500000</ele>
        <time>2010-03-14T11:32:49Z</time>
      </trkpt>
      <trkpt lat="45.7690450" lon="8.3490730">
        <ele>856.6700000</ele>
        <time>2010-03-14T11:33:00Z</time>
      </trkpt>
      <trkpt lat="45.7693330" lon="8.3492270">
        <ele>858.1100000</ele>
        <time>2010-03-14T11:33:15Z</time>
      </trkpt>
      <trkpt lat="45.7696030" lon="8.3492340">
        <ele>860.0400000</ele>
        <time>2010-03-14T11:33:31Z</time>
      </trkpt>
      <trkpt lat="45.7698120" lon="8.3492350">
        <ele>861.9600000</ele>
        <time>2010-03-14T11:33:45Z</time>
      </trkpt>
      <trkpt lat="45.7699390" lon="8.3493840">
        <ele>862.9200000</ele>
        <time>2010-03-14T11:33:58Z</time>
      </trkpt>
      <trkpt lat="45.7699480" lon="8.3493970">
        <ele>862.4400000</ele>
        <time>2010-03-14T11:33:59Z</time>
      </trkpt>
      <trkpt lat="45.7701130" lon="8.3495600">
        <ele>864.3600000</ele>
        <time>2010-03-14T11:34:14Z</time>
      </trkpt>
      <trkpt lat="45.7702930" lon="8.3497390">
        <ele>866.7700000</ele>
        <time>2010-03-14T11:34:29Z</time>
      </trkpt>
      <trkpt lat="45.7703270" lon="8.3497980">
        <ele>867.2500000</ele>
        <time>2010-03-14T11:34:36Z</time>
      </trkpt>
      <trkpt lat="45.7703610" lon="8.3498260">
        <ele>867.7300000</ele>
        <time>2010-03-14T11:34:41Z</time>
      </trkpt>
      <trkpt lat="45.7704840" lon="8.3498990">
        <ele>869.6500000</ele>
        <time>2010-03-14T11:34:54Z</time>
      </trkpt>
      <trkpt lat="45.7705120" lon="8.3499040">
        <ele>869.6500000</ele>
        <time>2010-03-14T11:34:57Z</time>
      </trkpt>
      <trkpt lat="45.7705680" lon="8.3499220">
        <ele>870.6100000</ele>
        <time>2010-03-14T11:35:04Z</time>
      </trkpt>
      <trkpt lat="45.7706310" lon="8.3499500">
        <ele>871.0900000</ele>
        <time>2010-03-14T11:35:11Z</time>
      </trkpt>
      <trkpt lat="45.7707680" lon="8.3499920">
        <ele>873.0100000</ele>
        <time>2010-03-14T11:35:23Z</time>
      </trkpt>
      <trkpt lat="45.7708680" lon="8.3499940">
        <ele>873.0100000</ele>
        <time>2010-03-14T11:35:32Z</time>
      </trkpt>
      <trkpt lat="45.7710360" lon="8.3499830">
        <ele>874.4600000</ele>
        <time>2010-03-14T11:35:48Z</time>
      </trkpt>
      <trkpt lat="45.7711470" lon="8.3499550">
        <ele>874.9400000</ele>
        <time>2010-03-14T11:35:58Z</time>
      </trkpt>
      <trkpt lat="45.7712050" lon="8.3499520">
        <ele>875.9000000</ele>
        <time>2010-03-14T11:36:04Z</time>
      </trkpt>
      <trkpt lat="45.7712840" lon="8.3499450">
        <ele>875.9000000</ele>
        <time>2010-03-14T11:36:11Z</time>
      </trkpt>
      <trkpt lat="45.7713720" lon="8.3499890">
        <ele>876.8600000</ele>
        <time>2010-03-14T11:36:20Z</time>
      </trkpt>
      <trkpt lat="45.7714730" lon="8.3500790">
        <ele>877.3400000</ele>
        <time>2010-03-14T11:36:31Z</time>
      </trkpt>
      <trkpt lat="45.7714970" lon="8.3500940">
        <ele>877.8200000</ele>
        <time>2010-03-14T11:36:33Z</time>
      </trkpt>
      <trkpt lat="45.7715660" lon="8.3501470">
        <ele>878.3000000</ele>
        <time>2010-03-14T11:36:41Z</time>
      </trkpt>
      <trkpt lat="45.7716590" lon="8.3501950">
        <ele>878.7800000</ele>
        <time>2010-03-14T11:36:50Z</time>
      </trkpt>
      <trkpt lat="45.7717600" lon="8.3502450">
        <ele>879.7400000</ele>
        <time>2010-03-14T11:36:59Z</time>
      </trkpt>
      <trkpt lat="45.7717970" lon="8.3502950">
        <ele>880.2200000</ele>
        <time>2010-03-14T11:37:04Z</time>
      </trkpt>
      <trkpt lat="45.7718380" lon="8.3503160">
        <ele>880.7100000</ele>
        <time>2010-03-14T11:37:07Z</time>
      </trkpt>
      <trkpt lat="45.7718670" lon="8.3503420">
        <ele>880.7100000</ele>
        <time>2010-03-14T11:37:10Z</time>
      </trkpt>
      <trkpt lat="45.7719520" lon="8.3504230">
        <ele>882.1500000</ele>
        <time>2010-03-14T11:37:22Z</time>
      </trkpt>
      <trkpt lat="45.7720340" lon="8.3505340">
        <ele>882.6300000</ele>
        <time>2010-03-14T11:37:36Z</time>
      </trkpt>
      <trkpt lat="45.7720340" lon="8.3505300">
        <ele>883.1100000</ele>
        <time>2010-03-14T11:38:13Z</time>
      </trkpt>
      <trkpt lat="45.7720460" lon="8.3505230">
        <ele>886.4700000</ele>
        <time>2010-03-14T11:44:24Z</time>
      </trkpt>
      <trkpt lat="45.7720480" lon="8.3505290">
        <ele>886.4700000</ele>
        <time>2010-03-14T11:45:05Z</time>
      </trkpt>
      <trkpt lat="45.7720580" lon="8.3506030">
        <ele>888.4000000</ele>
        <time>2010-03-14T11:49:49Z</time>
      </trkpt>
      <trkpt lat="45.7720270" lon="8.3506850">
        <ele>888.8800000</ele>
        <time>2010-03-14T11:50:01Z</time>
      </trkpt>
      <trkpt lat="45.7719730" lon="8.3507140">
        <ele>888.8800000</ele>
        <time>2010-03-14T11:50:12Z</time>
      </trkpt>
      <trkpt lat="45.7719350" lon="8.3507230">
        <ele>889.8400000</ele>
        <time>2010-03-14T11:50:21Z</time>
      </trkpt>
      <trkpt lat="45.7718990" lon="8.3507510">
        <ele>890.8000000</ele>
        <time>2010-03-14T11:50:31Z</time>
      </trkpt>
      <trkpt lat="45.7718060" lon="8.3507930">
        <ele>892.7200000</ele>
        <time>2010-03-14T11:50:45Z</time>
      </trkpt>
      <trkpt lat="45.7717140" lon="8.3508410">
        <ele>893.2000000</ele>
        <time>2010-03-14T11:50:57Z</time>
      </trkpt>
      <trkpt lat="45.7715930" lon="8.3509160">
        <ele>892.2400000</ele>
        <time>2010-03-14T11:51:10Z</time>
      </trkpt>
      <trkpt lat="45.7714940" lon="8.3509970">
        <ele>892.2400000</ele>
        <time>2010-03-14T11:51:22Z</time>
      </trkpt>
      <trkpt lat="45.7713920" lon="8.3510870">
        <ele>892.2400000</ele>
        <time>2010-03-14T11:51:35Z</time>
      </trkpt>
      <trkpt lat="45.7712970" lon="8.3511760">
        <ele>892.2400000</ele>
        <time>2010-03-14T11:51:47Z</time>
      </trkpt>
      <trkpt lat="45.7711680" lon="8.3512820">
        <ele>892.7200000</ele>
        <time>2010-03-14T11:52:01Z</time>
      </trkpt>
      <trkpt lat="45.7710510" lon="8.3513650">
        <ele>891.7600000</ele>
        <time>2010-03-14T11:52:15Z</time>
      </trkpt>
      <trkpt lat="45.7709510" lon="8.3514230">
        <ele>890.8000000</ele>
        <time>2010-03-14T11:52:28Z</time>
      </trkpt>
      <trkpt lat="45.7708320" lon="8.3514890">
        <ele>890.8000000</ele>
        <time>2010-03-14T11:52:41Z</time>
      </trkpt>
      <trkpt lat="45.7707690" lon="8.3515370">
        <ele>891.2800000</ele>
        <time>2010-03-14T11:52:49Z</time>
      </trkpt>
      <trkpt lat="45.7706260" lon="8.3515980">
        <ele>891.2800000</ele>
        <time>2010-03-14T11:53:04Z</time>
      </trkpt>
      <trkpt lat="45.7705120" lon="8.3516220">
        <ele>891.7600000</ele>
        <time>2010-03-14T11:53:16Z</time>
      </trkpt>
      <trkpt lat="45.7704370" lon="8.3516350">
        <ele>892.7200000</ele>
        <time>2010-03-14T11:53:27Z</time>
      </trkpt>
      <trkpt lat="45.7703760" lon="8.3516240">
        <ele>893.2000000</ele>
        <time>2010-03-14T11:53:36Z</time>
      </trkpt>
      <trkpt lat="45.7702830" lon="8.3516330">
        <ele>893.6800000</ele>
        <time>2010-03-14T11:53:45Z</time>
      </trkpt>
      <trkpt lat="45.7702440" lon="8.3516340">
        <ele>893.6800000</ele>
        <time>2010-03-14T11:53:50Z</time>
      </trkpt>
      <trkpt lat="45.7701420" lon="8.3516990">
        <ele>894.1600000</ele>
        <time>2010-03-14T11:53:57Z</time>
      </trkpt>
      <trkpt lat="45.7701000" lon="8.3517360">
        <ele>894.6400000</ele>
        <time>2010-03-14T11:54:00Z</time>
      </trkpt>
      <trkpt lat="45.7699570" lon="8.3518480">
        <ele>895.1200000</ele>
        <time>2010-03-14T11:54:15Z</time>
      </trkpt>
      <trkpt lat="45.7698880" lon="8.3518970">
        <ele>895.6100000</ele>
        <time>2010-03-14T11:54:24Z</time>
      </trkpt>
      <trkpt lat="45.7697990" lon="8.3520810">
        <ele>896.0900000</ele>
        <time>2010-03-14T11:54:35Z</time>
      </trkpt>
      <trkpt lat="45.7697200" lon="8.3521930">
        <ele>897.0500000</ele>
        <time>2010-03-14T11:54:46Z</time>
      </trkpt>
      <trkpt lat="45.7697050" lon="8.3522500">
        <ele>897.0500000</ele>
        <time>2010-03-14T11:54:51Z</time>
      </trkpt>
      <trkpt lat="45.7696940" lon="8.3524040">
        <ele>898.0100000</ele>
        <time>2010-03-14T11:55:01Z</time>
      </trkpt>
      <trkpt lat="45.7696720" lon="8.3526070">
        <ele>898.4900000</ele>
        <time>2010-03-14T11:55:11Z</time>
      </trkpt>
      <trkpt lat="45.7696640" lon="8.3528150">
        <ele>898.9700000</ele>
        <time>2010-03-14T11:55:20Z</time>
      </trkpt>
      <trkpt lat="45.7696520" lon="8.3529670">
        <ele>898.9700000</ele>
        <time>2010-03-14T11:55:28Z</time>
      </trkpt>
      <trkpt lat="45.7695630" lon="8.3530930">
        <ele>899.9300000</ele>
        <time>2010-03-14T11:55:40Z</time>
      </trkpt>
      <trkpt lat="45.7695030" lon="8.3531450">
        <ele>899.9300000</ele>
        <time>2010-03-14T11:55:50Z</time>
      </trkpt>
      <trkpt lat="45.7694350" lon="8.3531990">
        <ele>900.8900000</ele>
        <time>2010-03-14T11:56:03Z</time>
      </trkpt>
      <trkpt lat="45.7693610" lon="8.3532500">
        <ele>901.3700000</ele>
        <time>2010-03-14T11:56:12Z</time>
      </trkpt>
      <trkpt lat="45.7692990" lon="8.3533520">
        <ele>902.8200000</ele>
        <time>2010-03-14T11:56:24Z</time>
      </trkpt>
      <trkpt lat="45.7691770" lon="8.3534910">
        <ele>904.2600000</ele>
        <time>2010-03-14T11:56:39Z</time>
      </trkpt>
      <trkpt lat="45.7691120" lon="8.3536350">
        <ele>905.2200000</ele>
        <time>2010-03-14T11:56:52Z</time>
      </trkpt>
      <trkpt lat="45.7690270" lon="8.3537480">
        <ele>906.1800000</ele>
        <time>2010-03-14T11:57:06Z</time>
      </trkpt>
      <trkpt lat="45.7689620" lon="8.3538560">
        <ele>906.6600000</ele>
        <time>2010-03-14T11:57:17Z</time>
      </trkpt>
      <trkpt lat="45.7688720" lon="8.3539170">
        <ele>907.1400000</ele>
        <time>2010-03-14T11:57:29Z</time>
      </trkpt>
      <trkpt lat="45.7688030" lon="8.3540100">
        <ele>908.1000000</ele>
        <time>2010-03-14T11:57:41Z</time>
      </trkpt>
      <trkpt lat="45.7687820" lon="8.3540430">
        <ele>907.6200000</ele>
        <time>2010-03-14T11:57:46Z</time>
      </trkpt>
      <trkpt lat="45.7687320" lon="8.3541790">
        <ele>907.6200000</ele>
        <time>2010-03-14T11:57:54Z</time>
      </trkpt>
      <trkpt lat="45.7686880" lon="8.3543810">
        <ele>907.6200000</ele>
        <time>2010-03-14T11:58:05Z</time>
      </trkpt>
      <trkpt lat="45.7686670" lon="8.3544820">
        <ele>908.5800000</ele>
        <time>2010-03-14T11:58:09Z</time>
      </trkpt>
      <trkpt lat="45.7685480" lon="8.3547340">
        <ele>908.1000000</ele>
        <time>2010-03-14T11:58:22Z</time>
      </trkpt>
      <trkpt lat="45.7684840" lon="8.3548290">
        <ele>907.6200000</ele>
        <time>2010-03-14T11:58:31Z</time>
      </trkpt>
      <trkpt lat="45.7682610" lon="8.3549650">
        <ele>907.1400000</ele>
        <time>2010-03-14T11:58:43Z</time>
      </trkpt>
      <trkpt lat="45.7682430" lon="8.3549810">
        <ele>907.1400000</ele>
        <time>2010-03-14T11:58:44Z</time>
      </trkpt>
      <trkpt lat="45.7679990" lon="8.3550280">
        <ele>907.1400000</ele>
        <time>2010-03-14T11:58:56Z</time>
      </trkpt>
      <trkpt lat="45.7678500" lon="8.3549490">
        <ele>907.1400000</ele>
        <time>2010-03-14T11:59:07Z</time>
      </trkpt>
      <trkpt lat="45.7677560" lon="8.3548960">
        <ele>907.6200000</ele>
        <time>2010-03-14T11:59:18Z</time>
      </trkpt>
      <trkpt lat="45.7676110" lon="8.3548760">
        <ele>908.5800000</ele>
        <time>2010-03-14T11:59:32Z</time>
      </trkpt>
      <trkpt lat="45.7675030" lon="8.3548520">
        <ele>909.0600000</ele>
        <time>2010-03-14T11:59:44Z</time>
      </trkpt>
      <trkpt lat="45.7673990" lon="8.3548210">
        <ele>909.5400000</ele>
        <time>2010-03-14T11:59:55Z</time>
      </trkpt>
      <trkpt lat="45.7673860" lon="8.3548190">
        <ele>909.5400000</ele>
        <time>2010-03-14T11:59:56Z</time>
      </trkpt>
      <trkpt lat="45.7672460" lon="8.3548420">
        <ele>910.0300000</ele>
        <time>2010-03-14T12:00:09Z</time>
      </trkpt>
      <trkpt lat="45.7671450" lon="8.3549040">
        <ele>910.9900000</ele>
        <time>2010-03-14T12:00:22Z</time>
      </trkpt>
      <trkpt lat="45.7670930" lon="8.3549740">
        <ele>911.9500000</ele>
        <time>2010-03-14T12:00:32Z</time>
      </trkpt>
      <trkpt lat="45.7670280" lon="8.3550230">
        <ele>912.4300000</ele>
        <time>2010-03-14T12:00:44Z</time>
      </trkpt>
      <trkpt lat="45.7668780" lon="8.3550320">
        <ele>912.9100000</ele>
        <time>2010-03-14T12:00:58Z</time>
      </trkpt>
      <trkpt lat="45.7668570" lon="8.3550280">
        <ele>913.8700000</ele>
        <time>2010-03-14T12:01:00Z</time>
      </trkpt>
      <trkpt lat="45.7667850" lon="8.3549700">
        <ele>914.3500000</ele>
        <time>2010-03-14T12:01:14Z</time>
      </trkpt>
      <trkpt lat="45.7667310" lon="8.3548870">
        <ele>913.8700000</ele>
        <time>2010-03-14T12:01:25Z</time>
      </trkpt>
      <trkpt lat="45.7666720" lon="8.3548210">
        <ele>913.8700000</ele>
        <time>2010-03-14T12:01:33Z</time>
      </trkpt>
      <trkpt lat="45.7665250" lon="8.3547140">
        <ele>915.3100000</ele>
        <time>2010-03-14T12:01:48Z</time>
      </trkpt>
      <trkpt lat="45.7664870" lon="8.3546960">
        <ele>915.3100000</ele>
        <time>2010-03-14T12:02:03Z</time>
      </trkpt>
      <trkpt lat="45.7664370" lon="8.3546430">
        <ele>914.3500000</ele>
        <time>2010-03-14T12:02:19Z</time>
      </trkpt>
      <trkpt lat="45.7664070" lon="8.3546140">
        <ele>914.8300000</ele>
        <time>2010-03-14T12:02:31Z</time>
      </trkpt>
      <trkpt lat="45.7664080" lon="8.3546010">
        <ele>914.3500000</ele>
        <time>2010-03-14T12:03:35Z</time>
      </trkpt>
      <trkpt lat="45.7664030" lon="8.3546200">
        <ele>914.8300000</ele>
        <time>2010-03-14T12:05:26Z</time>
      </trkpt>
      <trkpt lat="45.7663970" lon="8.3546320">
        <ele>914.3500000</ele>
        <time>2010-03-14T12:05:27Z</time>
      </trkpt>
      <trkpt lat="45.7662080" lon="8.3546780">
        <ele>912.4300000</ele>
        <time>2010-03-14T12:05:35Z</time>
      </trkpt>
      <trkpt lat="45.7660760" lon="8.3548330">
        <ele>910.5100000</ele>
        <time>2010-03-14T12:05:41Z</time>
      </trkpt>
      <trkpt lat="45.7660560" lon="8.3549300">
        <ele>908.1000000</ele>
        <time>2010-03-14T12:05:44Z</time>
      </trkpt>
      <trkpt lat="45.7659910" lon="8.3550610">
        <ele>903.7800000</ele>
        <time>2010-03-14T12:05:48Z</time>
      </trkpt>
      <trkpt lat="45.7659580" lon="8.3551970">
        <ele>901.3700000</ele>
        <time>2010-03-14T12:05:52Z</time>
      </trkpt>
      <trkpt lat="45.7659640" lon="8.3552700">
        <ele>900.4100000</ele>
        <time>2010-03-14T12:05:54Z</time>
      </trkpt>
      <trkpt lat="45.7659910" lon="8.3554940">
        <ele>895.6100000</ele>
        <time>2010-03-14T12:05:59Z</time>
      </trkpt>
      <trkpt lat="45.7660000" lon="8.3555850">
        <ele>894.6400000</ele>
        <time>2010-03-14T12:06:01Z</time>
      </trkpt>
      <trkpt lat="45.7660690" lon="8.3558010">
        <ele>889.8400000</ele>
        <time>2010-03-14T12:06:06Z</time>
      </trkpt>
      <trkpt lat="45.7660710" lon="8.3558410">
        <ele>889.8400000</ele>
        <time>2010-03-14T12:06:07Z</time>
      </trkpt>
      <trkpt lat="45.7660260" lon="8.3559870">
        <ele>887.9100000</ele>
        <time>2010-03-14T12:06:12Z</time>
      </trkpt>
      <trkpt lat="45.7658960" lon="8.3560410">
        <ele>885.9900000</ele>
        <time>2010-03-14T12:06:16Z</time>
      </trkpt>
      <trkpt lat="45.7657630" lon="8.3561120">
        <ele>882.6300000</ele>
        <time>2010-03-14T12:06:19Z</time>
      </trkpt>
      <trkpt lat="45.7656650" lon="8.3561920">
        <ele>880.2200000</ele>
        <time>2010-03-14T12:06:22Z</time>
      </trkpt>
      <trkpt lat="45.7655570" lon="8.3563770">
        <ele>876.8600000</ele>
        <time>2010-03-14T12:06:27Z</time>
      </trkpt>
      <trkpt lat="45.7654940" lon="8.3565030">
        <ele>873.9800000</ele>
        <time>2010-03-14T12:06:30Z</time>
      </trkpt>
      <trkpt lat="45.7654400" lon="8.3566150">
        <ele>871.5700000</ele>
        <time>2010-03-14T12:06:33Z</time>
      </trkpt>
      <trkpt lat="45.7653820" lon="8.3567160">
        <ele>870.1300000</ele>
        <time>2010-03-14T12:06:37Z</time>
      </trkpt>
      <trkpt lat="45.7653000" lon="8.3568060">
        <ele>865.3200000</ele>
        <time>2010-03-14T12:06:41Z</time>
      </trkpt>
      <trkpt lat="45.7652950" lon="8.3568880">
        <ele>863.8800000</ele>
        <time>2010-03-14T12:06:43Z</time>
      </trkpt>
      <trkpt lat="45.7651240" lon="8.3569810">
        <ele>861.4800000</ele>
        <time>2010-03-14T12:06:50Z</time>
      </trkpt>
      <trkpt lat="45.7650730" lon="8.3570320">
        <ele>860.5200000</ele>
        <time>2010-03-14T12:06:52Z</time>
      </trkpt>
      <trkpt lat="45.7650480" lon="8.3571320">
        <ele>857.1500000</ele>
        <time>2010-03-14T12:06:55Z</time>
      </trkpt>
      <trkpt lat="45.7650390" lon="8.3572700">
        <ele>856.1900000</ele>
        <time>2010-03-14T12:06:58Z</time>
      </trkpt>
      <trkpt lat="45.7650240" lon="8.3573080">
        <ele>856.1900000</ele>
        <time>2010-03-14T12:06:59Z</time>
      </trkpt>
      <trkpt lat="45.7650130" lon="8.3573740">
        <ele>855.7100000</ele>
        <time>2010-03-14T12:07:01Z</time>
      </trkpt>
      <trkpt lat="45.7649270" lon="8.3574710">
        <ele>855.7100000</ele>
        <time>2010-03-14T12:07:04Z</time>
      </trkpt>
      <trkpt lat="45.7647850" lon="8.3575760">
        <ele>853.7900000</ele>
        <time>2010-03-14T12:07:07Z</time>
      </trkpt>
      <trkpt lat="45.7647400" lon="8.3576070">
        <ele>852.8300000</ele>
        <time>2010-03-14T12:07:08Z</time>
      </trkpt>
      <trkpt lat="45.7645810" lon="8.3577390">
        <ele>849.4600000</ele>
        <time>2010-03-14T12:07:12Z</time>
      </trkpt>
      <trkpt lat="45.7645140" lon="8.3578920">
        <ele>846.5800000</ele>
        <time>2010-03-14T12:07:15Z</time>
      </trkpt>
      <trkpt lat="45.7644510" lon="8.3581060">
        <ele>843.2100000</ele>
        <time>2010-03-14T12:07:19Z</time>
      </trkpt>
      <trkpt lat="45.7644210" lon="8.3582770">
        <ele>840.3300000</ele>
        <time>2010-03-14T12:07:22Z</time>
      </trkpt>
      <trkpt lat="45.7644440" lon="8.3585390">
        <ele>836.4800000</ele>
        <time>2010-03-14T12:07:27Z</time>
      </trkpt>
      <trkpt lat="45.7645340" lon="8.3588340">
        <ele>836.0000000</ele>
        <time>2010-03-14T12:07:35Z</time>
      </trkpt>
      <trkpt lat="45.7645400" lon="8.3590350">
        <ele>832.6400000</ele>
        <time>2010-03-14T12:07:40Z</time>
      </trkpt>
      <trkpt lat="45.7646340" lon="8.3591490">
        <ele>829.7600000</ele>
        <time>2010-03-14T12:07:45Z</time>
      </trkpt>
      <trkpt lat="45.7646690" lon="8.3592090">
        <ele>826.3900000</ele>
        <time>2010-03-14T12:07:47Z</time>
      </trkpt>
      <trkpt lat="45.7646890" lon="8.3592290">
        <ele>826.3900000</ele>
        <time>2010-03-14T12:07:48Z</time>
      </trkpt>
      <trkpt lat="45.7647620" lon="8.3593620">
        <ele>822.5500000</ele>
        <time>2010-03-14T12:07:52Z</time>
      </trkpt>
      <trkpt lat="45.7648500" lon="8.3595410">
        <ele>821.5800000</ele>
        <time>2010-03-14T12:08:01Z</time>
      </trkpt>
      <trkpt lat="45.7648690" lon="8.3596550">
        <ele>824.4700000</ele>
        <time>2010-03-14T12:08:12Z</time>
      </trkpt>
      <trkpt lat="45.7648420" lon="8.3597410">
        <ele>822.5500000</ele>
        <time>2010-03-14T12:08:16Z</time>
      </trkpt>
      <trkpt lat="45.7647980" lon="8.3598100">
        <ele>820.6200000</ele>
        <time>2010-03-14T12:08:18Z</time>
      </trkpt>
      <trkpt lat="45.7646650" lon="8.3599140">
        <ele>816.7800000</ele>
        <time>2010-03-14T12:08:22Z</time>
      </trkpt>
      <trkpt lat="45.7644920" lon="8.3600450">
        <ele>813.4100000</ele>
        <time>2010-03-14T12:08:26Z</time>
      </trkpt>
      <trkpt lat="45.7642190" lon="8.3601610">
        <ele>811.4900000</ele>
        <time>2010-03-14T12:08:31Z</time>
      </trkpt>
      <trkpt lat="45.7640300" lon="8.3602870">
        <ele>808.1300000</ele>
        <time>2010-03-14T12:08:36Z</time>
      </trkpt>
      <trkpt lat="45.7639220" lon="8.3603880">
        <ele>803.8000000</ele>
        <time>2010-03-14T12:08:39Z</time>
      </trkpt>
      <trkpt lat="45.7638990" lon="8.3605420">
        <ele>799.9500000</ele>
        <time>2010-03-14T12:08:43Z</time>
      </trkpt>
      <trkpt lat="45.7638920" lon="8.3607160">
        <ele>796.5900000</ele>
        <time>2010-03-14T12:08:47Z</time>
      </trkpt>
      <trkpt lat="45.7637560" lon="8.3608780">
        <ele>791.7800000</ele>
        <time>2010-03-14T12:08:51Z</time>
      </trkpt>
      <trkpt lat="45.7636430" lon="8.3609750">
        <ele>789.8600000</ele>
        <time>2010-03-14T12:08:53Z</time>
      </trkpt>
      <trkpt lat="45.7634780" lon="8.3610820">
        <ele>786.5000000</ele>
        <time>2010-03-14T12:08:56Z</time>
      </trkpt>
      <trkpt lat="45.7634160" lon="8.3611700">
        <ele>784.5700000</ele>
        <time>2010-03-14T12:08:59Z</time>
      </trkpt>
      <trkpt lat="45.7634010" lon="8.3611910">
        <ele>784.5700000</ele>
        <time>2010-03-14T12:09:00Z</time>
      </trkpt>
      <trkpt lat="45.7632940" lon="8.3612590">
        <ele>784.5700000</ele>
        <time>2010-03-14T12:09:08Z</time>
      </trkpt>
      <trkpt lat="45.7631710" lon="8.3613540">
        <ele>782.1700000</ele>
        <time>2010-03-14T12:09:13Z</time>
      </trkpt>
      <trkpt lat="45.7631510" lon="8.3614280">
        <ele>781.2100000</ele>
        <time>2010-03-14T12:09:15Z</time>
      </trkpt>
      <trkpt lat="45.7631370" lon="8.3615270">
        <ele>780.2500000</ele>
        <time>2010-03-14T12:09:17Z</time>
      </trkpt>
      <trkpt lat="45.7630290" lon="8.3616740">
        <ele>777.8400000</ele>
        <time>2010-03-14T12:09:21Z</time>
      </trkpt>
      <trkpt lat="45.7629910" lon="8.3617160">
        <ele>777.3600000</ele>
        <time>2010-03-14T12:09:23Z</time>
      </trkpt>
      <trkpt lat="45.7629660" lon="8.3618880">
        <ele>771.6000000</ele>
        <time>2010-03-14T12:09:28Z</time>
      </trkpt>
      <trkpt lat="45.7629120" lon="8.3619800">
        <ele>769.6700000</ele>
        <time>2010-03-14T12:09:31Z</time>
      </trkpt>
      <trkpt lat="45.7628640" lon="8.3620420">
        <ele>767.7500000</ele>
        <time>2010-03-14T12:09:33Z</time>
      </trkpt>
      <trkpt lat="45.7628000" lon="8.3621250">
        <ele>764.8700000</ele>
        <time>2010-03-14T12:09:35Z</time>
      </trkpt>
      <trkpt lat="45.7627530" lon="8.3622860">
        <ele>761.5000000</ele>
        <time>2010-03-14T12:09:39Z</time>
      </trkpt>
      <trkpt lat="45.7627290" lon="8.3623150">
        <ele>761.0200000</ele>
        <time>2010-03-14T12:09:40Z</time>
      </trkpt>
      <trkpt lat="45.7626870" lon="8.3624750">
        <ele>755.7300000</ele>
        <time>2010-03-14T12:09:45Z</time>
      </trkpt>
      <trkpt lat="45.7626990" lon="8.3625760">
        <ele>754.7700000</ele>
        <time>2010-03-14T12:09:47Z</time>
      </trkpt>
      <trkpt lat="45.7627670" lon="8.3626700">
        <ele>749.4900000</ele>
        <time>2010-03-14T12:09:51Z</time>
      </trkpt>
      <trkpt lat="45.7627740" lon="8.3626980">
        <ele>749.0000000</ele>
        <time>2010-03-14T12:09:52Z</time>
      </trkpt>
      <trkpt lat="45.7627770" lon="8.3628530">
        <ele>745.1600000</ele>
        <time>2010-03-14T12:09:57Z</time>
      </trkpt>
      <trkpt lat="45.7627760" lon="8.3628840">
        <ele>744.2000000</ele>
        <time>2010-03-14T12:09:58Z</time>
      </trkpt>
      <trkpt lat="45.7627020" lon="8.3630270">
        <ele>741.7900000</ele>
        <time>2010-03-14T12:10:02Z</time>
      </trkpt>
      <trkpt lat="45.7626180" lon="8.3631720">
        <ele>739.3900000</ele>
        <time>2010-03-14T12:10:05Z</time>
      </trkpt>
      <trkpt lat="45.7625800" lon="8.3632250">
        <ele>738.9100000</ele>
        <time>2010-03-14T12:10:06Z</time>
      </trkpt>
      <trkpt lat="45.7625580" lon="8.3632610">
        <ele>739.3900000</ele>
        <time>2010-03-14T12:10:07Z</time>
      </trkpt>
      <trkpt lat="45.7625090" lon="8.3633610">
        <ele>741.3100000</ele>
        <time>2010-03-14T12:10:12Z</time>
      </trkpt>
      <trkpt lat="45.7624960" lon="8.3634280">
        <ele>742.7600000</ele>
        <time>2010-03-14T12:10:15Z</time>
      </trkpt>
      <trkpt lat="45.7624790" lon="8.3634880">
        <ele>742.7600000</ele>
        <time>2010-03-14T12:10:18Z</time>
      </trkpt>
      <trkpt lat="45.7624760" lon="8.3635200">
        <ele>742.7600000</ele>
        <time>2010-03-14T12:10:19Z</time>
      </trkpt>
      <trkpt lat="45.7624670" lon="8.3635570">
        <ele>742.2800000</ele>
        <time>2010-03-14T12:10:20Z</time>
      </trkpt>
      <trkpt lat="45.7623540" lon="8.3637980">
        <ele>739.8700000</ele>
        <time>2010-03-14T12:10:25Z</time>
      </trkpt>
      <trkpt lat="45.7622400" lon="8.3640540">
        <ele>736.5100000</ele>
        <time>2010-03-14T12:10:30Z</time>
      </trkpt>
      <trkpt lat="45.7621790" lon="8.3641760">
        <ele>732.6600000</ele>
        <time>2010-03-14T12:10:33Z</time>
      </trkpt>
      <trkpt lat="45.7620750" lon="8.3642880">
        <ele>728.8200000</ele>
        <time>2010-03-14T12:10:36Z</time>
      </trkpt>
      <trkpt lat="45.7619000" lon="8.3644530">
        <ele>721.6100000</ele>
        <time>2010-03-14T12:10:40Z</time>
      </trkpt>
      <trkpt lat="45.7617590" lon="8.3646200">
        <ele>719.6800000</ele>
        <time>2010-03-14T12:10:44Z</time>
      </trkpt>
      <trkpt lat="45.7616820" lon="8.3647410">
        <ele>716.8000000</ele>
        <time>2010-03-14T12:10:47Z</time>
      </trkpt>
      <trkpt lat="45.7615690" lon="8.3648100">
        <ele>714.8800000</ele>
        <time>2010-03-14T12:10:50Z</time>
      </trkpt>
      <trkpt lat="45.7614680" lon="8.3650120">
        <ele>713.4400000</ele>
        <time>2010-03-14T12:10:54Z</time>
      </trkpt>
      <trkpt lat="45.7614510" lon="8.3651380">
        <ele>712.9500000</ele>
        <time>2010-03-14T12:10:56Z</time>
      </trkpt>
      <trkpt lat="45.7612530" lon="8.3655760">
        <ele>714.4000000</ele>
        <time>2010-03-14T12:11:05Z</time>
      </trkpt>
      <trkpt lat="45.7612350" lon="8.3656060">
        <ele>714.4000000</ele>
        <time>2010-03-14T12:11:06Z</time>
      </trkpt>
      <trkpt lat="45.7611150" lon="8.3659370">
        <ele>714.4000000</ele>
        <time>2010-03-14T12:11:16Z</time>
      </trkpt>
      <trkpt lat="45.7610840" lon="8.3660170">
        <ele>715.3600000</ele>
        <time>2010-03-14T12:11:18Z</time>
      </trkpt>
      <trkpt lat="45.7610550" lon="8.3661140">
        <ele>715.3600000</ele>
        <time>2010-03-14T12:11:21Z</time>
      </trkpt>
      <trkpt lat="45.7608850" lon="8.3664750">
        <ele>714.4000000</ele>
        <time>2010-03-14T12:11:31Z</time>
      </trkpt>
      <trkpt lat="45.7608310" lon="8.3665760">
        <ele>712.4700000</ele>
        <time>2010-03-14T12:11:33Z</time>
      </trkpt>
      <trkpt lat="45.7607630" lon="8.3668020">
        <ele>707.6700000</ele>
        <time>2010-03-14T12:11:37Z</time>
      </trkpt>
      <trkpt lat="45.7606240" lon="8.3669300">
        <ele>702.8600000</ele>
        <time>2010-03-14T12:11:40Z</time>
      </trkpt>
      <trkpt lat="45.7605620" lon="8.3670150">
        <ele>700.9400000</ele>
        <time>2010-03-14T12:11:42Z</time>
      </trkpt>
      <trkpt lat="45.7604480" lon="8.3671050">
        <ele>696.1300000</ele>
        <time>2010-03-14T12:11:47Z</time>
      </trkpt>
      <trkpt lat="45.7604190" lon="8.3671360">
        <ele>695.6500000</ele>
        <time>2010-03-14T12:11:48Z</time>
      </trkpt>
      <trkpt lat="45.7603050" lon="8.3672650">
        <ele>691.8100000</ele>
        <time>2010-03-14T12:11:52Z</time>
      </trkpt>
      <trkpt lat="45.7602210" lon="8.3673070">
        <ele>690.8400000</ele>
        <time>2010-03-14T12:11:54Z</time>
      </trkpt>
      <trkpt lat="45.7600770" lon="8.3673500">
        <ele>686.0400000</ele>
        <time>2010-03-14T12:11:58Z</time>
      </trkpt>
      <trkpt lat="45.7599720" lon="8.3674060">
        <ele>682.1900000</ele>
        <time>2010-03-14T12:12:01Z</time>
      </trkpt>
      <trkpt lat="45.7599530" lon="8.3674120">
        <ele>680.2700000</ele>
        <time>2010-03-14T12:12:02Z</time>
      </trkpt>
      <trkpt lat="45.7599520" lon="8.3674180">
        <ele>679.3100000</ele>
        <time>2010-03-14T12:12:03Z</time>
      </trkpt>
      <trkpt lat="45.7600710" lon="8.3676170">
        <ele>675.9400000</ele>
        <time>2010-03-14T12:12:08Z</time>
      </trkpt>
      <trkpt lat="45.7600800" lon="8.3677480">
        <ele>674.5000000</ele>
        <time>2010-03-14T12:12:10Z</time>
      </trkpt>
      <trkpt lat="45.7600630" lon="8.3679500">
        <ele>671.1400000</ele>
        <time>2010-03-14T12:12:13Z</time>
      </trkpt>
      <trkpt lat="45.7600280" lon="8.3683150">
        <ele>668.2500000</ele>
        <time>2010-03-14T12:12:18Z</time>
      </trkpt>
      <trkpt lat="45.7600180" lon="8.3683590">
        <ele>666.8100000</ele>
        <time>2010-03-14T12:12:19Z</time>
      </trkpt>
      <trkpt lat="45.7598750" lon="8.3685100">
        <ele>663.9300000</ele>
        <time>2010-03-14T12:12:23Z</time>
      </trkpt>
      <trkpt lat="45.7598440" lon="8.3685450">
        <ele>662.0100000</ele>
        <time>2010-03-14T12:12:24Z</time>
      </trkpt>
      <trkpt lat="45.7597980" lon="8.3686170">
        <ele>659.6000000</ele>
        <time>2010-03-14T12:12:26Z</time>
      </trkpt>
      <trkpt lat="45.7596570" lon="8.3686540">
        <ele>655.2800000</ele>
        <time>2010-03-14T12:12:30Z</time>
      </trkpt>
      <trkpt lat="45.7594820" lon="8.3688600">
        <ele>651.9100000</ele>
        <time>2010-03-14T12:12:36Z</time>
      </trkpt>
      <trkpt lat="45.7593520" lon="8.3691280">
        <ele>647.5900000</ele>
        <time>2010-03-14T12:12:40Z</time>
      </trkpt>
      <trkpt lat="45.7592940" lon="8.3693530">
        <ele>643.7400000</ele>
        <time>2010-03-14T12:12:43Z</time>
      </trkpt>
      <trkpt lat="45.7591840" lon="8.3695820">
        <ele>640.8600000</ele>
        <time>2010-03-14T12:12:46Z</time>
      </trkpt>
      <trkpt lat="45.7591440" lon="8.3696660">
        <ele>640.3800000</ele>
        <time>2010-03-14T12:12:47Z</time>
      </trkpt>
      <trkpt lat="45.7591190" lon="8.3697570">
        <ele>639.8900000</ele>
        <time>2010-03-14T12:12:48Z</time>
      </trkpt>
      <trkpt lat="45.7590850" lon="8.3699250">
        <ele>638.4500000</ele>
        <time>2010-03-14T12:12:50Z</time>
      </trkpt>
      <trkpt lat="45.7590540" lon="8.3700710">
        <ele>636.5300000</ele>
        <time>2010-03-14T12:12:52Z</time>
      </trkpt>
      <trkpt lat="45.7588210" lon="8.3704000">
        <ele>631.2400000</ele>
        <time>2010-03-14T12:12:57Z</time>
      </trkpt>
      <trkpt lat="45.7587070" lon="8.3705300">
        <ele>629.3200000</ele>
        <time>2010-03-14T12:12:59Z</time>
      </trkpt>
      <trkpt lat="45.7584780" lon="8.3708650">
        <ele>624.9900000</ele>
        <time>2010-03-14T12:13:05Z</time>
      </trkpt>
      <trkpt lat="45.7584180" lon="8.3709620">
        <ele>623.0700000</ele>
        <time>2010-03-14T12:13:08Z</time>
      </trkpt>
      <trkpt lat="45.7584050" lon="8.3709940">
        <ele>622.1100000</ele>
        <time>2010-03-14T12:13:09Z</time>
      </trkpt>
      <trkpt lat="45.7584020" lon="8.3711010">
        <ele>618.7500000</ele>
        <time>2010-03-14T12:13:12Z</time>
      </trkpt>
      <trkpt lat="45.7584030" lon="8.3711840">
        <ele>615.8600000</ele>
        <time>2010-03-14T12:13:15Z</time>
      </trkpt>
      <trkpt lat="45.7583640" lon="8.3713000">
        <ele>613.9400000</ele>
        <time>2010-03-14T12:13:18Z</time>
      </trkpt>
      <trkpt lat="45.7583570" lon="8.3714260">
        <ele>610.5700000</ele>
        <time>2010-03-14T12:13:21Z</time>
      </trkpt>
      <trkpt lat="45.7583310" lon="8.3715040">
        <ele>609.1300000</ele>
        <time>2010-03-14T12:13:23Z</time>
      </trkpt>
      <trkpt lat="45.7583400" lon="8.3717260">
        <ele>605.2900000</ele>
        <time>2010-03-14T12:13:28Z</time>
      </trkpt>
      <trkpt lat="45.7583150" lon="8.3719020">
        <ele>601.4400000</ele>
        <time>2010-03-14T12:13:32Z</time>
      </trkpt>
      <trkpt lat="45.7582590" lon="8.3719440">
        <ele>598.5600000</ele>
        <time>2010-03-14T12:13:34Z</time>
      </trkpt>
      <trkpt lat="45.7581350" lon="8.3719510">
        <ele>593.7500000</ele>
        <time>2010-03-14T12:13:38Z</time>
      </trkpt>
      <trkpt lat="45.7580540" lon="8.3720230">
        <ele>590.8700000</ele>
        <time>2010-03-14T12:13:42Z</time>
      </trkpt>
      <trkpt lat="45.7579900" lon="8.3721120">
        <ele>587.0200000</ele>
        <time>2010-03-14T12:13:45Z</time>
      </trkpt>
      <trkpt lat="45.7579050" lon="8.3722510">
        <ele>582.7000000</ele>
        <time>2010-03-14T12:13:49Z</time>
      </trkpt>
      <trkpt lat="45.7578310" lon="8.3723910">
        <ele>580.7700000</ele>
        <time>2010-03-14T12:13:52Z</time>
      </trkpt>
      <trkpt lat="45.7577860" lon="8.3724930">
        <ele>578.3700000</ele>
        <time>2010-03-14T12:13:54Z</time>
      </trkpt>
      <trkpt lat="45.7576940" lon="8.3727310">
        <ele>572.6000000</ele>
        <time>2010-03-14T12:13:58Z</time>
      </trkpt>
      <trkpt lat="45.7574930" lon="8.3729000">
        <ele>572.1200000</ele>
        <time>2010-03-14T12:14:03Z</time>
      </trkpt>
      <trkpt lat="45.7573350" lon="8.3730180">
        <ele>570.6800000</ele>
        <time>2010-03-14T12:14:07Z</time>
      </trkpt>
      <trkpt lat="45.7571560" lon="8.3729910">
        <ele>568.2800000</ele>
        <time>2010-03-14T12:14:11Z</time>
      </trkpt>
      <trkpt lat="45.7570920" lon="8.3730480">
        <ele>566.3500000</ele>
        <time>2010-03-14T12:14:13Z</time>
      </trkpt>
      <trkpt lat="45.7569920" lon="8.3732690">
        <ele>561.5500000</ele>
        <time>2010-03-14T12:14:17Z</time>
      </trkpt>
      <trkpt lat="45.7569770" lon="8.3733270">
        <ele>561.5500000</ele>
        <time>2010-03-14T12:14:18Z</time>
      </trkpt>
      <trkpt lat="45.7569670" lon="8.3733950">
        <ele>559.6200000</ele>
        <time>2010-03-14T12:14:19Z</time>
      </trkpt>
      <trkpt lat="45.7568790" lon="8.3736380">
        <ele>556.7400000</ele>
        <time>2010-03-14T12:14:23Z</time>
      </trkpt>
      <trkpt lat="45.7568010" lon="8.3737180">
        <ele>555.3000000</ele>
        <time>2010-03-14T12:14:25Z</time>
      </trkpt>
      <trkpt lat="45.7567580" lon="8.3737650">
        <ele>554.3400000</ele>
        <time>2010-03-14T12:14:26Z</time>
      </trkpt>
      <trkpt lat="45.7566500" lon="8.3738790">
        <ele>551.4500000</ele>
        <time>2010-03-14T12:14:29Z</time>
      </trkpt>
      <trkpt lat="45.7565680" lon="8.3741520">
        <ele>546.6500000</ele>
        <time>2010-03-14T12:14:35Z</time>
      </trkpt>
      <trkpt lat="45.7565600" lon="8.3741910">
        <ele>546.1700000</ele>
        <time>2010-03-14T12:14:36Z</time>
      </trkpt>
      <trkpt lat="45.7565280" lon="8.3743360">
        <ele>542.3200000</ele>
        <time>2010-03-14T12:14:40Z</time>
      </trkpt>
      <trkpt lat="45.7564670" lon="8.3745050">
        <ele>537.0300000</ele>
        <time>2010-03-14T12:14:45Z</time>
      </trkpt>
      <trkpt lat="45.7564550" lon="8.3745550">
        <ele>536.0700000</ele>
        <time>2010-03-14T12:14:47Z</time>
      </trkpt>
      <trkpt lat="45.7564070" lon="8.3746730">
        <ele>531.7500000</ele>
        <time>2010-03-14T12:14:50Z</time>
      </trkpt>
      <trkpt lat="45.7563980" lon="8.3747900">
        <ele>527.9000000</ele>
        <time>2010-03-14T12:14:53Z</time>
      </trkpt>
      <trkpt lat="45.7563920" lon="8.3748320">
        <ele>527.4200000</ele>
        <time>2010-03-14T12:14:54Z</time>
      </trkpt>
      <trkpt lat="45.7563650" lon="8.3749810">
        <ele>524.0600000</ele>
        <time>2010-03-14T12:14:57Z</time>
      </trkpt>
      <trkpt lat="45.7563580" lon="8.3751100">
        <ele>520.2100000</ele>
        <time>2010-03-14T12:15:00Z</time>
      </trkpt>
      <trkpt lat="45.7563600" lon="8.3751690">
        <ele>518.2900000</ele>
        <time>2010-03-14T12:15:02Z</time>
      </trkpt>
      <trkpt lat="45.7563740" lon="8.3753370">
        <ele>513.9600000</ele>
        <time>2010-03-14T12:15:06Z</time>
      </trkpt>
      <trkpt lat="45.7563710" lon="8.3754090">
        <ele>510.6000000</ele>
        <time>2010-03-14T12:15:15Z</time>
      </trkpt>
      <trkpt lat="45.7563710" lon="8.3755780">
        <ele>506.2700000</ele>
        <time>2010-03-14T12:15:20Z</time>
      </trkpt>
      <trkpt lat="45.7563680" lon="8.3757270">
        <ele>503.3900000</ele>
        <time>2010-03-14T12:15:23Z</time>
      </trkpt>
      <trkpt lat="45.7563690" lon="8.3757760">
        <ele>501.4600000</ele>
        <time>2010-03-14T12:15:24Z</time>
      </trkpt>
      <trkpt lat="45.7563640" lon="8.3758520">
        <ele>499.5400000</ele>
        <time>2010-03-14T12:15:27Z</time>
      </trkpt>
      <trkpt lat="45.7565260" lon="8.3757330">
        <ele>498.1000000</ele>
        <time>2010-03-14T12:15:35Z</time>
      </trkpt>
      <trkpt lat="45.7565470" lon="8.3757090">
        <ele>498.5800000</ele>
        <time>2010-03-14T12:15:37Z</time>
      </trkpt>
      <trkpt lat="45.7565770" lon="8.3757080">
        <ele>498.5800000</ele>
        <time>2010-03-14T12:15:39Z</time>
      </trkpt>
      <trkpt lat="45.7566630" lon="8.3756660">
        <ele>499.0600000</ele>
        <time>2010-03-14T12:15:44Z</time>
      </trkpt>
      <trkpt lat="45.7567440" lon="8.3756260">
        <ele>499.5400000</ele>
        <time>2010-03-14T12:15:49Z</time>
      </trkpt>
      <trkpt lat="45.7568410" lon="8.3755720">
        <ele>499.5400000</ele>
        <time>2010-03-14T12:15:55Z</time>
      </trkpt>
      <trkpt lat="45.7569750" lon="8.3755610">
        <ele>498.5800000</ele>
        <time>2010-03-14T12:16:05Z</time>
      </trkpt>
      <trkpt lat="45.7570390" lon="8.3755090">
        <ele>498.5800000</ele>
        <time>2010-03-14T12:16:22Z</time>
      </trkpt>
      <trkpt lat="45.7570450" lon="8.3755240">
        <ele>497.6200000</ele>
        <time>2010-03-14T12:16:50Z</time>
      </trkpt>
      <trkpt lat="45.7570620" lon="8.3755560">
        <ele>497.6200000</ele>
        <time>2010-03-14T12:17:24Z</time>
      </trkpt>
      <trkpt lat="45.7571110" lon="8.3755820">
        <ele>497.6200000</ele>
        <time>2010-03-14T12:19:45Z</time>
      </trkpt>
      <trkpt lat="45.7571230" lon="8.3755970">
        <ele>497.6200000</ele>
        <time>2010-03-14T12:19:48Z</time>
      </trkpt>
      <trkpt lat="45.7571330" lon="8.3756240">
        <ele>497.6200000</ele>
        <time>2010-03-14T12:19:51Z</time>
      </trkpt>
      <trkpt lat="45.7570310" lon="8.3758840">
        <ele>496.6600000</ele>
        <time>2010-03-14T12:20:03Z</time>
      </trkpt>
      <trkpt lat="45.7570230" lon="8.3759050">
        <ele>497.1400000</ele>
        <time>2010-03-14T12:20:04Z</time>
      </trkpt>
      <trkpt lat="45.7570210" lon="8.3759430">
        <ele>496.6600000</ele>
        <time>2010-03-14T12:20:07Z</time>
      </trkpt>
      <trkpt lat="45.7568150" lon="8.3762230">
        <ele>495.7000000</ele>
        <time>2010-03-14T12:20:17Z</time>
      </trkpt>
      <trkpt lat="45.7565250" lon="8.3765150">
        <ele>493.2900000</ele>
        <time>2010-03-14T12:20:25Z</time>
      </trkpt>
      <trkpt lat="45.7564380" lon="8.3767110">
        <ele>492.8100000</ele>
        <time>2010-03-14T12:20:29Z</time>
      </trkpt>
      <trkpt lat="45.7564030" lon="8.3772470">
        <ele>490.4100000</ele>
        <time>2010-03-14T12:20:39Z</time>
      </trkpt>
      <trkpt lat="45.7565620" lon="8.3774370">
        <ele>489.9300000</ele>
        <time>2010-03-14T12:20:46Z</time>
      </trkpt>
      <trkpt lat="45.7564470" lon="8.3779380">
        <ele>487.5300000</ele>
        <time>2010-03-14T12:20:58Z</time>
      </trkpt>
      <trkpt lat="45.7564620" lon="8.3783580">
        <ele>485.1200000</ele>
        <time>2010-03-14T12:21:05Z</time>
      </trkpt>
      <trkpt lat="45.7565350" lon="8.3789120">
        <ele>484.1600000</ele>
        <time>2010-03-14T12:21:16Z</time>
      </trkpt>
      <trkpt lat="45.7565740" lon="8.3794090">
        <ele>482.7200000</ele>
        <time>2010-03-14T12:21:27Z</time>
      </trkpt>
      <trkpt lat="45.7565890" lon="8.3800000">
        <ele>482.2400000</ele>
        <time>2010-03-14T12:21:42Z</time>
      </trkpt>
      <trkpt lat="45.7564890" lon="8.3805600">
        <ele>479.8400000</ele>
        <time>2010-03-14T12:21:56Z</time>
      </trkpt>
      <trkpt lat="45.7564070" lon="8.3812190">
        <ele>478.8700000</ele>
        <time>2010-03-14T12:22:08Z</time>
      </trkpt>
      <trkpt lat="45.7563650" lon="8.3814410">
        <ele>478.3900000</ele>
        <time>2010-03-14T12:22:12Z</time>
      </trkpt>
      <trkpt lat="45.7563660" lon="8.3815010">
        <ele>478.3900000</ele>
        <time>2010-03-14T12:22:13Z</time>
      </trkpt>
      <trkpt lat="45.7563820" lon="8.3815550">
        <ele>477.9100000</ele>
        <time>2010-03-14T12:22:14Z</time>
      </trkpt>
      <trkpt lat="45.7564040" lon="8.3816040">
        <ele>477.9100000</ele>
        <time>2010-03-14T12:22:15Z</time>
      </trkpt>
      <trkpt lat="45.7564330" lon="8.3816490">
        <ele>477.9100000</ele>
        <time>2010-03-14T12:22:16Z</time>
      </trkpt>
      <trkpt lat="45.7564650" lon="8.3816930">
        <ele>477.4300000</ele>
        <time>2010-03-14T12:22:17Z</time>
      </trkpt>
      <trkpt lat="45.7565000" lon="8.3817330">
        <ele>477.4300000</ele>
        <time>2010-03-14T12:22:18Z</time>
      </trkpt>
      <trkpt lat="45.7569550" lon="8.3822550">
        <ele>476.4700000</ele>
        <time>2010-03-14T12:22:30Z</time>
      </trkpt>
      <trkpt lat="45.7569600" lon="8.3823210">
        <ele>476.4700000</ele>
        <time>2010-03-14T12:22:31Z</time>
      </trkpt>
      <trkpt lat="45.7568990" lon="8.3824100">
        <ele>475.9900000</ele>
        <time>2010-03-14T12:22:33Z</time>
      </trkpt>
      <trkpt lat="45.7568590" lon="8.3824110">
        <ele>475.9900000</ele>
        <time>2010-03-14T12:22:34Z</time>
      </trkpt>
      <trkpt lat="45.7568250" lon="8.3824020">
        <ele>475.5100000</ele>
        <time>2010-03-14T12:22:35Z</time>
      </trkpt>
      <trkpt lat="45.7567900" lon="8.3824040">
        <ele>475.0300000</ele>
        <time>2010-03-14T12:22:37Z</time>
      </trkpt>
      <trkpt lat="45.7567710" lon="8.3824470">
        <ele>475.0300000</ele>
        <time>2010-03-14T12:22:48Z</time>
      </trkpt>
      <trkpt lat="45.7567590" lon="8.3824400">
        <ele>474.5500000</ele>
        <time>2010-03-14T12:23:03Z</time>
      </trkpt>
      <trkpt lat="45.7567580" lon="8.3824470">
        <ele>473.5900000</ele>
        <time>2010-03-14T12:23:35Z</time>
      </trkpt>
      <trkpt lat="45.7567580" lon="8.3824470">
        <ele>476.4700000</ele>
        <time>2010-03-14T12:23:42Z</time>
      </trkpt>
      <trkpt lat="45.7567580" lon="8.3824470">
        <ele>473.1100000</ele>
        <time>2010-03-14T12:23:48Z</time>
      </trkpt>
    </trkseg>
  </trk>

  <trk>
    <name>PS 1/3</name>
    <extensions>
      <gpxx:TrackExtension xmlns:gpxx="http://www.garmin.com/xmlschemas/GpxExtensions/v3">
        <gpxx:DisplayColor>Red</gpxx:DisplayColor>
      </gpxx:TrackExtension>
    </extensions>
    <trkseg>
      <trkpt lat="45.7663120" lon="8.3551180">
        <ele>900.8900000</ele>
        <time>2010-03-12T10:11:33Z</time>
      </trkpt>
      <trkpt lat="45.7663120" lon="8.3551180">
        <ele>905.7000000</ele>
        <time>2010-03-12T10:11:35Z</time>
      </trkpt>
      <trkpt lat="45.7663120" lon="8.3551180">
        <ele>900.4100000</ele>
        <time>2010-03-12T10:11:36Z</time>
      </trkpt>
      <trkpt lat="45.7662790" lon="8.3551120">
        <ele>898.9700000</ele>
        <time>2010-03-12T10:12:17Z</time>
      </trkpt>
      <trkpt lat="45.7661680" lon="8.3550220">
        <ele>895.6100000</ele>
        <time>2010-03-12T10:12:26Z</time>
      </trkpt>
      <trkpt lat="45.7661590" lon="8.3550090">
        <ele>894.1600000</ele>
        <time>2010-03-12T10:12:41Z</time>
      </trkpt>
      <trkpt lat="45.7660760" lon="8.3550530">
        <ele>891.7600000</ele>
        <time>2010-03-12T10:12:51Z</time>
      </trkpt>
      <trkpt lat="45.7660290" lon="8.3550780">
        <ele>890.8000000</ele>
        <time>2010-03-12T10:12:54Z</time>
      </trkpt>
      <trkpt lat="45.7659730" lon="8.3551050">
        <ele>887.4300000</ele>
        <time>2010-03-12T10:12:59Z</time>
      </trkpt>
      <trkpt lat="45.7659430" lon="8.3552990">
        <ele>885.0300000</ele>
        <time>2010-03-12T10:13:10Z</time>
      </trkpt>
      <trkpt lat="45.7659460" lon="8.3554230">
        <ele>882.6300000</ele>
        <time>2010-03-12T10:13:14Z</time>
      </trkpt>
      <trkpt lat="45.7660090" lon="8.3556330">
        <ele>877.8200000</ele>
        <time>2010-03-12T10:13:21Z</time>
      </trkpt>
      <trkpt lat="45.7660420" lon="8.3557260">
        <ele>875.4200000</ele>
        <time>2010-03-12T10:13:25Z</time>
      </trkpt>
      <trkpt lat="45.7660470" lon="8.3557700">
        <ele>874.9400000</ele>
        <time>2010-03-12T10:13:27Z</time>
      </trkpt>
      <trkpt lat="45.7659000" lon="8.3558980">
        <ele>871.0900000</ele>
        <time>2010-03-12T10:13:34Z</time>
      </trkpt>
      <trkpt lat="45.7657350" lon="8.3559930">
        <ele>868.6900000</ele>
        <time>2010-03-12T10:13:40Z</time>
      </trkpt>
      <trkpt lat="45.7655670" lon="8.3561440">
        <ele>865.3200000</ele>
        <time>2010-03-12T10:13:46Z</time>
      </trkpt>
      <trkpt lat="45.7654700" lon="8.3563120">
        <ele>860.0400000</ele>
        <time>2010-03-12T10:13:52Z</time>
      </trkpt>
      <trkpt lat="45.7653710" lon="8.3564600">
        <ele>857.1500000</ele>
        <time>2010-03-12T10:13:57Z</time>
      </trkpt>
      <trkpt lat="45.7653340" lon="8.3565190">
        <ele>856.1900000</ele>
        <time>2010-03-12T10:13:59Z</time>
      </trkpt>
      <trkpt lat="45.7652830" lon="8.3565730">
        <ele>854.7500000</ele>
        <time>2010-03-12T10:14:02Z</time>
      </trkpt>
      <trkpt lat="45.7654200" lon="8.3567810">
        <ele>854.7500000</ele>
        <time>2010-03-12T10:14:27Z</time>
      </trkpt>
      <trkpt lat="45.7653500" lon="8.3568350">
        <ele>851.3800000</ele>
        <time>2010-03-12T10:14:34Z</time>
      </trkpt>
      <trkpt lat="45.7653230" lon="8.3568720">
        <ele>849.9400000</ele>
        <time>2010-03-12T10:14:36Z</time>
      </trkpt>
      <trkpt lat="45.7653160" lon="8.3569610">
        <ele>848.5000000</ele>
        <time>2010-03-12T10:14:38Z</time>
      </trkpt>
      <trkpt lat="45.7652600" lon="8.3570900">
        <ele>848.0200000</ele>
        <time>2010-03-12T10:14:42Z</time>
      </trkpt>
      <trkpt lat="45.7650880" lon="8.3571040">
        <ele>846.1000000</ele>
        <time>2010-03-12T10:14:49Z</time>
      </trkpt>
      <trkpt lat="45.7649960" lon="8.3571560">
        <ele>843.2100000</ele>
        <time>2010-03-12T10:14:54Z</time>
      </trkpt>
      <trkpt lat="45.7649740" lon="8.3571980">
        <ele>842.2500000</ele>
        <time>2010-03-12T10:14:56Z</time>
      </trkpt>
      <trkpt lat="45.7649830" lon="8.3574390">
        <ele>840.8100000</ele>
        <time>2010-03-12T10:15:03Z</time>
      </trkpt>
      <trkpt lat="45.7649230" lon="8.3576360">
        <ele>840.8100000</ele>
        <time>2010-03-12T10:15:14Z</time>
      </trkpt>
      <trkpt lat="45.7648920" lon="8.3576580">
        <ele>840.3300000</ele>
        <time>2010-03-12T10:15:16Z</time>
      </trkpt>
      <trkpt lat="45.7647080" lon="8.3576640">
        <ele>837.9300000</ele>
        <time>2010-03-12T10:15:21Z</time>
      </trkpt>
      <trkpt lat="45.7646180" lon="8.3576980">
        <ele>835.5200000</ele>
        <time>2010-03-12T10:15:24Z</time>
      </trkpt>
      <trkpt lat="45.7644790" lon="8.3578290">
        <ele>831.6800000</ele>
        <time>2010-03-12T10:15:29Z</time>
      </trkpt>
      <trkpt lat="45.7644040" lon="8.3580060">
        <ele>829.2700000</ele>
        <time>2010-03-12T10:15:33Z</time>
      </trkpt>
      <trkpt lat="45.7643650" lon="8.3581330">
        <ele>826.8700000</ele>
        <time>2010-03-12T10:15:36Z</time>
      </trkpt>
      <trkpt lat="45.7643180" lon="8.3583310">
        <ele>823.5100000</ele>
        <time>2010-03-12T10:15:41Z</time>
      </trkpt>
      <trkpt lat="45.7643230" lon="8.3583740">
        <ele>823.0300000</ele>
        <time>2010-03-12T10:15:42Z</time>
      </trkpt>
      <trkpt lat="45.7644280" lon="8.3586290">
        <ele>820.6200000</ele>
        <time>2010-03-12T10:15:52Z</time>
      </trkpt>
      <trkpt lat="45.7644940" lon="8.3587430">
        <ele>821.1000000</ele>
        <time>2010-03-12T10:16:03Z</time>
      </trkpt>
      <trkpt lat="45.7645010" lon="8.3587470">
        <ele>820.6200000</ele>
        <time>2010-03-12T10:16:08Z</time>
      </trkpt>
      <trkpt lat="45.7645100" lon="8.3587990">
        <ele>821.1000000</ele>
        <time>2010-03-12T10:16:11Z</time>
      </trkpt>
      <trkpt lat="45.7645430" lon="8.3589390">
        <ele>818.7000000</ele>
        <time>2010-03-12T10:16:22Z</time>
      </trkpt>
      <trkpt lat="45.7645630" lon="8.3590930">
        <ele>817.2600000</ele>
        <time>2010-03-12T10:16:34Z</time>
      </trkpt>
      <trkpt lat="45.7646650" lon="8.3592150">
        <ele>813.8900000</ele>
        <time>2010-03-12T10:16:42Z</time>
      </trkpt>
      <trkpt lat="45.7646940" lon="8.3593140">
        <ele>810.0500000</ele>
        <time>2010-03-12T10:16:46Z</time>
      </trkpt>
      <trkpt lat="45.7647780" lon="8.3593360">
        <ele>809.0900000</ele>
        <time>2010-03-12T10:16:50Z</time>
      </trkpt>
      <trkpt lat="45.7648270" lon="8.3594090">
        <ele>806.2000000</ele>
        <time>2010-03-12T10:16:54Z</time>
      </trkpt>
      <trkpt lat="45.7649610" lon="8.3594400">
        <ele>804.7600000</ele>
        <time>2010-03-12T10:17:05Z</time>
      </trkpt>
      <trkpt lat="45.7649800" lon="8.3595080">
        <ele>808.1300000</ele>
        <time>2010-03-12T10:17:17Z</time>
      </trkpt>
      <trkpt lat="45.7649420" lon="8.3596150">
        <ele>808.1300000</ele>
        <time>2010-03-12T10:17:55Z</time>
      </trkpt>
      <trkpt lat="45.7649220" lon="8.3596280">
        <ele>808.6100000</ele>
        <time>2010-03-12T10:21:57Z</time>
      </trkpt>
      <trkpt lat="45.7648650" lon="8.3597070">
        <ele>806.6800000</ele>
        <time>2010-03-12T10:22:02Z</time>
      </trkpt>
      <trkpt lat="45.7648120" lon="8.3597680">
        <ele>805.2400000</ele>
        <time>2010-03-12T10:22:05Z</time>
      </trkpt>
      <trkpt lat="45.7646870" lon="8.3598210">
        <ele>800.4400000</ele>
        <time>2010-03-12T10:22:10Z</time>
      </trkpt>
      <trkpt lat="45.7644860" lon="8.3599660">
        <ele>797.0700000</ele>
        <time>2010-03-12T10:22:16Z</time>
      </trkpt>
      <trkpt lat="45.7643510" lon="8.3599950">
        <ele>795.1500000</ele>
        <time>2010-03-12T10:22:20Z</time>
      </trkpt>
      <trkpt lat="45.7642140" lon="8.3600220">
        <ele>793.2200000</ele>
        <time>2010-03-12T10:22:23Z</time>
      </trkpt>
      <trkpt lat="45.7641740" lon="8.3600340">
        <ele>792.7400000</ele>
        <time>2010-03-12T10:22:24Z</time>
      </trkpt>
      <trkpt lat="45.7639280" lon="8.3601880">
        <ele>791.3000000</ele>
        <time>2010-03-12T10:22:34Z</time>
      </trkpt>
      <trkpt lat="45.7639120" lon="8.3602150">
        <ele>790.8200000</ele>
        <time>2010-03-12T10:22:35Z</time>
      </trkpt>
      <trkpt lat="45.7637960" lon="8.3603200">
        <ele>787.9400000</ele>
        <time>2010-03-12T10:22:41Z</time>
      </trkpt>
      <trkpt lat="45.7637850" lon="8.3603440">
        <ele>786.9800000</ele>
        <time>2010-03-12T10:22:42Z</time>
      </trkpt>
      <trkpt lat="45.7637510" lon="8.3605120">
        <ele>783.1300000</ele>
        <time>2010-03-12T10:22:47Z</time>
      </trkpt>
      <trkpt lat="45.7637180" lon="8.3606570">
        <ele>780.2500000</ele>
        <time>2010-03-12T10:22:55Z</time>
      </trkpt>
      <trkpt lat="45.7636360" lon="8.3608730">
        <ele>776.4000000</ele>
        <time>2010-03-12T10:23:02Z</time>
      </trkpt>
      <trkpt lat="45.7635330" lon="8.3609730">
        <ele>772.5600000</ele>
        <time>2010-03-12T10:23:07Z</time>
      </trkpt>
      <trkpt lat="45.7635080" lon="8.3609960">
        <ele>772.0800000</ele>
        <time>2010-03-12T10:23:08Z</time>
      </trkpt>
      <trkpt lat="45.7634310" lon="8.3610330">
        <ele>771.1100000</ele>
        <time>2010-03-12T10:23:11Z</time>
      </trkpt>
      <trkpt lat="45.7633750" lon="8.3610600">
        <ele>769.6700000</ele>
        <time>2010-03-12T10:23:14Z</time>
      </trkpt>
      <trkpt lat="45.7632110" lon="8.3611580">
        <ele>765.8300000</ele>
        <time>2010-03-12T10:23:22Z</time>
      </trkpt>
      <trkpt lat="45.7631900" lon="8.3611660">
        <ele>765.3500000</ele>
        <time>2010-03-12T10:23:23Z</time>
      </trkpt>
      <trkpt lat="45.7631470" lon="8.3612850">
        <ele>765.3500000</ele>
        <time>2010-03-12T10:23:26Z</time>
      </trkpt>
      <trkpt lat="45.7631210" lon="8.3615340">
        <ele>763.4200000</ele>
        <time>2010-03-12T10:23:37Z</time>
      </trkpt>
      <trkpt lat="45.7630750" lon="8.3616750">
        <ele>760.5400000</ele>
        <time>2010-03-12T10:23:45Z</time>
      </trkpt>
      <trkpt lat="45.7630660" lon="8.3617580">
        <ele>759.1000000</ele>
        <time>2010-03-12T10:23:48Z</time>
      </trkpt>
      <trkpt lat="45.7630220" lon="8.3618340">
        <ele>757.1800000</ele>
        <time>2010-03-12T10:23:51Z</time>
      </trkpt>
      <trkpt lat="45.7629180" lon="8.3619450">
        <ele>754.2900000</ele>
        <time>2010-03-12T10:23:56Z</time>
      </trkpt>
      <trkpt lat="45.7628740" lon="8.3620170">
        <ele>752.3700000</ele>
        <time>2010-03-12T10:23:58Z</time>
      </trkpt>
      <trkpt lat="45.7627110" lon="8.3621150">
        <ele>749.4900000</ele>
        <time>2010-03-12T10:24:06Z</time>
      </trkpt>
      <trkpt lat="45.7626880" lon="8.3621080">
        <ele>749.0000000</ele>
        <time>2010-03-12T10:24:07Z</time>
      </trkpt>
      <trkpt lat="45.7626090" lon="8.3620750">
        <ele>746.6000000</ele>
        <time>2010-03-12T10:24:11Z</time>
      </trkpt>
      <trkpt lat="45.7625360" lon="8.3620750">
        <ele>744.2000000</ele>
        <time>2010-03-12T10:24:15Z</time>
      </trkpt>
      <trkpt lat="45.7624880" lon="8.3620910">
        <ele>742.7600000</ele>
        <time>2010-03-12T10:24:17Z</time>
      </trkpt>
      <trkpt lat="45.7624730" lon="8.3620890">
        <ele>742.2800000</ele>
        <time>2010-03-12T10:24:18Z</time>
      </trkpt>
      <trkpt lat="45.7624220" lon="8.3621890">
        <ele>740.3500000</ele>
        <time>2010-03-12T10:24:22Z</time>
      </trkpt>
      <trkpt lat="45.7624220" lon="8.3623170">
        <ele>737.9500000</ele>
        <time>2010-03-12T10:24:25Z</time>
      </trkpt>
      <trkpt lat="45.7624480" lon="8.3624470">
        <ele>736.5100000</ele>
        <time>2010-03-12T10:24:31Z</time>
      </trkpt>
      <trkpt lat="45.7624700" lon="8.3625460">
        <ele>733.1400000</ele>
        <time>2010-03-12T10:24:37Z</time>
      </trkpt>
      <trkpt lat="45.7624780" lon="8.3625670">
        <ele>733.1400000</ele>
        <time>2010-03-12T10:24:38Z</time>
      </trkpt>
      <trkpt lat="45.7624600" lon="8.3627500">
        <ele>728.8200000</ele>
        <time>2010-03-12T10:24:45Z</time>
      </trkpt>
      <trkpt lat="45.7624600" lon="8.3627720">
        <ele>728.8200000</ele>
        <time>2010-03-12T10:24:46Z</time>
      </trkpt>
      <trkpt lat="45.7624400" lon="8.3628200">
        <ele>727.8600000</ele>
        <time>2010-03-12T10:24:59Z</time>
      </trkpt>
      <trkpt lat="45.7624490" lon="8.3630440">
        <ele>726.4100000</ele>
        <time>2010-03-12T10:25:05Z</time>
      </trkpt>
      <trkpt lat="45.7626000" lon="8.3631660">
        <ele>724.4900000</ele>
        <time>2010-03-12T10:25:16Z</time>
      </trkpt>
      <trkpt lat="45.7626100" lon="8.3632230">
        <ele>724.0100000</ele>
        <time>2010-03-12T10:31:44Z</time>
      </trkpt>
      <trkpt lat="45.7625980" lon="8.3632570">
        <ele>723.0500000</ele>
        <time>2010-03-12T10:31:46Z</time>
      </trkpt>
      <trkpt lat="45.7624830" lon="8.3634110">
        <ele>722.0900000</ele>
        <time>2010-03-12T10:31:56Z</time>
      </trkpt>
      <trkpt lat="45.7624500" lon="8.3634750">
        <ele>725.4500000</ele>
        <time>2010-03-12T10:32:06Z</time>
      </trkpt>
      <trkpt lat="45.7624130" lon="8.3635990">
        <ele>724.9700000</ele>
        <time>2010-03-12T10:32:18Z</time>
      </trkpt>
      <trkpt lat="45.7622940" lon="8.3637760">
        <ele>722.0900000</ele>
        <time>2010-03-12T10:32:25Z</time>
      </trkpt>
      <trkpt lat="45.7622350" lon="8.3638780">
        <ele>721.1300000</ele>
        <time>2010-03-12T10:32:28Z</time>
      </trkpt>
      <trkpt lat="45.7621590" lon="8.3640760">
        <ele>719.6800000</ele>
        <time>2010-03-12T10:32:38Z</time>
      </trkpt>
      <trkpt lat="45.7621500" lon="8.3641410">
        <ele>718.2400000</ele>
        <time>2010-03-12T10:32:41Z</time>
      </trkpt>
      <trkpt lat="45.7620920" lon="8.3642630">
        <ele>714.8800000</ele>
        <time>2010-03-12T10:32:46Z</time>
      </trkpt>
      <trkpt lat="45.7620430" lon="8.3642980">
        <ele>711.5100000</ele>
        <time>2010-03-12T10:32:49Z</time>
      </trkpt>
      <trkpt lat="45.7620120" lon="8.3643220">
        <ele>708.6300000</ele>
        <time>2010-03-12T10:32:52Z</time>
      </trkpt>
      <trkpt lat="45.7618480" lon="8.3644950">
        <ele>704.3000000</ele>
        <time>2010-03-12T10:32:58Z</time>
      </trkpt>
      <trkpt lat="45.7617650" lon="8.3645760">
        <ele>702.8600000</ele>
        <time>2010-03-12T10:33:00Z</time>
      </trkpt>
      <trkpt lat="45.7616740" lon="8.3646910">
        <ele>701.4200000</ele>
        <time>2010-03-12T10:33:03Z</time>
      </trkpt>
      <trkpt lat="45.7616140" lon="8.3647870">
        <ele>700.9400000</ele>
        <time>2010-03-12T10:33:07Z</time>
      </trkpt>
      <trkpt lat="45.7614630" lon="8.3649270">
        <ele>698.0500000</ele>
        <time>2010-03-12T10:33:14Z</time>
      </trkpt>
      <trkpt lat="45.7612990" lon="8.3650290">
        <ele>695.1700000</ele>
        <time>2010-03-12T10:33:19Z</time>
      </trkpt>
      <trkpt lat="45.7612500" lon="8.3652990">
        <ele>694.6900000</ele>
        <time>2010-03-12T10:33:25Z</time>
      </trkpt>
      <trkpt lat="45.7611890" lon="8.3655050">
        <ele>695.6500000</ele>
        <time>2010-03-12T10:33:32Z</time>
      </trkpt>
      <trkpt lat="45.7611470" lon="8.3656270">
        <ele>696.1300000</ele>
        <time>2010-03-12T10:33:36Z</time>
      </trkpt>
      <trkpt lat="45.7611160" lon="8.3656860">
        <ele>697.0900000</ele>
        <time>2010-03-12T10:33:40Z</time>
      </trkpt>
      <trkpt lat="45.7610720" lon="8.3657530">
        <ele>697.0900000</ele>
        <time>2010-03-12T10:33:44Z</time>
      </trkpt>
      <trkpt lat="45.7609280" lon="8.3660780">
        <ele>697.0900000</ele>
        <time>2010-03-12T10:33:55Z</time>
      </trkpt>
      <trkpt lat="45.7607700" lon="8.3664610">
        <ele>697.5700000</ele>
        <time>2010-03-12T10:34:08Z</time>
      </trkpt>
      <trkpt lat="45.7606930" lon="8.3666080">
        <ele>698.0500000</ele>
        <time>2010-03-12T10:34:15Z</time>
      </trkpt>
      <trkpt lat="45.7606290" lon="8.3667590">
        <ele>695.1700000</ele>
        <time>2010-03-12T10:34:21Z</time>
      </trkpt>
      <trkpt lat="45.7606100" lon="8.3669250">
        <ele>690.8400000</ele>
        <time>2010-03-12T10:34:26Z</time>
      </trkpt>
      <trkpt lat="45.7605820" lon="8.3669850">
        <ele>689.4000000</ele>
        <time>2010-03-12T10:34:28Z</time>
      </trkpt>
      <trkpt lat="45.7605210" lon="8.3670400">
        <ele>687.9600000</ele>
        <time>2010-03-12T10:34:31Z</time>
      </trkpt>
      <trkpt lat="45.7604140" lon="8.3671450">
        <ele>683.6300000</ele>
        <time>2010-03-12T10:34:39Z</time>
      </trkpt>
      <trkpt lat="45.7604020" lon="8.3671680">
        <ele>682.6700000</ele>
        <time>2010-03-12T10:34:40Z</time>
      </trkpt>
      <trkpt lat="45.7603230" lon="8.3671970">
        <ele>680.7500000</ele>
        <time>2010-03-12T10:34:46Z</time>
      </trkpt>
      <trkpt lat="45.7602990" lon="8.3672240">
        <ele>678.3500000</ele>
        <time>2010-03-12T10:34:49Z</time>
      </trkpt>
      <trkpt lat="45.7602640" lon="8.3672700">
        <ele>676.9100000</ele>
        <time>2010-03-12T10:34:51Z</time>
      </trkpt>
      <trkpt lat="45.7602370" lon="8.3673340">
        <ele>675.4600000</ele>
        <time>2010-03-12T10:34:53Z</time>
      </trkpt>
      <trkpt lat="45.7602240" lon="8.3673520">
        <ele>675.4600000</ele>
        <time>2010-03-12T10:34:54Z</time>
      </trkpt>
      <trkpt lat="45.7601330" lon="8.3673760">
        <ele>674.5000000</ele>
        <time>2010-03-12T10:34:58Z</time>
      </trkpt>
      <trkpt lat="45.7599790" lon="8.3674020">
        <ele>669.7000000</ele>
        <time>2010-03-12T10:35:06Z</time>
      </trkpt>
      <trkpt lat="45.7599080" lon="8.3674210">
        <ele>667.2900000</ele>
        <time>2010-03-12T10:35:09Z</time>
      </trkpt>
      <trkpt lat="45.7598550" lon="8.3674280">
        <ele>665.3700000</ele>
        <time>2010-03-12T10:35:11Z</time>
      </trkpt>
      <trkpt lat="45.7598030" lon="8.3675380">
        <ele>662.0100000</ele>
        <time>2010-03-12T10:35:16Z</time>
      </trkpt>
      <trkpt lat="45.7598190" lon="8.3678230">
        <ele>658.1600000</ele>
        <time>2010-03-12T10:35:22Z</time>
      </trkpt>
      <trkpt lat="45.7599010" lon="8.3679340">
        <ele>655.7600000</ele>
        <time>2010-03-12T10:35:26Z</time>
      </trkpt>
      <trkpt lat="45.7599510" lon="8.3680950">
        <ele>652.8700000</ele>
        <time>2010-03-12T10:35:32Z</time>
      </trkpt>
      <trkpt lat="45.7599750" lon="8.3681710">
        <ele>651.4300000</ele>
        <time>2010-03-12T10:35:34Z</time>
      </trkpt>
      <trkpt lat="45.7599950" lon="8.3682490">
        <ele>650.4700000</ele>
        <time>2010-03-12T10:35:36Z</time>
      </trkpt>
      <trkpt lat="45.7600020" lon="8.3683970">
        <ele>648.5500000</ele>
        <time>2010-03-12T10:35:40Z</time>
      </trkpt>
      <trkpt lat="45.7599480" lon="8.3684730">
        <ele>646.6200000</ele>
        <time>2010-03-12T10:35:44Z</time>
      </trkpt>
      <trkpt lat="45.7598190" lon="8.3685720">
        <ele>643.7400000</ele>
        <time>2010-03-12T10:35:51Z</time>
      </trkpt>
      <trkpt lat="45.7597730" lon="8.3686210">
        <ele>641.3400000</ele>
        <time>2010-03-12T10:35:57Z</time>
      </trkpt>
      <trkpt lat="45.7596990" lon="8.3686500">
        <ele>637.9700000</ele>
        <time>2010-03-12T10:36:02Z</time>
      </trkpt>
      <trkpt lat="45.7595850" lon="8.3686470">
        <ele>635.0900000</ele>
        <time>2010-03-12T10:36:11Z</time>
      </trkpt>
      <trkpt lat="45.7596000" lon="8.3686210">
        <ele>635.5700000</ele>
        <time>2010-03-12T10:36:52Z</time>
      </trkpt>
      <trkpt lat="45.7594610" lon="8.3687270">
        <ele>634.1300000</ele>
        <time>2010-03-12T10:37:01Z</time>
      </trkpt>
      <trkpt lat="45.7593810" lon="8.3688380">
        <ele>633.1700000</ele>
        <time>2010-03-12T10:37:05Z</time>
      </trkpt>
      <trkpt lat="45.7592320" lon="8.3691390">
        <ele>629.3200000</ele>
        <time>2010-03-12T10:37:15Z</time>
      </trkpt>
      <trkpt lat="45.7591780" lon="8.3692230">
        <ele>628.3600000</ele>
        <time>2010-03-12T10:37:17Z</time>
      </trkpt>
      <trkpt lat="45.7591320" lon="8.3694160">
        <ele>626.4400000</ele>
        <time>2010-03-12T10:37:22Z</time>
      </trkpt>
      <trkpt lat="45.7591220" lon="8.3695440">
        <ele>624.0300000</ele>
        <time>2010-03-12T10:37:26Z</time>
      </trkpt>
      <trkpt lat="45.7589700" lon="8.3698180">
        <ele>620.1900000</ele>
        <time>2010-03-12T10:37:32Z</time>
      </trkpt>
      <trkpt lat="45.7589540" lon="8.3699980">
        <ele>619.7100000</ele>
        <time>2010-03-12T10:37:35Z</time>
      </trkpt>
      <trkpt lat="45.7588910" lon="8.3702090">
        <ele>617.7800000</ele>
        <time>2010-03-12T10:37:39Z</time>
      </trkpt>
      <trkpt lat="45.7588650" lon="8.3702890">
        <ele>616.8200000</ele>
        <time>2010-03-12T10:37:41Z</time>
      </trkpt>
      <trkpt lat="45.7587990" lon="8.3703590">
        <ele>615.3800000</ele>
        <time>2010-03-12T10:37:44Z</time>
      </trkpt>
      <trkpt lat="45.7586900" lon="8.3705290">
        <ele>612.5000000</ele>
        <time>2010-03-12T10:37:49Z</time>
      </trkpt>
      <trkpt lat="45.7585320" lon="8.3706840">
        <ele>609.6100000</ele>
        <time>2010-03-12T10:37:58Z</time>
      </trkpt>
      <trkpt lat="45.7584060" lon="8.3708580">
        <ele>606.7300000</ele>
        <time>2010-03-12T10:38:04Z</time>
      </trkpt>
      <trkpt lat="45.7583380" lon="8.3709300">
        <ele>605.7700000</ele>
        <time>2010-03-12T10:38:07Z</time>
      </trkpt>
      <trkpt lat="45.7582980" lon="8.3711000">
        <ele>603.3600000</ele>
        <time>2010-03-12T10:38:20Z</time>
      </trkpt>
      <trkpt lat="45.7582950" lon="8.3712020">
        <ele>600.4800000</ele>
        <time>2010-03-12T10:38:36Z</time>
      </trkpt>
      <trkpt lat="45.7583270" lon="8.3712700">
        <ele>597.6000000</ele>
        <time>2010-03-12T10:38:40Z</time>
      </trkpt>
      <trkpt lat="45.7583260" lon="8.3712870">
        <ele>597.1200000</ele>
        <time>2010-03-12T10:38:43Z</time>
      </trkpt>
      <trkpt lat="45.7583230" lon="8.3713300">
        <ele>595.6700000</ele>
        <time>2010-03-12T10:38:45Z</time>
      </trkpt>
      <trkpt lat="45.7583020" lon="8.3714890">
        <ele>592.3100000</ele>
        <time>2010-03-12T10:38:51Z</time>
      </trkpt>
      <trkpt lat="45.7582800" lon="8.3715900">
        <ele>590.3900000</ele>
        <time>2010-03-12T10:38:55Z</time>
      </trkpt>
      <trkpt lat="45.7582640" lon="8.3716490">
        <ele>589.9100000</ele>
        <time>2010-03-12T10:38:58Z</time>
      </trkpt>
      <trkpt lat="45.7582730" lon="8.3719020">
        <ele>585.5800000</ele>
        <time>2010-03-12T10:39:06Z</time>
      </trkpt>
      <trkpt lat="45.7582800" lon="8.3719410">
        <ele>584.6200000</ele>
        <time>2010-03-12T10:39:07Z</time>
      </trkpt>
      <trkpt lat="45.7582780" lon="8.3720320">
        <ele>583.1800000</ele>
        <time>2010-03-12T10:39:11Z</time>
      </trkpt>
      <trkpt lat="45.7582420" lon="8.3720700">
        <ele>581.7300000</ele>
        <time>2010-03-12T10:39:14Z</time>
      </trkpt>
      <trkpt lat="45.7582190" lon="8.3720770">
        <ele>579.8100000</ele>
        <time>2010-03-12T10:39:15Z</time>
      </trkpt>
      <trkpt lat="45.7581290" lon="8.3720970">
        <ele>577.4100000</ele>
        <time>2010-03-12T10:39:19Z</time>
      </trkpt>
      <trkpt lat="45.7580050" lon="8.3720860">
        <ele>574.5300000</ele>
        <time>2010-03-12T10:39:25Z</time>
      </trkpt>
      <trkpt lat="45.7579240" lon="8.3721710">
        <ele>571.1600000</ele>
        <time>2010-03-12T10:39:31Z</time>
      </trkpt>
      <trkpt lat="45.7578910" lon="8.3722240">
        <ele>568.2800000</ele>
        <time>2010-03-12T10:39:35Z</time>
      </trkpt>
      <trkpt lat="45.7578230" lon="8.3723040">
        <ele>564.9100000</ele>
        <time>2010-03-12T10:39:40Z</time>
      </trkpt>
      <trkpt lat="45.7577460" lon="8.3724170">
        <ele>562.0300000</ele>
        <time>2010-03-12T10:39:44Z</time>
      </trkpt>
      <trkpt lat="45.7576950" lon="8.3725270">
        <ele>559.6200000</ele>
        <time>2010-03-12T10:39:49Z</time>
      </trkpt>
      <trkpt lat="45.7576540" lon="8.3726100">
        <ele>558.1800000</ele>
        <time>2010-03-12T10:39:52Z</time>
      </trkpt>
      <trkpt lat="45.7576280" lon="8.3726760">
        <ele>556.7400000</ele>
        <time>2010-03-12T10:39:54Z</time>
      </trkpt>
      <trkpt lat="45.7575720" lon="8.3728660">
        <ele>552.9000000</ele>
        <time>2010-03-12T10:40:00Z</time>
      </trkpt>
      <trkpt lat="45.7575050" lon="8.3729060">
        <ele>552.4100000</ele>
        <time>2010-03-12T10:40:02Z</time>
      </trkpt>
      <trkpt lat="45.7573040" lon="8.3730050">
        <ele>552.4100000</ele>
        <time>2010-03-12T10:40:13Z</time>
      </trkpt>
      <trkpt lat="45.7572860" lon="8.3730290">
        <ele>551.9300000</ele>
        <time>2010-03-12T10:40:14Z</time>
      </trkpt>
      <trkpt lat="45.7571740" lon="8.3730690">
        <ele>550.0100000</ele>
        <time>2010-03-12T10:40:19Z</time>
      </trkpt>
      <trkpt lat="45.7571220" lon="8.3730390">
        <ele>549.0500000</ele>
        <time>2010-03-12T10:40:21Z</time>
      </trkpt>
      <trkpt lat="45.7570070" lon="8.3730280">
        <ele>546.6500000</ele>
        <time>2010-03-12T10:40:26Z</time>
      </trkpt>
      <trkpt lat="45.7569070" lon="8.3731810">
        <ele>543.2800000</ele>
        <time>2010-03-12T10:40:32Z</time>
      </trkpt>
      <trkpt lat="45.7568910" lon="8.3732160">
        <ele>542.3200000</ele>
        <time>2010-03-12T10:40:33Z</time>
      </trkpt>
      <trkpt lat="45.7568310" lon="8.3733720">
        <ele>540.8800000</ele>
        <time>2010-03-12T10:40:37Z</time>
      </trkpt>
      <trkpt lat="45.7568150" lon="8.3734720">
        <ele>539.9200000</ele>
        <time>2010-03-12T10:40:39Z</time>
      </trkpt>
      <trkpt lat="45.7567760" lon="8.3735970">
        <ele>538.4800000</ele>
        <time>2010-03-12T10:40:42Z</time>
      </trkpt>
      <trkpt lat="45.7567150" lon="8.3737150">
        <ele>537.5100000</ele>
        <time>2010-03-12T10:40:45Z</time>
      </trkpt>
      <trkpt lat="45.7566040" lon="8.3738250">
        <ele>536.0700000</ele>
        <time>2010-03-12T10:40:50Z</time>
      </trkpt>
      <trkpt lat="45.7565650" lon="8.3738640">
        <ele>534.6300000</ele>
        <time>2010-03-12T10:40:52Z</time>
      </trkpt>
      <trkpt lat="45.7565290" lon="8.3739280">
        <ele>533.1900000</ele>
        <time>2010-03-12T10:40:55Z</time>
      </trkpt>
      <trkpt lat="45.7564220" lon="8.3740540">
        <ele>529.3400000</ele>
        <time>2010-03-12T10:41:01Z</time>
      </trkpt>
      <trkpt lat="45.7564120" lon="8.3740730">
        <ele>528.8600000</ele>
        <time>2010-03-12T10:41:02Z</time>
      </trkpt>
      <trkpt lat="45.7564140" lon="8.3741440">
        <ele>527.9000000</ele>
        <time>2010-03-12T10:41:04Z</time>
      </trkpt>
      <trkpt lat="45.7564040" lon="8.3742930">
        <ele>525.5000000</ele>
        <time>2010-03-12T10:41:08Z</time>
      </trkpt>
      <trkpt lat="45.7563750" lon="8.3744430">
        <ele>520.6900000</ele>
        <time>2010-03-12T10:41:14Z</time>
      </trkpt>
      <trkpt lat="45.7563230" lon="8.3745910">
        <ele>516.8500000</ele>
        <time>2010-03-12T10:41:19Z</time>
      </trkpt>
      <trkpt lat="45.7563160" lon="8.3746220">
        <ele>516.8500000</ele>
        <time>2010-03-12T10:41:20Z</time>
      </trkpt>
      <trkpt lat="45.7563080" lon="8.3747020">
        <ele>514.9200000</ele>
        <time>2010-03-12T10:41:35Z</time>
      </trkpt>
      <trkpt lat="45.7562760" lon="8.3747700">
        <ele>511.0800000</ele>
        <time>2010-03-12T10:41:51Z</time>
      </trkpt>
      <trkpt lat="45.7562710" lon="8.3748260">
        <ele>509.1600000</ele>
        <time>2010-03-12T10:41:54Z</time>
      </trkpt>
      <trkpt lat="45.7562720" lon="8.3749190">
        <ele>507.2300000</ele>
        <time>2010-03-12T10:41:57Z</time>
      </trkpt>
      <trkpt lat="45.7562390" lon="8.3750170">
        <ele>503.8700000</ele>
        <time>2010-03-12T10:42:00Z</time>
      </trkpt>
      <trkpt lat="45.7562330" lon="8.3751440">
        <ele>501.9500000</ele>
        <time>2010-03-12T10:42:03Z</time>
      </trkpt>
      <trkpt lat="45.7562260" lon="8.3752250">
        <ele>500.9800000</ele>
        <time>2010-03-12T10:42:05Z</time>
      </trkpt>
      <trkpt lat="45.7562310" lon="8.3752850">
        <ele>500.0200000</ele>
        <time>2010-03-12T10:42:07Z</time>
      </trkpt>
      <trkpt lat="45.7562330" lon="8.3753080">
        <ele>499.5400000</ele>
        <time>2010-03-12T10:42:08Z</time>
      </trkpt>
      <trkpt lat="45.7562280" lon="8.3753540">
        <ele>498.1000000</ele>
        <time>2010-03-12T10:42:10Z</time>
      </trkpt>
      <trkpt lat="45.7562530" lon="8.3754480">
        <ele>495.7000000</ele>
        <time>2010-03-12T10:42:13Z</time>
      </trkpt>
      <trkpt lat="45.7562700" lon="8.3754980">
        <ele>494.7400000</ele>
        <time>2010-03-12T10:42:15Z</time>
      </trkpt>
      <trkpt lat="45.7563000" lon="8.3755590">
        <ele>491.8500000</ele>
        <time>2010-03-12T10:42:18Z</time>
      </trkpt>
      <trkpt lat="45.7563460" lon="8.3756020">
        <ele>490.8900000</ele>
        <time>2010-03-12T10:42:21Z</time>
      </trkpt>
      <trkpt lat="45.7563760" lon="8.3756850">
        <ele>487.5300000</ele>
        <time>2010-03-12T10:42:25Z</time>
      </trkpt>
      <trkpt lat="45.7563470" lon="8.3757970">
        <ele>483.6800000</ele>
        <time>2010-03-12T10:42:30Z</time>
      </trkpt>
      <trkpt lat="45.7563230" lon="8.3759320">
        <ele>479.8400000</ele>
        <time>2010-03-12T10:42:35Z</time>
      </trkpt>
      <trkpt lat="45.7563220" lon="8.3759700">
        <ele>478.8700000</ele>
        <time>2010-03-12T10:42:37Z</time>
      </trkpt>
      <trkpt lat="45.7563690" lon="8.3760010">
        <ele>478.3900000</ele>
        <time>2010-03-12T10:42:55Z</time>
      </trkpt>
      <trkpt lat="45.7564100" lon="8.3760430">
        <ele>477.9100000</ele>
        <time>2010-03-12T10:43:06Z</time>
      </trkpt>
      <trkpt lat="45.7564100" lon="8.3760400">
        <ele>477.4300000</ele>
        <time>2010-03-12T10:43:19Z</time>
      </trkpt>
      <trkpt lat="45.7564340" lon="8.3760040">
        <ele>477.9100000</ele>
        <time>2010-03-12T10:43:25Z</time>
      </trkpt>
      <trkpt lat="45.7564620" lon="8.3759820">
        <ele>477.4300000</ele>
        <time>2010-03-12T10:43:29Z</time>
      </trkpt>
      <trkpt lat="45.7565090" lon="8.3758560">
        <ele>478.3900000</ele>
        <time>2010-03-12T10:43:43Z</time>
      </trkpt>
      <trkpt lat="45.7565100" lon="8.3758310">
        <ele>477.9100000</ele>
        <time>2010-03-12T10:43:45Z</time>
      </trkpt>
      <trkpt lat="45.7566290" lon="8.3757220">
        <ele>478.8700000</ele>
        <time>2010-03-12T10:43:58Z</time>
      </trkpt>
      <trkpt lat="45.7567120" lon="8.3756710">
        <ele>479.8400000</ele>
        <time>2010-03-12T10:44:07Z</time>
      </trkpt>
      <trkpt lat="45.7568160" lon="8.3756160">
        <ele>480.3200000</ele>
        <time>2010-03-12T10:44:18Z</time>
      </trkpt>
      <trkpt lat="45.7568160" lon="8.3756160">
        <ele>480.3200000</ele>
        <time>2010-03-12T10:44:19Z</time>
      </trkpt>
      <trkpt lat="45.7568480" lon="8.3756180">
        <ele>480.8000000</ele>
        <time>2010-03-12T10:44:22Z</time>
      </trkpt>
      <trkpt lat="45.7569410" lon="8.3756120">
        <ele>480.8000000</ele>
        <time>2010-03-12T10:44:33Z</time>
      </trkpt>
      <trkpt lat="45.7570100" lon="8.3755910">
        <ele>479.8400000</ele>
        <time>2010-03-12T10:44:41Z</time>
      </trkpt>
      <trkpt lat="45.7570770" lon="8.3755890">
        <ele>479.3500000</ele>
        <time>2010-03-12T10:44:54Z</time>
      </trkpt>
      <trkpt lat="45.7570830" lon="8.3755940">
        <ele>479.8400000</ele>
        <time>2010-03-12T10:45:07Z</time>
      </trkpt>
      <trkpt lat="45.7570800" lon="8.3755710">
        <ele>479.3500000</ele>
        <time>2010-03-12T10:45:15Z</time>
      </trkpt>
      <trkpt lat="45.7570790" lon="8.3755780">
        <ele>479.8400000</ele>
        <time>2010-03-12T10:45:24Z</time>
      </trkpt>
      <trkpt lat="45.7571010" lon="8.3755740">
        <ele>479.8400000</ele>
        <time>2010-03-12T10:45:35Z</time>
      </trkpt>
      <trkpt lat="45.7571100" lon="8.3756380">
        <ele>480.3200000</ele>
        <time>2010-03-12T10:45:46Z</time>
      </trkpt>
      <trkpt lat="45.7569590" lon="8.3759670">
        <ele>479.3500000</ele>
        <time>2010-03-12T10:45:57Z</time>
      </trkpt>
      <trkpt lat="45.7567410" lon="8.3762530">
        <ele>478.3900000</ele>
        <time>2010-03-12T10:46:08Z</time>
      </trkpt>
      <trkpt lat="45.7567140" lon="8.3762970">
        <ele>478.3900000</ele>
        <time>2010-03-12T10:46:20Z</time>
      </trkpt>
      <trkpt lat="45.7567140" lon="8.3762970">
        <ele>478.3900000</ele>
        <time>2010-03-12T10:46:22Z</time>
      </trkpt>
      <trkpt lat="45.7565470" lon="8.3764140">
        <ele>475.9900000</ele>
        <time>2010-03-12T10:46:29Z</time>
      </trkpt>
      <trkpt lat="45.7563700" lon="8.3768110">
        <ele>475.0300000</ele>
        <time>2010-03-12T10:46:42Z</time>
      </trkpt>
      <trkpt lat="45.7563440" lon="8.3770520">
        <ele>473.1100000</ele>
        <time>2010-03-12T10:46:49Z</time>
      </trkpt>
      <trkpt lat="45.7563490" lon="8.3771980">
        <ele>472.6300000</ele>
        <time>2010-03-12T10:46:52Z</time>
      </trkpt>
      <trkpt lat="45.7565630" lon="8.3774240">
        <ele>472.6300000</ele>
        <time>2010-03-12T10:47:01Z</time>
      </trkpt>
      <trkpt lat="45.7564870" lon="8.3778170">
        <ele>471.1800000</ele>
        <time>2010-03-12T10:47:13Z</time>
      </trkpt>
      <trkpt lat="45.7564450" lon="8.3780470">
        <ele>468.7800000</ele>
        <time>2010-03-12T10:47:18Z</time>
      </trkpt>
      <trkpt lat="45.7564850" lon="8.3785540">
        <ele>467.3400000</ele>
        <time>2010-03-12T10:47:28Z</time>
      </trkpt>
      <trkpt lat="45.7565540" lon="8.3789050">
        <ele>452.4400000</ele>
        <time>2010-03-12T10:47:39Z</time>
      </trkpt>
    </trkseg>
  </trk>

  <trk>
    <name>PS 2</name>
    <extensions>
      <gpxx:TrackExtension xmlns:gpxx="http://www.garmin.com/xmlschemas/GpxExtensions/v3">
        <gpxx:DisplayColor>Red</gpxx:DisplayColor>
      </gpxx:TrackExtension>
    </extensions>
    <trkseg>
      <trkpt lat="45.7243850" lon="8.3542210">
        <ele>802.3600000</ele>
        <time>2010-03-14T09:24:34Z</time>
      </trkpt>
      <trkpt lat="45.7243850" lon="8.3542210">
        <ele>809.0900000</ele>
        <time>2010-03-14T09:24:35Z</time>
      </trkpt>
      <trkpt lat="45.7243840" lon="8.3542190">
        <ele>807.1600000</ele>
        <time>2010-03-14T09:24:36Z</time>
      </trkpt>
      <trkpt lat="45.7243550" lon="8.3541150">
        <ele>806.6800000</ele>
        <time>2010-03-14T09:26:27Z</time>
      </trkpt>
      <trkpt lat="45.7244010" lon="8.3540140">
        <ele>806.6800000</ele>
        <time>2010-03-14T09:27:16Z</time>
      </trkpt>
      <trkpt lat="45.7244180" lon="8.3539800">
        <ele>806.2000000</ele>
        <time>2010-03-14T09:28:23Z</time>
      </trkpt>
      <trkpt lat="45.7243760" lon="8.3539420">
        <ele>804.7600000</ele>
        <time>2010-03-14T09:30:41Z</time>
      </trkpt>
      <trkpt lat="45.7243710" lon="8.3539880">
        <ele>805.2400000</ele>
        <time>2010-03-14T09:30:56Z</time>
      </trkpt>
      <trkpt lat="45.7243810" lon="8.3539970">
        <ele>805.7200000</ele>
        <time>2010-03-14T09:31:15Z</time>
      </trkpt>
      <trkpt lat="45.7243860" lon="8.3540180">
        <ele>805.2400000</ele>
        <time>2010-03-14T09:31:41Z</time>
      </trkpt>
      <trkpt lat="45.7243700" lon="8.3540230">
        <ele>804.2800000</ele>
        <time>2010-03-14T09:33:44Z</time>
      </trkpt>
      <trkpt lat="45.7243060" lon="8.3539150">
        <ele>803.3200000</ele>
        <time>2010-03-14T09:33:49Z</time>
      </trkpt>
      <trkpt lat="45.7241080" lon="8.3537900">
        <ele>801.4000000</ele>
        <time>2010-03-14T09:33:58Z</time>
      </trkpt>
      <trkpt lat="45.7240410" lon="8.3536820">
        <ele>800.4400000</ele>
        <time>2010-03-14T09:34:03Z</time>
      </trkpt>
      <trkpt lat="45.7237680" lon="8.3534580">
        <ele>798.0300000</ele>
        <time>2010-03-14T09:34:13Z</time>
      </trkpt>
      <trkpt lat="45.7237510" lon="8.3533400">
        <ele>795.6300000</ele>
        <time>2010-03-14T09:34:16Z</time>
      </trkpt>
      <trkpt lat="45.7236210" lon="8.3531010">
        <ele>791.3000000</ele>
        <time>2010-03-14T09:34:21Z</time>
      </trkpt>
      <trkpt lat="45.7235400" lon="8.3530380">
        <ele>789.3800000</ele>
        <time>2010-03-14T09:34:23Z</time>
      </trkpt>
      <trkpt lat="45.7233580" lon="8.3530320">
        <ele>788.4200000</ele>
        <time>2010-03-14T09:34:27Z</time>
      </trkpt>
      <trkpt lat="45.7232360" lon="8.3530050">
        <ele>787.4600000</ele>
        <time>2010-03-14T09:34:31Z</time>
      </trkpt>
      <trkpt lat="45.7231320" lon="8.3527650">
        <ele>783.6100000</ele>
        <time>2010-03-14T09:34:37Z</time>
      </trkpt>
      <trkpt lat="45.7230880" lon="8.3527230">
        <ele>783.1300000</ele>
        <time>2010-03-14T09:34:38Z</time>
      </trkpt>
      <trkpt lat="45.7229870" lon="8.3526400">
        <ele>781.6900000</ele>
        <time>2010-03-14T09:34:44Z</time>
      </trkpt>
      <trkpt lat="45.7229900" lon="8.3526380">
        <ele>782.1700000</ele>
        <time>2010-03-14T09:34:45Z</time>
      </trkpt>
      <trkpt lat="45.7229550" lon="8.3524200">
        <ele>783.1300000</ele>
        <time>2010-03-14T09:34:54Z</time>
      </trkpt>
      <trkpt lat="45.7229790" lon="8.3521830">
        <ele>784.0900000</ele>
        <time>2010-03-14T09:34:59Z</time>
      </trkpt>
      <trkpt lat="45.7229990" lon="8.3520270">
        <ele>785.5300000</ele>
        <time>2010-03-14T09:35:04Z</time>
      </trkpt>
      <trkpt lat="45.7229430" lon="8.3516360">
        <ele>787.4600000</ele>
        <time>2010-03-14T09:35:17Z</time>
      </trkpt>
      <trkpt lat="45.7229170" lon="8.3515700">
        <ele>787.4600000</ele>
        <time>2010-03-14T09:35:20Z</time>
      </trkpt>
      <trkpt lat="45.7227400" lon="8.3513430">
        <ele>786.9800000</ele>
        <time>2010-03-14T09:35:32Z</time>
      </trkpt>
      <trkpt lat="45.7227220" lon="8.3512920">
        <ele>787.4600000</ele>
        <time>2010-03-14T09:35:34Z</time>
      </trkpt>
      <trkpt lat="45.7226750" lon="8.3511940">
        <ele>788.4200000</ele>
        <time>2010-03-14T09:35:39Z</time>
      </trkpt>
      <trkpt lat="45.7225700" lon="8.3508580">
        <ele>787.9400000</ele>
        <time>2010-03-14T09:35:51Z</time>
      </trkpt>
      <trkpt lat="45.7225020" lon="8.3507770">
        <ele>786.9800000</ele>
        <time>2010-03-14T09:35:54Z</time>
      </trkpt>
      <trkpt lat="45.7223940" lon="8.3507060">
        <ele>783.6100000</ele>
        <time>2010-03-14T09:35:59Z</time>
      </trkpt>
      <trkpt lat="45.7223460" lon="8.3506470">
        <ele>784.0900000</ele>
        <time>2010-03-14T09:36:11Z</time>
      </trkpt>
      <trkpt lat="45.7223570" lon="8.3506390">
        <ele>784.0900000</ele>
        <time>2010-03-14T09:37:46Z</time>
      </trkpt>
      <trkpt lat="45.7225930" lon="8.3504720">
        <ele>786.0200000</ele>
        <time>2010-03-14T09:37:57Z</time>
      </trkpt>
      <trkpt lat="45.7226980" lon="8.3502750">
        <ele>786.9800000</ele>
        <time>2010-03-14T09:38:07Z</time>
      </trkpt>
      <trkpt lat="45.7227010" lon="8.3499860">
        <ele>784.0900000</ele>
        <time>2010-03-14T09:38:16Z</time>
      </trkpt>
      <trkpt lat="45.7226830" lon="8.3499340">
        <ele>781.6900000</ele>
        <time>2010-03-14T09:38:18Z</time>
      </trkpt>
      <trkpt lat="45.7225810" lon="8.3495850">
        <ele>777.8400000</ele>
        <time>2010-03-14T09:38:24Z</time>
      </trkpt>
      <trkpt lat="45.7225420" lon="8.3493110">
        <ele>774.4800000</ele>
        <time>2010-03-14T09:38:28Z</time>
      </trkpt>
      <trkpt lat="45.7225510" lon="8.3492400">
        <ele>774.4800000</ele>
        <time>2010-03-14T09:38:29Z</time>
      </trkpt>
      <trkpt lat="45.7225940" lon="8.3490480">
        <ele>774.4800000</ele>
        <time>2010-03-14T09:38:35Z</time>
      </trkpt>
      <trkpt lat="45.7226770" lon="8.3488700">
        <ele>775.4400000</ele>
        <time>2010-03-14T09:38:43Z</time>
      </trkpt>
      <trkpt lat="45.7227070" lon="8.3486990">
        <ele>775.4400000</ele>
        <time>2010-03-14T09:38:49Z</time>
      </trkpt>
      <trkpt lat="45.7227060" lon="8.3485880">
        <ele>774.4800000</ele>
        <time>2010-03-14T09:38:55Z</time>
      </trkpt>
      <trkpt lat="45.7226910" lon="8.3484280">
        <ele>770.6300000</ele>
        <time>2010-03-14T09:38:59Z</time>
      </trkpt>
      <trkpt lat="45.7226770" lon="8.3483790">
        <ele>769.6700000</ele>
        <time>2010-03-14T09:39:01Z</time>
      </trkpt>
      <trkpt lat="45.7226630" lon="8.3483300">
        <ele>768.2300000</ele>
        <time>2010-03-14T09:39:15Z</time>
      </trkpt>
      <trkpt lat="45.7225710" lon="8.3482010">
        <ele>764.8700000</ele>
        <time>2010-03-14T09:41:14Z</time>
      </trkpt>
      <trkpt lat="45.7225600" lon="8.3480450">
        <ele>762.9400000</ele>
        <time>2010-03-14T09:41:25Z</time>
      </trkpt>
      <trkpt lat="45.7225470" lon="8.3480090">
        <ele>762.9400000</ele>
        <time>2010-03-14T09:43:09Z</time>
      </trkpt>
      <trkpt lat="45.7226200" lon="8.3477360">
        <ele>759.1000000</ele>
        <time>2010-03-14T09:43:18Z</time>
      </trkpt>
      <trkpt lat="45.7227560" lon="8.3475270">
        <ele>757.1800000</ele>
        <time>2010-03-14T09:43:25Z</time>
      </trkpt>
      <trkpt lat="45.7227790" lon="8.3474460">
        <ele>756.2100000</ele>
        <time>2010-03-14T09:43:27Z</time>
      </trkpt>
      <trkpt lat="45.7228270" lon="8.3472500">
        <ele>752.3700000</ele>
        <time>2010-03-14T09:43:32Z</time>
      </trkpt>
      <trkpt lat="45.7228620" lon="8.3471020">
        <ele>750.4500000</ele>
        <time>2010-03-14T09:43:35Z</time>
      </trkpt>
      <trkpt lat="45.7228820" lon="8.3470510">
        <ele>749.0000000</ele>
        <time>2010-03-14T09:43:37Z</time>
      </trkpt>
      <trkpt lat="45.7228820" lon="8.3470000">
        <ele>747.5600000</ele>
        <time>2010-03-14T09:43:39Z</time>
      </trkpt>
      <trkpt lat="45.7228640" lon="8.3468470">
        <ele>744.2000000</ele>
        <time>2010-03-14T09:43:44Z</time>
      </trkpt>
      <trkpt lat="45.7228810" lon="8.3466740">
        <ele>742.7600000</ele>
        <time>2010-03-14T09:43:51Z</time>
      </trkpt>
      <trkpt lat="45.7228860" lon="8.3466460">
        <ele>741.7900000</ele>
        <time>2010-03-14T09:44:13Z</time>
      </trkpt>
      <trkpt lat="45.7229130" lon="8.3465190">
        <ele>739.3900000</ele>
        <time>2010-03-14T09:44:33Z</time>
      </trkpt>
      <trkpt lat="45.7229180" lon="8.3464730">
        <ele>737.4700000</ele>
        <time>2010-03-14T09:44:36Z</time>
      </trkpt>
      <trkpt lat="45.7230130" lon="8.3464150">
        <ele>736.9900000</ele>
        <time>2010-03-14T09:44:46Z</time>
      </trkpt>
      <trkpt lat="45.7231130" lon="8.3462940">
        <ele>737.4700000</ele>
        <time>2010-03-14T09:45:02Z</time>
      </trkpt>
      <trkpt lat="45.7231130" lon="8.3462890">
        <ele>737.4700000</ele>
        <time>2010-03-14T09:45:26Z</time>
      </trkpt>
      <trkpt lat="45.7232150" lon="8.3460870">
        <ele>735.5500000</ele>
        <time>2010-03-14T09:45:31Z</time>
      </trkpt>
      <trkpt lat="45.7233000" lon="8.3459720">
        <ele>733.6200000</ele>
        <time>2010-03-14T09:45:35Z</time>
      </trkpt>
      <trkpt lat="45.7234050" lon="8.3459120">
        <ele>730.7400000</ele>
        <time>2010-03-14T09:46:44Z</time>
      </trkpt>
      <trkpt lat="45.7234360" lon="8.3458930">
        <ele>728.8200000</ele>
        <time>2010-03-14T09:46:58Z</time>
      </trkpt>
      <trkpt lat="45.7234460" lon="8.3458700">
        <ele>727.8600000</ele>
        <time>2010-03-14T09:47:00Z</time>
      </trkpt>
      <trkpt lat="45.7235500" lon="8.3458200">
        <ele>724.9700000</ele>
        <time>2010-03-14T09:47:04Z</time>
      </trkpt>
      <trkpt lat="45.7236210" lon="8.3457720">
        <ele>723.5300000</ele>
        <time>2010-03-14T09:47:06Z</time>
      </trkpt>
      <trkpt lat="45.7237320" lon="8.3456870">
        <ele>720.6500000</ele>
        <time>2010-03-14T09:47:10Z</time>
      </trkpt>
      <trkpt lat="45.7237650" lon="8.3456720">
        <ele>719.2000000</ele>
        <time>2010-03-14T09:47:12Z</time>
      </trkpt>
      <trkpt lat="45.7239300" lon="8.3455940">
        <ele>716.3200000</ele>
        <time>2010-03-14T09:47:17Z</time>
      </trkpt>
      <trkpt lat="45.7240050" lon="8.3455810">
        <ele>714.8800000</ele>
        <time>2010-03-14T09:47:21Z</time>
      </trkpt>
      <trkpt lat="45.7241390" lon="8.3455420">
        <ele>713.9200000</ele>
        <time>2010-03-14T09:47:25Z</time>
      </trkpt>
      <trkpt lat="45.7243200" lon="8.3456070">
        <ele>710.5500000</ele>
        <time>2010-03-14T09:47:31Z</time>
      </trkpt>
      <trkpt lat="45.7245040" lon="8.3456980">
        <ele>709.1100000</ele>
        <time>2010-03-14T09:47:38Z</time>
      </trkpt>
      <trkpt lat="45.7245180" lon="8.3456980">
        <ele>707.6700000</ele>
        <time>2010-03-14T09:47:39Z</time>
      </trkpt>
      <trkpt lat="45.7245480" lon="8.3456990">
        <ele>705.2600000</ele>
        <time>2010-03-14T09:47:41Z</time>
      </trkpt>
      <trkpt lat="45.7246400" lon="8.3457170">
        <ele>701.9000000</ele>
        <time>2010-03-14T09:47:47Z</time>
      </trkpt>
      <trkpt lat="45.7246760" lon="8.3457390">
        <ele>700.9400000</ele>
        <time>2010-03-14T09:47:49Z</time>
      </trkpt>
      <trkpt lat="45.7247480" lon="8.3458750">
        <ele>696.6100000</ele>
        <time>2010-03-14T09:47:54Z</time>
      </trkpt>
      <trkpt lat="45.7247510" lon="8.3458940">
        <ele>696.1300000</ele>
        <time>2010-03-14T09:47:55Z</time>
      </trkpt>
      <trkpt lat="45.7247700" lon="8.3459270">
        <ele>695.1700000</ele>
        <time>2010-03-14T09:47:56Z</time>
      </trkpt>
      <trkpt lat="45.7248270" lon="8.3459870">
        <ele>693.7300000</ele>
        <time>2010-03-14T09:47:58Z</time>
      </trkpt>
      <trkpt lat="45.7248890" lon="8.3460610">
        <ele>693.2500000</ele>
        <time>2010-03-14T09:48:01Z</time>
      </trkpt>
      <trkpt lat="45.7249010" lon="8.3460720">
        <ele>692.2900000</ele>
        <time>2010-03-14T09:48:02Z</time>
      </trkpt>
      <trkpt lat="45.7250080" lon="8.3460920">
        <ele>689.4000000</ele>
        <time>2010-03-14T09:48:12Z</time>
      </trkpt>
      <trkpt lat="45.7250410" lon="8.3461080">
        <ele>687.4800000</ele>
        <time>2010-03-14T09:48:16Z</time>
      </trkpt>
      <trkpt lat="45.7250510" lon="8.3461320">
        <ele>686.0400000</ele>
        <time>2010-03-14T09:48:19Z</time>
      </trkpt>
      <trkpt lat="45.7250670" lon="8.3462100">
        <ele>683.6300000</ele>
        <time>2010-03-14T09:48:22Z</time>
      </trkpt>
      <trkpt lat="45.7250640" lon="8.3462850">
        <ele>683.1500000</ele>
        <time>2010-03-14T09:48:33Z</time>
      </trkpt>
      <trkpt lat="45.7250720" lon="8.3463190">
        <ele>682.6700000</ele>
        <time>2010-03-14T09:49:40Z</time>
      </trkpt>
      <trkpt lat="45.7250840" lon="8.3463310">
        <ele>682.6700000</ele>
        <time>2010-03-14T09:49:41Z</time>
      </trkpt>
      <trkpt lat="45.7252170" lon="8.3463150">
        <ele>679.3100000</ele>
        <time>2010-03-14T09:49:46Z</time>
      </trkpt>
      <trkpt lat="45.7252380" lon="8.3463300">
        <ele>678.8300000</ele>
        <time>2010-03-14T09:49:47Z</time>
      </trkpt>
      <trkpt lat="45.7252810" lon="8.3463380">
        <ele>676.4200000</ele>
        <time>2010-03-14T09:49:49Z</time>
      </trkpt>
      <trkpt lat="45.7253210" lon="8.3463070">
        <ele>673.0600000</ele>
        <time>2010-03-14T09:49:53Z</time>
      </trkpt>
      <trkpt lat="45.7254540" lon="8.3461990">
        <ele>669.7000000</ele>
        <time>2010-03-14T09:49:58Z</time>
      </trkpt>
      <trkpt lat="45.7254700" lon="8.3462020">
        <ele>668.7300000</ele>
        <time>2010-03-14T09:49:59Z</time>
      </trkpt>
      <trkpt lat="45.7255900" lon="8.3461900">
        <ele>666.3300000</ele>
        <time>2010-03-14T09:50:03Z</time>
      </trkpt>
      <trkpt lat="45.7257240" lon="8.3462280">
        <ele>662.4900000</ele>
        <time>2010-03-14T09:50:08Z</time>
      </trkpt>
      <trkpt lat="45.7259150" lon="8.3462790">
        <ele>658.6400000</ele>
        <time>2010-03-14T09:50:22Z</time>
      </trkpt>
      <trkpt lat="45.7259260" lon="8.3462840">
        <ele>659.6000000</ele>
        <time>2010-03-14T09:51:05Z</time>
      </trkpt>
      <trkpt lat="45.7261690" lon="8.3462780">
        <ele>655.2800000</ele>
        <time>2010-03-14T09:51:14Z</time>
      </trkpt>
      <trkpt lat="45.7264380" lon="8.3462840">
        <ele>651.4300000</ele>
        <time>2010-03-14T09:51:19Z</time>
      </trkpt>
      <trkpt lat="45.7265620" lon="8.3462810">
        <ele>650.4700000</ele>
        <time>2010-03-14T09:51:21Z</time>
      </trkpt>
      <trkpt lat="45.7267700" lon="8.3462220">
        <ele>648.5500000</ele>
        <time>2010-03-14T09:51:24Z</time>
      </trkpt>
      <trkpt lat="45.7269590" lon="8.3461730">
        <ele>646.6200000</ele>
        <time>2010-03-14T09:51:27Z</time>
      </trkpt>
      <trkpt lat="45.7272250" lon="8.3461810">
        <ele>645.1800000</ele>
        <time>2010-03-14T09:51:32Z</time>
      </trkpt>
      <trkpt lat="45.7273980" lon="8.3460640">
        <ele>643.7400000</ele>
        <time>2010-03-14T09:51:37Z</time>
      </trkpt>
      <trkpt lat="45.7274830" lon="8.3459190">
        <ele>641.3400000</ele>
        <time>2010-03-14T09:51:41Z</time>
      </trkpt>
      <trkpt lat="45.7275880" lon="8.3458640">
        <ele>639.4100000</ele>
        <time>2010-03-14T09:51:45Z</time>
      </trkpt>
      <trkpt lat="45.7277030" lon="8.3458480">
        <ele>638.4500000</ele>
        <time>2010-03-14T09:51:54Z</time>
      </trkpt>
      <trkpt lat="45.7277890" lon="8.3458170">
        <ele>639.8900000</ele>
        <time>2010-03-14T09:52:05Z</time>
      </trkpt>
      <trkpt lat="45.7278190" lon="8.3458040">
        <ele>639.4100000</ele>
        <time>2010-03-14T09:52:07Z</time>
      </trkpt>
      <trkpt lat="45.7280730" lon="8.3457690">
        <ele>637.0100000</ele>
        <time>2010-03-14T09:52:14Z</time>
      </trkpt>
      <trkpt lat="45.7281440" lon="8.3457660">
        <ele>637.4900000</ele>
        <time>2010-03-14T09:52:17Z</time>
      </trkpt>
      <trkpt lat="45.7284070" lon="8.3456770">
        <ele>636.5300000</ele>
        <time>2010-03-14T09:52:26Z</time>
      </trkpt>
      <trkpt lat="45.7286040" lon="8.3456490">
        <ele>639.4100000</ele>
        <time>2010-03-14T09:52:35Z</time>
      </trkpt>
      <trkpt lat="45.7286810" lon="8.3455450">
        <ele>640.3800000</ele>
        <time>2010-03-14T09:52:45Z</time>
      </trkpt>
      <trkpt lat="45.7286910" lon="8.3455510">
        <ele>640.3800000</ele>
        <time>2010-03-14T09:53:19Z</time>
      </trkpt>
      <trkpt lat="45.7286950" lon="8.3455510">
        <ele>640.3800000</ele>
        <time>2010-03-14T09:53:34Z</time>
      </trkpt>
      <trkpt lat="45.7287450" lon="8.3455250">
        <ele>640.3800000</ele>
        <time>2010-03-14T09:53:38Z</time>
      </trkpt>
      <trkpt lat="45.7288640" lon="8.3454530">
        <ele>642.3000000</ele>
        <time>2010-03-14T09:53:43Z</time>
      </trkpt>
      <trkpt lat="45.7289480" lon="8.3454240">
        <ele>642.3000000</ele>
        <time>2010-03-14T09:53:46Z</time>
      </trkpt>
      <trkpt lat="45.7290520" lon="8.3453630">
        <ele>643.2600000</ele>
        <time>2010-03-14T09:53:51Z</time>
      </trkpt>
      <trkpt lat="45.7291350" lon="8.3451930">
        <ele>641.3400000</ele>
        <time>2010-03-14T09:53:58Z</time>
      </trkpt>
      <trkpt lat="45.7291970" lon="8.3451250">
        <ele>638.9300000</ele>
        <time>2010-03-14T09:54:02Z</time>
      </trkpt>
      <trkpt lat="45.7293270" lon="8.3448910">
        <ele>634.6100000</ele>
        <time>2010-03-14T09:54:08Z</time>
      </trkpt>
      <trkpt lat="45.7293810" lon="8.3447920">
        <ele>631.7200000</ele>
        <time>2010-03-14T09:54:11Z</time>
      </trkpt>
      <trkpt lat="45.7294130" lon="8.3447310">
        <ele>629.8000000</ele>
        <time>2010-03-14T09:54:14Z</time>
      </trkpt>
      <trkpt lat="45.7295090" lon="8.3445210">
        <ele>625.4700000</ele>
        <time>2010-03-14T09:55:40Z</time>
      </trkpt>
      <trkpt lat="45.7295800" lon="8.3443530">
        <ele>622.5900000</ele>
        <time>2010-03-14T09:55:43Z</time>
      </trkpt>
      <trkpt lat="45.7295950" lon="8.3443280">
        <ele>622.5900000</ele>
        <time>2010-03-14T09:55:44Z</time>
      </trkpt>
      <trkpt lat="45.7297290" lon="8.3440930">
        <ele>619.2300000</ele>
        <time>2010-03-14T09:55:50Z</time>
      </trkpt>
      <trkpt lat="45.7297830" lon="8.3439360">
        <ele>615.8600000</ele>
        <time>2010-03-14T09:55:56Z</time>
      </trkpt>
      <trkpt lat="45.7298510" lon="8.3437910">
        <ele>613.4600000</ele>
        <time>2010-03-14T09:56:03Z</time>
      </trkpt>
      <trkpt lat="45.7298660" lon="8.3437750">
        <ele>612.9800000</ele>
        <time>2010-03-14T09:56:04Z</time>
      </trkpt>
      <trkpt lat="45.7299380" lon="8.3436810">
        <ele>610.5700000</ele>
        <time>2010-03-14T09:56:08Z</time>
      </trkpt>
      <trkpt lat="45.7300330" lon="8.3435780">
        <ele>605.7700000</ele>
        <time>2010-03-14T09:56:12Z</time>
      </trkpt>
      <trkpt lat="45.7300850" lon="8.3434690">
        <ele>602.4000000</ele>
        <time>2010-03-14T09:56:16Z</time>
      </trkpt>
      <trkpt lat="45.7300940" lon="8.3434420">
        <ele>601.9200000</ele>
        <time>2010-03-14T09:56:18Z</time>
      </trkpt>
      <trkpt lat="45.7301720" lon="8.3432750">
        <ele>598.5600000</ele>
        <time>2010-03-14T09:56:28Z</time>
      </trkpt>
      <trkpt lat="45.7302330" lon="8.3431580">
        <ele>594.7100000</ele>
        <time>2010-03-14T09:56:34Z</time>
      </trkpt>
      <trkpt lat="45.7302460" lon="8.3430580">
        <ele>592.7900000</ele>
        <time>2010-03-14T09:56:38Z</time>
      </trkpt>
      <trkpt lat="45.7302530" lon="8.3430480">
        <ele>592.3100000</ele>
        <time>2010-03-14T09:56:41Z</time>
      </trkpt>
      <trkpt lat="45.7302840" lon="8.3430410">
        <ele>591.8300000</ele>
        <time>2010-03-14T09:56:43Z</time>
      </trkpt>
      <trkpt lat="45.7303080" lon="8.3429950">
        <ele>590.3900000</ele>
        <time>2010-03-14T09:56:46Z</time>
      </trkpt>
      <trkpt lat="45.7303270" lon="8.3428960">
        <ele>587.5000000</ele>
        <time>2010-03-14T09:56:49Z</time>
      </trkpt>
      <trkpt lat="45.7303020" lon="8.3427360">
        <ele>583.6600000</ele>
        <time>2010-03-14T09:56:55Z</time>
      </trkpt>
      <trkpt lat="45.7303040" lon="8.3427280">
        <ele>583.6600000</ele>
        <time>2010-03-14T09:56:56Z</time>
      </trkpt>
      <trkpt lat="45.7303040" lon="8.3427280">
        <ele>583.1800000</ele>
        <time>2010-03-14T09:58:07Z</time>
      </trkpt>
      <trkpt lat="45.7303250" lon="8.3427060">
        <ele>581.7300000</ele>
        <time>2010-03-14T09:58:09Z</time>
      </trkpt>
      <trkpt lat="45.7303990" lon="8.3426090">
        <ele>579.8100000</ele>
        <time>2010-03-14T09:58:14Z</time>
      </trkpt>
      <trkpt lat="45.7304380" lon="8.3424870">
        <ele>575.9700000</ele>
        <time>2010-03-14T09:58:19Z</time>
      </trkpt>
      <trkpt lat="45.7304770" lon="8.3423900">
        <ele>575.0100000</ele>
        <time>2010-03-14T09:58:21Z</time>
      </trkpt>
      <trkpt lat="45.7306950" lon="8.3418900">
        <ele>572.6000000</ele>
        <time>2010-03-14T09:58:30Z</time>
      </trkpt>
      <trkpt lat="45.7307460" lon="8.3417340">
        <ele>571.6400000</ele>
        <time>2010-03-14T09:58:33Z</time>
      </trkpt>
      <trkpt lat="45.7307730" lon="8.3416060">
        <ele>570.2000000</ele>
        <time>2010-03-14T09:58:36Z</time>
      </trkpt>
      <trkpt lat="45.7308630" lon="8.3413630">
        <ele>566.8300000</ele>
        <time>2010-03-14T09:58:47Z</time>
      </trkpt>
      <trkpt lat="45.7308690" lon="8.3413570">
        <ele>566.3500000</ele>
        <time>2010-03-14T09:58:48Z</time>
      </trkpt>
      <trkpt lat="45.7308730" lon="8.3413530">
        <ele>566.3500000</ele>
        <time>2010-03-14T09:58:54Z</time>
      </trkpt>
      <trkpt lat="45.7308590" lon="8.3412830">
        <ele>564.4300000</ele>
        <time>2010-03-14T09:58:57Z</time>
      </trkpt>
      <trkpt lat="45.7308600" lon="8.3411830">
        <ele>562.5100000</ele>
        <time>2010-03-14T09:59:00Z</time>
      </trkpt>
      <trkpt lat="45.7308790" lon="8.3410440">
        <ele>558.1800000</ele>
        <time>2010-03-14T09:59:05Z</time>
      </trkpt>
      <trkpt lat="45.7309210" lon="8.3408810">
        <ele>553.3800000</ele>
        <time>2010-03-14T09:59:10Z</time>
      </trkpt>
      <trkpt lat="45.7309130" lon="8.3407900">
        <ele>550.0100000</ele>
        <time>2010-03-14T09:59:13Z</time>
      </trkpt>
      <trkpt lat="45.7309240" lon="8.3407140">
        <ele>548.5700000</ele>
        <time>2010-03-14T09:59:16Z</time>
      </trkpt>
      <trkpt lat="45.7309440" lon="8.3407040">
        <ele>548.5700000</ele>
        <time>2010-03-14T09:59:44Z</time>
      </trkpt>
      <trkpt lat="45.7309460" lon="8.3406940">
        <ele>548.5700000</ele>
        <time>2010-03-14T10:01:22Z</time>
      </trkpt>
      <trkpt lat="45.7309880" lon="8.3406230">
        <ele>547.6100000</ele>
        <time>2010-03-14T10:01:31Z</time>
      </trkpt>
      <trkpt lat="45.7310230" lon="8.3406140">
        <ele>547.6100000</ele>
        <time>2010-03-14T10:01:33Z</time>
      </trkpt>
      <trkpt lat="45.7311210" lon="8.3404280">
        <ele>547.6100000</ele>
        <time>2010-03-14T10:01:40Z</time>
      </trkpt>
      <trkpt lat="45.7311410" lon="8.3403160">
        <ele>548.5700000</ele>
        <time>2010-03-14T10:01:44Z</time>
      </trkpt>
      <trkpt lat="45.7311740" lon="8.3401390">
        <ele>548.0900000</ele>
        <time>2010-03-14T10:01:51Z</time>
      </trkpt>
      <trkpt lat="45.7311770" lon="8.3400850">
        <ele>546.6500000</ele>
        <time>2010-03-14T10:01:53Z</time>
      </trkpt>
      <trkpt lat="45.7311970" lon="8.3398350">
        <ele>543.2800000</ele>
        <time>2010-03-14T10:01:58Z</time>
      </trkpt>
      <trkpt lat="45.7312090" lon="8.3397690">
        <ele>541.8400000</ele>
        <time>2010-03-14T10:02:00Z</time>
      </trkpt>
      <trkpt lat="45.7312360" lon="8.3396820">
        <ele>539.4400000</ele>
        <time>2010-03-14T10:02:04Z</time>
      </trkpt>
      <trkpt lat="45.7312630" lon="8.3395020">
        <ele>536.0700000</ele>
        <time>2010-03-14T10:02:08Z</time>
      </trkpt>
      <trkpt lat="45.7312630" lon="8.3393250">
        <ele>532.2300000</ele>
        <time>2010-03-14T10:02:11Z</time>
      </trkpt>
      <trkpt lat="45.7312280" lon="8.3390680">
        <ele>527.9000000</ele>
        <time>2010-03-14T10:02:15Z</time>
      </trkpt>
      <trkpt lat="45.7311950" lon="8.3389560">
        <ele>526.9400000</ele>
        <time>2010-03-14T10:02:17Z</time>
      </trkpt>
      <trkpt lat="45.7311710" lon="8.3388320">
        <ele>525.9800000</ele>
        <time>2010-03-14T10:02:19Z</time>
      </trkpt>
      <trkpt lat="45.7311460" lon="8.3387610">
        <ele>524.5400000</ele>
        <time>2010-03-14T10:02:21Z</time>
      </trkpt>
      <trkpt lat="45.7311500" lon="8.3385860">
        <ele>521.6500000</ele>
        <time>2010-03-14T10:02:25Z</time>
      </trkpt>
      <trkpt lat="45.7311390" lon="8.3385390">
        <ele>521.1700000</ele>
        <time>2010-03-14T10:02:26Z</time>
      </trkpt>
      <trkpt lat="45.7310800" lon="8.3383790">
        <ele>518.7700000</ele>
        <time>2010-03-14T10:02:36Z</time>
      </trkpt>
      <trkpt lat="45.7310990" lon="8.3383590">
        <ele>518.7700000</ele>
        <time>2010-03-14T10:03:32Z</time>
      </trkpt>
      <trkpt lat="45.7310430" lon="8.3382260">
        <ele>515.8800000</ele>
        <time>2010-03-14T10:04:03Z</time>
      </trkpt>
      <trkpt lat="45.7310140" lon="8.3381910">
        <ele>515.4000000</ele>
        <time>2010-03-14T10:04:04Z</time>
      </trkpt>
      <trkpt lat="45.7309950" lon="8.3381020">
        <ele>514.4400000</ele>
        <time>2010-03-14T10:04:06Z</time>
      </trkpt>
      <trkpt lat="45.7309710" lon="8.3379170">
        <ele>511.5600000</ele>
        <time>2010-03-14T10:04:09Z</time>
      </trkpt>
      <trkpt lat="45.7309550" lon="8.3376750">
        <ele>508.6700000</ele>
        <time>2010-03-14T10:04:12Z</time>
      </trkpt>
      <trkpt lat="45.7308490" lon="8.3371280">
        <ele>502.9100000</ele>
        <time>2010-03-14T10:04:18Z</time>
      </trkpt>
      <trkpt lat="45.7308200" lon="8.3367850">
        <ele>500.0200000</ele>
        <time>2010-03-14T10:04:22Z</time>
      </trkpt>
      <trkpt lat="45.7308270" lon="8.3365400">
        <ele>497.6200000</ele>
        <time>2010-03-14T10:04:26Z</time>
      </trkpt>
      <trkpt lat="45.7308520" lon="8.3362480">
        <ele>493.7700000</ele>
        <time>2010-03-14T10:04:34Z</time>
      </trkpt>
      <trkpt lat="45.7308810" lon="8.3361100">
        <ele>491.3700000</ele>
        <time>2010-03-14T10:04:37Z</time>
      </trkpt>
      <trkpt lat="45.7308940" lon="8.3360430">
        <ele>489.9300000</ele>
        <time>2010-03-14T10:04:39Z</time>
      </trkpt>
      <trkpt lat="45.7308720" lon="8.3358840">
        <ele>486.0800000</ele>
        <time>2010-03-14T10:04:43Z</time>
      </trkpt>
      <trkpt lat="45.7308380" lon="8.3357600">
        <ele>483.2000000</ele>
        <time>2010-03-14T10:04:46Z</time>
      </trkpt>
      <trkpt lat="45.7308150" lon="8.3356320">
        <ele>479.3500000</ele>
        <time>2010-03-14T10:04:48Z</time>
      </trkpt>
      <trkpt lat="45.7308040" lon="8.3355240">
        <ele>477.4300000</ele>
        <time>2010-03-14T10:04:50Z</time>
      </trkpt>
      <trkpt lat="45.7307260" lon="8.3352490">
        <ele>473.1100000</ele>
        <time>2010-03-14T10:04:54Z</time>
      </trkpt>
      <trkpt lat="45.7307030" lon="8.3350660">
        <ele>469.2600000</ele>
        <time>2010-03-14T10:04:57Z</time>
      </trkpt>
      <trkpt lat="45.7307010" lon="8.3349530">
        <ele>466.8600000</ele>
        <time>2010-03-14T10:05:00Z</time>
      </trkpt>
      <trkpt lat="45.7306980" lon="8.3347770">
        <ele>463.0100000</ele>
        <time>2010-03-14T10:05:05Z</time>
      </trkpt>
      <trkpt lat="45.7306640" lon="8.3347190">
        <ele>461.5700000</ele>
        <time>2010-03-14T10:05:07Z</time>
      </trkpt>
      <trkpt lat="45.7306020" lon="8.3345620">
        <ele>457.2400000</ele>
        <time>2010-03-14T10:05:14Z</time>
      </trkpt>
      <trkpt lat="45.7305960" lon="8.3345320">
        <ele>457.2400000</ele>
        <time>2010-03-14T10:05:39Z</time>
      </trkpt>
      <trkpt lat="45.7305790" lon="8.3345090">
        <ele>455.8000000</ele>
        <time>2010-03-14T10:05:41Z</time>
      </trkpt>
      <trkpt lat="45.7305800" lon="8.3344460">
        <ele>454.3600000</ele>
        <time>2010-03-14T10:05:43Z</time>
      </trkpt>
      <trkpt lat="45.7305340" lon="8.3343090">
        <ele>450.0300000</ele>
        <time>2010-03-14T10:05:49Z</time>
      </trkpt>
      <trkpt lat="45.7305410" lon="8.3342930">
        <ele>450.0300000</ele>
        <time>2010-03-14T10:05:50Z</time>
      </trkpt>
      <trkpt lat="45.7305220" lon="8.3342210">
        <ele>448.5900000</ele>
        <time>2010-03-14T10:05:53Z</time>
      </trkpt>
      <trkpt lat="45.7305090" lon="8.3341770">
        <ele>447.1500000</ele>
        <time>2010-03-14T10:05:55Z</time>
      </trkpt>
    </trkseg>
  </trk>

  <trk>
    <name>TARSFERIMENTO da PS 2 a PS 1</name>
    <extensions>
      <gpxx:TrackExtension xmlns:gpxx="http://www.garmin.com/xmlschemas/GpxExtensions/v3">
        <gpxx:DisplayColor>Blue</gpxx:DisplayColor>
      </gpxx:TrackExtension>
    </extensions>
    <trkseg>
      <trkpt lat="45.7305060" lon="8.3341700">
        <ele>446.6700000</ele>
        <time>2010-03-14T10:06:09Z</time>
      </trkpt>
      <trkpt lat="45.7305160" lon="8.3341390">
        <ele>445.2300000</ele>
        <time>2010-03-14T10:06:22Z</time>
      </trkpt>
      <trkpt lat="45.7305130" lon="8.3341240">
        <ele>446.1900000</ele>
        <time>2010-03-14T10:08:03Z</time>
      </trkpt>
      <trkpt lat="45.7304990" lon="8.3341360">
        <ele>445.2300000</ele>
        <time>2010-03-14T10:08:05Z</time>
      </trkpt>
      <trkpt lat="45.7304930" lon="8.3341300">
        <ele>444.7500000</ele>
        <time>2010-03-14T10:08:06Z</time>
      </trkpt>
      <trkpt lat="45.7304480" lon="8.3340210">
        <ele>442.3400000</ele>
        <time>2010-03-14T10:08:12Z</time>
      </trkpt>
      <trkpt lat="45.7304360" lon="8.3339760">
        <ele>441.3800000</ele>
        <time>2010-03-14T10:08:14Z</time>
      </trkpt>
      <trkpt lat="45.7304320" lon="8.3338660">
        <ele>438.5000000</ele>
        <time>2010-03-14T10:08:18Z</time>
      </trkpt>
      <trkpt lat="45.7304370" lon="8.3338060">
        <ele>437.5400000</ele>
        <time>2010-03-14T10:08:20Z</time>
      </trkpt>
      <trkpt lat="45.7304540" lon="8.3337530">
        <ele>437.0600000</ele>
        <time>2010-03-14T10:08:23Z</time>
      </trkpt>
      <trkpt lat="45.7305260" lon="8.3336840">
        <ele>433.6900000</ele>
        <time>2010-03-14T10:08:29Z</time>
      </trkpt>
      <trkpt lat="45.7305780" lon="8.3335910">
        <ele>429.8500000</ele>
        <time>2010-03-14T10:08:34Z</time>
      </trkpt>
      <trkpt lat="45.7306250" lon="8.3335790">
        <ele>428.4000000</ele>
        <time>2010-03-14T10:08:43Z</time>
      </trkpt>
      <trkpt lat="45.7306260" lon="8.3336000">
        <ele>428.8900000</ele>
        <time>2010-03-14T10:10:53Z</time>
      </trkpt>
      <trkpt lat="45.7306400" lon="8.3336460">
        <ele>428.8900000</ele>
        <time>2010-03-14T10:11:40Z</time>
      </trkpt>
      <trkpt lat="45.7306360" lon="8.3336680">
        <ele>429.3700000</ele>
        <time>2010-03-14T10:11:52Z</time>
      </trkpt>
      <trkpt lat="45.7306350" lon="8.3337100">
        <ele>429.8500000</ele>
        <time>2010-03-14T10:13:39Z</time>
      </trkpt>
      <trkpt lat="45.7307710" lon="8.3340150">
        <ele>430.8100000</ele>
        <time>2010-03-14T10:13:55Z</time>
      </trkpt>
      <trkpt lat="45.7309940" lon="8.3343210">
        <ele>432.7300000</ele>
        <time>2010-03-14T10:14:11Z</time>
      </trkpt>
      <trkpt lat="45.7312600" lon="8.3345380">
        <ele>433.2100000</ele>
        <time>2010-03-14T10:14:26Z</time>
      </trkpt>
      <trkpt lat="45.7316560" lon="8.3346810">
        <ele>435.1300000</ele>
        <time>2010-03-14T10:14:44Z</time>
      </trkpt>
      <trkpt lat="45.7319140" lon="8.3351450">
        <ele>437.0600000</ele>
        <time>2010-03-14T10:15:02Z</time>
      </trkpt>
      <trkpt lat="45.7320780" lon="8.3356990">
        <ele>438.9800000</ele>
        <time>2010-03-14T10:15:21Z</time>
      </trkpt>
      <trkpt lat="45.7323600" lon="8.3362150">
        <ele>439.9400000</ele>
        <time>2010-03-14T10:15:41Z</time>
      </trkpt>
      <trkpt lat="45.7326310" lon="8.3366200">
        <ele>442.3400000</ele>
        <time>2010-03-14T10:15:58Z</time>
      </trkpt>
      <trkpt lat="45.7328920" lon="8.3370200">
        <ele>444.2700000</ele>
        <time>2010-03-14T10:16:14Z</time>
      </trkpt>
      <trkpt lat="45.7331690" lon="8.3374400">
        <ele>445.7100000</ele>
        <time>2010-03-14T10:16:31Z</time>
      </trkpt>
      <trkpt lat="45.7333910" lon="8.3377820">
        <ele>447.1500000</ele>
        <time>2010-03-14T10:16:45Z</time>
      </trkpt>
      <trkpt lat="45.7336620" lon="8.3381480">
        <ele>449.0700000</ele>
        <time>2010-03-14T10:17:01Z</time>
      </trkpt>
      <trkpt lat="45.7339160" lon="8.3385670">
        <ele>450.5200000</ele>
        <time>2010-03-14T10:17:18Z</time>
      </trkpt>
      <trkpt lat="45.7341010" lon="8.3389960">
        <ele>452.4400000</ele>
        <time>2010-03-14T10:17:35Z</time>
      </trkpt>
      <trkpt lat="45.7341800" lon="8.3395810">
        <ele>455.3200000</ele>
        <time>2010-03-14T10:17:55Z</time>
      </trkpt>
      <trkpt lat="45.7341570" lon="8.3401000">
        <ele>456.7600000</ele>
        <time>2010-03-14T10:18:12Z</time>
      </trkpt>
      <trkpt lat="45.7341790" lon="8.3405500">
        <ele>458.2100000</ele>
        <time>2010-03-14T10:18:27Z</time>
      </trkpt>
      <trkpt lat="45.7343100" lon="8.3409690">
        <ele>460.1300000</ele>
        <time>2010-03-14T10:18:42Z</time>
      </trkpt>
      <trkpt lat="45.7343160" lon="8.3414080">
        <ele>462.5300000</ele>
        <time>2010-03-14T10:18:57Z</time>
      </trkpt>
      <trkpt lat="45.7341460" lon="8.3417390">
        <ele>465.9000000</ele>
        <time>2010-03-14T10:19:10Z</time>
      </trkpt>
      <trkpt lat="45.7340990" lon="8.3421380">
        <ele>467.3400000</ele>
        <time>2010-03-14T10:19:25Z</time>
      </trkpt>
      <trkpt lat="45.7341880" lon="8.3425630">
        <ele>468.7800000</ele>
        <time>2010-03-14T10:19:41Z</time>
      </trkpt>
      <trkpt lat="45.7341980" lon="8.3430800">
        <ele>470.2200000</ele>
        <time>2010-03-14T10:19:59Z</time>
      </trkpt>
      <trkpt lat="45.7341960" lon="8.3435400">
        <ele>472.1400000</ele>
        <time>2010-03-14T10:20:15Z</time>
      </trkpt>
      <trkpt lat="45.7343010" lon="8.3439150">
        <ele>474.0700000</ele>
        <time>2010-03-14T10:20:29Z</time>
      </trkpt>
      <trkpt lat="45.7345130" lon="8.3443170">
        <ele>475.5100000</ele>
        <time>2010-03-14T10:20:46Z</time>
      </trkpt>
      <trkpt lat="45.7346920" lon="8.3446260">
        <ele>476.9500000</ele>
        <time>2010-03-14T10:20:59Z</time>
      </trkpt>
      <trkpt lat="45.7349410" lon="8.3448540">
        <ele>478.3900000</ele>
        <time>2010-03-14T10:21:12Z</time>
      </trkpt>
      <trkpt lat="45.7352280" lon="8.3450280">
        <ele>479.8400000</ele>
        <time>2010-03-14T10:21:27Z</time>
      </trkpt>
      <trkpt lat="45.7355850" lon="8.3452010">
        <ele>480.8000000</ele>
        <time>2010-03-14T10:21:45Z</time>
      </trkpt>
      <trkpt lat="45.7359320" lon="8.3453670">
        <ele>483.2000000</ele>
        <time>2010-03-14T10:22:02Z</time>
      </trkpt>
      <trkpt lat="45.7361300" lon="8.3455880">
        <ele>484.6400000</ele>
        <time>2010-03-14T10:22:14Z</time>
      </trkpt>
      <trkpt lat="45.7363300" lon="8.3458500">
        <ele>486.5600000</ele>
        <time>2010-03-14T10:22:26Z</time>
      </trkpt>
      <trkpt lat="45.7365930" lon="8.3461240">
        <ele>488.0100000</ele>
        <time>2010-03-14T10:22:41Z</time>
      </trkpt>
      <trkpt lat="45.7369050" lon="8.3462530">
        <ele>489.9300000</ele>
        <time>2010-03-14T10:22:56Z</time>
      </trkpt>
      <trkpt lat="45.7372770" lon="8.3463260">
        <ele>491.8500000</ele>
        <time>2010-03-14T10:23:13Z</time>
      </trkpt>
      <trkpt lat="45.7376230" lon="8.3463790">
        <ele>492.8100000</ele>
        <time>2010-03-14T10:23:28Z</time>
      </trkpt>
      <trkpt lat="45.7379350" lon="8.3464180">
        <ele>494.7400000</ele>
        <time>2010-03-14T10:23:42Z</time>
      </trkpt>
      <trkpt lat="45.7382470" lon="8.3464760">
        <ele>496.1800000</ele>
        <time>2010-03-14T10:23:57Z</time>
      </trkpt>
      <trkpt lat="45.7384590" lon="8.3467010">
        <ele>498.1000000</ele>
        <time>2010-03-14T10:24:11Z</time>
      </trkpt>
      <trkpt lat="45.7385330" lon="8.3471510">
        <ele>499.5400000</ele>
        <time>2010-03-14T10:24:27Z</time>
      </trkpt>
      <trkpt lat="45.7383710" lon="8.3475370">
        <ele>500.9800000</ele>
        <time>2010-03-14T10:24:44Z</time>
      </trkpt>
      <trkpt lat="45.7380720" lon="8.3476180">
        <ele>502.9100000</ele>
        <time>2010-03-14T10:25:00Z</time>
      </trkpt>
      <trkpt lat="45.7378130" lon="8.3474380">
        <ele>505.3100000</ele>
        <time>2010-03-14T10:25:15Z</time>
      </trkpt>
      <trkpt lat="45.7375400" lon="8.3473140">
        <ele>506.7500000</ele>
        <time>2010-03-14T10:25:30Z</time>
      </trkpt>
      <trkpt lat="45.7372750" lon="8.3473540">
        <ele>507.2300000</ele>
        <time>2010-03-14T10:25:44Z</time>
      </trkpt>
      <trkpt lat="45.7369830" lon="8.3475550">
        <ele>508.6700000</ele>
        <time>2010-03-14T10:26:00Z</time>
      </trkpt>
      <trkpt lat="45.7367600" lon="8.3478190">
        <ele>510.6000000</ele>
        <time>2010-03-14T10:26:16Z</time>
      </trkpt>
      <trkpt lat="45.7366960" lon="8.3482560">
        <ele>512.0400000</ele>
        <time>2010-03-14T10:26:32Z</time>
      </trkpt>
      <trkpt lat="45.7367690" lon="8.3487140">
        <ele>513.9600000</ele>
        <time>2010-03-14T10:26:48Z</time>
      </trkpt>
      <trkpt lat="45.7368410" lon="8.3491540">
        <ele>515.4000000</ele>
        <time>2010-03-14T10:27:03Z</time>
      </trkpt>
      <trkpt lat="45.7369400" lon="8.3496570">
        <ele>517.3300000</ele>
        <time>2010-03-14T10:27:20Z</time>
      </trkpt>
      <trkpt lat="45.7371180" lon="8.3500190">
        <ele>519.2500000</ele>
        <time>2010-03-14T10:27:35Z</time>
      </trkpt>
      <trkpt lat="45.7373290" lon="8.3501920">
        <ele>520.2100000</ele>
        <time>2010-03-14T10:27:47Z</time>
      </trkpt>
      <trkpt lat="45.7376130" lon="8.3504120">
        <ele>522.1300000</ele>
        <time>2010-03-14T10:28:02Z</time>
      </trkpt>
      <trkpt lat="45.7378790" lon="8.3507230">
        <ele>523.5800000</ele>
        <time>2010-03-14T10:28:18Z</time>
      </trkpt>
      <trkpt lat="45.7380860" lon="8.3510670">
        <ele>525.9800000</ele>
        <time>2010-03-14T10:28:33Z</time>
      </trkpt>
      <trkpt lat="45.7383240" lon="8.3514820">
        <ele>527.4200000</ele>
        <time>2010-03-14T10:28:50Z</time>
      </trkpt>
      <trkpt lat="45.7385290" lon="8.3518380">
        <ele>530.3000000</ele>
        <time>2010-03-14T10:29:05Z</time>
      </trkpt>
      <trkpt lat="45.7387470" lon="8.3522500">
        <ele>531.7500000</ele>
        <time>2010-03-14T10:29:22Z</time>
      </trkpt>
      <trkpt lat="45.7390450" lon="8.3525040">
        <ele>533.6700000</ele>
        <time>2010-03-14T10:29:38Z</time>
      </trkpt>
      <trkpt lat="45.7394130" lon="8.3525190">
        <ele>535.5900000</ele>
        <time>2010-03-14T10:29:55Z</time>
      </trkpt>
      <trkpt lat="45.7398080" lon="8.3524490">
        <ele>537.9900000</ele>
        <time>2010-03-14T10:30:14Z</time>
      </trkpt>
      <trkpt lat="45.7401380" lon="8.3523930">
        <ele>539.9200000</ele>
        <time>2010-03-14T10:30:30Z</time>
      </trkpt>
      <trkpt lat="45.7404870" lon="8.3524210">
        <ele>541.3600000</ele>
        <time>2010-03-14T10:30:46Z</time>
      </trkpt>
      <trkpt lat="45.7407820" lon="8.3525180">
        <ele>542.3200000</ele>
        <time>2010-03-14T10:31:00Z</time>
      </trkpt>
      <trkpt lat="45.7411020" lon="8.3526560">
        <ele>544.7200000</ele>
        <time>2010-03-14T10:31:16Z</time>
      </trkpt>
      <trkpt lat="45.7412080" lon="8.3530450">
        <ele>545.6900000</ele>
        <time>2010-03-14T10:31:30Z</time>
      </trkpt>
      <trkpt lat="45.7409840" lon="8.3532930">
        <ele>547.6100000</ele>
        <time>2010-03-14T10:31:44Z</time>
      </trkpt>
      <trkpt lat="45.7406720" lon="8.3532230">
        <ele>549.0500000</ele>
        <time>2010-03-14T10:31:59Z</time>
      </trkpt>
      <trkpt lat="45.7403590" lon="8.3532240">
        <ele>551.4500000</ele>
        <time>2010-03-14T10:32:15Z</time>
      </trkpt>
      <trkpt lat="45.7400550" lon="8.3533570">
        <ele>553.3800000</ele>
        <time>2010-03-14T10:32:31Z</time>
      </trkpt>
      <trkpt lat="45.7398680" lon="8.3535720">
        <ele>554.3400000</ele>
        <time>2010-03-14T10:32:44Z</time>
      </trkpt>
      <trkpt lat="45.7397360" lon="8.3539710">
        <ele>556.7400000</ele>
        <time>2010-03-14T10:33:01Z</time>
      </trkpt>
      <trkpt lat="45.7398750" lon="8.3542970">
        <ele>557.7000000</ele>
        <time>2010-03-14T10:33:16Z</time>
      </trkpt>
      <trkpt lat="45.7400420" lon="8.3546120">
        <ele>559.6200000</ele>
        <time>2010-03-14T10:33:32Z</time>
      </trkpt>
      <trkpt lat="45.7400920" lon="8.3547080">
        <ele>559.1400000</ele>
        <time>2010-03-14T10:33:45Z</time>
      </trkpt>
      <trkpt lat="45.7400930" lon="8.3546840">
        <ele>559.1400000</ele>
        <time>2010-03-14T10:35:16Z</time>
      </trkpt>
      <trkpt lat="45.7401110" lon="8.3546330">
        <ele>557.7000000</ele>
        <time>2010-03-14T10:40:15Z</time>
      </trkpt>
      <trkpt lat="45.7400440" lon="8.3543030">
        <ele>559.6200000</ele>
        <time>2010-03-14T10:40:29Z</time>
      </trkpt>
      <trkpt lat="45.7399420" lon="8.3540390">
        <ele>561.0700000</ele>
        <time>2010-03-14T10:40:41Z</time>
      </trkpt>
      <trkpt lat="45.7400670" lon="8.3536460">
        <ele>562.9900000</ele>
        <time>2010-03-14T10:40:56Z</time>
      </trkpt>
      <trkpt lat="45.7403300" lon="8.3536300">
        <ele>564.4300000</ele>
        <time>2010-03-14T10:41:10Z</time>
      </trkpt>
      <trkpt lat="45.7406840" lon="8.3537150">
        <ele>567.3200000</ele>
        <time>2010-03-14T10:41:29Z</time>
      </trkpt>
      <trkpt lat="45.7409730" lon="8.3538460">
        <ele>570.2000000</ele>
        <time>2010-03-14T10:41:45Z</time>
      </trkpt>
      <trkpt lat="45.7412160" lon="8.3537350">
        <ele>571.6400000</ele>
        <time>2010-03-14T10:41:59Z</time>
      </trkpt>
      <trkpt lat="45.7413920" lon="8.3538190">
        <ele>573.0800000</ele>
        <time>2010-03-14T10:42:09Z</time>
      </trkpt>
      <trkpt lat="45.7416580" lon="8.3539960">
        <ele>575.0100000</ele>
        <time>2010-03-14T10:42:24Z</time>
      </trkpt>
      <trkpt lat="45.7418740" lon="8.3542370">
        <ele>576.9300000</ele>
        <time>2010-03-14T10:42:38Z</time>
      </trkpt>
      <trkpt lat="45.7419800" lon="8.3543270">
        <ele>577.4100000</ele>
        <time>2010-03-14T10:42:45Z</time>
      </trkpt>
      <trkpt lat="45.7420270" lon="8.3543690">
        <ele>578.3700000</ele>
        <time>2010-03-14T10:42:48Z</time>
      </trkpt>
      <trkpt lat="45.7423240" lon="8.3544590">
        <ele>580.2900000</ele>
        <time>2010-03-14T10:43:07Z</time>
      </trkpt>
      <trkpt lat="45.7424670" lon="8.3545890">
        <ele>582.2200000</ele>
        <time>2010-03-14T10:43:21Z</time>
      </trkpt>
      <trkpt lat="45.7427060" lon="8.3545790">
        <ele>583.1800000</ele>
        <time>2010-03-14T10:43:35Z</time>
      </trkpt>
      <trkpt lat="45.7429270" lon="8.3544200">
        <ele>584.6200000</ele>
        <time>2010-03-14T10:43:50Z</time>
      </trkpt>
      <trkpt lat="45.7429450" lon="8.3541970">
        <ele>586.0600000</ele>
        <time>2010-03-14T10:44:03Z</time>
      </trkpt>
      <trkpt lat="45.7428080" lon="8.3540550">
        <ele>587.5000000</ele>
        <time>2010-03-14T10:44:14Z</time>
      </trkpt>
      <trkpt lat="45.7427150" lon="8.3540240">
        <ele>587.9800000</ele>
        <time>2010-03-14T10:44:20Z</time>
      </trkpt>
      <trkpt lat="45.7426300" lon="8.3540090">
        <ele>588.9500000</ele>
        <time>2010-03-14T10:44:26Z</time>
      </trkpt>
      <trkpt lat="45.7426180" lon="8.3537030">
        <ele>589.9100000</ele>
        <time>2010-03-14T10:44:37Z</time>
      </trkpt>
      <trkpt lat="45.7426140" lon="8.3533220">
        <ele>592.3100000</ele>
        <time>2010-03-14T10:44:53Z</time>
      </trkpt>
      <trkpt lat="45.7424770" lon="8.3531180">
        <ele>593.7500000</ele>
        <time>2010-03-14T10:45:07Z</time>
      </trkpt>
      <trkpt lat="45.7423010" lon="8.3529360">
        <ele>594.7100000</ele>
        <time>2010-03-14T10:45:21Z</time>
      </trkpt>
      <trkpt lat="45.7423380" lon="8.3525680">
        <ele>596.6400000</ele>
        <time>2010-03-14T10:45:35Z</time>
      </trkpt>
      <trkpt lat="45.7424830" lon="8.3522840">
        <ele>597.6000000</ele>
        <time>2010-03-14T10:45:49Z</time>
      </trkpt>
      <trkpt lat="45.7426480" lon="8.3520120">
        <ele>600.0000000</ele>
        <time>2010-03-14T10:46:05Z</time>
      </trkpt>
      <trkpt lat="45.7428400" lon="8.3517760">
        <ele>601.4400000</ele>
        <time>2010-03-14T10:46:19Z</time>
      </trkpt>
      <trkpt lat="45.7428640" lon="8.3517480">
        <ele>601.4400000</ele>
        <time>2010-03-14T10:46:21Z</time>
      </trkpt>
      <trkpt lat="45.7429560" lon="8.3514960">
        <ele>603.3600000</ele>
        <time>2010-03-14T10:46:35Z</time>
      </trkpt>
      <trkpt lat="45.7429260" lon="8.3514170">
        <ele>602.8800000</ele>
        <time>2010-03-14T10:46:39Z</time>
      </trkpt>
      <trkpt lat="45.7426770" lon="8.3514000">
        <ele>604.3300000</ele>
        <time>2010-03-14T10:46:51Z</time>
      </trkpt>
      <trkpt lat="45.7424280" lon="8.3514640">
        <ele>605.7700000</ele>
        <time>2010-03-14T10:47:03Z</time>
      </trkpt>
      <trkpt lat="45.7420990" lon="8.3513020">
        <ele>606.7300000</ele>
        <time>2010-03-14T10:47:19Z</time>
      </trkpt>
      <trkpt lat="45.7418750" lon="8.3509340">
        <ele>607.2100000</ele>
        <time>2010-03-14T10:47:36Z</time>
      </trkpt>
      <trkpt lat="45.7421190" lon="8.3505830">
        <ele>608.1700000</ele>
        <time>2010-03-14T10:47:51Z</time>
      </trkpt>
      <trkpt lat="45.7423700" lon="8.3503080">
        <ele>608.6500000</ele>
        <time>2010-03-14T10:48:05Z</time>
      </trkpt>
      <trkpt lat="45.7427030" lon="8.3501560">
        <ele>609.6100000</ele>
        <time>2010-03-14T10:48:20Z</time>
      </trkpt>
      <trkpt lat="45.7430940" lon="8.3500110">
        <ele>611.5400000</ele>
        <time>2010-03-14T10:48:38Z</time>
      </trkpt>
      <trkpt lat="45.7433290" lon="8.3497780">
        <ele>612.9800000</ele>
        <time>2010-03-14T10:48:50Z</time>
      </trkpt>
      <trkpt lat="45.7434210" lon="8.3497190">
        <ele>613.4600000</ele>
        <time>2010-03-14T10:48:54Z</time>
      </trkpt>
      <trkpt lat="45.7435090" lon="8.3496060">
        <ele>613.4600000</ele>
        <time>2010-03-14T10:48:59Z</time>
      </trkpt>
      <trkpt lat="45.7437100" lon="8.3492720">
        <ele>613.9400000</ele>
        <time>2010-03-14T10:49:12Z</time>
      </trkpt>
      <trkpt lat="45.7438560" lon="8.3488760">
        <ele>613.4600000</ele>
        <time>2010-03-14T10:49:25Z</time>
      </trkpt>
      <trkpt lat="45.7435440" lon="8.3486680">
        <ele>614.4200000</ele>
        <time>2010-03-14T10:49:41Z</time>
      </trkpt>
      <trkpt lat="45.7432670" lon="8.3487010">
        <ele>614.9000000</ele>
        <time>2010-03-14T10:49:54Z</time>
      </trkpt>
      <trkpt lat="45.7430710" lon="8.3485710">
        <ele>616.3400000</ele>
        <time>2010-03-14T10:50:05Z</time>
      </trkpt>
      <trkpt lat="45.7428480" lon="8.3480740">
        <ele>618.2600000</ele>
        <time>2010-03-14T10:50:23Z</time>
      </trkpt>
      <trkpt lat="45.7429320" lon="8.3476810">
        <ele>620.6700000</ele>
        <time>2010-03-14T10:50:39Z</time>
      </trkpt>
      <trkpt lat="45.7431200" lon="8.3474080">
        <ele>622.5900000</ele>
        <time>2010-03-14T10:50:54Z</time>
      </trkpt>
      <trkpt lat="45.7433300" lon="8.3471550">
        <ele>624.5100000</ele>
        <time>2010-03-14T10:51:07Z</time>
      </trkpt>
      <trkpt lat="45.7436020" lon="8.3467710">
        <ele>625.4700000</ele>
        <time>2010-03-14T10:51:24Z</time>
      </trkpt>
      <trkpt lat="45.7436280" lon="8.3466830">
        <ele>624.9900000</ele>
        <time>2010-03-14T10:51:27Z</time>
      </trkpt>
      <trkpt lat="45.7433920" lon="8.3463320">
        <ele>625.4700000</ele>
        <time>2010-03-14T10:51:42Z</time>
      </trkpt>
      <trkpt lat="45.7431130" lon="8.3458460">
        <ele>626.9200000</ele>
        <time>2010-03-14T10:52:01Z</time>
      </trkpt>
      <trkpt lat="45.7430720" lon="8.3454070">
        <ele>627.4000000</ele>
        <time>2010-03-14T10:52:15Z</time>
      </trkpt>
      <trkpt lat="45.7432010" lon="8.3448700">
        <ele>630.2800000</ele>
        <time>2010-03-14T10:52:32Z</time>
      </trkpt>
      <trkpt lat="45.7433950" lon="8.3443510">
        <ele>631.2400000</ele>
        <time>2010-03-14T10:52:50Z</time>
      </trkpt>
      <trkpt lat="45.7435420" lon="8.3439220">
        <ele>631.2400000</ele>
        <time>2010-03-14T10:53:03Z</time>
      </trkpt>
      <trkpt lat="45.7438690" lon="8.3436230">
        <ele>630.2800000</ele>
        <time>2010-03-14T10:53:16Z</time>
      </trkpt>
      <trkpt lat="45.7441970" lon="8.3437340">
        <ele>633.1700000</ele>
        <time>2010-03-14T10:53:29Z</time>
      </trkpt>
      <trkpt lat="45.7445440" lon="8.3438120">
        <ele>636.0500000</ele>
        <time>2010-03-14T10:53:47Z</time>
      </trkpt>
      <trkpt lat="45.7447900" lon="8.3439330">
        <ele>637.9700000</ele>
        <time>2010-03-14T10:54:01Z</time>
      </trkpt>
      <trkpt lat="45.7450410" lon="8.3439620">
        <ele>640.8600000</ele>
        <time>2010-03-14T10:54:17Z</time>
      </trkpt>
      <trkpt lat="45.7451820" lon="8.3436530">
        <ele>642.7800000</ele>
        <time>2010-03-14T10:54:33Z</time>
      </trkpt>
      <trkpt lat="45.7453740" lon="8.3434240">
        <ele>644.2200000</ele>
        <time>2010-03-14T10:54:51Z</time>
      </trkpt>
      <trkpt lat="45.7455960" lon="8.3435230">
        <ele>646.6200000</ele>
        <time>2010-03-14T10:55:09Z</time>
      </trkpt>
      <trkpt lat="45.7457850" lon="8.3434850">
        <ele>649.0300000</ele>
        <time>2010-03-14T10:55:25Z</time>
      </trkpt>
      <trkpt lat="45.7458460" lon="8.3432610">
        <ele>650.9500000</ele>
        <time>2010-03-14T10:55:41Z</time>
      </trkpt>
      <trkpt lat="45.7458090" lon="8.3430180">
        <ele>652.3900000</ele>
        <time>2010-03-14T10:55:56Z</time>
      </trkpt>
      <trkpt lat="45.7458840" lon="8.3426490">
        <ele>654.3100000</ele>
        <time>2010-03-14T10:56:13Z</time>
      </trkpt>
      <trkpt lat="45.7459910" lon="8.3423380">
        <ele>656.2400000</ele>
        <time>2010-03-14T10:56:29Z</time>
      </trkpt>
      <trkpt lat="45.7461560" lon="8.3419610">
        <ele>657.2000000</ele>
        <time>2010-03-14T10:56:48Z</time>
      </trkpt>
      <trkpt lat="45.7464240" lon="8.3419260">
        <ele>658.1600000</ele>
        <time>2010-03-14T10:57:03Z</time>
      </trkpt>
      <trkpt lat="45.7467430" lon="8.3421600">
        <ele>659.1200000</ele>
        <time>2010-03-14T10:57:22Z</time>
      </trkpt>
      <trkpt lat="45.7470740" lon="8.3425620">
        <ele>659.6000000</ele>
        <time>2010-03-14T10:57:41Z</time>
      </trkpt>
      <trkpt lat="45.7471750" lon="8.3429420">
        <ele>659.6000000</ele>
        <time>2010-03-14T10:57:52Z</time>
      </trkpt>
      <trkpt lat="45.7473340" lon="8.3435430">
        <ele>660.5600000</ele>
        <time>2010-03-14T10:58:08Z</time>
      </trkpt>
      <trkpt lat="45.7475430" lon="8.3440260">
        <ele>660.5600000</ele>
        <time>2010-03-14T10:58:23Z</time>
      </trkpt>
      <trkpt lat="45.7477280" lon="8.3441650">
        <ele>660.5600000</ele>
        <time>2010-03-14T10:58:31Z</time>
      </trkpt>
      <trkpt lat="45.7479560" lon="8.3438290">
        <ele>662.0100000</ele>
        <time>2010-03-14T10:58:43Z</time>
      </trkpt>
      <trkpt lat="45.7482470" lon="8.3432360">
        <ele>662.9700000</ele>
        <time>2010-03-14T10:58:58Z</time>
      </trkpt>
      <trkpt lat="45.7484720" lon="8.3427160">
        <ele>661.5200000</ele>
        <time>2010-03-14T10:59:09Z</time>
      </trkpt>
      <trkpt lat="45.7489030" lon="8.3421460">
        <ele>662.9700000</ele>
        <time>2010-03-14T10:59:25Z</time>
      </trkpt>
      <trkpt lat="45.7492580" lon="8.3419990">
        <ele>663.9300000</ele>
        <time>2010-03-14T10:59:37Z</time>
      </trkpt>
      <trkpt lat="45.7496260" lon="8.3421540">
        <ele>664.8900000</ele>
        <time>2010-03-14T10:59:50Z</time>
      </trkpt>
      <trkpt lat="45.7497740" lon="8.3424660">
        <ele>665.8500000</ele>
        <time>2010-03-14T10:59:59Z</time>
      </trkpt>
      <trkpt lat="45.7498880" lon="8.3424740">
        <ele>665.8500000</ele>
        <time>2010-03-14T11:00:03Z</time>
      </trkpt>
      <trkpt lat="45.7500260" lon="8.3422430">
        <ele>666.8100000</ele>
        <time>2010-03-14T11:00:10Z</time>
      </trkpt>
      <trkpt lat="45.7500850" lon="8.3420540">
        <ele>667.2900000</ele>
        <time>2010-03-14T11:00:15Z</time>
      </trkpt>
      <trkpt lat="45.7502910" lon="8.3419610">
        <ele>667.7700000</ele>
        <time>2010-03-14T11:00:23Z</time>
      </trkpt>
      <trkpt lat="45.7506760" lon="8.3419960">
        <ele>668.7300000</ele>
        <time>2010-03-14T11:00:37Z</time>
      </trkpt>
      <trkpt lat="45.7508560" lon="8.3420480">
        <ele>669.2200000</ele>
        <time>2010-03-14T11:00:43Z</time>
      </trkpt>
      <trkpt lat="45.7510080" lon="8.3421550">
        <ele>669.2200000</ele>
        <time>2010-03-14T11:00:49Z</time>
      </trkpt>
      <trkpt lat="45.7512660" lon="8.3422750">
        <ele>670.1800000</ele>
        <time>2010-03-14T11:00:59Z</time>
      </trkpt>
      <trkpt lat="45.7514670" lon="8.3420720">
        <ele>671.1400000</ele>
        <time>2010-03-14T11:01:09Z</time>
      </trkpt>
      <trkpt lat="45.7513120" lon="8.3417470">
        <ele>672.1000000</ele>
        <time>2010-03-14T11:01:20Z</time>
      </trkpt>
      <trkpt lat="45.7511140" lon="8.3414560">
        <ele>674.5000000</ele>
        <time>2010-03-14T11:01:34Z</time>
      </trkpt>
      <trkpt lat="45.7510080" lon="8.3413780">
        <ele>674.9800000</ele>
        <time>2010-03-14T11:01:40Z</time>
      </trkpt>
      <trkpt lat="45.7508710" lon="8.3411810">
        <ele>675.9400000</ele>
        <time>2010-03-14T11:01:49Z</time>
      </trkpt>
      <trkpt lat="45.7505520" lon="8.3409120">
        <ele>677.8700000</ele>
        <time>2010-03-14T11:02:05Z</time>
      </trkpt>
      <trkpt lat="45.7502960" lon="8.3407260">
        <ele>679.7900000</ele>
        <time>2010-03-14T11:02:19Z</time>
      </trkpt>
      <trkpt lat="45.7501120" lon="8.3403440">
        <ele>681.2300000</ele>
        <time>2010-03-14T11:02:34Z</time>
      </trkpt>
      <trkpt lat="45.7499870" lon="8.3399530">
        <ele>682.1900000</ele>
        <time>2010-03-14T11:02:49Z</time>
      </trkpt>
      <trkpt lat="45.7502460" lon="8.3394690">
        <ele>684.1200000</ele>
        <time>2010-03-14T11:03:04Z</time>
      </trkpt>
      <trkpt lat="45.7503560" lon="8.3392750">
        <ele>683.1500000</ele>
        <time>2010-03-14T11:03:10Z</time>
      </trkpt>
      <trkpt lat="45.7507290" lon="8.3391630">
        <ele>683.1500000</ele>
        <time>2010-03-14T11:03:23Z</time>
      </trkpt>
      <trkpt lat="45.7512030" lon="8.3389660">
        <ele>684.1200000</ele>
        <time>2010-03-14T11:03:39Z</time>
      </trkpt>
      <trkpt lat="45.7517400" lon="8.3391460">
        <ele>685.0800000</ele>
        <time>2010-03-14T11:03:57Z</time>
      </trkpt>
      <trkpt lat="45.7521250" lon="8.3388310">
        <ele>685.0800000</ele>
        <time>2010-03-14T11:04:11Z</time>
      </trkpt>
      <trkpt lat="45.7526400" lon="8.3383380">
        <ele>687.0000000</ele>
        <time>2010-03-14T11:04:31Z</time>
      </trkpt>
      <trkpt lat="45.7529620" lon="8.3384250">
        <ele>688.9200000</ele>
        <time>2010-03-14T11:04:43Z</time>
      </trkpt>
      <trkpt lat="45.7532200" lon="8.3386840">
        <ele>690.3600000</ele>
        <time>2010-03-14T11:04:57Z</time>
      </trkpt>
      <trkpt lat="45.7535250" lon="8.3387680">
        <ele>692.2900000</ele>
        <time>2010-03-14T11:05:11Z</time>
      </trkpt>
      <trkpt lat="45.7538850" lon="8.3386910">
        <ele>692.7700000</ele>
        <time>2010-03-14T11:05:27Z</time>
      </trkpt>
      <trkpt lat="45.7541910" lon="8.3388510">
        <ele>694.6900000</ele>
        <time>2010-03-14T11:05:42Z</time>
      </trkpt>
      <trkpt lat="45.7544930" lon="8.3388220">
        <ele>696.1300000</ele>
        <time>2010-03-14T11:05:55Z</time>
      </trkpt>
      <trkpt lat="45.7547450" lon="8.3387810">
        <ele>697.5700000</ele>
        <time>2010-03-14T11:06:08Z</time>
      </trkpt>
      <trkpt lat="45.7550250" lon="8.3390830">
        <ele>699.5000000</ele>
        <time>2010-03-14T11:06:24Z</time>
      </trkpt>
      <trkpt lat="45.7553190" lon="8.3392680">
        <ele>700.9400000</ele>
        <time>2010-03-14T11:06:41Z</time>
      </trkpt>
      <trkpt lat="45.7555540" lon="8.3389640">
        <ele>701.9000000</ele>
        <time>2010-03-14T11:06:56Z</time>
      </trkpt>
      <trkpt lat="45.7557300" lon="8.3385300">
        <ele>703.3400000</ele>
        <time>2010-03-14T11:07:12Z</time>
      </trkpt>
      <trkpt lat="45.7558660" lon="8.3380250">
        <ele>704.7800000</ele>
        <time>2010-03-14T11:07:30Z</time>
      </trkpt>
      <trkpt lat="45.7560510" lon="8.3376850">
        <ele>706.7100000</ele>
        <time>2010-03-14T11:07:43Z</time>
      </trkpt>
      <trkpt lat="45.7563200" lon="8.3375110">
        <ele>707.6700000</ele>
        <time>2010-03-14T11:07:57Z</time>
      </trkpt>
      <trkpt lat="45.7566220" lon="8.3374220">
        <ele>709.1100000</ele>
        <time>2010-03-14T11:08:11Z</time>
      </trkpt>
      <trkpt lat="45.7567570" lon="8.3374660">
        <ele>709.5900000</ele>
        <time>2010-03-14T11:08:17Z</time>
      </trkpt>
      <trkpt lat="45.7570020" lon="8.3378860">
        <ele>711.5100000</ele>
        <time>2010-03-14T11:08:35Z</time>
      </trkpt>
      <trkpt lat="45.7572140" lon="8.3381490">
        <ele>712.4700000</ele>
        <time>2010-03-14T11:08:48Z</time>
      </trkpt>
      <trkpt lat="45.7575170" lon="8.3380310">
        <ele>714.8800000</ele>
        <time>2010-03-14T11:09:02Z</time>
      </trkpt>
      <trkpt lat="45.7578240" lon="8.3381410">
        <ele>716.3200000</ele>
        <time>2010-03-14T11:09:18Z</time>
      </trkpt>
      <trkpt lat="45.7580020" lon="8.3383960">
        <ele>717.7600000</ele>
        <time>2010-03-14T11:09:32Z</time>
      </trkpt>
      <trkpt lat="45.7582770" lon="8.3385120">
        <ele>718.7200000</ele>
        <time>2010-03-14T11:09:46Z</time>
      </trkpt>
      <trkpt lat="45.7586190" lon="8.3387700">
        <ele>719.6800000</ele>
        <time>2010-03-14T11:10:03Z</time>
      </trkpt>
      <trkpt lat="45.7590650" lon="8.3388480">
        <ele>720.1600000</ele>
        <time>2010-03-14T11:10:16Z</time>
      </trkpt>
      <trkpt lat="45.7597320" lon="8.3389530">
        <ele>720.6500000</ele>
        <time>2010-03-14T11:10:34Z</time>
      </trkpt>
      <trkpt lat="45.7603700" lon="8.3393940">
        <ele>720.1600000</ele>
        <time>2010-03-14T11:10:52Z</time>
      </trkpt>
      <trkpt lat="45.7608210" lon="8.3396550">
        <ele>722.0900000</ele>
        <time>2010-03-14T11:11:07Z</time>
      </trkpt>
      <trkpt lat="45.7610780" lon="8.3399920">
        <ele>724.4900000</ele>
        <time>2010-03-14T11:11:25Z</time>
      </trkpt>
      <trkpt lat="45.7612250" lon="8.3402950">
        <ele>727.8600000</ele>
        <time>2010-03-14T11:11:42Z</time>
      </trkpt>
      <trkpt lat="45.7613920" lon="8.3404690">
        <ele>729.7800000</ele>
        <time>2010-03-14T11:11:56Z</time>
      </trkpt>
      <trkpt lat="45.7615550" lon="8.3406060">
        <ele>731.7000000</ele>
        <time>2010-03-14T11:12:11Z</time>
      </trkpt>
      <trkpt lat="45.7617570" lon="8.3407460">
        <ele>733.1400000</ele>
        <time>2010-03-14T11:12:29Z</time>
      </trkpt>
      <trkpt lat="45.7619630" lon="8.3409170">
        <ele>735.0700000</ele>
        <time>2010-03-14T11:12:48Z</time>
      </trkpt>
      <trkpt lat="45.7622040" lon="8.3411710">
        <ele>736.9900000</ele>
        <time>2010-03-14T11:13:10Z</time>
      </trkpt>
      <trkpt lat="45.7623090" lon="8.3413540">
        <ele>738.9100000</ele>
        <time>2010-03-14T11:13:24Z</time>
      </trkpt>
      <trkpt lat="45.7623050" lon="8.3413710">
        <ele>738.9100000</ele>
        <time>2010-03-14T11:13:25Z</time>
      </trkpt>
      <trkpt lat="45.7622970" lon="8.3413820">
        <ele>739.3900000</ele>
        <time>2010-03-14T11:13:26Z</time>
      </trkpt>
      <trkpt lat="45.7622860" lon="8.3413860">
        <ele>739.3900000</ele>
        <time>2010-03-14T11:13:27Z</time>
      </trkpt>
      <trkpt lat="45.7622730" lon="8.3413860">
        <ele>739.8700000</ele>
        <time>2010-03-14T11:13:28Z</time>
      </trkpt>
      <trkpt lat="45.7622620" lon="8.3413860">
        <ele>739.8700000</ele>
        <time>2010-03-14T11:13:29Z</time>
      </trkpt>
      <trkpt lat="45.7622530" lon="8.3413860">
        <ele>739.3900000</ele>
        <time>2010-03-14T11:13:30Z</time>
      </trkpt>
      <trkpt lat="45.7622400" lon="8.3413840">
        <ele>739.8700000</ele>
        <time>2010-03-14T11:13:31Z</time>
      </trkpt>
      <trkpt lat="45.7622270" lon="8.3413770">
        <ele>740.3500000</ele>
        <time>2010-03-14T11:13:32Z</time>
      </trkpt>
      <trkpt lat="45.7622120" lon="8.3413680">
        <ele>739.8700000</ele>
        <time>2010-03-14T11:13:33Z</time>
      </trkpt>
      <trkpt lat="45.7619900" lon="8.3413650">
        <ele>740.8300000</ele>
        <time>2010-03-14T11:13:51Z</time>
      </trkpt>
      <trkpt lat="45.7620980" lon="8.3415490">
        <ele>743.2400000</ele>
        <time>2010-03-14T11:14:05Z</time>
      </trkpt>
      <trkpt lat="45.7621160" lon="8.3415490">
        <ele>742.7600000</ele>
        <time>2010-03-14T11:14:08Z</time>
      </trkpt>
      <trkpt lat="45.7621770" lon="8.3415640">
        <ele>743.2400000</ele>
        <time>2010-03-14T11:14:14Z</time>
      </trkpt>
      <trkpt lat="45.7622720" lon="8.3416190">
        <ele>743.7200000</ele>
        <time>2010-03-14T11:14:23Z</time>
      </trkpt>
      <trkpt lat="45.7623050" lon="8.3417180">
        <ele>745.1600000</ele>
        <time>2010-03-14T11:14:30Z</time>
      </trkpt>
      <trkpt lat="45.7622760" lon="8.3417530">
        <ele>745.1600000</ele>
        <time>2010-03-14T11:14:34Z</time>
      </trkpt>
      <trkpt lat="45.7622270" lon="8.3417410">
        <ele>746.1200000</ele>
        <time>2010-03-14T11:14:39Z</time>
      </trkpt>
      <trkpt lat="45.7621770" lon="8.3417270">
        <ele>745.6400000</ele>
        <time>2010-03-14T11:14:44Z</time>
      </trkpt>
      <trkpt lat="45.7619990" lon="8.3416600">
        <ele>747.0800000</ele>
        <time>2010-03-14T11:14:59Z</time>
      </trkpt>
      <trkpt lat="45.7618250" lon="8.3415880">
        <ele>748.0400000</ele>
        <time>2010-03-14T11:15:14Z</time>
      </trkpt>
      <trkpt lat="45.7617500" lon="8.3415390">
        <ele>749.0000000</ele>
        <time>2010-03-14T11:15:21Z</time>
      </trkpt>
      <trkpt lat="45.7616640" lon="8.3415050">
        <ele>749.9700000</ele>
        <time>2010-03-14T11:15:30Z</time>
      </trkpt>
      <trkpt lat="45.7616200" lon="8.3415070">
        <ele>750.4500000</ele>
        <time>2010-03-14T11:15:34Z</time>
      </trkpt>
      <trkpt lat="45.7615980" lon="8.3415210">
        <ele>750.9300000</ele>
        <time>2010-03-14T11:15:36Z</time>
      </trkpt>
      <trkpt lat="45.7616670" lon="8.3416470">
        <ele>752.3700000</ele>
        <time>2010-03-14T11:15:49Z</time>
      </trkpt>
      <trkpt lat="45.7616930" lon="8.3416510">
        <ele>752.3700000</ele>
        <time>2010-03-14T11:15:52Z</time>
      </trkpt>
      <trkpt lat="45.7618360" lon="8.3417310">
        <ele>754.2900000</ele>
        <time>2010-03-14T11:16:07Z</time>
      </trkpt>
      <trkpt lat="45.7618860" lon="8.3417570">
        <ele>754.2900000</ele>
        <time>2010-03-14T11:16:12Z</time>
      </trkpt>
      <trkpt lat="45.7619680" lon="8.3418080">
        <ele>755.7300000</ele>
        <time>2010-03-14T11:16:24Z</time>
      </trkpt>
      <trkpt lat="45.7621080" lon="8.3419310">
        <ele>757.1800000</ele>
        <time>2010-03-14T11:16:37Z</time>
      </trkpt>
      <trkpt lat="45.7621600" lon="8.3420030">
        <ele>757.6600000</ele>
        <time>2010-03-14T11:16:44Z</time>
      </trkpt>
      <trkpt lat="45.7621890" lon="8.3420470">
        <ele>758.1400000</ele>
        <time>2010-03-14T11:16:47Z</time>
      </trkpt>
      <trkpt lat="45.7622010" lon="8.3420850">
        <ele>758.1400000</ele>
        <time>2010-03-14T11:16:49Z</time>
      </trkpt>
      <trkpt lat="45.7622370" lon="8.3421590">
        <ele>759.5800000</ele>
        <time>2010-03-14T11:16:55Z</time>
      </trkpt>
      <trkpt lat="45.7622410" lon="8.3423150">
        <ele>760.5400000</ele>
        <time>2010-03-14T11:17:07Z</time>
      </trkpt>
      <trkpt lat="45.7622470" lon="8.3423470">
        <ele>760.5400000</ele>
        <time>2010-03-14T11:17:09Z</time>
      </trkpt>
      <trkpt lat="45.7622920" lon="8.3424380">
        <ele>761.0200000</ele>
        <time>2010-03-14T11:17:15Z</time>
      </trkpt>
      <trkpt lat="45.7623490" lon="8.3424620">
        <ele>761.5000000</ele>
        <time>2010-03-14T11:17:20Z</time>
      </trkpt>
      <trkpt lat="45.7623680" lon="8.3424540">
        <ele>761.5000000</ele>
        <time>2010-03-14T11:17:22Z</time>
      </trkpt>
      <trkpt lat="45.7625110" lon="8.3424570">
        <ele>762.9400000</ele>
        <time>2010-03-14T11:17:38Z</time>
      </trkpt>
      <trkpt lat="45.7625190" lon="8.3424640">
        <ele>762.9400000</ele>
        <time>2010-03-14T11:17:39Z</time>
      </trkpt>
      <trkpt lat="45.7625710" lon="8.3425250">
        <ele>763.4200000</ele>
        <time>2010-03-14T11:17:45Z</time>
      </trkpt>
      <trkpt lat="45.7626400" lon="8.3425670">
        <ele>763.9000000</ele>
        <time>2010-03-14T11:17:54Z</time>
      </trkpt>
      <trkpt lat="45.7627240" lon="8.3427240">
        <ele>765.3500000</ele>
        <time>2010-03-14T11:18:05Z</time>
      </trkpt>
      <trkpt lat="45.7628050" lon="8.3429210">
        <ele>767.2700000</ele>
        <time>2010-03-14T11:18:20Z</time>
      </trkpt>
      <trkpt lat="45.7628130" lon="8.3429610">
        <ele>767.2700000</ele>
        <time>2010-03-14T11:18:23Z</time>
      </trkpt>
      <trkpt lat="45.7628040" lon="8.3430440">
        <ele>768.7100000</ele>
        <time>2010-03-14T11:18:30Z</time>
      </trkpt>
      <trkpt lat="45.7627680" lon="8.3430660">
        <ele>769.1900000</ele>
        <time>2010-03-14T11:18:35Z</time>
      </trkpt>
      <trkpt lat="45.7627520" lon="8.3430620">
        <ele>769.1900000</ele>
        <time>2010-03-14T11:18:37Z</time>
      </trkpt>
      <trkpt lat="45.7626940" lon="8.3430070">
        <ele>770.1500000</ele>
        <time>2010-03-14T11:18:44Z</time>
      </trkpt>
      <trkpt lat="45.7626450" lon="8.3429360">
        <ele>771.6000000</ele>
        <time>2010-03-14T11:18:52Z</time>
      </trkpt>
      <trkpt lat="45.7626230" lon="8.3428760">
        <ele>772.0800000</ele>
        <time>2010-03-14T11:18:58Z</time>
      </trkpt>
      <trkpt lat="45.7625850" lon="8.3428310">
        <ele>772.5600000</ele>
        <time>2010-03-14T11:19:04Z</time>
      </trkpt>
      <trkpt lat="45.7625280" lon="8.3428330">
        <ele>773.0400000</ele>
        <time>2010-03-14T11:19:09Z</time>
      </trkpt>
      <trkpt lat="45.7623740" lon="8.3428920">
        <ele>774.0000000</ele>
        <time>2010-03-14T11:19:23Z</time>
      </trkpt>
      <trkpt lat="45.7621370" lon="8.3429350">
        <ele>774.4800000</ele>
        <time>2010-03-14T11:19:40Z</time>
      </trkpt>
      <trkpt lat="45.7619450" lon="8.3428880">
        <ele>774.4800000</ele>
        <time>2010-03-14T11:19:54Z</time>
      </trkpt>
      <trkpt lat="45.7618890" lon="8.3429450">
        <ele>776.4000000</ele>
        <time>2010-03-14T11:20:05Z</time>
      </trkpt>
      <trkpt lat="45.7618930" lon="8.3429530">
        <ele>776.8800000</ele>
        <time>2010-03-14T11:20:06Z</time>
      </trkpt>
      <trkpt lat="45.7621090" lon="8.3430690">
        <ele>778.8100000</ele>
        <time>2010-03-14T11:20:22Z</time>
      </trkpt>
      <trkpt lat="45.7622070" lon="8.3431460">
        <ele>780.2500000</ele>
        <time>2010-03-14T11:20:32Z</time>
      </trkpt>
      <trkpt lat="45.7622570" lon="8.3431960">
        <ele>780.7300000</ele>
        <time>2010-03-14T11:20:37Z</time>
      </trkpt>
      <trkpt lat="45.7623710" lon="8.3433030">
        <ele>783.6100000</ele>
        <time>2010-03-14T11:20:51Z</time>
      </trkpt>
      <trkpt lat="45.7624240" lon="8.3433660">
        <ele>783.6100000</ele>
        <time>2010-03-14T11:20:57Z</time>
      </trkpt>
      <trkpt lat="45.7624650" lon="8.3433970">
        <ele>784.5700000</ele>
        <time>2010-03-14T11:21:02Z</time>
      </trkpt>
      <trkpt lat="45.7624980" lon="8.3434250">
        <ele>785.0500000</ele>
        <time>2010-03-14T11:21:05Z</time>
      </trkpt>
      <trkpt lat="45.7625310" lon="8.3434850">
        <ele>786.0200000</ele>
        <time>2010-03-14T11:21:11Z</time>
      </trkpt>
      <trkpt lat="45.7625330" lon="8.3435520">
        <ele>786.9800000</ele>
        <time>2010-03-14T11:21:15Z</time>
      </trkpt>
      <trkpt lat="45.7625090" lon="8.3435910">
        <ele>787.4600000</ele>
        <time>2010-03-14T11:21:19Z</time>
      </trkpt>
      <trkpt lat="45.7624280" lon="8.3436070">
        <ele>788.4200000</ele>
        <time>2010-03-14T11:21:27Z</time>
      </trkpt>
      <trkpt lat="45.7623420" lon="8.3435880">
        <ele>789.3800000</ele>
        <time>2010-03-14T11:21:33Z</time>
      </trkpt>
      <trkpt lat="45.7622720" lon="8.3435860">
        <ele>790.3400000</ele>
        <time>2010-03-14T11:21:40Z</time>
      </trkpt>
      <trkpt lat="45.7621460" lon="8.3435680">
        <ele>791.3000000</ele>
        <time>2010-03-14T11:21:52Z</time>
      </trkpt>
      <trkpt lat="45.7619500" lon="8.3435760">
        <ele>792.2600000</ele>
        <time>2010-03-14T11:22:06Z</time>
      </trkpt>
      <trkpt lat="45.7618180" lon="8.3437670">
        <ele>793.7100000</ele>
        <time>2010-03-14T11:22:18Z</time>
      </trkpt>
      <trkpt lat="45.7618160" lon="8.3438580">
        <ele>794.6700000</ele>
        <time>2010-03-14T11:22:22Z</time>
      </trkpt>
      <trkpt lat="45.7618780" lon="8.3439380">
        <ele>795.6300000</ele>
        <time>2010-03-14T11:22:29Z</time>
      </trkpt>
      <trkpt lat="45.7620810" lon="8.3439990">
        <ele>797.5500000</ele>
        <time>2010-03-14T11:22:47Z</time>
      </trkpt>
      <trkpt lat="45.7623380" lon="8.3439890">
        <ele>798.9900000</ele>
        <time>2010-03-14T11:23:08Z</time>
      </trkpt>
      <trkpt lat="45.7624790" lon="8.3439990">
        <ele>800.4400000</ele>
        <time>2010-03-14T11:23:19Z</time>
      </trkpt>
      <trkpt lat="45.7627230" lon="8.3439990">
        <ele>801.8800000</ele>
        <time>2010-03-14T11:23:38Z</time>
      </trkpt>
      <trkpt lat="45.7628520" lon="8.3440270">
        <ele>803.3200000</ele>
        <time>2010-03-14T11:23:49Z</time>
      </trkpt>
      <trkpt lat="45.7629800" lon="8.3440690">
        <ele>803.8000000</ele>
        <time>2010-03-14T11:23:59Z</time>
      </trkpt>
      <trkpt lat="45.7630040" lon="8.3440740">
        <ele>804.2800000</ele>
        <time>2010-03-14T11:24:01Z</time>
      </trkpt>
      <trkpt lat="45.7631980" lon="8.3441500">
        <ele>806.6800000</ele>
        <time>2010-03-14T11:24:18Z</time>
      </trkpt>
      <trkpt lat="45.7633460" lon="8.3442050">
        <ele>807.6400000</ele>
        <time>2010-03-14T11:24:31Z</time>
      </trkpt>
      <trkpt lat="45.7635040" lon="8.3442760">
        <ele>808.6100000</ele>
        <time>2010-03-14T11:24:44Z</time>
      </trkpt>
      <trkpt lat="45.7636050" lon="8.3443240">
        <ele>809.5700000</ele>
        <time>2010-03-14T11:24:53Z</time>
      </trkpt>
      <trkpt lat="45.7636940" lon="8.3443610">
        <ele>811.0100000</ele>
        <time>2010-03-14T11:25:00Z</time>
      </trkpt>
      <trkpt lat="45.7637490" lon="8.3443700">
        <ele>811.0100000</ele>
        <time>2010-03-14T11:25:05Z</time>
      </trkpt>
      <trkpt lat="45.7639040" lon="8.3445140">
        <ele>812.9300000</ele>
        <time>2010-03-14T11:25:17Z</time>
      </trkpt>
      <trkpt lat="45.7640500" lon="8.3446800">
        <ele>815.3400000</ele>
        <time>2010-03-14T11:25:30Z</time>
      </trkpt>
      <trkpt lat="45.7642010" lon="8.3448080">
        <ele>817.2600000</ele>
        <time>2010-03-14T11:25:46Z</time>
      </trkpt>
      <trkpt lat="45.7642470" lon="8.3448560">
        <ele>817.7400000</ele>
        <time>2010-03-14T11:25:51Z</time>
      </trkpt>
      <trkpt lat="45.7642740" lon="8.3448850">
        <ele>818.7000000</ele>
        <time>2010-03-14T11:25:55Z</time>
      </trkpt>
      <trkpt lat="45.7643110" lon="8.3449150">
        <ele>818.7000000</ele>
        <time>2010-03-14T11:25:58Z</time>
      </trkpt>
      <trkpt lat="45.7643730" lon="8.3449840">
        <ele>819.1800000</ele>
        <time>2010-03-14T11:26:04Z</time>
      </trkpt>
      <trkpt lat="45.7644930" lon="8.3451660">
        <ele>821.1000000</ele>
        <time>2010-03-14T11:26:19Z</time>
      </trkpt>
      <trkpt lat="45.7645010" lon="8.3451830">
        <ele>821.5800000</ele>
        <time>2010-03-14T11:26:20Z</time>
      </trkpt>
      <trkpt lat="45.7645620" lon="8.3452700">
        <ele>822.0600000</ele>
        <time>2010-03-14T11:26:29Z</time>
      </trkpt>
      <trkpt lat="45.7646120" lon="8.3453400">
        <ele>823.0300000</ele>
        <time>2010-03-14T11:26:35Z</time>
      </trkpt>
      <trkpt lat="45.7647240" lon="8.3454650">
        <ele>823.5100000</ele>
        <time>2010-03-14T11:26:48Z</time>
      </trkpt>
      <trkpt lat="45.7647960" lon="8.3455960">
        <ele>824.9500000</ele>
        <time>2010-03-14T11:26:59Z</time>
      </trkpt>
      <trkpt lat="45.7649160" lon="8.3457360">
        <ele>826.3900000</ele>
        <time>2010-03-14T11:27:14Z</time>
      </trkpt>
      <trkpt lat="45.7649440" lon="8.3457810">
        <ele>826.8700000</ele>
        <time>2010-03-14T11:27:17Z</time>
      </trkpt>
      <trkpt lat="45.7649800" lon="8.3458250">
        <ele>827.3500000</ele>
        <time>2010-03-14T11:27:21Z</time>
      </trkpt>
      <trkpt lat="45.7650030" lon="8.3458890">
        <ele>827.3500000</ele>
        <time>2010-03-14T11:27:25Z</time>
      </trkpt>
      <trkpt lat="45.7650160" lon="8.3460280">
        <ele>827.8300000</ele>
        <time>2010-03-14T11:27:36Z</time>
      </trkpt>
      <trkpt lat="45.7650430" lon="8.3462340">
        <ele>827.3500000</ele>
        <time>2010-03-14T11:27:46Z</time>
      </trkpt>
      <trkpt lat="45.7650580" lon="8.3463170">
        <ele>827.8300000</ele>
        <time>2010-03-14T11:27:50Z</time>
      </trkpt>
      <trkpt lat="45.7650820" lon="8.3464080">
        <ele>827.3500000</ele>
        <time>2010-03-14T11:27:54Z</time>
      </trkpt>
      <trkpt lat="45.7651520" lon="8.3465380">
        <ele>827.8300000</ele>
        <time>2010-03-14T11:28:01Z</time>
      </trkpt>
      <trkpt lat="45.7652710" lon="8.3467120">
        <ele>828.3100000</ele>
        <time>2010-03-14T11:28:13Z</time>
      </trkpt>
      <trkpt lat="45.7653820" lon="8.3468730">
        <ele>829.7600000</ele>
        <time>2010-03-14T11:28:24Z</time>
      </trkpt>
      <trkpt lat="45.7655260" lon="8.3470090">
        <ele>831.6800000</ele>
        <time>2010-03-14T11:28:36Z</time>
      </trkpt>
      <trkpt lat="45.7656930" lon="8.3470930">
        <ele>833.1200000</ele>
        <time>2010-03-14T11:28:49Z</time>
      </trkpt>
      <trkpt lat="45.7658610" lon="8.3471990">
        <ele>836.0000000</ele>
        <time>2010-03-14T11:29:04Z</time>
      </trkpt>
      <trkpt lat="45.7659050" lon="8.3472480">
        <ele>836.4800000</ele>
        <time>2010-03-14T11:29:08Z</time>
      </trkpt>
      <trkpt lat="45.7659530" lon="8.3473010">
        <ele>837.4500000</ele>
        <time>2010-03-14T11:29:13Z</time>
      </trkpt>
      <trkpt lat="45.7661300" lon="8.3474440">
        <ele>839.8500000</ele>
        <time>2010-03-14T11:29:31Z</time>
      </trkpt>
      <trkpt lat="45.7661830" lon="8.3474620">
        <ele>840.3300000</ele>
        <time>2010-03-14T11:29:36Z</time>
      </trkpt>
      <trkpt lat="45.7662750" lon="8.3474700">
        <ele>841.2900000</ele>
        <time>2010-03-14T11:29:46Z</time>
      </trkpt>
      <trkpt lat="45.7663050" lon="8.3474830">
        <ele>841.7700000</ele>
        <time>2010-03-14T11:29:49Z</time>
      </trkpt>
      <trkpt lat="45.7663310" lon="8.3474830">
        <ele>842.2500000</ele>
        <time>2010-03-14T11:29:51Z</time>
      </trkpt>
      <trkpt lat="45.7664460" lon="8.3475520">
        <ele>842.7300000</ele>
        <time>2010-03-14T11:30:02Z</time>
      </trkpt>
      <trkpt lat="45.7665220" lon="8.3476660">
        <ele>843.6900000</ele>
        <time>2010-03-14T11:30:11Z</time>
      </trkpt>
      <trkpt lat="45.7666100" lon="8.3478950">
        <ele>845.1400000</ele>
        <time>2010-03-14T11:30:26Z</time>
      </trkpt>
      <trkpt lat="45.7666250" lon="8.3479420">
        <ele>845.6200000</ele>
        <time>2010-03-14T11:30:30Z</time>
      </trkpt>
      <trkpt lat="45.7667210" lon="8.3480650">
        <ele>847.0600000</ele>
        <time>2010-03-14T11:30:40Z</time>
      </trkpt>
      <trkpt lat="45.7669060" lon="8.3481920">
        <ele>848.0200000</ele>
        <time>2010-03-14T11:30:55Z</time>
      </trkpt>
      <trkpt lat="45.7670290" lon="8.3485230">
        <ele>849.4600000</ele>
        <time>2010-03-14T11:31:13Z</time>
      </trkpt>
      <trkpt lat="45.7670760" lon="8.3487140">
        <ele>850.9000000</ele>
        <time>2010-03-14T11:31:24Z</time>
      </trkpt>
      <trkpt lat="45.7672680" lon="8.3489340">
        <ele>850.9000000</ele>
        <time>2010-03-14T11:31:37Z</time>
      </trkpt>
      <trkpt lat="45.7672840" lon="8.3489510">
        <ele>850.4200000</ele>
        <time>2010-03-14T11:31:38Z</time>
      </trkpt>
      <trkpt lat="45.7674840" lon="8.3490640">
        <ele>851.3800000</ele>
        <time>2010-03-14T11:31:50Z</time>
      </trkpt>
      <trkpt lat="45.7675190" lon="8.3490850">
        <ele>851.3800000</ele>
        <time>2010-03-14T11:31:52Z</time>
      </trkpt>
      <trkpt lat="45.7678330" lon="8.3490950">
        <ele>852.3500000</ele>
        <time>2010-03-14T11:32:06Z</time>
      </trkpt>
      <trkpt lat="45.7680230" lon="8.3490300">
        <ele>852.3500000</ele>
        <time>2010-03-14T11:32:13Z</time>
      </trkpt>
      <trkpt lat="45.7680710" lon="8.3490520">
        <ele>853.3100000</ele>
        <time>2010-03-14T11:32:16Z</time>
      </trkpt>
      <trkpt lat="45.7683830" lon="8.3489320">
        <ele>853.7900000</ele>
        <time>2010-03-14T11:32:28Z</time>
      </trkpt>
      <trkpt lat="45.7686500" lon="8.3488470">
        <ele>853.7900000</ele>
        <time>2010-03-14T11:32:38Z</time>
      </trkpt>
      <trkpt lat="45.7688760" lon="8.3489220">
        <ele>854.7500000</ele>
        <time>2010-03-14T11:32:49Z</time>
      </trkpt>
      <trkpt lat="45.7690450" lon="8.3490730">
        <ele>856.6700000</ele>
        <time>2010-03-14T11:33:00Z</time>
      </trkpt>
      <trkpt lat="45.7693330" lon="8.3492270">
        <ele>858.1100000</ele>
        <time>2010-03-14T11:33:15Z</time>
      </trkpt>
      <trkpt lat="45.7696030" lon="8.3492340">
        <ele>860.0400000</ele>
        <time>2010-03-14T11:33:31Z</time>
      </trkpt>
      <trkpt lat="45.7698120" lon="8.3492350">
        <ele>861.9600000</ele>
        <time>2010-03-14T11:33:45Z</time>
      </trkpt>
      <trkpt lat="45.7699390" lon="8.3493840">
        <ele>862.9200000</ele>
        <time>2010-03-14T11:33:58Z</time>
      </trkpt>
      <trkpt lat="45.7699480" lon="8.3493970">
        <ele>862.4400000</ele>
        <time>2010-03-14T11:33:59Z</time>
      </trkpt>
      <trkpt lat="45.7701130" lon="8.3495600">
        <ele>864.3600000</ele>
        <time>2010-03-14T11:34:14Z</time>
      </trkpt>
      <trkpt lat="45.7702930" lon="8.3497390">
        <ele>866.7700000</ele>
        <time>2010-03-14T11:34:29Z</time>
      </trkpt>
      <trkpt lat="45.7703270" lon="8.3497980">
        <ele>867.2500000</ele>
        <time>2010-03-14T11:34:36Z</time>
      </trkpt>
      <trkpt lat="45.7703610" lon="8.3498260">
        <ele>867.7300000</ele>
        <time>2010-03-14T11:34:41Z</time>
      </trkpt>
      <trkpt lat="45.7704840" lon="8.3498990">
        <ele>869.6500000</ele>
        <time>2010-03-14T11:34:54Z</time>
      </trkpt>
      <trkpt lat="45.7705120" lon="8.3499040">
        <ele>869.6500000</ele>
        <time>2010-03-14T11:34:57Z</time>
      </trkpt>
      <trkpt lat="45.7705680" lon="8.3499220">
        <ele>870.6100000</ele>
        <time>2010-03-14T11:35:04Z</time>
      </trkpt>
      <trkpt lat="45.7706310" lon="8.3499500">
        <ele>871.0900000</ele>
        <time>2010-03-14T11:35:11Z</time>
      </trkpt>
      <trkpt lat="45.7707680" lon="8.3499920">
        <ele>873.0100000</ele>
        <time>2010-03-14T11:35:23Z</time>
      </trkpt>
      <trkpt lat="45.7708680" lon="8.3499940">
        <ele>873.0100000</ele>
        <time>2010-03-14T11:35:32Z</time>
      </trkpt>
      <trkpt lat="45.7710360" lon="8.3499830">
        <ele>874.4600000</ele>
        <time>2010-03-14T11:35:48Z</time>
      </trkpt>
      <trkpt lat="45.7711470" lon="8.3499550">
        <ele>874.9400000</ele>
        <time>2010-03-14T11:35:58Z</time>
      </trkpt>
      <trkpt lat="45.7712050" lon="8.3499520">
        <ele>875.9000000</ele>
        <time>2010-03-14T11:36:04Z</time>
      </trkpt>
      <trkpt lat="45.7712840" lon="8.3499450">
        <ele>875.9000000</ele>
        <time>2010-03-14T11:36:11Z</time>
      </trkpt>
      <trkpt lat="45.7713720" lon="8.3499890">
        <ele>876.8600000</ele>
        <time>2010-03-14T11:36:20Z</time>
      </trkpt>
      <trkpt lat="45.7714730" lon="8.3500790">
        <ele>877.3400000</ele>
        <time>2010-03-14T11:36:31Z</time>
      </trkpt>
      <trkpt lat="45.7714970" lon="8.3500940">
        <ele>877.8200000</ele>
        <time>2010-03-14T11:36:33Z</time>
      </trkpt>
      <trkpt lat="45.7715660" lon="8.3501470">
        <ele>878.3000000</ele>
        <time>2010-03-14T11:36:41Z</time>
      </trkpt>
      <trkpt lat="45.7716590" lon="8.3501950">
        <ele>878.7800000</ele>
        <time>2010-03-14T11:36:50Z</time>
      </trkpt>
      <trkpt lat="45.7717600" lon="8.3502450">
        <ele>879.7400000</ele>
        <time>2010-03-14T11:36:59Z</time>
      </trkpt>
      <trkpt lat="45.7717970" lon="8.3502950">
        <ele>880.2200000</ele>
        <time>2010-03-14T11:37:04Z</time>
      </trkpt>
      <trkpt lat="45.7718380" lon="8.3503160">
        <ele>880.7100000</ele>
        <time>2010-03-14T11:37:07Z</time>
      </trkpt>
      <trkpt lat="45.7718670" lon="8.3503420">
        <ele>880.7100000</ele>
        <time>2010-03-14T11:37:10Z</time>
      </trkpt>
      <trkpt lat="45.7719520" lon="8.3504230">
        <ele>882.1500000</ele>
        <time>2010-03-14T11:37:22Z</time>
      </trkpt>
      <trkpt lat="45.7720340" lon="8.3505340">
        <ele>882.6300000</ele>
        <time>2010-03-14T11:37:36Z</time>
      </trkpt>
      <trkpt lat="45.7720340" lon="8.3505300">
        <ele>883.1100000</ele>
        <time>2010-03-14T11:38:13Z</time>
      </trkpt>
      <trkpt lat="45.7720460" lon="8.3505230">
        <ele>886.4700000</ele>
        <time>2010-03-14T11:44:24Z</time>
      </trkpt>
      <trkpt lat="45.7720480" lon="8.3505290">
        <ele>886.4700000</ele>
        <time>2010-03-14T11:45:05Z</time>
      </trkpt>
      <trkpt lat="45.7720580" lon="8.3506030">
        <ele>888.4000000</ele>
        <time>2010-03-14T11:49:49Z</time>
      </trkpt>
      <trkpt lat="45.7720270" lon="8.3506850">
        <ele>888.8800000</ele>
        <time>2010-03-14T11:50:01Z</time>
      </trkpt>
      <trkpt lat="45.7719730" lon="8.3507140">
        <ele>888.8800000</ele>
        <time>2010-03-14T11:50:12Z</time>
      </trkpt>
      <trkpt lat="45.7719350" lon="8.3507230">
        <ele>889.8400000</ele>
        <time>2010-03-14T11:50:21Z</time>
      </trkpt>
      <trkpt lat="45.7718990" lon="8.3507510">
        <ele>890.8000000</ele>
        <time>2010-03-14T11:50:31Z</time>
      </trkpt>
      <trkpt lat="45.7718060" lon="8.3507930">
        <ele>892.7200000</ele>
        <time>2010-03-14T11:50:45Z</time>
      </trkpt>
      <trkpt lat="45.7717140" lon="8.3508410">
        <ele>893.2000000</ele>
        <time>2010-03-14T11:50:57Z</time>
      </trkpt>
      <trkpt lat="45.7715930" lon="8.3509160">
        <ele>892.2400000</ele>
        <time>2010-03-14T11:51:10Z</time>
      </trkpt>
      <trkpt lat="45.7714940" lon="8.3509970">
        <ele>892.2400000</ele>
        <time>2010-03-14T11:51:22Z</time>
      </trkpt>
      <trkpt lat="45.7713920" lon="8.3510870">
        <ele>892.2400000</ele>
        <time>2010-03-14T11:51:35Z</time>
      </trkpt>
      <trkpt lat="45.7712970" lon="8.3511760">
        <ele>892.2400000</ele>
        <time>2010-03-14T11:51:47Z</time>
      </trkpt>
      <trkpt lat="45.7711680" lon="8.3512820">
        <ele>892.7200000</ele>
        <time>2010-03-14T11:52:01Z</time>
      </trkpt>
      <trkpt lat="45.7710510" lon="8.3513650">
        <ele>891.7600000</ele>
        <time>2010-03-14T11:52:15Z</time>
      </trkpt>
      <trkpt lat="45.7709510" lon="8.3514230">
        <ele>890.8000000</ele>
        <time>2010-03-14T11:52:28Z</time>
      </trkpt>
      <trkpt lat="45.7708320" lon="8.3514890">
        <ele>890.8000000</ele>
        <time>2010-03-14T11:52:41Z</time>
      </trkpt>
      <trkpt lat="45.7707690" lon="8.3515370">
        <ele>891.2800000</ele>
        <time>2010-03-14T11:52:49Z</time>
      </trkpt>
      <trkpt lat="45.7706260" lon="8.3515980">
        <ele>891.2800000</ele>
        <time>2010-03-14T11:53:04Z</time>
      </trkpt>
      <trkpt lat="45.7705120" lon="8.3516220">
        <ele>891.7600000</ele>
        <time>2010-03-14T11:53:16Z</time>
      </trkpt>
      <trkpt lat="45.7704370" lon="8.3516350">
        <ele>892.7200000</ele>
        <time>2010-03-14T11:53:27Z</time>
      </trkpt>
      <trkpt lat="45.7703760" lon="8.3516240">
        <ele>893.2000000</ele>
        <time>2010-03-14T11:53:36Z</time>
      </trkpt>
      <trkpt lat="45.7702830" lon="8.3516330">
        <ele>893.6800000</ele>
        <time>2010-03-14T11:53:45Z</time>
      </trkpt>
      <trkpt lat="45.7702440" lon="8.3516340">
        <ele>893.6800000</ele>
        <time>2010-03-14T11:53:50Z</time>
      </trkpt>
      <trkpt lat="45.7701420" lon="8.3516990">
        <ele>894.1600000</ele>
        <time>2010-03-14T11:53:57Z</time>
      </trkpt>
      <trkpt lat="45.7701000" lon="8.3517360">
        <ele>894.6400000</ele>
        <time>2010-03-14T11:54:00Z</time>
      </trkpt>
      <trkpt lat="45.7699570" lon="8.3518480">
        <ele>895.1200000</ele>
        <time>2010-03-14T11:54:15Z</time>
      </trkpt>
      <trkpt lat="45.7698880" lon="8.3518970">
        <ele>895.6100000</ele>
        <time>2010-03-14T11:54:24Z</time>
      </trkpt>
      <trkpt lat="45.7697990" lon="8.3520810">
        <ele>896.0900000</ele>
        <time>2010-03-14T11:54:35Z</time>
      </trkpt>
      <trkpt lat="45.7697200" lon="8.3521930">
        <ele>897.0500000</ele>
        <time>2010-03-14T11:54:46Z</time>
      </trkpt>
      <trkpt lat="45.7697050" lon="8.3522500">
        <ele>897.0500000</ele>
        <time>2010-03-14T11:54:51Z</time>
      </trkpt>
      <trkpt lat="45.7696940" lon="8.3524040">
        <ele>898.0100000</ele>
        <time>2010-03-14T11:55:01Z</time>
      </trkpt>
      <trkpt lat="45.7696720" lon="8.3526070">
        <ele>898.4900000</ele>
        <time>2010-03-14T11:55:11Z</time>
      </trkpt>
      <trkpt lat="45.7696640" lon="8.3528150">
        <ele>898.9700000</ele>
        <time>2010-03-14T11:55:20Z</time>
      </trkpt>
      <trkpt lat="45.7696520" lon="8.3529670">
        <ele>898.9700000</ele>
        <time>2010-03-14T11:55:28Z</time>
      </trkpt>
      <trkpt lat="45.7695630" lon="8.3530930">
        <ele>899.9300000</ele>
        <time>2010-03-14T11:55:40Z</time>
      </trkpt>
      <trkpt lat="45.7695030" lon="8.3531450">
        <ele>899.9300000</ele>
        <time>2010-03-14T11:55:50Z</time>
      </trkpt>
      <trkpt lat="45.7694350" lon="8.3531990">
        <ele>900.8900000</ele>
        <time>2010-03-14T11:56:03Z</time>
      </trkpt>
      <trkpt lat="45.7693610" lon="8.3532500">
        <ele>901.3700000</ele>
        <time>2010-03-14T11:56:12Z</time>
      </trkpt>
      <trkpt lat="45.7692990" lon="8.3533520">
        <ele>902.8200000</ele>
        <time>2010-03-14T11:56:24Z</time>
      </trkpt>
      <trkpt lat="45.7691770" lon="8.3534910">
        <ele>904.2600000</ele>
        <time>2010-03-14T11:56:39Z</time>
      </trkpt>
      <trkpt lat="45.7691120" lon="8.3536350">
        <ele>905.2200000</ele>
        <time>2010-03-14T11:56:52Z</time>
      </trkpt>
      <trkpt lat="45.7690270" lon="8.3537480">
        <ele>906.1800000</ele>
        <time>2010-03-14T11:57:06Z</time>
      </trkpt>
      <trkpt lat="45.7689620" lon="8.3538560">
        <ele>906.6600000</ele>
        <time>2010-03-14T11:57:17Z</time>
      </trkpt>
      <trkpt lat="45.7688720" lon="8.3539170">
        <ele>907.1400000</ele>
        <time>2010-03-14T11:57:29Z</time>
      </trkpt>
      <trkpt lat="45.7688030" lon="8.3540100">
        <ele>908.1000000</ele>
        <time>2010-03-14T11:57:41Z</time>
      </trkpt>
      <trkpt lat="45.7687820" lon="8.3540430">
        <ele>907.6200000</ele>
        <time>2010-03-14T11:57:46Z</time>
      </trkpt>
      <trkpt lat="45.7687320" lon="8.3541790">
        <ele>907.6200000</ele>
        <time>2010-03-14T11:57:54Z</time>
      </trkpt>
      <trkpt lat="45.7686880" lon="8.3543810">
        <ele>907.6200000</ele>
        <time>2010-03-14T11:58:05Z</time>
      </trkpt>
      <trkpt lat="45.7686670" lon="8.3544820">
        <ele>908.5800000</ele>
        <time>2010-03-14T11:58:09Z</time>
      </trkpt>
      <trkpt lat="45.7685480" lon="8.3547340">
        <ele>908.1000000</ele>
        <time>2010-03-14T11:58:22Z</time>
      </trkpt>
      <trkpt lat="45.7684840" lon="8.3548290">
        <ele>907.6200000</ele>
        <time>2010-03-14T11:58:31Z</time>
      </trkpt>
      <trkpt lat="45.7682610" lon="8.3549650">
        <ele>907.1400000</ele>
        <time>2010-03-14T11:58:43Z</time>
      </trkpt>
      <trkpt lat="45.7682430" lon="8.3549810">
        <ele>907.1400000</ele>
        <time>2010-03-14T11:58:44Z</time>
      </trkpt>
      <trkpt lat="45.7679990" lon="8.3550280">
        <ele>907.1400000</ele>
        <time>2010-03-14T11:58:56Z</time>
      </trkpt>
      <trkpt lat="45.7678500" lon="8.3549490">
        <ele>907.1400000</ele>
        <time>2010-03-14T11:59:07Z</time>
      </trkpt>
      <trkpt lat="45.7677560" lon="8.3548960">
        <ele>907.6200000</ele>
        <time>2010-03-14T11:59:18Z</time>
      </trkpt>
      <trkpt lat="45.7676110" lon="8.3548760">
        <ele>908.5800000</ele>
        <time>2010-03-14T11:59:32Z</time>
      </trkpt>
      <trkpt lat="45.7675030" lon="8.3548520">
        <ele>909.0600000</ele>
        <time>2010-03-14T11:59:44Z</time>
      </trkpt>
      <trkpt lat="45.7673990" lon="8.3548210">
        <ele>909.5400000</ele>
        <time>2010-03-14T11:59:55Z</time>
      </trkpt>
      <trkpt lat="45.7673860" lon="8.3548190">
        <ele>909.5400000</ele>
        <time>2010-03-14T11:59:56Z</time>
      </trkpt>
      <trkpt lat="45.7672460" lon="8.3548420">
        <ele>910.0300000</ele>
        <time>2010-03-14T12:00:09Z</time>
      </trkpt>
      <trkpt lat="45.7671450" lon="8.3549040">
        <ele>910.9900000</ele>
        <time>2010-03-14T12:00:22Z</time>
      </trkpt>
      <trkpt lat="45.7670930" lon="8.3549740">
        <ele>911.9500000</ele>
        <time>2010-03-14T12:00:32Z</time>
      </trkpt>
      <trkpt lat="45.7670280" lon="8.3550230">
        <ele>912.4300000</ele>
        <time>2010-03-14T12:00:44Z</time>
      </trkpt>
      <trkpt lat="45.7668780" lon="8.3550320">
        <ele>912.9100000</ele>
        <time>2010-03-14T12:00:58Z</time>
      </trkpt>
      <trkpt lat="45.7668570" lon="8.3550280">
        <ele>913.8700000</ele>
        <time>2010-03-14T12:01:00Z</time>
      </trkpt>
      <trkpt lat="45.7667850" lon="8.3549700">
        <ele>914.3500000</ele>
        <time>2010-03-14T12:01:14Z</time>
      </trkpt>
      <trkpt lat="45.7667310" lon="8.3548870">
        <ele>913.8700000</ele>
        <time>2010-03-14T12:01:25Z</time>
      </trkpt>
      <trkpt lat="45.7666720" lon="8.3548210">
        <ele>913.8700000</ele>
        <time>2010-03-14T12:01:33Z</time>
      </trkpt>
      <trkpt lat="45.7665250" lon="8.3547140">
        <ele>915.3100000</ele>
        <time>2010-03-14T12:01:48Z</time>
      </trkpt>
      <trkpt lat="45.7664870" lon="8.3546960">
        <ele>915.3100000</ele>
        <time>2010-03-14T12:02:03Z</time>
      </trkpt>
      <trkpt lat="45.7664370" lon="8.3546430">
        <ele>914.3500000</ele>
        <time>2010-03-14T12:02:19Z</time>
      </trkpt>
      <trkpt lat="45.7664070" lon="8.3546140">
        <ele>914.8300000</ele>
        <time>2010-03-14T12:02:31Z</time>
      </trkpt>
    </trkseg>
  </trk>

  <trk>
    <name>TRASFERIMENTO a PS 1/3</name>
    <extensions>
      <gpxx:TrackExtension xmlns:gpxx="http://www.garmin.com/xmlschemas/GpxExtensions/v3">
        <gpxx:DisplayColor>Blue</gpxx:DisplayColor>
      </gpxx:TrackExtension>
    </extensions>
    <trkseg>
      <trkpt lat="45.7569030" lon="8.3824020">
        <ele>465.9000000</ele>
        <time>2010-03-12T08:27:50Z</time>
      </trkpt>
      <trkpt lat="45.7569030" lon="8.3824020">
        <ele>470.2200000</ele>
        <time>2010-03-12T08:27:51Z</time>
      </trkpt>
      <trkpt lat="45.7569030" lon="8.3824020">
        <ele>463.4900000</ele>
        <time>2010-03-12T08:27:52Z</time>
      </trkpt>
      <trkpt lat="45.7569030" lon="8.3824020">
        <ele>466.3800000</ele>
        <time>2010-03-12T08:27:53Z</time>
      </trkpt>
      <trkpt lat="45.7569040" lon="8.3824010">
        <ele>465.9000000</ele>
        <time>2010-03-12T08:29:17Z</time>
      </trkpt>
      <trkpt lat="45.7569880" lon="8.3823560">
        <ele>465.9000000</ele>
        <time>2010-03-12T08:29:23Z</time>
      </trkpt>
      <trkpt lat="45.7569990" lon="8.3822090">
        <ele>466.8600000</ele>
        <time>2010-03-12T08:29:28Z</time>
      </trkpt>
      <trkpt lat="45.7566330" lon="8.3817860">
        <ele>467.3400000</ele>
        <time>2010-03-12T08:29:44Z</time>
      </trkpt>
      <trkpt lat="45.7561710" lon="8.3812820">
        <ele>468.7800000</ele>
        <time>2010-03-12T08:30:02Z</time>
      </trkpt>
      <trkpt lat="45.7555640" lon="8.3806640">
        <ele>469.2600000</ele>
        <time>2010-03-12T08:30:22Z</time>
      </trkpt>
      <trkpt lat="45.7548710" lon="8.3803290">
        <ele>470.2200000</ele>
        <time>2010-03-12T08:30:41Z</time>
      </trkpt>
      <trkpt lat="45.7541610" lon="8.3803970">
        <ele>470.2200000</ele>
        <time>2010-03-12T08:31:00Z</time>
      </trkpt>
      <trkpt lat="45.7533920" lon="8.3805730">
        <ele>471.1800000</ele>
        <time>2010-03-12T08:31:20Z</time>
      </trkpt>
      <trkpt lat="45.7527340" lon="8.3807450">
        <ele>474.0700000</ele>
        <time>2010-03-12T08:31:38Z</time>
      </trkpt>
      <trkpt lat="45.7520710" lon="8.3809090">
        <ele>475.5100000</ele>
        <time>2010-03-12T08:31:56Z</time>
      </trkpt>
      <trkpt lat="45.7514100" lon="8.3810710">
        <ele>476.4700000</ele>
        <time>2010-03-12T08:32:13Z</time>
      </trkpt>
      <trkpt lat="45.7506150" lon="8.3812730">
        <ele>476.9500000</ele>
        <time>2010-03-12T08:32:33Z</time>
      </trkpt>
      <trkpt lat="45.7500030" lon="8.3814440">
        <ele>476.9500000</ele>
        <time>2010-03-12T08:32:49Z</time>
      </trkpt>
      <trkpt lat="45.7491350" lon="8.3816710">
        <ele>477.9100000</ele>
        <time>2010-03-12T08:33:10Z</time>
      </trkpt>
      <trkpt lat="45.7490080" lon="8.3817360">
        <ele>477.4300000</ele>
        <time>2010-03-12T08:33:13Z</time>
      </trkpt>
      <trkpt lat="45.7489670" lon="8.3817490">
        <ele>477.4300000</ele>
        <time>2010-03-12T08:33:14Z</time>
      </trkpt>
      <trkpt lat="45.7489290" lon="8.3817630">
        <ele>477.9100000</ele>
        <time>2010-03-12T08:33:15Z</time>
      </trkpt>
      <trkpt lat="45.7488150" lon="8.3818230">
        <ele>477.9100000</ele>
        <time>2010-03-12T08:33:18Z</time>
      </trkpt>
      <trkpt lat="45.7487760" lon="8.3818450">
        <ele>477.9100000</ele>
        <time>2010-03-12T08:33:19Z</time>
      </trkpt>
      <trkpt lat="45.7487380" lon="8.3818670">
        <ele>477.9100000</ele>
        <time>2010-03-12T08:33:20Z</time>
      </trkpt>
      <trkpt lat="45.7485430" lon="8.3819660">
        <ele>477.9100000</ele>
        <time>2010-03-12T08:33:25Z</time>
      </trkpt>
      <trkpt lat="45.7485030" lon="8.3819890">
        <ele>478.3900000</ele>
        <time>2010-03-12T08:33:26Z</time>
      </trkpt>
      <trkpt lat="45.7484630" lon="8.3820060">
        <ele>478.3900000</ele>
        <time>2010-03-12T08:33:27Z</time>
      </trkpt>
      <trkpt lat="45.7484230" lon="8.3820240">
        <ele>477.9100000</ele>
        <time>2010-03-12T08:33:28Z</time>
      </trkpt>
      <trkpt lat="45.7483830" lon="8.3820440">
        <ele>478.3900000</ele>
        <time>2010-03-12T08:33:29Z</time>
      </trkpt>
      <trkpt lat="45.7483410" lon="8.3820610">
        <ele>479.3500000</ele>
        <time>2010-03-12T08:33:30Z</time>
      </trkpt>
      <trkpt lat="45.7480870" lon="8.3821030">
        <ele>477.9100000</ele>
        <time>2010-03-12T08:33:36Z</time>
      </trkpt>
      <trkpt lat="45.7480440" lon="8.3820980">
        <ele>477.9100000</ele>
        <time>2010-03-12T08:33:37Z</time>
      </trkpt>
      <trkpt lat="45.7472830" lon="8.3819450">
        <ele>478.3900000</ele>
        <time>2010-03-12T08:33:54Z</time>
      </trkpt>
      <trkpt lat="45.7472400" lon="8.3819530">
        <ele>478.3900000</ele>
        <time>2010-03-12T08:33:55Z</time>
      </trkpt>
      <trkpt lat="45.7471990" lon="8.3819660">
        <ele>477.9100000</ele>
        <time>2010-03-12T08:33:56Z</time>
      </trkpt>
      <trkpt lat="45.7471590" lon="8.3819870">
        <ele>478.3900000</ele>
        <time>2010-03-12T08:33:57Z</time>
      </trkpt>
      <trkpt lat="45.7471200" lon="8.3820160">
        <ele>478.3900000</ele>
        <time>2010-03-12T08:33:58Z</time>
      </trkpt>
      <trkpt lat="45.7470850" lon="8.3820510">
        <ele>478.3900000</ele>
        <time>2010-03-12T08:33:59Z</time>
      </trkpt>
      <trkpt lat="45.7470540" lon="8.3820930">
        <ele>478.8700000</ele>
        <time>2010-03-12T08:34:00Z</time>
      </trkpt>
      <trkpt lat="45.7470260" lon="8.3821400">
        <ele>478.3900000</ele>
        <time>2010-03-12T08:34:01Z</time>
      </trkpt>
      <trkpt lat="45.7470020" lon="8.3821900">
        <ele>478.3900000</ele>
        <time>2010-03-12T08:34:02Z</time>
      </trkpt>
      <trkpt lat="45.7469820" lon="8.3822440">
        <ele>478.8700000</ele>
        <time>2010-03-12T08:34:03Z</time>
      </trkpt>
      <trkpt lat="45.7469630" lon="8.3823030">
        <ele>478.3900000</ele>
        <time>2010-03-12T08:34:04Z</time>
      </trkpt>
      <trkpt lat="45.7466930" lon="8.3832160">
        <ele>479.8400000</ele>
        <time>2010-03-12T08:34:20Z</time>
      </trkpt>
      <trkpt lat="45.7466690" lon="8.3832640">
        <ele>480.3200000</ele>
        <time>2010-03-12T08:34:21Z</time>
      </trkpt>
      <trkpt lat="45.7464740" lon="8.3835810">
        <ele>480.8000000</ele>
        <time>2010-03-12T08:34:28Z</time>
      </trkpt>
      <trkpt lat="45.7462580" lon="8.3838100">
        <ele>480.8000000</ele>
        <time>2010-03-12T08:34:34Z</time>
      </trkpt>
      <trkpt lat="45.7461810" lon="8.3838580">
        <ele>480.8000000</ele>
        <time>2010-03-12T08:34:36Z</time>
      </trkpt>
      <trkpt lat="45.7461410" lon="8.3838690">
        <ele>481.2800000</ele>
        <time>2010-03-12T08:34:37Z</time>
      </trkpt>
      <trkpt lat="45.7461000" lon="8.3838720">
        <ele>481.2800000</ele>
        <time>2010-03-12T08:34:38Z</time>
      </trkpt>
      <trkpt lat="45.7460170" lon="8.3838730">
        <ele>481.2800000</ele>
        <time>2010-03-12T08:34:40Z</time>
      </trkpt>
      <trkpt lat="45.7458870" lon="8.3838390">
        <ele>481.2800000</ele>
        <time>2010-03-12T08:34:43Z</time>
      </trkpt>
      <trkpt lat="45.7458450" lon="8.3838160">
        <ele>480.8000000</ele>
        <time>2010-03-12T08:34:44Z</time>
      </trkpt>
      <trkpt lat="45.7458050" lon="8.3837900">
        <ele>481.7600000</ele>
        <time>2010-03-12T08:34:45Z</time>
      </trkpt>
      <trkpt lat="45.7456350" lon="8.3836350">
        <ele>482.2400000</ele>
        <time>2010-03-12T08:34:50Z</time>
      </trkpt>
      <trkpt lat="45.7456000" lon="8.3836070">
        <ele>482.7200000</ele>
        <time>2010-03-12T08:34:51Z</time>
      </trkpt>
      <trkpt lat="45.7453810" lon="8.3834500">
        <ele>482.2400000</ele>
        <time>2010-03-12T08:34:57Z</time>
      </trkpt>
      <trkpt lat="45.7453470" lon="8.3834120">
        <ele>482.2400000</ele>
        <time>2010-03-12T08:34:58Z</time>
      </trkpt>
      <trkpt lat="45.7453190" lon="8.3833650">
        <ele>483.2000000</ele>
        <time>2010-03-12T08:34:59Z</time>
      </trkpt>
      <trkpt lat="45.7452960" lon="8.3833130">
        <ele>482.7200000</ele>
        <time>2010-03-12T08:35:00Z</time>
      </trkpt>
      <trkpt lat="45.7452800" lon="8.3832590">
        <ele>483.2000000</ele>
        <time>2010-03-12T08:35:01Z</time>
      </trkpt>
      <trkpt lat="45.7452730" lon="8.3832010">
        <ele>483.2000000</ele>
        <time>2010-03-12T08:35:02Z</time>
      </trkpt>
      <trkpt lat="45.7452690" lon="8.3831410">
        <ele>483.6800000</ele>
        <time>2010-03-12T08:35:03Z</time>
      </trkpt>
      <trkpt lat="45.7452700" lon="8.3830800">
        <ele>483.6800000</ele>
        <time>2010-03-12T08:35:04Z</time>
      </trkpt>
      <trkpt lat="45.7452730" lon="8.3830190">
        <ele>483.6800000</ele>
        <time>2010-03-12T08:35:05Z</time>
      </trkpt>
      <trkpt lat="45.7452810" lon="8.3828980">
        <ele>484.1600000</ele>
        <time>2010-03-12T08:35:07Z</time>
      </trkpt>
      <trkpt lat="45.7452830" lon="8.3828370">
        <ele>484.1600000</ele>
        <time>2010-03-12T08:35:08Z</time>
      </trkpt>
      <trkpt lat="45.7452930" lon="8.3826610">
        <ele>484.6400000</ele>
        <time>2010-03-12T08:35:11Z</time>
      </trkpt>
      <trkpt lat="45.7452910" lon="8.3826000">
        <ele>484.6400000</ele>
        <time>2010-03-12T08:35:12Z</time>
      </trkpt>
      <trkpt lat="45.7452720" lon="8.3824150">
        <ele>484.6400000</ele>
        <time>2010-03-12T08:35:15Z</time>
      </trkpt>
      <trkpt lat="45.7452610" lon="8.3823570">
        <ele>485.1200000</ele>
        <time>2010-03-12T08:35:16Z</time>
      </trkpt>
      <trkpt lat="45.7452480" lon="8.3823020">
        <ele>485.1200000</ele>
        <time>2010-03-12T08:35:17Z</time>
      </trkpt>
      <trkpt lat="45.7450110" lon="8.3818700">
        <ele>486.0800000</ele>
        <time>2010-03-12T08:35:26Z</time>
      </trkpt>
      <trkpt lat="45.7449860" lon="8.3818200">
        <ele>486.0800000</ele>
        <time>2010-03-12T08:35:27Z</time>
      </trkpt>
      <trkpt lat="45.7449660" lon="8.3817650">
        <ele>486.0800000</ele>
        <time>2010-03-12T08:35:28Z</time>
      </trkpt>
      <trkpt lat="45.7449270" lon="8.3815990">
        <ele>486.5600000</ele>
        <time>2010-03-12T08:35:31Z</time>
      </trkpt>
      <trkpt lat="45.7449230" lon="8.3815400">
        <ele>486.5600000</ele>
        <time>2010-03-12T08:35:32Z</time>
      </trkpt>
      <trkpt lat="45.7449580" lon="8.3805670">
        <ele>488.4900000</ele>
        <time>2010-03-12T08:35:48Z</time>
      </trkpt>
      <trkpt lat="45.7448590" lon="8.3794000">
        <ele>490.4100000</ele>
        <time>2010-03-12T08:36:08Z</time>
      </trkpt>
      <trkpt lat="45.7445740" lon="8.3784460">
        <ele>490.8900000</ele>
        <time>2010-03-12T08:36:25Z</time>
      </trkpt>
      <trkpt lat="45.7441910" lon="8.3775860">
        <ele>491.3700000</ele>
        <time>2010-03-12T08:36:42Z</time>
      </trkpt>
      <trkpt lat="45.7441560" lon="8.3774780">
        <ele>491.8500000</ele>
        <time>2010-03-12T08:36:44Z</time>
      </trkpt>
      <trkpt lat="45.7440140" lon="8.3765770">
        <ele>494.2600000</ele>
        <time>2010-03-12T08:37:01Z</time>
      </trkpt>
      <trkpt lat="45.7439290" lon="8.3758550">
        <ele>496.1800000</ele>
        <time>2010-03-12T08:37:15Z</time>
      </trkpt>
      <trkpt lat="45.7439300" lon="8.3752070">
        <ele>499.0600000</ele>
        <time>2010-03-12T08:37:28Z</time>
      </trkpt>
      <trkpt lat="45.7441520" lon="8.3744910">
        <ele>501.9500000</ele>
        <time>2010-03-12T08:37:43Z</time>
      </trkpt>
      <trkpt lat="45.7444490" lon="8.3737710">
        <ele>504.8300000</ele>
        <time>2010-03-12T08:37:59Z</time>
      </trkpt>
      <trkpt lat="45.7446890" lon="8.3727820">
        <ele>507.7100000</ele>
        <time>2010-03-12T08:38:19Z</time>
      </trkpt>
      <trkpt lat="45.7449550" lon="8.3724080">
        <ele>509.6400000</ele>
        <time>2010-03-12T08:38:30Z</time>
      </trkpt>
      <trkpt lat="45.7451610" lon="8.3720300">
        <ele>511.0800000</ele>
        <time>2010-03-12T08:38:41Z</time>
      </trkpt>
      <trkpt lat="45.7449270" lon="8.3716730">
        <ele>512.5200000</ele>
        <time>2010-03-12T08:38:51Z</time>
      </trkpt>
      <trkpt lat="45.7445270" lon="8.3718560">
        <ele>514.4400000</ele>
        <time>2010-03-12T08:39:05Z</time>
      </trkpt>
      <trkpt lat="45.7442420" lon="8.3717570">
        <ele>516.8500000</ele>
        <time>2010-03-12T08:39:17Z</time>
      </trkpt>
      <trkpt lat="45.7441700" lon="8.3711280">
        <ele>519.7300000</ele>
        <time>2010-03-12T08:39:34Z</time>
      </trkpt>
      <trkpt lat="45.7439960" lon="8.3705990">
        <ele>522.1300000</ele>
        <time>2010-03-12T08:39:49Z</time>
      </trkpt>
      <trkpt lat="45.7439220" lon="8.3700180">
        <ele>524.5400000</ele>
        <time>2010-03-12T08:40:05Z</time>
      </trkpt>
      <trkpt lat="45.7439720" lon="8.3694330">
        <ele>526.4600000</ele>
        <time>2010-03-12T08:40:21Z</time>
      </trkpt>
      <trkpt lat="45.7438620" lon="8.3688910">
        <ele>527.9000000</ele>
        <time>2010-03-12T08:40:36Z</time>
      </trkpt>
      <trkpt lat="45.7438470" lon="8.3687890">
        <ele>528.3800000</ele>
        <time>2010-03-12T08:40:39Z</time>
      </trkpt>
      <trkpt lat="45.7438480" lon="8.3687560">
        <ele>527.9000000</ele>
        <time>2010-03-12T08:40:40Z</time>
      </trkpt>
      <trkpt lat="45.7438450" lon="8.3687220">
        <ele>529.3400000</ele>
        <time>2010-03-12T08:40:41Z</time>
      </trkpt>
      <trkpt lat="45.7438360" lon="8.3686840">
        <ele>528.8600000</ele>
        <time>2010-03-12T08:40:42Z</time>
      </trkpt>
      <trkpt lat="45.7438260" lon="8.3686450">
        <ele>529.3400000</ele>
        <time>2010-03-12T08:40:43Z</time>
      </trkpt>
      <trkpt lat="45.7437340" lon="8.3680930">
        <ele>531.2700000</ele>
        <time>2010-03-12T08:40:58Z</time>
      </trkpt>
      <trkpt lat="45.7437180" lon="8.3673980">
        <ele>533.6700000</ele>
        <time>2010-03-12T08:41:16Z</time>
      </trkpt>
      <trkpt lat="45.7437840" lon="8.3667170">
        <ele>536.0700000</ele>
        <time>2010-03-12T08:41:33Z</time>
      </trkpt>
      <trkpt lat="45.7439760" lon="8.3658930">
        <ele>537.9900000</ele>
        <time>2010-03-12T08:41:54Z</time>
      </trkpt>
      <trkpt lat="45.7442200" lon="8.3654050">
        <ele>539.9200000</ele>
        <time>2010-03-12T08:42:09Z</time>
      </trkpt>
      <trkpt lat="45.7442890" lon="8.3648290">
        <ele>541.8400000</ele>
        <time>2010-03-12T08:42:24Z</time>
      </trkpt>
      <trkpt lat="45.7439990" lon="8.3644890">
        <ele>543.7600000</ele>
        <time>2010-03-12T08:42:38Z</time>
      </trkpt>
      <trkpt lat="45.7439150" lon="8.3640230">
        <ele>546.6500000</ele>
        <time>2010-03-12T08:42:51Z</time>
      </trkpt>
      <trkpt lat="45.7440950" lon="8.3634790">
        <ele>549.5300000</ele>
        <time>2010-03-12T08:43:07Z</time>
      </trkpt>
      <trkpt lat="45.7442240" lon="8.3630700">
        <ele>550.9700000</ele>
        <time>2010-03-12T08:43:19Z</time>
      </trkpt>
      <trkpt lat="45.7441630" lon="8.3626080">
        <ele>551.9300000</ele>
        <time>2010-03-12T08:43:31Z</time>
      </trkpt>
      <trkpt lat="45.7439360" lon="8.3622900">
        <ele>554.3400000</ele>
        <time>2010-03-12T08:43:43Z</time>
      </trkpt>
      <trkpt lat="45.7436250" lon="8.3621550">
        <ele>556.2600000</ele>
        <time>2010-03-12T08:43:55Z</time>
      </trkpt>
      <trkpt lat="45.7433010" lon="8.3620410">
        <ele>557.7000000</ele>
        <time>2010-03-12T08:44:08Z</time>
      </trkpt>
      <trkpt lat="45.7429340" lon="8.3619160">
        <ele>559.6200000</ele>
        <time>2010-03-12T08:44:22Z</time>
      </trkpt>
      <trkpt lat="45.7426700" lon="8.3617690">
        <ele>561.5500000</ele>
        <time>2010-03-12T08:44:32Z</time>
      </trkpt>
      <trkpt lat="45.7426560" lon="8.3617490">
        <ele>561.0700000</ele>
        <time>2010-03-12T08:44:33Z</time>
      </trkpt>
      <trkpt lat="45.7426380" lon="8.3617300">
        <ele>560.5900000</ele>
        <time>2010-03-12T08:44:34Z</time>
      </trkpt>
      <trkpt lat="45.7426160" lon="8.3617160">
        <ele>561.5500000</ele>
        <time>2010-03-12T08:44:35Z</time>
      </trkpt>
      <trkpt lat="45.7425890" lon="8.3617030">
        <ele>561.5500000</ele>
        <time>2010-03-12T08:44:36Z</time>
      </trkpt>
      <trkpt lat="45.7425630" lon="8.3616860">
        <ele>561.5500000</ele>
        <time>2010-03-12T08:44:37Z</time>
      </trkpt>
      <trkpt lat="45.7425370" lon="8.3616640">
        <ele>561.5500000</ele>
        <time>2010-03-12T08:44:38Z</time>
      </trkpt>
      <trkpt lat="45.7425110" lon="8.3616360">
        <ele>562.0300000</ele>
        <time>2010-03-12T08:44:39Z</time>
      </trkpt>
      <trkpt lat="45.7424860" lon="8.3616060">
        <ele>562.0300000</ele>
        <time>2010-03-12T08:44:40Z</time>
      </trkpt>
      <trkpt lat="45.7424600" lon="8.3615780">
        <ele>562.5100000</ele>
        <time>2010-03-12T08:44:41Z</time>
      </trkpt>
      <trkpt lat="45.7424340" lon="8.3615500">
        <ele>562.5100000</ele>
        <time>2010-03-12T08:44:42Z</time>
      </trkpt>
      <trkpt lat="45.7424090" lon="8.3615210">
        <ele>562.5100000</ele>
        <time>2010-03-12T08:44:43Z</time>
      </trkpt>
      <trkpt lat="45.7419990" lon="8.3611320">
        <ele>564.4300000</ele>
        <time>2010-03-12T08:45:00Z</time>
      </trkpt>
      <trkpt lat="45.7419190" lon="8.3610400">
        <ele>564.4300000</ele>
        <time>2010-03-12T08:45:04Z</time>
      </trkpt>
      <trkpt lat="45.7419040" lon="8.3610110">
        <ele>563.9500000</ele>
        <time>2010-03-12T08:45:05Z</time>
      </trkpt>
      <trkpt lat="45.7418830" lon="8.3609880">
        <ele>563.9500000</ele>
        <time>2010-03-12T08:45:06Z</time>
      </trkpt>
      <trkpt lat="45.7418600" lon="8.3609680">
        <ele>564.4300000</ele>
        <time>2010-03-12T08:45:07Z</time>
      </trkpt>
      <trkpt lat="45.7418370" lon="8.3609460">
        <ele>564.4300000</ele>
        <time>2010-03-12T08:45:08Z</time>
      </trkpt>
      <trkpt lat="45.7418150" lon="8.3609200">
        <ele>564.4300000</ele>
        <time>2010-03-12T08:45:09Z</time>
      </trkpt>
      <trkpt lat="45.7417960" lon="8.3608910">
        <ele>564.4300000</ele>
        <time>2010-03-12T08:45:10Z</time>
      </trkpt>
      <trkpt lat="45.7416170" lon="8.3603410">
        <ele>565.8700000</ele>
        <time>2010-03-12T08:45:25Z</time>
      </trkpt>
      <trkpt lat="45.7416190" lon="8.3599310">
        <ele>565.3900000</ele>
        <time>2010-03-12T08:45:38Z</time>
      </trkpt>
      <trkpt lat="45.7416210" lon="8.3598430">
        <ele>563.9500000</ele>
        <time>2010-03-12T08:45:41Z</time>
      </trkpt>
      <trkpt lat="45.7416280" lon="8.3595180">
        <ele>560.5900000</ele>
        <time>2010-03-12T08:45:52Z</time>
      </trkpt>
      <trkpt lat="45.7416320" lon="8.3593710">
        <ele>558.6600000</ele>
        <time>2010-03-12T08:45:57Z</time>
      </trkpt>
      <trkpt lat="45.7416320" lon="8.3593410">
        <ele>558.1800000</ele>
        <time>2010-03-12T08:45:59Z</time>
      </trkpt>
      <trkpt lat="45.7416320" lon="8.3593410">
        <ele>555.3000000</ele>
        <time>2010-03-12T08:46:03Z</time>
      </trkpt>
      <trkpt lat="45.7408370" lon="8.3573050">
        <ele>553.3800000</ele>
        <time>2010-03-12T08:46:06Z</time>
      </trkpt>
      <trkpt lat="45.7405220" lon="8.3564840">
        <ele>550.4900000</ele>
        <time>2010-03-12T08:46:14Z</time>
      </trkpt>
      <trkpt lat="45.7402800" lon="8.3558620">
        <ele>547.1300000</ele>
        <time>2010-03-12T08:46:20Z</time>
      </trkpt>
      <trkpt lat="45.7401090" lon="8.3554200">
        <ele>544.7200000</ele>
        <time>2010-03-12T08:46:24Z</time>
      </trkpt>
      <trkpt lat="45.7400400" lon="8.3551850">
        <ele>543.2800000</ele>
        <time>2010-03-12T08:46:26Z</time>
      </trkpt>
      <trkpt lat="45.7400190" lon="8.3550640">
        <ele>542.3200000</ele>
        <time>2010-03-12T08:46:27Z</time>
      </trkpt>
      <trkpt lat="45.7400140" lon="8.3549390">
        <ele>541.8400000</ele>
        <time>2010-03-12T08:46:28Z</time>
      </trkpt>
      <trkpt lat="45.7400270" lon="8.3548100">
        <ele>541.3600000</ele>
        <time>2010-03-12T08:46:29Z</time>
      </trkpt>
      <trkpt lat="45.7400570" lon="8.3546890">
        <ele>541.3600000</ele>
        <time>2010-03-12T08:46:30Z</time>
      </trkpt>
      <trkpt lat="45.7400950" lon="8.3545790">
        <ele>541.3600000</ele>
        <time>2010-03-12T08:46:31Z</time>
      </trkpt>
      <trkpt lat="45.7401190" lon="8.3544750">
        <ele>541.8400000</ele>
        <time>2010-03-12T08:46:32Z</time>
      </trkpt>
      <trkpt lat="45.7401160" lon="8.3543800">
        <ele>542.3200000</ele>
        <time>2010-03-12T08:46:33Z</time>
      </trkpt>
      <trkpt lat="45.7400930" lon="8.3543010">
        <ele>543.2800000</ele>
        <time>2010-03-12T08:46:34Z</time>
      </trkpt>
      <trkpt lat="45.7400650" lon="8.3542350">
        <ele>544.2400000</ele>
        <time>2010-03-12T08:46:35Z</time>
      </trkpt>
      <trkpt lat="45.7400400" lon="8.3541820">
        <ele>544.7200000</ele>
        <time>2010-03-12T08:46:36Z</time>
      </trkpt>
      <trkpt lat="45.7399990" lon="8.3537640">
        <ele>547.1300000</ele>
        <time>2010-03-12T08:46:46Z</time>
      </trkpt>
      <trkpt lat="45.7402650" lon="8.3536500">
        <ele>549.5300000</ele>
        <time>2010-03-12T08:46:56Z</time>
      </trkpt>
      <trkpt lat="45.7405690" lon="8.3537640">
        <ele>551.4500000</ele>
        <time>2010-03-12T08:47:08Z</time>
      </trkpt>
      <trkpt lat="45.7408680" lon="8.3538620">
        <ele>554.3400000</ele>
        <time>2010-03-12T08:47:21Z</time>
      </trkpt>
      <trkpt lat="45.7410930" lon="8.3539000">
        <ele>556.7400000</ele>
        <time>2010-03-12T08:47:32Z</time>
      </trkpt>
      <trkpt lat="45.7413000" lon="8.3537830">
        <ele>557.7000000</ele>
        <time>2010-03-12T08:47:43Z</time>
      </trkpt>
      <trkpt lat="45.7415060" lon="8.3538990">
        <ele>560.1100000</ele>
        <time>2010-03-12T08:47:54Z</time>
      </trkpt>
      <trkpt lat="45.7417650" lon="8.3541370">
        <ele>568.7600000</ele>
        <time>2010-03-12T08:48:08Z</time>
      </trkpt>
      <trkpt lat="45.7417840" lon="8.3541560">
        <ele>562.5100000</ele>
        <time>2010-03-12T08:48:09Z</time>
      </trkpt>
      <trkpt lat="45.7420120" lon="8.3543820">
        <ele>564.4300000</ele>
        <time>2010-03-12T08:48:21Z</time>
      </trkpt>
      <trkpt lat="45.7422850" lon="8.3545170">
        <ele>566.3500000</ele>
        <time>2010-03-12T08:48:34Z</time>
      </trkpt>
      <trkpt lat="45.7424860" lon="8.3546160">
        <ele>568.2800000</ele>
        <time>2010-03-12T08:48:46Z</time>
      </trkpt>
      <trkpt lat="45.7426510" lon="8.3546560">
        <ele>569.2400000</ele>
        <time>2010-03-12T08:48:54Z</time>
      </trkpt>
      <trkpt lat="45.7426680" lon="8.3546470">
        <ele>569.7200000</ele>
        <time>2010-03-12T08:48:55Z</time>
      </trkpt>
      <trkpt lat="45.7426840" lon="8.3546350">
        <ele>569.7200000</ele>
        <time>2010-03-12T08:48:56Z</time>
      </trkpt>
      <trkpt lat="45.7427010" lon="8.3546270">
        <ele>569.2400000</ele>
        <time>2010-03-12T08:48:57Z</time>
      </trkpt>
      <trkpt lat="45.7427200" lon="8.3546210">
        <ele>569.2400000</ele>
        <time>2010-03-12T08:48:58Z</time>
      </trkpt>
      <trkpt lat="45.7427370" lon="8.3546190">
        <ele>569.2400000</ele>
        <time>2010-03-12T08:48:59Z</time>
      </trkpt>
      <trkpt lat="45.7427530" lon="8.3546170">
        <ele>569.7200000</ele>
        <time>2010-03-12T08:49:00Z</time>
      </trkpt>
      <trkpt lat="45.7429700" lon="8.3545980">
        <ele>571.1600000</ele>
        <time>2010-03-12T08:49:11Z</time>
      </trkpt>
      <trkpt lat="45.7429820" lon="8.3545790">
        <ele>571.1600000</ele>
        <time>2010-03-12T08:49:12Z</time>
      </trkpt>
      <trkpt lat="45.7429960" lon="8.3545630">
        <ele>571.1600000</ele>
        <time>2010-03-12T08:49:13Z</time>
      </trkpt>
      <trkpt lat="45.7430070" lon="8.3545340">
        <ele>572.1200000</ele>
        <time>2010-03-12T08:49:14Z</time>
      </trkpt>
      <trkpt lat="45.7430140" lon="8.3544990">
        <ele>571.6400000</ele>
        <time>2010-03-12T08:49:15Z</time>
      </trkpt>
      <trkpt lat="45.7430210" lon="8.3544560">
        <ele>572.1200000</ele>
        <time>2010-03-12T08:49:16Z</time>
      </trkpt>
      <trkpt lat="45.7429080" lon="8.3541170">
        <ele>573.5600000</ele>
        <time>2010-03-12T08:49:27Z</time>
      </trkpt>
      <trkpt lat="45.7426560" lon="8.3539550">
        <ele>575.4900000</ele>
        <time>2010-03-12T08:49:40Z</time>
      </trkpt>
      <trkpt lat="45.7426290" lon="8.3536630">
        <ele>577.4100000</ele>
        <time>2010-03-12T08:49:52Z</time>
      </trkpt>
      <trkpt lat="45.7426350" lon="8.3533210">
        <ele>579.3300000</ele>
        <time>2010-03-12T08:50:05Z</time>
      </trkpt>
      <trkpt lat="45.7424190" lon="8.3529800">
        <ele>580.7700000</ele>
        <time>2010-03-12T08:50:20Z</time>
      </trkpt>
      <trkpt lat="45.7422950" lon="8.3528030">
        <ele>581.7300000</ele>
        <time>2010-03-12T08:50:29Z</time>
      </trkpt>
      <trkpt lat="45.7423960" lon="8.3525130">
        <ele>584.1400000</ele>
        <time>2010-03-12T08:50:40Z</time>
      </trkpt>
      <trkpt lat="45.7425500" lon="8.3522780">
        <ele>585.5800000</ele>
        <time>2010-03-12T08:50:51Z</time>
      </trkpt>
      <trkpt lat="45.7427740" lon="8.3520050">
        <ele>587.9800000</ele>
        <time>2010-03-12T08:51:05Z</time>
      </trkpt>
      <trkpt lat="45.7429940" lon="8.3518740">
        <ele>589.9100000</ele>
        <time>2010-03-12T08:51:17Z</time>
      </trkpt>
      <trkpt lat="45.7430490" lon="8.3515700">
        <ele>590.3900000</ele>
        <time>2010-03-12T08:51:26Z</time>
      </trkpt>
      <trkpt lat="45.7430410" lon="8.3515400">
        <ele>590.3900000</ele>
        <time>2010-03-12T08:51:27Z</time>
      </trkpt>
      <trkpt lat="45.7430320" lon="8.3515120">
        <ele>590.3900000</ele>
        <time>2010-03-12T08:51:28Z</time>
      </trkpt>
      <trkpt lat="45.7430220" lon="8.3514850">
        <ele>590.8700000</ele>
        <time>2010-03-12T08:51:29Z</time>
      </trkpt>
      <trkpt lat="45.7430110" lon="8.3514610">
        <ele>590.8700000</ele>
        <time>2010-03-12T08:51:30Z</time>
      </trkpt>
      <trkpt lat="45.7429820" lon="8.3514340">
        <ele>590.8700000</ele>
        <time>2010-03-12T08:51:32Z</time>
      </trkpt>
      <trkpt lat="45.7429560" lon="8.3514130">
        <ele>590.8700000</ele>
        <time>2010-03-12T08:51:33Z</time>
      </trkpt>
      <trkpt lat="45.7429300" lon="8.3513970">
        <ele>590.8700000</ele>
        <time>2010-03-12T08:51:34Z</time>
      </trkpt>
      <trkpt lat="45.7429050" lon="8.3513840">
        <ele>590.8700000</ele>
        <time>2010-03-12T08:51:35Z</time>
      </trkpt>
      <trkpt lat="45.7428810" lon="8.3513780">
        <ele>590.8700000</ele>
        <time>2010-03-12T08:51:36Z</time>
      </trkpt>
      <trkpt lat="45.7428570" lon="8.3513750">
        <ele>591.3500000</ele>
        <time>2010-03-12T08:51:37Z</time>
      </trkpt>
      <trkpt lat="45.7428340" lon="8.3513730">
        <ele>590.8700000</ele>
        <time>2010-03-12T08:51:38Z</time>
      </trkpt>
      <trkpt lat="45.7428150" lon="8.3513710">
        <ele>591.8300000</ele>
        <time>2010-03-12T08:51:39Z</time>
      </trkpt>
      <trkpt lat="45.7427960" lon="8.3513680">
        <ele>590.8700000</ele>
        <time>2010-03-12T08:51:40Z</time>
      </trkpt>
      <trkpt lat="45.7425010" lon="8.3512940">
        <ele>592.7900000</ele>
        <time>2010-03-12T08:51:53Z</time>
      </trkpt>
      <trkpt lat="45.7421860" lon="8.3512120">
        <ele>593.7500000</ele>
        <time>2010-03-12T08:52:07Z</time>
      </trkpt>
      <trkpt lat="45.7418980" lon="8.3509550">
        <ele>594.2300000</ele>
        <time>2010-03-12T08:52:22Z</time>
      </trkpt>
      <trkpt lat="45.7420660" lon="8.3506490">
        <ele>594.7100000</ele>
        <time>2010-03-12T08:52:33Z</time>
      </trkpt>
      <trkpt lat="45.7424260" lon="8.3503190">
        <ele>596.1500000</ele>
        <time>2010-03-12T08:52:49Z</time>
      </trkpt>
      <trkpt lat="45.7427360" lon="8.3502280">
        <ele>596.6400000</ele>
        <time>2010-03-12T08:53:02Z</time>
      </trkpt>
      <trkpt lat="45.7430520" lon="8.3501780">
        <ele>598.5600000</ele>
        <time>2010-03-12T08:53:15Z</time>
      </trkpt>
      <trkpt lat="45.7433730" lon="8.3498220">
        <ele>600.4800000</ele>
        <time>2010-03-12T08:53:30Z</time>
      </trkpt>
      <trkpt lat="45.7435290" lon="8.3497090">
        <ele>600.4800000</ele>
        <time>2010-03-12T08:53:37Z</time>
      </trkpt>
      <trkpt lat="45.7435480" lon="8.3496780">
        <ele>600.4800000</ele>
        <time>2010-03-12T08:53:38Z</time>
      </trkpt>
      <trkpt lat="45.7435680" lon="8.3496490">
        <ele>600.9600000</ele>
        <time>2010-03-12T08:53:39Z</time>
      </trkpt>
      <trkpt lat="45.7435850" lon="8.3496190">
        <ele>600.4800000</ele>
        <time>2010-03-12T08:53:40Z</time>
      </trkpt>
      <trkpt lat="45.7436010" lon="8.3495870">
        <ele>600.9600000</ele>
        <time>2010-03-12T08:53:41Z</time>
      </trkpt>
      <trkpt lat="45.7438360" lon="8.3491520">
        <ele>600.9600000</ele>
        <time>2010-03-12T08:53:55Z</time>
      </trkpt>
      <trkpt lat="45.7437710" lon="8.3487570">
        <ele>601.4400000</ele>
        <time>2010-03-12T08:54:06Z</time>
      </trkpt>
      <trkpt lat="45.7433310" lon="8.3486440">
        <ele>601.9200000</ele>
        <time>2010-03-12T08:54:21Z</time>
      </trkpt>
      <trkpt lat="45.7430210" lon="8.3484000">
        <ele>602.8800000</ele>
        <time>2010-03-12T08:54:34Z</time>
      </trkpt>
      <trkpt lat="45.7428410" lon="8.3479360">
        <ele>606.2500000</ele>
        <time>2010-03-12T08:54:50Z</time>
      </trkpt>
      <trkpt lat="45.7428320" lon="8.3478770">
        <ele>606.2500000</ele>
        <time>2010-03-12T08:54:52Z</time>
      </trkpt>
      <trkpt lat="45.7430450" lon="8.3476090">
        <ele>609.1300000</ele>
        <time>2010-03-12T08:55:06Z</time>
      </trkpt>
      <trkpt lat="45.7430610" lon="8.3475840">
        <ele>609.1300000</ele>
        <time>2010-03-12T08:55:07Z</time>
      </trkpt>
      <trkpt lat="45.7432920" lon="8.3472210">
        <ele>611.0600000</ele>
        <time>2010-03-12T08:55:23Z</time>
      </trkpt>
      <trkpt lat="45.7435810" lon="8.3468340">
        <ele>612.5000000</ele>
        <time>2010-03-12T08:55:39Z</time>
      </trkpt>
      <trkpt lat="45.7435650" lon="8.3464660">
        <ele>612.0200000</ele>
        <time>2010-03-12T08:55:51Z</time>
      </trkpt>
      <trkpt lat="45.7432810" lon="8.3460990">
        <ele>612.5000000</ele>
        <time>2010-03-12T08:56:05Z</time>
      </trkpt>
      <trkpt lat="45.7430470" lon="8.3455560">
        <ele>614.9000000</ele>
        <time>2010-03-12T08:56:22Z</time>
      </trkpt>
      <trkpt lat="45.7431720" lon="8.3451120">
        <ele>617.7800000</ele>
        <time>2010-03-12T08:56:36Z</time>
      </trkpt>
      <trkpt lat="45.7432820" lon="8.3445950">
        <ele>618.7500000</ele>
        <time>2010-03-12T08:56:51Z</time>
      </trkpt>
      <trkpt lat="45.7434800" lon="8.3441680">
        <ele>619.2300000</ele>
        <time>2010-03-12T08:57:05Z</time>
      </trkpt>
      <trkpt lat="45.7436560" lon="8.3437620">
        <ele>618.2600000</ele>
        <time>2010-03-12T08:57:16Z</time>
      </trkpt>
      <trkpt lat="45.7439080" lon="8.3436290">
        <ele>618.7500000</ele>
        <time>2010-03-12T08:57:25Z</time>
      </trkpt>
      <trkpt lat="45.7442040" lon="8.3437790">
        <ele>621.1500000</ele>
        <time>2010-03-12T08:57:39Z</time>
      </trkpt>
      <trkpt lat="45.7445000" lon="8.3438390">
        <ele>623.5500000</ele>
        <time>2010-03-12T08:57:55Z</time>
      </trkpt>
      <trkpt lat="45.7447870" lon="8.3439110">
        <ele>626.4400000</ele>
        <time>2010-03-12T08:58:10Z</time>
      </trkpt>
      <trkpt lat="45.7448940" lon="8.3440140">
        <ele>627.4000000</ele>
        <time>2010-03-12T08:58:17Z</time>
      </trkpt>
      <trkpt lat="45.7449120" lon="8.3440200">
        <ele>627.8800000</ele>
        <time>2010-03-12T08:58:18Z</time>
      </trkpt>
      <trkpt lat="45.7449300" lon="8.3440240">
        <ele>627.8800000</ele>
        <time>2010-03-12T08:58:19Z</time>
      </trkpt>
      <trkpt lat="45.7450130" lon="8.3440410">
        <ele>628.8400000</ele>
        <time>2010-03-12T08:58:32Z</time>
      </trkpt>
      <trkpt lat="45.7450260" lon="8.3440210">
        <ele>628.8400000</ele>
        <time>2010-03-12T08:58:46Z</time>
      </trkpt>
      <trkpt lat="45.7450400" lon="8.3440030">
        <ele>628.3600000</ele>
        <time>2010-03-12T08:58:47Z</time>
      </trkpt>
      <trkpt lat="45.7451850" lon="8.3436520">
        <ele>631.2400000</ele>
        <time>2010-03-12T08:59:01Z</time>
      </trkpt>
      <trkpt lat="45.7452590" lon="8.3434610">
        <ele>632.2000000</ele>
        <time>2010-03-12T08:59:09Z</time>
      </trkpt>
      <trkpt lat="45.7452750" lon="8.3434500">
        <ele>632.6800000</ele>
        <time>2010-03-12T08:59:10Z</time>
      </trkpt>
      <trkpt lat="45.7455130" lon="8.3434940">
        <ele>634.6100000</ele>
        <time>2010-03-12T08:59:23Z</time>
      </trkpt>
      <trkpt lat="45.7457620" lon="8.3435980">
        <ele>637.0100000</ele>
        <time>2010-03-12T08:59:36Z</time>
      </trkpt>
      <trkpt lat="45.7458810" lon="8.3433230">
        <ele>639.4100000</ele>
        <time>2010-03-12T08:59:48Z</time>
      </trkpt>
      <trkpt lat="45.7458830" lon="8.3429290">
        <ele>641.8200000</ele>
        <time>2010-03-12T09:00:03Z</time>
      </trkpt>
      <trkpt lat="45.7459680" lon="8.3425200">
        <ele>644.2200000</ele>
        <time>2010-03-12T09:00:19Z</time>
      </trkpt>
      <trkpt lat="45.7460740" lon="8.3421730">
        <ele>645.1800000</ele>
        <time>2010-03-12T09:00:33Z</time>
      </trkpt>
      <trkpt lat="45.7462390" lon="8.3419050">
        <ele>647.1000000</ele>
        <time>2010-03-12T09:00:46Z</time>
      </trkpt>
      <trkpt lat="45.7465450" lon="8.3419910">
        <ele>648.5500000</ele>
        <time>2010-03-12T09:01:00Z</time>
      </trkpt>
      <trkpt lat="45.7468400" lon="8.3422370">
        <ele>649.9900000</ele>
        <time>2010-03-12T09:01:15Z</time>
      </trkpt>
      <trkpt lat="45.7470800" lon="8.3425750">
        <ele>649.5100000</ele>
        <time>2010-03-12T09:01:29Z</time>
      </trkpt>
      <trkpt lat="45.7471740" lon="8.3429500">
        <ele>649.5100000</ele>
        <time>2010-03-12T09:01:40Z</time>
      </trkpt>
      <trkpt lat="45.7473490" lon="8.3436180">
        <ele>649.9900000</ele>
        <time>2010-03-12T09:01:58Z</time>
      </trkpt>
      <trkpt lat="45.7475170" lon="8.3439820">
        <ele>650.9500000</ele>
        <time>2010-03-12T09:02:10Z</time>
      </trkpt>
      <trkpt lat="45.7477680" lon="8.3440930">
        <ele>651.4300000</ele>
        <time>2010-03-12T09:02:21Z</time>
      </trkpt>
      <trkpt lat="45.7480100" lon="8.3436700">
        <ele>652.3900000</ele>
        <time>2010-03-12T09:02:35Z</time>
      </trkpt>
      <trkpt lat="45.7482310" lon="8.3432350">
        <ele>652.3900000</ele>
        <time>2010-03-12T09:02:48Z</time>
      </trkpt>
      <trkpt lat="45.7485250" lon="8.3426650">
        <ele>652.3900000</ele>
        <time>2010-03-12T09:03:04Z</time>
      </trkpt>
      <trkpt lat="45.7488680" lon="8.3421610">
        <ele>652.8700000</ele>
        <time>2010-03-12T09:03:20Z</time>
      </trkpt>
      <trkpt lat="45.7492220" lon="8.3420010">
        <ele>653.8300000</ele>
        <time>2010-03-12T09:03:33Z</time>
      </trkpt>
      <trkpt lat="45.7495390" lon="8.3420630">
        <ele>654.3100000</ele>
        <time>2010-03-12T09:03:44Z</time>
      </trkpt>
      <trkpt lat="45.7496790" lon="8.3422620">
        <ele>655.7600000</ele>
        <time>2010-03-12T09:03:50Z</time>
      </trkpt>
      <trkpt lat="45.7496890" lon="8.3422940">
        <ele>655.7600000</ele>
        <time>2010-03-12T09:03:51Z</time>
      </trkpt>
      <trkpt lat="45.7496970" lon="8.3423230">
        <ele>655.7600000</ele>
        <time>2010-03-12T09:03:52Z</time>
      </trkpt>
      <trkpt lat="45.7497370" lon="8.3424040">
        <ele>656.2400000</ele>
        <time>2010-03-12T09:03:57Z</time>
      </trkpt>
      <trkpt lat="45.7497690" lon="8.3424290">
        <ele>655.7600000</ele>
        <time>2010-03-12T09:03:58Z</time>
      </trkpt>
      <trkpt lat="45.7498070" lon="8.3424430">
        <ele>656.2400000</ele>
        <time>2010-03-12T09:03:59Z</time>
      </trkpt>
      <trkpt lat="45.7498430" lon="8.3424520">
        <ele>655.7600000</ele>
        <time>2010-03-12T09:04:00Z</time>
      </trkpt>
      <trkpt lat="45.7498770" lon="8.3424510">
        <ele>656.2400000</ele>
        <time>2010-03-12T09:04:01Z</time>
      </trkpt>
      <trkpt lat="45.7499050" lon="8.3424390">
        <ele>656.7200000</ele>
        <time>2010-03-12T09:04:02Z</time>
      </trkpt>
      <trkpt lat="45.7499310" lon="8.3424210">
        <ele>656.7200000</ele>
        <time>2010-03-12T09:04:03Z</time>
      </trkpt>
      <trkpt lat="45.7499500" lon="8.3423980">
        <ele>657.2000000</ele>
        <time>2010-03-12T09:04:04Z</time>
      </trkpt>
      <trkpt lat="45.7499670" lon="8.3423680">
        <ele>656.7200000</ele>
        <time>2010-03-12T09:04:05Z</time>
      </trkpt>
      <trkpt lat="45.7500750" lon="8.3421280">
        <ele>657.6800000</ele>
        <time>2010-03-12T09:04:12Z</time>
      </trkpt>
      <trkpt lat="45.7500920" lon="8.3421030">
        <ele>657.6800000</ele>
        <time>2010-03-12T09:04:13Z</time>
      </trkpt>
      <trkpt lat="45.7501090" lon="8.3420750">
        <ele>657.6800000</ele>
        <time>2010-03-12T09:04:14Z</time>
      </trkpt>
      <trkpt lat="45.7501310" lon="8.3420520">
        <ele>657.6800000</ele>
        <time>2010-03-12T09:04:15Z</time>
      </trkpt>
      <trkpt lat="45.7501560" lon="8.3420390">
        <ele>657.6800000</ele>
        <time>2010-03-12T09:04:16Z</time>
      </trkpt>
      <trkpt lat="45.7501830" lon="8.3420380">
        <ele>657.6800000</ele>
        <time>2010-03-12T09:04:17Z</time>
      </trkpt>
      <trkpt lat="45.7502120" lon="8.3420440">
        <ele>658.1600000</ele>
        <time>2010-03-12T09:04:18Z</time>
      </trkpt>
      <trkpt lat="45.7502420" lon="8.3420560">
        <ele>658.1600000</ele>
        <time>2010-03-12T09:04:19Z</time>
      </trkpt>
      <trkpt lat="45.7502720" lon="8.3420740">
        <ele>658.1600000</ele>
        <time>2010-03-12T09:04:20Z</time>
      </trkpt>
      <trkpt lat="45.7502990" lon="8.3420940">
        <ele>658.6400000</ele>
        <time>2010-03-12T09:04:21Z</time>
      </trkpt>
      <trkpt lat="45.7503270" lon="8.3421140">
        <ele>658.6400000</ele>
        <time>2010-03-12T09:04:22Z</time>
      </trkpt>
      <trkpt lat="45.7503550" lon="8.3421330">
        <ele>658.1600000</ele>
        <time>2010-03-12T09:04:23Z</time>
      </trkpt>
      <trkpt lat="45.7503830" lon="8.3421520">
        <ele>658.1600000</ele>
        <time>2010-03-12T09:04:24Z</time>
      </trkpt>
      <trkpt lat="45.7504090" lon="8.3421670">
        <ele>658.1600000</ele>
        <time>2010-03-12T09:04:25Z</time>
      </trkpt>
      <trkpt lat="45.7507130" lon="8.3423220">
        <ele>659.1200000</ele>
        <time>2010-03-12T09:04:36Z</time>
      </trkpt>
      <trkpt lat="45.7510110" lon="8.3424430">
        <ele>659.6000000</ele>
        <time>2010-03-12T09:04:47Z</time>
      </trkpt>
      <trkpt lat="45.7512800" lon="8.3425420">
        <ele>660.0800000</ele>
        <time>2010-03-12T09:04:57Z</time>
      </trkpt>
      <trkpt lat="45.7513110" lon="8.3425300">
        <ele>660.0800000</ele>
        <time>2010-03-12T09:04:58Z</time>
      </trkpt>
      <trkpt lat="45.7513410" lon="8.3425140">
        <ele>660.0800000</ele>
        <time>2010-03-12T09:04:59Z</time>
      </trkpt>
      <trkpt lat="45.7513670" lon="8.3425040">
        <ele>660.0800000</ele>
        <time>2010-03-12T09:05:00Z</time>
      </trkpt>
      <trkpt lat="45.7514720" lon="8.3421010">
        <ele>660.5600000</ele>
        <time>2010-03-12T09:05:08Z</time>
      </trkpt>
      <trkpt lat="45.7514570" lon="8.3420490">
        <ele>661.0400000</ele>
        <time>2010-03-12T09:05:09Z</time>
      </trkpt>
      <trkpt lat="45.7512800" lon="8.3416970">
        <ele>663.9300000</ele>
        <time>2010-03-12T09:05:19Z</time>
      </trkpt>
      <trkpt lat="45.7512620" lon="8.3416630">
        <ele>663.4500000</ele>
        <time>2010-03-12T09:05:20Z</time>
      </trkpt>
      <trkpt lat="45.7510850" lon="8.3414070">
        <ele>664.4100000</ele>
        <time>2010-03-12T09:05:30Z</time>
      </trkpt>
      <trkpt lat="45.7508670" lon="8.3411560">
        <ele>666.3300000</ele>
        <time>2010-03-12T09:05:42Z</time>
      </trkpt>
      <trkpt lat="45.7508080" lon="8.3411110">
        <ele>666.8100000</ele>
        <time>2010-03-12T09:05:45Z</time>
      </trkpt>
      <trkpt lat="45.7507840" lon="8.3410920">
        <ele>667.2900000</ele>
        <time>2010-03-12T09:05:46Z</time>
      </trkpt>
      <trkpt lat="45.7507590" lon="8.3410740">
        <ele>667.2900000</ele>
        <time>2010-03-12T09:05:47Z</time>
      </trkpt>
      <trkpt lat="45.7507320" lon="8.3410530">
        <ele>668.2500000</ele>
        <time>2010-03-12T09:05:48Z</time>
      </trkpt>
      <trkpt lat="45.7507020" lon="8.3410310">
        <ele>668.7300000</ele>
        <time>2010-03-12T09:05:49Z</time>
      </trkpt>
      <trkpt lat="45.7506740" lon="8.3410100">
        <ele>668.2500000</ele>
        <time>2010-03-12T09:05:50Z</time>
      </trkpt>
      <trkpt lat="45.7506450" lon="8.3409940">
        <ele>667.7700000</ele>
        <time>2010-03-12T09:05:51Z</time>
      </trkpt>
      <trkpt lat="45.7502770" lon="8.3407020">
        <ele>671.1400000</ele>
        <time>2010-03-12T09:06:07Z</time>
      </trkpt>
      <trkpt lat="45.7500550" lon="8.3402690">
        <ele>671.6200000</ele>
        <time>2010-03-12T09:06:22Z</time>
      </trkpt>
      <trkpt lat="45.7500080" lon="8.3398190">
        <ele>673.5400000</ele>
        <time>2010-03-12T09:06:35Z</time>
      </trkpt>
      <trkpt lat="45.7502930" lon="8.3393870">
        <ele>674.0200000</ele>
        <time>2010-03-12T09:06:49Z</time>
      </trkpt>
      <trkpt lat="45.7503650" lon="8.3392590">
        <ele>674.5000000</ele>
        <time>2010-03-12T09:06:53Z</time>
      </trkpt>
      <trkpt lat="45.7503880" lon="8.3392410">
        <ele>674.5000000</ele>
        <time>2010-03-12T09:06:54Z</time>
      </trkpt>
      <trkpt lat="45.7504150" lon="8.3392330">
        <ele>674.5000000</ele>
        <time>2010-03-12T09:06:55Z</time>
      </trkpt>
      <trkpt lat="45.7504430" lon="8.3392350">
        <ele>674.5000000</ele>
        <time>2010-03-12T09:06:56Z</time>
      </trkpt>
      <trkpt lat="45.7504730" lon="8.3392420">
        <ele>674.5000000</ele>
        <time>2010-03-12T09:06:57Z</time>
      </trkpt>
      <trkpt lat="45.7508190" lon="8.3391160">
        <ele>674.5000000</ele>
        <time>2010-03-12T09:07:09Z</time>
      </trkpt>
      <trkpt lat="45.7512010" lon="8.3389780">
        <ele>675.4600000</ele>
        <time>2010-03-12T09:07:22Z</time>
      </trkpt>
      <trkpt lat="45.7516080" lon="8.3391880">
        <ele>676.4200000</ele>
        <time>2010-03-12T09:07:36Z</time>
      </trkpt>
      <trkpt lat="45.7519330" lon="8.3391080">
        <ele>676.4200000</ele>
        <time>2010-03-12T09:07:47Z</time>
      </trkpt>
      <trkpt lat="45.7522820" lon="8.3386720">
        <ele>677.8700000</ele>
        <time>2010-03-12T09:08:01Z</time>
      </trkpt>
      <trkpt lat="45.7527390" lon="8.3383420">
        <ele>680.2700000</ele>
        <time>2010-03-12T09:08:19Z</time>
      </trkpt>
      <trkpt lat="45.7529930" lon="8.3384540">
        <ele>682.1900000</ele>
        <time>2010-03-12T09:08:29Z</time>
      </trkpt>
      <trkpt lat="45.7532700" lon="8.3386830">
        <ele>683.6300000</ele>
        <time>2010-03-12T09:08:41Z</time>
      </trkpt>
      <trkpt lat="45.7536530" lon="8.3387170">
        <ele>685.0800000</ele>
        <time>2010-03-12T09:08:56Z</time>
      </trkpt>
      <trkpt lat="45.7540340" lon="8.3386990">
        <ele>686.5200000</ele>
        <time>2010-03-12T09:09:11Z</time>
      </trkpt>
      <trkpt lat="45.7541560" lon="8.3388160">
        <ele>687.4800000</ele>
        <time>2010-03-12T09:09:17Z</time>
      </trkpt>
      <trkpt lat="45.7541800" lon="8.3388380">
        <ele>687.4800000</ele>
        <time>2010-03-12T09:09:18Z</time>
      </trkpt>
      <trkpt lat="45.7542040" lon="8.3388650">
        <ele>687.4800000</ele>
        <time>2010-03-12T09:09:19Z</time>
      </trkpt>
      <trkpt lat="45.7545080" lon="8.3388410">
        <ele>689.4000000</ele>
        <time>2010-03-12T09:09:32Z</time>
      </trkpt>
      <trkpt lat="45.7547590" lon="8.3388070">
        <ele>690.8400000</ele>
        <time>2010-03-12T09:09:43Z</time>
      </trkpt>
      <trkpt lat="45.7550530" lon="8.3391050">
        <ele>693.2500000</ele>
        <time>2010-03-12T09:09:57Z</time>
      </trkpt>
      <trkpt lat="45.7553260" lon="8.3392900">
        <ele>694.6900000</ele>
        <time>2010-03-12T09:10:10Z</time>
      </trkpt>
      <trkpt lat="45.7555450" lon="8.3389870">
        <ele>695.6500000</ele>
        <time>2010-03-12T09:10:22Z</time>
      </trkpt>
      <trkpt lat="45.7557600" lon="8.3384780">
        <ele>697.5700000</ele>
        <time>2010-03-12T09:10:39Z</time>
      </trkpt>
      <trkpt lat="45.7558670" lon="8.3380960">
        <ele>698.5300000</ele>
        <time>2010-03-12T09:10:51Z</time>
      </trkpt>
      <trkpt lat="45.7558800" lon="8.3380730">
        <ele>699.0200000</ele>
        <time>2010-03-12T09:10:52Z</time>
      </trkpt>
      <trkpt lat="45.7561380" lon="8.3377320">
        <ele>700.9400000</ele>
        <time>2010-03-12T09:11:08Z</time>
      </trkpt>
      <trkpt lat="45.7563550" lon="8.3375560">
        <ele>701.4200000</ele>
        <time>2010-03-12T09:11:19Z</time>
      </trkpt>
      <trkpt lat="45.7566810" lon="8.3374740">
        <ele>703.3400000</ele>
        <time>2010-03-12T09:11:34Z</time>
      </trkpt>
      <trkpt lat="45.7569360" lon="8.3377590">
        <ele>705.7500000</ele>
        <time>2010-03-12T09:11:48Z</time>
      </trkpt>
      <trkpt lat="45.7570990" lon="8.3381230">
        <ele>706.7100000</ele>
        <time>2010-03-12T09:12:02Z</time>
      </trkpt>
      <trkpt lat="45.7573740" lon="8.3381690">
        <ele>707.6700000</ele>
        <time>2010-03-12T09:12:14Z</time>
      </trkpt>
      <trkpt lat="45.7576980" lon="8.3380240">
        <ele>709.5900000</ele>
        <time>2010-03-12T09:12:30Z</time>
      </trkpt>
      <trkpt lat="45.7579370" lon="8.3383310">
        <ele>711.9900000</ele>
        <time>2010-03-12T09:12:44Z</time>
      </trkpt>
      <trkpt lat="45.7581830" lon="8.3385250">
        <ele>712.9500000</ele>
        <time>2010-03-12T09:12:57Z</time>
      </trkpt>
      <trkpt lat="45.7584850" lon="8.3386480">
        <ele>713.9200000</ele>
        <time>2010-03-12T09:13:11Z</time>
      </trkpt>
      <trkpt lat="45.7588430" lon="8.3388910">
        <ele>713.9200000</ele>
        <time>2010-03-12T09:13:26Z</time>
      </trkpt>
      <trkpt lat="45.7592830" lon="8.3388050">
        <ele>714.4000000</ele>
        <time>2010-03-12T09:13:42Z</time>
      </trkpt>
      <trkpt lat="45.7596980" lon="8.3389410">
        <ele>714.4000000</ele>
        <time>2010-03-12T09:13:57Z</time>
      </trkpt>
      <trkpt lat="45.7601280" lon="8.3392270">
        <ele>713.9200000</ele>
        <time>2010-03-12T09:14:14Z</time>
      </trkpt>
      <trkpt lat="45.7605180" lon="8.3395340">
        <ele>714.8800000</ele>
        <time>2010-03-12T09:14:29Z</time>
      </trkpt>
      <trkpt lat="45.7608560" lon="8.3396860">
        <ele>716.8000000</ele>
        <time>2010-03-12T09:14:43Z</time>
      </trkpt>
      <trkpt lat="45.7611140" lon="8.3400430">
        <ele>719.2000000</ele>
        <time>2010-03-12T09:14:59Z</time>
      </trkpt>
      <trkpt lat="45.7612420" lon="8.3403060">
        <ele>722.5700000</ele>
        <time>2010-03-12T09:15:11Z</time>
      </trkpt>
      <trkpt lat="45.7614590" lon="8.3405100">
        <ele>724.9700000</ele>
        <time>2010-03-12T09:15:26Z</time>
      </trkpt>
      <trkpt lat="45.7617080" lon="8.3407230">
        <ele>727.8600000</ele>
        <time>2010-03-12T09:15:43Z</time>
      </trkpt>
      <trkpt lat="45.7619870" lon="8.3409570">
        <ele>730.2600000</ele>
        <time>2010-03-12T09:16:02Z</time>
      </trkpt>
      <trkpt lat="45.7621720" lon="8.3411330">
        <ele>731.2200000</ele>
        <time>2010-03-12T09:16:15Z</time>
      </trkpt>
      <trkpt lat="45.7623140" lon="8.3413210">
        <ele>734.1000000</ele>
        <time>2010-03-12T09:16:27Z</time>
      </trkpt>
      <trkpt lat="45.7623220" lon="8.3413410">
        <ele>734.1000000</ele>
        <time>2010-03-12T09:16:28Z</time>
      </trkpt>
      <trkpt lat="45.7623250" lon="8.3414080">
        <ele>734.5800000</ele>
        <time>2010-03-12T09:16:31Z</time>
      </trkpt>
      <trkpt lat="45.7623090" lon="8.3414210">
        <ele>734.5800000</ele>
        <time>2010-03-12T09:16:32Z</time>
      </trkpt>
      <trkpt lat="45.7622880" lon="8.3414240">
        <ele>735.0700000</ele>
        <time>2010-03-12T09:16:33Z</time>
      </trkpt>
      <trkpt lat="45.7622670" lon="8.3414230">
        <ele>734.5800000</ele>
        <time>2010-03-12T09:16:34Z</time>
      </trkpt>
      <trkpt lat="45.7622470" lon="8.3414190">
        <ele>735.0700000</ele>
        <time>2010-03-12T09:16:35Z</time>
      </trkpt>
      <trkpt lat="45.7622290" lon="8.3414110">
        <ele>735.0700000</ele>
        <time>2010-03-12T09:16:36Z</time>
      </trkpt>
      <trkpt lat="45.7622110" lon="8.3414040">
        <ele>735.0700000</ele>
        <time>2010-03-12T09:16:37Z</time>
      </trkpt>
      <trkpt lat="45.7621900" lon="8.3413940">
        <ele>735.0700000</ele>
        <time>2010-03-12T09:16:38Z</time>
      </trkpt>
      <trkpt lat="45.7619830" lon="8.3413710">
        <ele>736.0300000</ele>
        <time>2010-03-12T09:16:49Z</time>
      </trkpt>
      <trkpt lat="45.7619750" lon="8.3413940">
        <ele>736.0300000</ele>
        <time>2010-03-12T09:16:50Z</time>
      </trkpt>
      <trkpt lat="45.7619740" lon="8.3414240">
        <ele>736.0300000</ele>
        <time>2010-03-12T09:16:51Z</time>
      </trkpt>
      <trkpt lat="45.7619790" lon="8.3414530">
        <ele>736.5100000</ele>
        <time>2010-03-12T09:16:52Z</time>
      </trkpt>
      <trkpt lat="45.7619870" lon="8.3414790">
        <ele>736.9900000</ele>
        <time>2010-03-12T09:16:53Z</time>
      </trkpt>
      <trkpt lat="45.7619970" lon="8.3415000">
        <ele>736.9900000</ele>
        <time>2010-03-12T09:16:54Z</time>
      </trkpt>
      <trkpt lat="45.7620080" lon="8.3415220">
        <ele>737.4700000</ele>
        <time>2010-03-12T09:16:55Z</time>
      </trkpt>
      <trkpt lat="45.7622080" lon="8.3415920">
        <ele>738.4300000</ele>
        <time>2010-03-12T09:17:06Z</time>
      </trkpt>
      <trkpt lat="45.7623220" lon="8.3417000">
        <ele>740.8300000</ele>
        <time>2010-03-12T09:17:14Z</time>
      </trkpt>
      <trkpt lat="45.7622650" lon="8.3417780">
        <ele>741.3100000</ele>
        <time>2010-03-12T09:17:18Z</time>
      </trkpt>
      <trkpt lat="45.7619830" lon="8.3416710">
        <ele>742.7600000</ele>
        <time>2010-03-12T09:17:33Z</time>
      </trkpt>
      <trkpt lat="45.7617260" lon="8.3415400">
        <ele>744.6800000</ele>
        <time>2010-03-12T09:17:48Z</time>
      </trkpt>
      <trkpt lat="45.7615900" lon="8.3414810">
        <ele>746.6000000</ele>
        <time>2010-03-12T09:17:56Z</time>
      </trkpt>
      <trkpt lat="45.7616050" lon="8.3416310">
        <ele>748.0400000</ele>
        <time>2010-03-12T09:18:03Z</time>
      </trkpt>
      <trkpt lat="45.7618330" lon="8.3417680">
        <ele>749.0000000</ele>
        <time>2010-03-12T09:18:17Z</time>
      </trkpt>
      <trkpt lat="45.7620540" lon="8.3419440">
        <ele>751.4100000</ele>
        <time>2010-03-12T09:18:31Z</time>
      </trkpt>
      <trkpt lat="45.7621850" lon="8.3420810">
        <ele>754.7700000</ele>
        <time>2010-03-12T09:18:40Z</time>
      </trkpt>
      <trkpt lat="45.7622640" lon="8.3423680">
        <ele>756.6900000</ele>
        <time>2010-03-12T09:18:53Z</time>
      </trkpt>
      <trkpt lat="45.7623050" lon="8.3424750">
        <ele>757.1800000</ele>
        <time>2010-03-12T09:18:58Z</time>
      </trkpt>
      <trkpt lat="45.7623580" lon="8.3425220">
        <ele>758.1400000</ele>
        <time>2010-03-12T09:19:02Z</time>
      </trkpt>
      <trkpt lat="45.7625020" lon="8.3425660">
        <ele>758.6200000</ele>
        <time>2010-03-12T09:19:10Z</time>
      </trkpt>
      <trkpt lat="45.7627060" lon="8.3426680">
        <ele>760.0600000</ele>
        <time>2010-03-12T09:19:22Z</time>
      </trkpt>
      <trkpt lat="45.7627240" lon="8.3427150">
        <ele>760.0600000</ele>
        <time>2010-03-12T09:19:24Z</time>
      </trkpt>
      <trkpt lat="45.7627970" lon="8.3429180">
        <ele>762.4600000</ele>
        <time>2010-03-12T09:19:37Z</time>
      </trkpt>
      <trkpt lat="45.7628140" lon="8.3429610">
        <ele>763.4200000</ele>
        <time>2010-03-12T09:19:40Z</time>
      </trkpt>
      <trkpt lat="45.7628180" lon="8.3430250">
        <ele>764.3900000</ele>
        <time>2010-03-12T09:19:44Z</time>
      </trkpt>
      <trkpt lat="45.7627550" lon="8.3430890">
        <ele>765.3500000</ele>
        <time>2010-03-12T09:19:51Z</time>
      </trkpt>
      <trkpt lat="45.7626950" lon="8.3430410">
        <ele>766.3100000</ele>
        <time>2010-03-12T09:19:57Z</time>
      </trkpt>
      <trkpt lat="45.7626610" lon="8.3429960">
        <ele>766.7900000</ele>
        <time>2010-03-12T09:20:01Z</time>
      </trkpt>
      <trkpt lat="45.7626490" lon="8.3429840">
        <ele>767.2700000</ele>
        <time>2010-03-12T09:20:02Z</time>
      </trkpt>
      <trkpt lat="45.7626060" lon="8.3428570">
        <ele>767.7500000</ele>
        <time>2010-03-12T09:20:09Z</time>
      </trkpt>
      <trkpt lat="45.7624620" lon="8.3428480">
        <ele>768.7100000</ele>
        <time>2010-03-12T09:20:18Z</time>
      </trkpt>
      <trkpt lat="45.7623920" lon="8.3429150">
        <ele>769.1900000</ele>
        <time>2010-03-12T09:20:22Z</time>
      </trkpt>
      <trkpt lat="45.7621430" lon="8.3429780">
        <ele>769.6700000</ele>
        <time>2010-03-12T09:20:35Z</time>
      </trkpt>
      <trkpt lat="45.7619270" lon="8.3428920">
        <ele>770.6300000</ele>
        <time>2010-03-12T09:20:45Z</time>
      </trkpt>
      <trkpt lat="45.7618840" lon="8.3429820">
        <ele>771.1100000</ele>
        <time>2010-03-12T09:20:50Z</time>
      </trkpt>
      <trkpt lat="45.7619640" lon="8.3430810">
        <ele>772.0800000</ele>
        <time>2010-03-12T09:20:57Z</time>
      </trkpt>
      <trkpt lat="45.7621580" lon="8.3431930">
        <ele>775.4400000</ele>
        <time>2010-03-12T09:21:12Z</time>
      </trkpt>
      <trkpt lat="45.7623160" lon="8.3433230">
        <ele>776.8800000</ele>
        <time>2010-03-12T09:21:24Z</time>
      </trkpt>
      <trkpt lat="45.7624810" lon="8.3434510">
        <ele>779.2900000</ele>
        <time>2010-03-12T09:21:38Z</time>
      </trkpt>
      <trkpt lat="45.7625590" lon="8.3435480">
        <ele>782.1700000</ele>
        <time>2010-03-12T09:21:47Z</time>
      </trkpt>
      <trkpt lat="45.7625420" lon="8.3436640">
        <ele>782.6500000</ele>
        <time>2010-03-12T09:21:52Z</time>
      </trkpt>
      <trkpt lat="45.7624830" lon="8.3437040">
        <ele>783.6100000</ele>
        <time>2010-03-12T09:21:57Z</time>
      </trkpt>
      <trkpt lat="45.7624110" lon="8.3436830">
        <ele>784.5700000</ele>
        <time>2010-03-12T09:22:02Z</time>
      </trkpt>
      <trkpt lat="45.7623700" lon="8.3436710">
        <ele>784.5700000</ele>
        <time>2010-03-12T09:22:05Z</time>
      </trkpt>
      <trkpt lat="45.7621990" lon="8.3436030">
        <ele>786.5000000</ele>
        <time>2010-03-12T09:22:18Z</time>
      </trkpt>
      <trkpt lat="45.7620070" lon="8.3435710">
        <ele>787.4600000</ele>
        <time>2010-03-12T09:22:30Z</time>
      </trkpt>
      <trkpt lat="45.7617910" lon="8.3437320">
        <ele>788.9000000</ele>
        <time>2010-03-12T09:22:43Z</time>
      </trkpt>
      <trkpt lat="45.7618080" lon="8.3439020">
        <ele>789.3800000</ele>
        <time>2010-03-12T09:22:50Z</time>
      </trkpt>
      <trkpt lat="45.7618570" lon="8.3439740">
        <ele>790.3400000</ele>
        <time>2010-03-12T09:22:54Z</time>
      </trkpt>
      <trkpt lat="45.7621080" lon="8.3440420">
        <ele>792.2600000</ele>
        <time>2010-03-12T09:23:08Z</time>
      </trkpt>
      <trkpt lat="45.7621350" lon="8.3440500">
        <ele>792.7400000</ele>
        <time>2010-03-12T09:23:10Z</time>
      </trkpt>
      <trkpt lat="45.7623340" lon="8.3440590">
        <ele>794.1900000</ele>
        <time>2010-03-12T09:23:23Z</time>
      </trkpt>
      <trkpt lat="45.7623950" lon="8.3440470">
        <ele>794.6700000</ele>
        <time>2010-03-12T09:23:27Z</time>
      </trkpt>
      <trkpt lat="45.7626120" lon="8.3440530">
        <ele>796.1100000</ele>
        <time>2010-03-12T09:23:41Z</time>
      </trkpt>
      <trkpt lat="45.7627630" lon="8.3440370">
        <ele>797.5500000</ele>
        <time>2010-03-12T09:23:52Z</time>
      </trkpt>
      <trkpt lat="45.7629290" lon="8.3440780">
        <ele>799.4700000</ele>
        <time>2010-03-12T09:24:21Z</time>
      </trkpt>
      <trkpt lat="45.7630790" lon="8.3441110">
        <ele>800.9200000</ele>
        <time>2010-03-12T09:24:30Z</time>
      </trkpt>
      <trkpt lat="45.7631760" lon="8.3441450">
        <ele>802.3600000</ele>
        <time>2010-03-12T09:24:36Z</time>
      </trkpt>
      <trkpt lat="45.7633140" lon="8.3442040">
        <ele>803.3200000</ele>
        <time>2010-03-12T09:24:46Z</time>
      </trkpt>
      <trkpt lat="45.7633540" lon="8.3442190">
        <ele>803.8000000</ele>
        <time>2010-03-12T09:24:49Z</time>
      </trkpt>
      <trkpt lat="45.7634640" lon="8.3442860">
        <ele>804.2800000</ele>
        <time>2010-03-12T09:24:56Z</time>
      </trkpt>
      <trkpt lat="45.7635090" lon="8.3443250">
        <ele>804.2800000</ele>
        <time>2010-03-12T09:24:59Z</time>
      </trkpt>
      <trkpt lat="45.7636670" lon="8.3444060">
        <ele>806.6800000</ele>
        <time>2010-03-12T09:25:11Z</time>
      </trkpt>
      <trkpt lat="45.7637600" lon="8.3444630">
        <ele>807.1600000</ele>
        <time>2010-03-12T09:25:17Z</time>
      </trkpt>
      <trkpt lat="45.7638780" lon="8.3445520">
        <ele>808.6100000</ele>
        <time>2010-03-12T09:25:26Z</time>
      </trkpt>
      <trkpt lat="45.7640220" lon="8.3446920">
        <ele>811.0100000</ele>
        <time>2010-03-12T09:25:38Z</time>
      </trkpt>
      <trkpt lat="45.7640730" lon="8.3447470">
        <ele>811.4900000</ele>
        <time>2010-03-12T09:25:43Z</time>
      </trkpt>
      <trkpt lat="45.7642700" lon="8.3449400">
        <ele>814.3700000</ele>
        <time>2010-03-12T09:25:58Z</time>
      </trkpt>
      <trkpt lat="45.7644280" lon="8.3451060">
        <ele>815.8200000</ele>
        <time>2010-03-12T09:26:11Z</time>
      </trkpt>
      <trkpt lat="45.7645470" lon="8.3453470">
        <ele>818.2200000</ele>
        <time>2010-03-12T09:26:26Z</time>
      </trkpt>
      <trkpt lat="45.7645940" lon="8.3453950">
        <ele>818.7000000</ele>
        <time>2010-03-12T09:26:30Z</time>
      </trkpt>
      <trkpt lat="45.7646940" lon="8.3455280">
        <ele>820.1400000</ele>
        <time>2010-03-12T09:26:39Z</time>
      </trkpt>
      <trkpt lat="45.7647340" lon="8.3455830">
        <ele>820.6200000</ele>
        <time>2010-03-12T09:26:43Z</time>
      </trkpt>
      <trkpt lat="45.7649120" lon="8.3457490">
        <ele>822.0600000</ele>
        <time>2010-03-12T09:26:57Z</time>
      </trkpt>
      <trkpt lat="45.7649660" lon="8.3458340">
        <ele>822.5500000</ele>
        <time>2010-03-12T09:27:03Z</time>
      </trkpt>
      <trkpt lat="45.7650210" lon="8.3460550">
        <ele>823.5100000</ele>
        <time>2010-03-12T09:27:16Z</time>
      </trkpt>
      <trkpt lat="45.7650170" lon="8.3460650">
        <ele>823.5100000</ele>
        <time>2010-03-12T09:27:17Z</time>
      </trkpt>
      <trkpt lat="45.7651580" lon="8.3465220">
        <ele>823.0300000</ele>
        <time>2010-03-12T09:27:28Z</time>
      </trkpt>
      <trkpt lat="45.7653010" lon="8.3466690">
        <ele>823.5100000</ele>
        <time>2010-03-12T09:27:35Z</time>
      </trkpt>
      <trkpt lat="45.7654620" lon="8.3469910">
        <ele>825.9100000</ele>
        <time>2010-03-12T09:27:48Z</time>
      </trkpt>
      <trkpt lat="45.7656450" lon="8.3471300">
        <ele>828.3100000</ele>
        <time>2010-03-12T09:28:00Z</time>
      </trkpt>
      <trkpt lat="45.7656550" lon="8.3471420">
        <ele>828.3100000</ele>
        <time>2010-03-12T09:28:01Z</time>
      </trkpt>
      <trkpt lat="45.7658260" lon="8.3472260">
        <ele>829.7600000</ele>
        <time>2010-03-12T09:28:14Z</time>
      </trkpt>
      <trkpt lat="45.7659070" lon="8.3472870">
        <ele>831.2000000</ele>
        <time>2010-03-12T09:28:21Z</time>
      </trkpt>
      <trkpt lat="45.7660330" lon="8.3473740">
        <ele>833.1200000</ele>
        <time>2010-03-12T09:28:32Z</time>
      </trkpt>
      <trkpt lat="45.7661130" lon="8.3474380">
        <ele>834.0800000</ele>
        <time>2010-03-12T09:28:39Z</time>
      </trkpt>
      <trkpt lat="45.7662480" lon="8.3475050">
        <ele>836.0000000</ele>
        <time>2010-03-12T09:28:51Z</time>
      </trkpt>
      <trkpt lat="45.7663100" lon="8.3475440">
        <ele>836.9600000</ele>
        <time>2010-03-12T09:28:56Z</time>
      </trkpt>
      <trkpt lat="45.7664530" lon="8.3475880">
        <ele>838.4100000</ele>
        <time>2010-03-12T09:29:06Z</time>
      </trkpt>
      <trkpt lat="45.7665590" lon="8.3477160">
        <ele>839.3700000</ele>
        <time>2010-03-12T09:29:16Z</time>
      </trkpt>
      <trkpt lat="45.7665860" lon="8.3477680">
        <ele>840.3300000</ele>
        <time>2010-03-12T09:29:21Z</time>
      </trkpt>
      <trkpt lat="45.7665930" lon="8.3478000">
        <ele>840.3300000</ele>
        <time>2010-03-12T09:29:23Z</time>
      </trkpt>
      <trkpt lat="45.7666070" lon="8.3478620">
        <ele>840.3300000</ele>
        <time>2010-03-12T09:29:26Z</time>
      </trkpt>
      <trkpt lat="45.7666740" lon="8.3479960">
        <ele>842.2500000</ele>
        <time>2010-03-12T09:29:38Z</time>
      </trkpt>
      <trkpt lat="45.7666870" lon="8.3480030">
        <ele>842.2500000</ele>
        <time>2010-03-12T09:30:06Z</time>
      </trkpt>
      <trkpt lat="45.7667750" lon="8.3480770">
        <ele>843.2100000</ele>
        <time>2010-03-12T09:30:15Z</time>
      </trkpt>
      <trkpt lat="45.7667870" lon="8.3480940">
        <ele>842.2500000</ele>
        <time>2010-03-12T09:30:17Z</time>
      </trkpt>
      <trkpt lat="45.7668900" lon="8.3481690">
        <ele>843.2100000</ele>
        <time>2010-03-12T09:30:26Z</time>
      </trkpt>
      <trkpt lat="45.7669880" lon="8.3482280">
        <ele>843.6900000</ele>
        <time>2010-03-12T09:30:38Z</time>
      </trkpt>
      <trkpt lat="45.7670560" lon="8.3484740">
        <ele>845.1400000</ele>
        <time>2010-03-12T09:30:49Z</time>
      </trkpt>
      <trkpt lat="45.7671430" lon="8.3486710">
        <ele>845.6200000</ele>
        <time>2010-03-12T09:30:57Z</time>
      </trkpt>
      <trkpt lat="45.7672400" lon="8.3487950">
        <ele>846.1000000</ele>
        <time>2010-03-12T09:31:06Z</time>
      </trkpt>
      <trkpt lat="45.7672890" lon="8.3488370">
        <ele>846.1000000</ele>
        <time>2010-03-12T09:31:09Z</time>
      </trkpt>
      <trkpt lat="45.7673720" lon="8.3489480">
        <ele>846.5800000</ele>
        <time>2010-03-12T09:31:14Z</time>
      </trkpt>
      <trkpt lat="45.7674700" lon="8.3490270">
        <ele>846.5800000</ele>
        <time>2010-03-12T09:31:20Z</time>
      </trkpt>
      <trkpt lat="45.7676350" lon="8.3490650">
        <ele>847.0600000</ele>
        <time>2010-03-12T09:31:30Z</time>
      </trkpt>
      <trkpt lat="45.7676650" lon="8.3490870">
        <ele>846.5800000</ele>
        <time>2010-03-12T09:31:32Z</time>
      </trkpt>
      <trkpt lat="45.7677320" lon="8.3491160">
        <ele>848.0200000</ele>
        <time>2010-03-12T09:31:37Z</time>
      </trkpt>
      <trkpt lat="45.7678350" lon="8.3490990">
        <ele>848.0200000</ele>
        <time>2010-03-12T09:31:43Z</time>
      </trkpt>
      <trkpt lat="45.7680610" lon="8.3490450">
        <ele>848.0200000</ele>
        <time>2010-03-12T09:31:56Z</time>
      </trkpt>
      <trkpt lat="45.7682960" lon="8.3489390">
        <ele>848.5000000</ele>
        <time>2010-03-12T09:32:08Z</time>
      </trkpt>
      <trkpt lat="45.7684110" lon="8.3488820">
        <ele>848.5000000</ele>
        <time>2010-03-12T09:32:17Z</time>
      </trkpt>
      <trkpt lat="45.7685650" lon="8.3487910">
        <ele>848.0200000</ele>
        <time>2010-03-12T09:32:26Z</time>
      </trkpt>
      <trkpt lat="45.7688030" lon="8.3488390">
        <ele>848.5000000</ele>
        <time>2010-03-12T09:32:37Z</time>
      </trkpt>
      <trkpt lat="45.7688680" lon="8.3488960">
        <ele>848.9800000</ele>
        <time>2010-03-12T09:32:41Z</time>
      </trkpt>
      <trkpt lat="45.7689910" lon="8.3490190">
        <ele>850.4200000</ele>
        <time>2010-03-12T09:32:51Z</time>
      </trkpt>
      <trkpt lat="45.7690380" lon="8.3490690">
        <ele>850.4200000</ele>
        <time>2010-03-12T09:32:54Z</time>
      </trkpt>
      <trkpt lat="45.7691440" lon="8.3492050">
        <ele>851.3800000</ele>
        <time>2010-03-12T09:33:03Z</time>
      </trkpt>
      <trkpt lat="45.7693260" lon="8.3493040">
        <ele>852.8300000</ele>
        <time>2010-03-12T09:33:16Z</time>
      </trkpt>
      <trkpt lat="45.7695160" lon="8.3493150">
        <ele>853.7900000</ele>
        <time>2010-03-12T09:33:28Z</time>
      </trkpt>
      <trkpt lat="45.7696550" lon="8.3492750">
        <ele>854.7500000</ele>
        <time>2010-03-12T09:33:37Z</time>
      </trkpt>
      <trkpt lat="45.7698290" lon="8.3492880">
        <ele>855.7100000</ele>
        <time>2010-03-12T09:33:49Z</time>
      </trkpt>
      <trkpt lat="45.7699570" lon="8.3493590">
        <ele>856.6700000</ele>
        <time>2010-03-12T09:33:57Z</time>
      </trkpt>
      <trkpt lat="45.7701080" lon="8.3495500">
        <ele>858.5900000</ele>
        <time>2010-03-12T09:34:12Z</time>
      </trkpt>
      <trkpt lat="45.7702230" lon="8.3497010">
        <ele>860.0400000</ele>
        <time>2010-03-12T09:34:23Z</time>
      </trkpt>
      <trkpt lat="45.7703640" lon="8.3498630">
        <ele>862.4400000</ele>
        <time>2010-03-12T09:34:37Z</time>
      </trkpt>
      <trkpt lat="45.7703980" lon="8.3499030">
        <ele>862.9200000</ele>
        <time>2010-03-12T09:34:40Z</time>
      </trkpt>
      <trkpt lat="45.7704440" lon="8.3499570">
        <ele>863.8800000</ele>
        <time>2010-03-12T09:34:45Z</time>
      </trkpt>
      <trkpt lat="45.7704910" lon="8.3499800">
        <ele>864.3600000</ele>
        <time>2010-03-12T09:34:49Z</time>
      </trkpt>
      <trkpt lat="45.7706170" lon="8.3500200">
        <ele>865.8000000</ele>
        <time>2010-03-12T09:34:59Z</time>
      </trkpt>
      <trkpt lat="45.7707870" lon="8.3500750">
        <ele>867.7300000</ele>
        <time>2010-03-12T09:35:12Z</time>
      </trkpt>
      <trkpt lat="45.7709430" lon="8.3500670">
        <ele>868.6900000</ele>
        <time>2010-03-12T09:35:24Z</time>
      </trkpt>
      <trkpt lat="45.7711390" lon="8.3500260">
        <ele>869.6500000</ele>
        <time>2010-03-12T09:35:37Z</time>
      </trkpt>
      <trkpt lat="45.7712210" lon="8.3500280">
        <ele>871.0900000</ele>
        <time>2010-03-12T09:35:44Z</time>
      </trkpt>
      <trkpt lat="45.7712700" lon="8.3500410">
        <ele>871.0900000</ele>
        <time>2010-03-12T09:35:48Z</time>
      </trkpt>
      <trkpt lat="45.7714010" lon="8.3500840">
        <ele>872.0500000</ele>
        <time>2010-03-12T09:35:57Z</time>
      </trkpt>
      <trkpt lat="45.7715290" lon="8.3501360">
        <ele>873.0100000</ele>
        <time>2010-03-12T09:36:07Z</time>
      </trkpt>
      <trkpt lat="45.7716500" lon="8.3502510">
        <ele>873.9800000</ele>
        <time>2010-03-12T09:36:18Z</time>
      </trkpt>
      <trkpt lat="45.7716660" lon="8.3502630">
        <ele>874.4600000</ele>
        <time>2010-03-12T09:36:19Z</time>
      </trkpt>
      <trkpt lat="45.7716960" lon="8.3502780">
        <ele>873.9800000</ele>
        <time>2010-03-12T09:36:21Z</time>
      </trkpt>
      <trkpt lat="45.7718530" lon="8.3504170">
        <ele>875.4200000</ele>
        <time>2010-03-12T09:36:34Z</time>
      </trkpt>
      <trkpt lat="45.7719700" lon="8.3505180">
        <ele>876.8600000</ele>
        <time>2010-03-12T09:36:47Z</time>
      </trkpt>
      <trkpt lat="45.7720580" lon="8.3506760">
        <ele>877.8200000</ele>
        <time>2010-03-12T09:36:57Z</time>
      </trkpt>
      <trkpt lat="45.7720290" lon="8.3507540">
        <ele>878.7800000</ele>
        <time>2010-03-12T09:37:46Z</time>
      </trkpt>
      <trkpt lat="45.7720000" lon="8.3507580">
        <ele>878.3000000</ele>
        <time>2010-03-12T09:37:51Z</time>
      </trkpt>
      <trkpt lat="45.7719430" lon="8.3508000">
        <ele>879.2600000</ele>
        <time>2010-03-12T09:38:00Z</time>
      </trkpt>
      <trkpt lat="45.7718080" lon="8.3508060">
        <ele>881.6700000</ele>
        <time>2010-03-12T09:38:18Z</time>
      </trkpt>
      <trkpt lat="45.7717520" lon="8.3508400">
        <ele>882.1500000</ele>
        <time>2010-03-12T09:38:26Z</time>
      </trkpt>
      <trkpt lat="45.7716080" lon="8.3509260">
        <ele>882.1500000</ele>
        <time>2010-03-12T09:38:42Z</time>
      </trkpt>
      <trkpt lat="45.7714870" lon="8.3510420">
        <ele>882.1500000</ele>
        <time>2010-03-12T09:38:56Z</time>
      </trkpt>
      <trkpt lat="45.7713810" lon="8.3511640">
        <ele>881.6700000</ele>
        <time>2010-03-12T09:39:10Z</time>
      </trkpt>
      <trkpt lat="45.7712750" lon="8.3512390">
        <ele>881.6700000</ele>
        <time>2010-03-12T09:39:24Z</time>
      </trkpt>
      <trkpt lat="45.7711700" lon="8.3513150">
        <ele>881.6700000</ele>
        <time>2010-03-12T09:39:38Z</time>
      </trkpt>
      <trkpt lat="45.7710660" lon="8.3513750">
        <ele>881.6700000</ele>
        <time>2010-03-12T09:39:52Z</time>
      </trkpt>
      <trkpt lat="45.7710320" lon="8.3514040">
        <ele>881.6700000</ele>
        <time>2010-03-12T09:40:13Z</time>
      </trkpt>
      <trkpt lat="45.7710050" lon="8.3514140">
        <ele>881.6700000</ele>
        <time>2010-03-12T09:40:36Z</time>
      </trkpt>
      <trkpt lat="45.7708610" lon="8.3515020">
        <ele>881.1900000</ele>
        <time>2010-03-12T09:40:52Z</time>
      </trkpt>
      <trkpt lat="45.7708150" lon="8.3515180">
        <ele>881.1900000</ele>
        <time>2010-03-12T09:41:10Z</time>
      </trkpt>
      <trkpt lat="45.7706440" lon="8.3516400">
        <ele>881.6700000</ele>
        <time>2010-03-12T09:41:29Z</time>
      </trkpt>
      <trkpt lat="45.7704970" lon="8.3516740">
        <ele>883.1100000</ele>
        <time>2010-03-12T09:41:46Z</time>
      </trkpt>
      <trkpt lat="45.7704110" lon="8.3516760">
        <ele>883.5900000</ele>
        <time>2010-03-12T09:41:58Z</time>
      </trkpt>
      <trkpt lat="45.7702780" lon="8.3517180">
        <ele>884.0700000</ele>
        <time>2010-03-12T09:42:11Z</time>
      </trkpt>
      <trkpt lat="45.7701460" lon="8.3518070">
        <ele>884.5500000</ele>
        <time>2010-03-12T09:42:26Z</time>
      </trkpt>
      <trkpt lat="45.7700770" lon="8.3518490">
        <ele>884.5500000</ele>
        <time>2010-03-12T09:42:35Z</time>
      </trkpt>
      <trkpt lat="45.7699970" lon="8.3519600">
        <ele>885.5100000</ele>
        <time>2010-03-12T09:42:48Z</time>
      </trkpt>
      <trkpt lat="45.7699410" lon="8.3520380">
        <ele>885.5100000</ele>
        <time>2010-03-12T09:43:01Z</time>
      </trkpt>
      <trkpt lat="45.7699040" lon="8.3520320">
        <ele>885.5100000</ele>
        <time>2010-03-12T09:43:17Z</time>
      </trkpt>
      <trkpt lat="45.7698830" lon="8.3520420">
        <ele>885.5100000</ele>
        <time>2010-03-12T09:43:20Z</time>
      </trkpt>
      <trkpt lat="45.7698550" lon="8.3520700">
        <ele>885.9900000</ele>
        <time>2010-03-12T09:43:24Z</time>
      </trkpt>
      <trkpt lat="45.7697510" lon="8.3522260">
        <ele>886.9500000</ele>
        <time>2010-03-12T09:43:36Z</time>
      </trkpt>
      <trkpt lat="45.7697290" lon="8.3522720">
        <ele>887.4300000</ele>
        <time>2010-03-12T09:43:42Z</time>
      </trkpt>
      <trkpt lat="45.7697020" lon="8.3524000">
        <ele>886.9500000</ele>
        <time>2010-03-12T09:43:54Z</time>
      </trkpt>
      <trkpt lat="45.7696730" lon="8.3525650">
        <ele>886.9500000</ele>
        <time>2010-03-12T09:47:40Z</time>
      </trkpt>
      <trkpt lat="45.7696710" lon="8.3527480">
        <ele>888.4000000</ele>
        <time>2010-03-12T09:47:51Z</time>
      </trkpt>
      <trkpt lat="45.7696720" lon="8.3529740">
        <ele>888.4000000</ele>
        <time>2010-03-12T09:48:05Z</time>
      </trkpt>
      <trkpt lat="45.7695900" lon="8.3531050">
        <ele>888.8800000</ele>
        <time>2010-03-12T09:48:21Z</time>
      </trkpt>
      <trkpt lat="45.7694720" lon="8.3532040">
        <ele>889.3600000</ele>
        <time>2010-03-12T09:48:31Z</time>
      </trkpt>
      <trkpt lat="45.7693650" lon="8.3534410">
        <ele>890.8000000</ele>
        <time>2010-03-12T09:48:51Z</time>
      </trkpt>
      <trkpt lat="45.7693090" lon="8.3535440">
        <ele>891.2800000</ele>
        <time>2010-03-12T09:48:59Z</time>
      </trkpt>
      <trkpt lat="45.7692820" lon="8.3536590">
        <ele>892.2400000</ele>
        <time>2010-03-12T09:49:08Z</time>
      </trkpt>
      <trkpt lat="45.7692340" lon="8.3537640">
        <ele>892.7200000</ele>
        <time>2010-03-12T09:49:19Z</time>
      </trkpt>
      <trkpt lat="45.7691110" lon="8.3539400">
        <ele>894.6400000</ele>
        <time>2010-03-12T09:49:38Z</time>
      </trkpt>
      <trkpt lat="45.7689930" lon="8.3540410">
        <ele>895.1200000</ele>
        <time>2010-03-12T09:49:52Z</time>
      </trkpt>
      <trkpt lat="45.7688960" lon="8.3540790">
        <ele>896.0900000</ele>
        <time>2010-03-12T09:50:06Z</time>
      </trkpt>
      <trkpt lat="45.7688120" lon="8.3541020">
        <ele>895.6100000</ele>
        <time>2010-03-12T09:50:16Z</time>
      </trkpt>
      <trkpt lat="45.7687360" lon="8.3542320">
        <ele>895.6100000</ele>
        <time>2010-03-12T09:50:30Z</time>
      </trkpt>
      <trkpt lat="45.7686840" lon="8.3543490">
        <ele>896.0900000</ele>
        <time>2010-03-12T09:50:41Z</time>
      </trkpt>
      <trkpt lat="45.7686740" lon="8.3545290">
        <ele>896.0900000</ele>
        <time>2010-03-12T09:51:04Z</time>
      </trkpt>
      <trkpt lat="45.7686820" lon="8.3545790">
        <ele>896.0900000</ele>
        <time>2010-03-12T09:51:09Z</time>
      </trkpt>
      <trkpt lat="45.7686070" lon="8.3547390">
        <ele>896.5700000</ele>
        <time>2010-03-12T09:51:22Z</time>
      </trkpt>
      <trkpt lat="45.7685990" lon="8.3547470">
        <ele>896.5700000</ele>
        <time>2010-03-12T09:51:24Z</time>
      </trkpt>
      <trkpt lat="45.7685460" lon="8.3548010">
        <ele>896.5700000</ele>
        <time>2010-03-12T09:51:29Z</time>
      </trkpt>
      <trkpt lat="45.7684300" lon="8.3549260">
        <ele>896.5700000</ele>
        <time>2010-03-12T09:51:42Z</time>
      </trkpt>
      <trkpt lat="45.7684240" lon="8.3549470">
        <ele>899.9300000</ele>
        <time>2010-03-12T09:54:23Z</time>
      </trkpt>
      <trkpt lat="45.7684240" lon="8.3549470">
        <ele>896.0900000</ele>
        <time>2010-03-12T09:54:24Z</time>
      </trkpt>
      <trkpt lat="45.7684240" lon="8.3549480">
        <ele>889.3600000</ele>
        <time>2010-03-12T09:54:48Z</time>
      </trkpt>
      <trkpt lat="45.7684240" lon="8.3549480">
        <ele>896.0900000</ele>
        <time>2010-03-12T09:54:49Z</time>
      </trkpt>
      <trkpt lat="45.7684240" lon="8.3549480">
        <ele>899.4500000</ele>
        <time>2010-03-12T09:54:52Z</time>
      </trkpt>
      <trkpt lat="45.7684240" lon="8.3549480">
        <ele>896.5700000</ele>
        <time>2010-03-12T09:54:53Z</time>
      </trkpt>
      <trkpt lat="45.7684240" lon="8.3549480">
        <ele>893.6800000</ele>
        <time>2010-03-12T09:55:19Z</time>
      </trkpt>
      <trkpt lat="45.7684240" lon="8.3549480">
        <ele>896.5700000</ele>
        <time>2010-03-12T09:55:23Z</time>
      </trkpt>
      <trkpt lat="45.7684150" lon="8.3549610">
        <ele>893.2000000</ele>
        <time>2010-03-12T10:00:47Z</time>
      </trkpt>
      <trkpt lat="45.7682850" lon="8.3550590">
        <ele>894.1600000</ele>
        <time>2010-03-12T10:01:18Z</time>
      </trkpt>
      <trkpt lat="45.7681680" lon="8.3551350">
        <ele>893.6800000</ele>
        <time>2010-03-12T10:01:28Z</time>
      </trkpt>
      <trkpt lat="45.7680770" lon="8.3551980">
        <ele>893.6800000</ele>
        <time>2010-03-12T10:01:41Z</time>
      </trkpt>
      <trkpt lat="45.7680410" lon="8.3551970">
        <ele>893.6800000</ele>
        <time>2010-03-12T10:01:44Z</time>
      </trkpt>
      <trkpt lat="45.7679310" lon="8.3550780">
        <ele>894.1600000</ele>
        <time>2010-03-12T10:01:53Z</time>
      </trkpt>
      <trkpt lat="45.7677900" lon="8.3549560">
        <ele>894.1600000</ele>
        <time>2010-03-12T10:02:04Z</time>
      </trkpt>
      <trkpt lat="45.7676320" lon="8.3548930">
        <ele>894.6400000</ele>
        <time>2010-03-12T10:02:18Z</time>
      </trkpt>
      <trkpt lat="45.7675330" lon="8.3548640">
        <ele>895.1200000</ele>
        <time>2010-03-12T10:02:29Z</time>
      </trkpt>
      <trkpt lat="45.7674530" lon="8.3548490">
        <ele>895.1200000</ele>
        <time>2010-03-12T10:02:39Z</time>
      </trkpt>
      <trkpt lat="45.7673440" lon="8.3548580">
        <ele>896.0900000</ele>
        <time>2010-03-12T10:02:50Z</time>
      </trkpt>
      <trkpt lat="45.7672340" lon="8.3548980">
        <ele>897.0500000</ele>
        <time>2010-03-12T10:03:00Z</time>
      </trkpt>
      <trkpt lat="45.7671270" lon="8.3549670">
        <ele>898.0100000</ele>
        <time>2010-03-12T10:03:13Z</time>
      </trkpt>
      <trkpt lat="45.7670370" lon="8.3550140">
        <ele>898.9700000</ele>
        <time>2010-03-12T10:03:25Z</time>
      </trkpt>
      <trkpt lat="45.7669540" lon="8.3550880">
        <ele>898.9700000</ele>
        <time>2010-03-12T10:03:41Z</time>
      </trkpt>
      <trkpt lat="45.7668710" lon="8.3551080">
        <ele>899.9300000</ele>
        <time>2010-03-12T10:03:57Z</time>
      </trkpt>
      <trkpt lat="45.7667080" lon="8.3551310">
        <ele>899.9300000</ele>
        <time>2010-03-12T10:04:13Z</time>
      </trkpt>
      <trkpt lat="45.7666030" lon="8.3550470">
        <ele>900.4100000</ele>
        <time>2010-03-12T10:04:42Z</time>
      </trkpt>
      <trkpt lat="45.7664840" lon="8.3550240">
        <ele>900.4100000</ele>
        <time>2010-03-12T10:04:55Z</time>
      </trkpt>
      <trkpt lat="45.7663960" lon="8.3549660">
        <ele>901.3700000</ele>
        <time>2010-03-12T10:05:08Z</time>
      </trkpt>
      <trkpt lat="45.7663520" lon="8.3549720">
        <ele>901.3700000</ele>
        <time>2010-03-12T10:05:22Z</time>
      </trkpt>
      <trkpt lat="45.7663570" lon="8.3549790">
        <ele>899.9300000</ele>
        <time>2010-03-12T10:05:30Z</time>
      </trkpt>
      <trkpt lat="45.7663230" lon="8.3550670">
        <ele>899.9300000</ele>
        <time>2010-03-12T10:11:15Z</time>
      </trkpt>
      <trkpt lat="45.7663120" lon="8.3551180">
        <ele>905.2200000</ele>
        <time>2010-03-12T10:11:22Z</time>
      </trkpt>
      <trkpt lat="45.7663120" lon="8.3551180">
        <ele>899.9300000</ele>
        <time>2010-03-12T10:11:23Z</time>
      </trkpt>
      <trkpt lat="45.7663120" lon="8.3551180">
        <ele>906.6600000</ele>
        <time>2010-03-12T10:11:24Z</time>
      </trkpt>
      <trkpt lat="45.7663120" lon="8.3551180">
        <ele>900.4100000</ele>
        <time>2010-03-12T10:11:25Z</time>
      </trkpt>
      <trkpt lat="45.7663120" lon="8.3551180">
        <ele>911.4700000</ele>
        <time>2010-03-12T10:11:29Z</time>
      </trkpt>
      <trkpt lat="45.7663120" lon="8.3551180">
        <ele>900.4100000</ele>
        <time>2010-03-12T10:11:30Z</time>
      </trkpt>
      <trkpt lat="45.7663120" lon="8.3551180">
        <ele>904.2600000</ele>
        <time>2010-03-12T10:11:32Z</time>
      </trkpt>
    </trkseg>
  </trk>

  <trk>
    <name>TRASFERIMENTO a PS 2</name>
    <extensions>
      <gpxx:TrackExtension xmlns:gpxx="http://www.garmin.com/xmlschemas/GpxExtensions/v3">
        <gpxx:DisplayColor>Blue</gpxx:DisplayColor>
      </gpxx:TrackExtension>
    </extensions>
    <trkseg>
      <trkpt lat="45.7569850" lon="8.3824740">
        <ele>468.3000000</ele>
        <time>2010-03-14T08:30:04Z</time>
      </trkpt>
      <trkpt lat="45.7570010" lon="8.3823950">
        <ele>469.7400000</ele>
        <time>2010-03-14T08:30:08Z</time>
      </trkpt>
      <trkpt lat="45.7570200" lon="8.3823550">
        <ele>469.7400000</ele>
        <time>2010-03-14T08:30:10Z</time>
      </trkpt>
      <trkpt lat="45.7569880" lon="8.3822160">
        <ele>470.2200000</ele>
        <time>2010-03-14T08:30:15Z</time>
      </trkpt>
      <trkpt lat="45.7565540" lon="8.3817000">
        <ele>471.6600000</ele>
        <time>2010-03-14T08:30:37Z</time>
      </trkpt>
      <trkpt lat="45.7561020" lon="8.3812090">
        <ele>472.1400000</ele>
        <time>2010-03-14T08:30:58Z</time>
      </trkpt>
      <trkpt lat="45.7556640" lon="8.3807420">
        <ele>472.6300000</ele>
        <time>2010-03-14T08:31:17Z</time>
      </trkpt>
      <trkpt lat="45.7552320" lon="8.3804450">
        <ele>473.5900000</ele>
        <time>2010-03-14T08:31:33Z</time>
      </trkpt>
      <trkpt lat="45.7547200" lon="8.3803180">
        <ele>474.5500000</ele>
        <time>2010-03-14T08:31:50Z</time>
      </trkpt>
      <trkpt lat="45.7541380" lon="8.3804050">
        <ele>474.5500000</ele>
        <time>2010-03-14T08:32:08Z</time>
      </trkpt>
      <trkpt lat="45.7535950" lon="8.3805370">
        <ele>475.5100000</ele>
        <time>2010-03-14T08:32:25Z</time>
      </trkpt>
      <trkpt lat="45.7529140" lon="8.3807030">
        <ele>477.4300000</ele>
        <time>2010-03-14T08:32:46Z</time>
      </trkpt>
      <trkpt lat="45.7522320" lon="8.3808710">
        <ele>480.3200000</ele>
        <time>2010-03-14T08:33:07Z</time>
      </trkpt>
      <trkpt lat="45.7514650" lon="8.3810750">
        <ele>480.8000000</ele>
        <time>2010-03-14T08:33:30Z</time>
      </trkpt>
      <trkpt lat="45.7507600" lon="8.3812380">
        <ele>481.2800000</ele>
        <time>2010-03-14T08:33:51Z</time>
      </trkpt>
      <trkpt lat="45.7500950" lon="8.3814210">
        <ele>481.7600000</ele>
        <time>2010-03-14T08:34:10Z</time>
      </trkpt>
      <trkpt lat="45.7492830" lon="8.3816200">
        <ele>482.2400000</ele>
        <time>2010-03-14T08:34:32Z</time>
      </trkpt>
      <trkpt lat="45.7487600" lon="8.3818520">
        <ele>482.7200000</ele>
        <time>2010-03-14T08:34:47Z</time>
      </trkpt>
      <trkpt lat="45.7482290" lon="8.3821310">
        <ele>483.2000000</ele>
        <time>2010-03-14T08:35:02Z</time>
      </trkpt>
      <trkpt lat="45.7477270" lon="8.3820710">
        <ele>483.6800000</ele>
        <time>2010-03-14T08:35:16Z</time>
      </trkpt>
      <trkpt lat="45.7471500" lon="8.3820380">
        <ele>484.6400000</ele>
        <time>2010-03-14T08:35:32Z</time>
      </trkpt>
      <trkpt lat="45.7469040" lon="8.3825470">
        <ele>484.6400000</ele>
        <time>2010-03-14T08:35:44Z</time>
      </trkpt>
      <trkpt lat="45.7466210" lon="8.3833400">
        <ele>485.6000000</ele>
        <time>2010-03-14T08:36:01Z</time>
      </trkpt>
      <trkpt lat="45.7461830" lon="8.3838430">
        <ele>486.5600000</ele>
        <time>2010-03-14T08:36:17Z</time>
      </trkpt>
      <trkpt lat="45.7457090" lon="8.3837090">
        <ele>488.0100000</ele>
        <time>2010-03-14T08:36:31Z</time>
      </trkpt>
      <trkpt lat="45.7452670" lon="8.3832440">
        <ele>488.4900000</ele>
        <time>2010-03-14T08:36:47Z</time>
      </trkpt>
      <trkpt lat="45.7452670" lon="8.3825730">
        <ele>490.4100000</ele>
        <time>2010-03-14T08:37:00Z</time>
      </trkpt>
      <trkpt lat="45.7451080" lon="8.3820300">
        <ele>490.8900000</ele>
        <time>2010-03-14T08:37:12Z</time>
      </trkpt>
      <trkpt lat="45.7449220" lon="8.3815430">
        <ele>491.8500000</ele>
        <time>2010-03-14T08:37:24Z</time>
      </trkpt>
      <trkpt lat="45.7449430" lon="8.3807230">
        <ele>494.2600000</ele>
        <time>2010-03-14T08:37:40Z</time>
      </trkpt>
      <trkpt lat="45.7449050" lon="8.3797280">
        <ele>496.1800000</ele>
        <time>2010-03-14T08:38:00Z</time>
      </trkpt>
      <trkpt lat="45.7447260" lon="8.3788910">
        <ele>497.6200000</ele>
        <time>2010-03-14T08:38:18Z</time>
      </trkpt>
      <trkpt lat="45.7444320" lon="8.3781680">
        <ele>498.1000000</ele>
        <time>2010-03-14T08:38:35Z</time>
      </trkpt>
      <trkpt lat="45.7441440" lon="8.3773820">
        <ele>499.5400000</ele>
        <time>2010-03-14T08:38:53Z</time>
      </trkpt>
      <trkpt lat="45.7440360" lon="8.3766840">
        <ele>500.9800000</ele>
        <time>2010-03-14T08:39:09Z</time>
      </trkpt>
      <trkpt lat="45.7439730" lon="8.3761750">
        <ele>502.9100000</ele>
        <time>2010-03-14T08:39:22Z</time>
      </trkpt>
      <trkpt lat="45.7439120" lon="8.3756760">
        <ele>504.8300000</ele>
        <time>2010-03-14T08:39:36Z</time>
      </trkpt>
      <trkpt lat="45.7439080" lon="8.3752020">
        <ele>506.7500000</ele>
        <time>2010-03-14T08:39:49Z</time>
      </trkpt>
      <trkpt lat="45.7440220" lon="8.3748440">
        <ele>508.1900000</ele>
        <time>2010-03-14T08:40:03Z</time>
      </trkpt>
      <trkpt lat="45.7440590" lon="8.3746770">
        <ele>509.1600000</ele>
        <time>2010-03-14T08:40:13Z</time>
      </trkpt>
      <trkpt lat="45.7440780" lon="8.3746080">
        <ele>509.1600000</ele>
        <time>2010-03-14T08:40:17Z</time>
      </trkpt>
      <trkpt lat="45.7440860" lon="8.3745680">
        <ele>509.1600000</ele>
        <time>2010-03-14T08:40:19Z</time>
      </trkpt>
      <trkpt lat="45.7441240" lon="8.3744940">
        <ele>509.6400000</ele>
        <time>2010-03-14T08:40:23Z</time>
      </trkpt>
      <trkpt lat="45.7442890" lon="8.3741660">
        <ele>511.0800000</ele>
        <time>2010-03-14T08:40:39Z</time>
      </trkpt>
      <trkpt lat="45.7444180" lon="8.3737380">
        <ele>512.5200000</ele>
        <time>2010-03-14T08:40:54Z</time>
      </trkpt>
      <trkpt lat="45.7445420" lon="8.3732780">
        <ele>514.4400000</ele>
        <time>2010-03-14T08:41:09Z</time>
      </trkpt>
      <trkpt lat="45.7446550" lon="8.3727480">
        <ele>515.4000000</ele>
        <time>2010-03-14T08:41:25Z</time>
      </trkpt>
      <trkpt lat="45.7449060" lon="8.3723850">
        <ele>516.8500000</ele>
        <time>2010-03-14T08:41:39Z</time>
      </trkpt>
      <trkpt lat="45.7451100" lon="8.3719900">
        <ele>518.7700000</ele>
        <time>2010-03-14T08:41:53Z</time>
      </trkpt>
      <trkpt lat="45.7448780" lon="8.3716640">
        <ele>520.2100000</ele>
        <time>2010-03-14T08:42:06Z</time>
      </trkpt>
      <trkpt lat="45.7445330" lon="8.3718660">
        <ele>522.1300000</ele>
        <time>2010-03-14T08:42:20Z</time>
      </trkpt>
      <trkpt lat="45.7442530" lon="8.3717920">
        <ele>524.5400000</ele>
        <time>2010-03-14T08:42:33Z</time>
      </trkpt>
      <trkpt lat="45.7441790" lon="8.3712180">
        <ele>526.4600000</ele>
        <time>2010-03-14T08:42:50Z</time>
      </trkpt>
      <trkpt lat="45.7440150" lon="8.3707170">
        <ele>528.8600000</ele>
        <time>2010-03-14T08:43:06Z</time>
      </trkpt>
      <trkpt lat="45.7439470" lon="8.3703450">
        <ele>529.8200000</ele>
        <time>2010-03-14T08:43:18Z</time>
      </trkpt>
      <trkpt lat="45.7439460" lon="8.3698250">
        <ele>532.2300000</ele>
        <time>2010-03-14T08:43:32Z</time>
      </trkpt>
      <trkpt lat="45.7439470" lon="8.3692460">
        <ele>534.6300000</ele>
        <time>2010-03-14T08:43:49Z</time>
      </trkpt>
      <trkpt lat="45.7438200" lon="8.3688540">
        <ele>536.0700000</ele>
        <time>2010-03-14T08:44:02Z</time>
      </trkpt>
      <trkpt lat="45.7437390" lon="8.3686020">
        <ele>537.0300000</ele>
        <time>2010-03-14T08:44:10Z</time>
      </trkpt>
      <trkpt lat="45.7437110" lon="8.3681570">
        <ele>538.4800000</ele>
        <time>2010-03-14T08:44:23Z</time>
      </trkpt>
      <trkpt lat="45.7436940" lon="8.3676020">
        <ele>540.8800000</ele>
        <time>2010-03-14T08:44:39Z</time>
      </trkpt>
      <trkpt lat="45.7437250" lon="8.3669470">
        <ele>543.2800000</ele>
        <time>2010-03-14T08:44:58Z</time>
      </trkpt>
      <trkpt lat="45.7438400" lon="8.3663150">
        <ele>544.7200000</ele>
        <time>2010-03-14T08:45:15Z</time>
      </trkpt>
      <trkpt lat="45.7440730" lon="8.3655970">
        <ele>547.1300000</ele>
        <time>2010-03-14T08:45:36Z</time>
      </trkpt>
      <trkpt lat="45.7442850" lon="8.3650580">
        <ele>549.0500000</ele>
        <time>2010-03-14T08:45:54Z</time>
      </trkpt>
      <trkpt lat="45.7441370" lon="8.3646520">
        <ele>551.4500000</ele>
        <time>2010-03-14T08:46:08Z</time>
      </trkpt>
      <trkpt lat="45.7438780" lon="8.3642390">
        <ele>553.3800000</ele>
        <time>2010-03-14T08:46:26Z</time>
      </trkpt>
      <trkpt lat="45.7439870" lon="8.3636940">
        <ele>556.2600000</ele>
        <time>2010-03-14T08:46:44Z</time>
      </trkpt>
      <trkpt lat="45.7441740" lon="8.3632460">
        <ele>559.1400000</ele>
        <time>2010-03-14T08:47:00Z</time>
      </trkpt>
      <trkpt lat="45.7441730" lon="8.3627070">
        <ele>560.5900000</ele>
        <time>2010-03-14T08:47:16Z</time>
      </trkpt>
      <trkpt lat="45.7439780" lon="8.3623630">
        <ele>562.5100000</ele>
        <time>2010-03-14T08:47:29Z</time>
      </trkpt>
      <trkpt lat="45.7437240" lon="8.3622100">
        <ele>563.4700000</ele>
        <time>2010-03-14T08:47:41Z</time>
      </trkpt>
      <trkpt lat="45.7434060" lon="8.3620620">
        <ele>564.9100000</ele>
        <time>2010-03-14T08:47:54Z</time>
      </trkpt>
      <trkpt lat="45.7430840" lon="8.3619460">
        <ele>566.8300000</ele>
        <time>2010-03-14T08:48:11Z</time>
      </trkpt>
      <trkpt lat="45.7428060" lon="8.3618220">
        <ele>568.7600000</ele>
        <time>2010-03-14T08:48:25Z</time>
      </trkpt>
      <trkpt lat="45.7425650" lon="8.3617310">
        <ele>569.7200000</ele>
        <time>2010-03-14T08:48:37Z</time>
      </trkpt>
      <trkpt lat="45.7423230" lon="8.3614810">
        <ele>571.1600000</ele>
        <time>2010-03-14T08:48:50Z</time>
      </trkpt>
      <trkpt lat="45.7419970" lon="8.3611500">
        <ele>572.6000000</ele>
        <time>2010-03-14T08:49:08Z</time>
      </trkpt>
      <trkpt lat="45.7418220" lon="8.3607910">
        <ele>573.5600000</ele>
        <time>2010-03-14T08:49:23Z</time>
      </trkpt>
      <trkpt lat="45.7417500" lon="8.3605070">
        <ele>577.4100000</ele>
        <time>2010-03-14T08:49:38Z</time>
      </trkpt>
      <trkpt lat="45.7417510" lon="8.3604460">
        <ele>577.4100000</ele>
        <time>2010-03-14T08:49:41Z</time>
      </trkpt>
      <trkpt lat="45.7417390" lon="8.3603330">
        <ele>578.8500000</ele>
        <time>2010-03-14T08:49:48Z</time>
      </trkpt>
      <trkpt lat="45.7416990" lon="8.3601270">
        <ele>582.7000000</ele>
        <time>2010-03-14T08:50:03Z</time>
      </trkpt>
      <trkpt lat="45.7416840" lon="8.3600750">
        <ele>583.6600000</ele>
        <time>2010-03-14T08:50:08Z</time>
      </trkpt>
      <trkpt lat="45.7416460" lon="8.3599600">
        <ele>585.5800000</ele>
        <time>2010-03-14T08:50:16Z</time>
      </trkpt>
      <trkpt lat="45.7416200" lon="8.3599230">
        <ele>586.0600000</ele>
        <time>2010-03-14T08:50:19Z</time>
      </trkpt>
      <trkpt lat="45.7414590" lon="8.3599250">
        <ele>589.4300000</ele>
        <time>2010-03-14T08:50:34Z</time>
      </trkpt>
      <trkpt lat="45.7414090" lon="8.3599230">
        <ele>590.3900000</ele>
        <time>2010-03-14T08:50:38Z</time>
      </trkpt>
      <trkpt lat="45.7413910" lon="8.3599120">
        <ele>590.8700000</ele>
        <time>2010-03-14T08:50:40Z</time>
      </trkpt>
      <trkpt lat="45.7413610" lon="8.3598720">
        <ele>592.3100000</ele>
        <time>2010-03-14T08:50:44Z</time>
      </trkpt>
      <trkpt lat="45.7413430" lon="8.3597250">
        <ele>593.7500000</ele>
        <time>2010-03-14T08:50:55Z</time>
      </trkpt>
      <trkpt lat="45.7413970" lon="8.3595420">
        <ele>596.6400000</ele>
        <time>2010-03-14T08:51:10Z</time>
      </trkpt>
      <trkpt lat="45.7414150" lon="8.3593430">
        <ele>599.5200000</ele>
        <time>2010-03-14T08:51:23Z</time>
      </trkpt>
      <trkpt lat="45.7414270" lon="8.3592560">
        <ele>600.4800000</ele>
        <time>2010-03-14T08:51:30Z</time>
      </trkpt>
      <trkpt lat="45.7414240" lon="8.3591100">
        <ele>601.4400000</ele>
        <time>2010-03-14T08:51:40Z</time>
      </trkpt>
      <trkpt lat="45.7413920" lon="8.3589800">
        <ele>603.8500000</ele>
        <time>2010-03-14T08:51:52Z</time>
      </trkpt>
      <trkpt lat="45.7413360" lon="8.3589850">
        <ele>604.8100000</ele>
        <time>2010-03-14T08:51:59Z</time>
      </trkpt>
      <trkpt lat="45.7413090" lon="8.3590230">
        <ele>605.2900000</ele>
        <time>2010-03-14T08:52:04Z</time>
      </trkpt>
      <trkpt lat="45.7412510" lon="8.3592020">
        <ele>607.2100000</ele>
        <time>2010-03-14T08:52:19Z</time>
      </trkpt>
      <trkpt lat="45.7411550" lon="8.3593010">
        <ele>608.6500000</ele>
        <time>2010-03-14T08:52:31Z</time>
      </trkpt>
      <trkpt lat="45.7410440" lon="8.3594520">
        <ele>610.5700000</ele>
        <time>2010-03-14T08:52:47Z</time>
      </trkpt>
      <trkpt lat="45.7409520" lon="8.3596280">
        <ele>612.5000000</ele>
        <time>2010-03-14T08:53:02Z</time>
      </trkpt>
      <trkpt lat="45.7407890" lon="8.3598740">
        <ele>614.4200000</ele>
        <time>2010-03-14T08:53:22Z</time>
      </trkpt>
      <trkpt lat="45.7407160" lon="8.3600140">
        <ele>615.8600000</ele>
        <time>2010-03-14T08:53:35Z</time>
      </trkpt>
      <trkpt lat="45.7405870" lon="8.3601810">
        <ele>618.2600000</ele>
        <time>2010-03-14T08:53:51Z</time>
      </trkpt>
      <trkpt lat="45.7404280" lon="8.3602880">
        <ele>620.6700000</ele>
        <time>2010-03-14T08:54:07Z</time>
      </trkpt>
      <trkpt lat="45.7403080" lon="8.3603610">
        <ele>622.5900000</ele>
        <time>2010-03-14T08:54:19Z</time>
      </trkpt>
      <trkpt lat="45.7401470" lon="8.3604770">
        <ele>624.9900000</ele>
        <time>2010-03-14T08:54:36Z</time>
      </trkpt>
      <trkpt lat="45.7400170" lon="8.3605860">
        <ele>626.9200000</ele>
        <time>2010-03-14T08:54:51Z</time>
      </trkpt>
      <trkpt lat="45.7398760" lon="8.3606660">
        <ele>628.3600000</ele>
        <time>2010-03-14T08:55:06Z</time>
      </trkpt>
      <trkpt lat="45.7398210" lon="8.3606910">
        <ele>629.8000000</ele>
        <time>2010-03-14T08:55:14Z</time>
      </trkpt>
      <trkpt lat="45.7397290" lon="8.3608300">
        <ele>631.2400000</ele>
        <time>2010-03-14T08:55:26Z</time>
      </trkpt>
      <trkpt lat="45.7396860" lon="8.3608680">
        <ele>631.7200000</ele>
        <time>2010-03-14T08:55:30Z</time>
      </trkpt>
      <trkpt lat="45.7396270" lon="8.3610490">
        <ele>633.1700000</ele>
        <time>2010-03-14T08:55:43Z</time>
      </trkpt>
      <trkpt lat="45.7396080" lon="8.3612610">
        <ele>634.6100000</ele>
        <time>2010-03-14T08:55:56Z</time>
      </trkpt>
      <trkpt lat="45.7395830" lon="8.3614330">
        <ele>635.0900000</ele>
        <time>2010-03-14T08:56:07Z</time>
      </trkpt>
      <trkpt lat="45.7395700" lon="8.3614880">
        <ele>635.5700000</ele>
        <time>2010-03-14T08:56:11Z</time>
      </trkpt>
      <trkpt lat="45.7395830" lon="8.3615380">
        <ele>636.5300000</ele>
        <time>2010-03-14T08:56:14Z</time>
      </trkpt>
      <trkpt lat="45.7395870" lon="8.3615690">
        <ele>636.5300000</ele>
        <time>2010-03-14T08:56:16Z</time>
      </trkpt>
      <trkpt lat="45.7396150" lon="8.3616930">
        <ele>637.9700000</ele>
        <time>2010-03-14T08:56:25Z</time>
      </trkpt>
      <trkpt lat="45.7395530" lon="8.3618200">
        <ele>639.4100000</ele>
        <time>2010-03-14T08:56:35Z</time>
      </trkpt>
      <trkpt lat="45.7394480" lon="8.3617400">
        <ele>641.8200000</ele>
        <time>2010-03-14T08:56:49Z</time>
      </trkpt>
      <trkpt lat="45.7393290" lon="8.3617090">
        <ele>644.7000000</ele>
        <time>2010-03-14T08:57:02Z</time>
      </trkpt>
      <trkpt lat="45.7392460" lon="8.3616320">
        <ele>647.5900000</ele>
        <time>2010-03-14T08:57:14Z</time>
      </trkpt>
      <trkpt lat="45.7392490" lon="8.3616170">
        <ele>647.5900000</ele>
        <time>2010-03-14T08:57:16Z</time>
      </trkpt>
      <trkpt lat="45.7392930" lon="8.3615310">
        <ele>649.5100000</ele>
        <time>2010-03-14T08:57:25Z</time>
      </trkpt>
      <trkpt lat="45.7393150" lon="8.3614920">
        <ele>649.9900000</ele>
        <time>2010-03-14T08:57:30Z</time>
      </trkpt>
      <trkpt lat="45.7393850" lon="8.3613090">
        <ele>651.9100000</ele>
        <time>2010-03-14T08:57:44Z</time>
      </trkpt>
      <trkpt lat="45.7394010" lon="8.3612100">
        <ele>653.3500000</ele>
        <time>2010-03-14T08:57:54Z</time>
      </trkpt>
      <trkpt lat="45.7393940" lon="8.3611070">
        <ele>653.8300000</ele>
        <time>2010-03-14T08:58:01Z</time>
      </trkpt>
      <trkpt lat="45.7394020" lon="8.3608550">
        <ele>655.7600000</ele>
        <time>2010-03-14T08:58:14Z</time>
      </trkpt>
      <trkpt lat="45.7394350" lon="8.3606460">
        <ele>657.6800000</ele>
        <time>2010-03-14T08:58:26Z</time>
      </trkpt>
      <trkpt lat="45.7394310" lon="8.3605910">
        <ele>658.1600000</ele>
        <time>2010-03-14T08:58:30Z</time>
      </trkpt>
      <trkpt lat="45.7394100" lon="8.3605340">
        <ele>658.1600000</ele>
        <time>2010-03-14T08:58:34Z</time>
      </trkpt>
      <trkpt lat="45.7393280" lon="8.3604760">
        <ele>659.6000000</ele>
        <time>2010-03-14T08:58:42Z</time>
      </trkpt>
      <trkpt lat="45.7392710" lon="8.3604330">
        <ele>662.0100000</ele>
        <time>2010-03-14T08:58:53Z</time>
      </trkpt>
      <trkpt lat="45.7392180" lon="8.3603990">
        <ele>662.9700000</ele>
        <time>2010-03-14T08:58:59Z</time>
      </trkpt>
      <trkpt lat="45.7391030" lon="8.3604950">
        <ele>665.8500000</ele>
        <time>2010-03-14T08:59:12Z</time>
      </trkpt>
      <trkpt lat="45.7390760" lon="8.3605740">
        <ele>666.8100000</ele>
        <time>2010-03-14T08:59:17Z</time>
      </trkpt>
      <trkpt lat="45.7391040" lon="8.3606720">
        <ele>668.2500000</ele>
        <time>2010-03-14T08:59:25Z</time>
      </trkpt>
      <trkpt lat="45.7391170" lon="8.3607340">
        <ele>669.2200000</ele>
        <time>2010-03-14T08:59:31Z</time>
      </trkpt>
      <trkpt lat="45.7390930" lon="8.3608300">
        <ele>671.1400000</ele>
        <time>2010-03-14T08:59:42Z</time>
      </trkpt>
      <trkpt lat="45.7390520" lon="8.3610710">
        <ele>672.5800000</ele>
        <time>2010-03-14T08:59:55Z</time>
      </trkpt>
      <trkpt lat="45.7389890" lon="8.3611480">
        <ele>674.5000000</ele>
        <time>2010-03-14T09:00:05Z</time>
      </trkpt>
      <trkpt lat="45.7389650" lon="8.3611470">
        <ele>674.9800000</ele>
        <time>2010-03-14T09:00:07Z</time>
      </trkpt>
      <trkpt lat="45.7388770" lon="8.3610720">
        <ele>676.4200000</ele>
        <time>2010-03-14T09:00:18Z</time>
      </trkpt>
      <trkpt lat="45.7388710" lon="8.3610410">
        <ele>676.9100000</ele>
        <time>2010-03-14T09:00:20Z</time>
      </trkpt>
      <trkpt lat="45.7388400" lon="8.3610170">
        <ele>676.9100000</ele>
        <time>2010-03-14T09:00:23Z</time>
      </trkpt>
      <trkpt lat="45.7387510" lon="8.3609770">
        <ele>678.3500000</ele>
        <time>2010-03-14T09:00:30Z</time>
      </trkpt>
      <trkpt lat="45.7385950" lon="8.3608610">
        <ele>679.7900000</ele>
        <time>2010-03-14T09:00:46Z</time>
      </trkpt>
      <trkpt lat="45.7385780" lon="8.3608440">
        <ele>680.7500000</ele>
        <time>2010-03-14T09:00:48Z</time>
      </trkpt>
      <trkpt lat="45.7384650" lon="8.3606610">
        <ele>683.1500000</ele>
        <time>2010-03-14T09:01:04Z</time>
      </trkpt>
      <trkpt lat="45.7384120" lon="8.3605880">
        <ele>684.1200000</ele>
        <time>2010-03-14T09:01:12Z</time>
      </trkpt>
      <trkpt lat="45.7383580" lon="8.3605930">
        <ele>685.0800000</ele>
        <time>2010-03-14T09:01:17Z</time>
      </trkpt>
      <trkpt lat="45.7383810" lon="8.3607750">
        <ele>687.0000000</ele>
        <time>2010-03-14T09:01:32Z</time>
      </trkpt>
      <trkpt lat="45.7383810" lon="8.3607890">
        <ele>687.0000000</ele>
        <time>2010-03-14T09:01:33Z</time>
      </trkpt>
      <trkpt lat="45.7384190" lon="8.3608740">
        <ele>687.4800000</ele>
        <time>2010-03-14T09:01:41Z</time>
      </trkpt>
      <trkpt lat="45.7383300" lon="8.3609020">
        <ele>689.8800000</ele>
        <time>2010-03-14T09:01:53Z</time>
      </trkpt>
      <trkpt lat="45.7383060" lon="8.3608750">
        <ele>689.8800000</ele>
        <time>2010-03-14T09:01:56Z</time>
      </trkpt>
      <trkpt lat="45.7382610" lon="8.3608110">
        <ele>691.3300000</ele>
        <time>2010-03-14T09:02:03Z</time>
      </trkpt>
      <trkpt lat="45.7381930" lon="8.3606120">
        <ele>693.7300000</ele>
        <time>2010-03-14T09:02:18Z</time>
      </trkpt>
      <trkpt lat="45.7381040" lon="8.3604470">
        <ele>696.6100000</ele>
        <time>2010-03-14T09:02:32Z</time>
      </trkpt>
      <trkpt lat="45.7380210" lon="8.3603780">
        <ele>698.0500000</ele>
        <time>2010-03-14T09:02:43Z</time>
      </trkpt>
      <trkpt lat="45.7378920" lon="8.3603570">
        <ele>699.5000000</ele>
        <time>2010-03-14T09:02:55Z</time>
      </trkpt>
      <trkpt lat="45.7377970" lon="8.3603030">
        <ele>701.4200000</ele>
        <time>2010-03-14T09:03:07Z</time>
      </trkpt>
      <trkpt lat="45.7376420" lon="8.3602390">
        <ele>703.3400000</ele>
        <time>2010-03-14T09:03:20Z</time>
      </trkpt>
      <trkpt lat="45.7374410" lon="8.3600860">
        <ele>705.7500000</ele>
        <time>2010-03-14T09:03:38Z</time>
      </trkpt>
      <trkpt lat="45.7373460" lon="8.3599620">
        <ele>707.1900000</ele>
        <time>2010-03-14T09:03:50Z</time>
      </trkpt>
      <trkpt lat="45.7371780" lon="8.3597630">
        <ele>708.1500000</ele>
        <time>2010-03-14T09:04:05Z</time>
      </trkpt>
      <trkpt lat="45.7369860" lon="8.3596590">
        <ele>709.1100000</ele>
        <time>2010-03-14T09:04:20Z</time>
      </trkpt>
      <trkpt lat="45.7369000" lon="8.3596780">
        <ele>709.1100000</ele>
        <time>2010-03-14T09:04:36Z</time>
      </trkpt>
      <trkpt lat="45.7367570" lon="8.3596140">
        <ele>711.0300000</ele>
        <time>2010-03-14T09:05:06Z</time>
      </trkpt>
      <trkpt lat="45.7365580" lon="8.3595530">
        <ele>713.4400000</ele>
        <time>2010-03-14T09:05:23Z</time>
      </trkpt>
      <trkpt lat="45.7365390" lon="8.3595530">
        <ele>713.9200000</ele>
        <time>2010-03-14T09:05:25Z</time>
      </trkpt>
      <trkpt lat="45.7363530" lon="8.3594060">
        <ele>715.3600000</ele>
        <time>2010-03-14T09:05:42Z</time>
      </trkpt>
      <trkpt lat="45.7362800" lon="8.3593290">
        <ele>716.3200000</ele>
        <time>2010-03-14T09:05:50Z</time>
      </trkpt>
      <trkpt lat="45.7361460" lon="8.3592530">
        <ele>717.7600000</ele>
        <time>2010-03-14T09:06:03Z</time>
      </trkpt>
      <trkpt lat="45.7360000" lon="8.3591770">
        <ele>719.6800000</ele>
        <time>2010-03-14T09:06:16Z</time>
      </trkpt>
      <trkpt lat="45.7358130" lon="8.3591100">
        <ele>721.1300000</ele>
        <time>2010-03-14T09:06:31Z</time>
      </trkpt>
      <trkpt lat="45.7356250" lon="8.3590230">
        <ele>721.6100000</ele>
        <time>2010-03-14T09:06:45Z</time>
      </trkpt>
      <trkpt lat="45.7355470" lon="8.3589600">
        <ele>722.0900000</ele>
        <time>2010-03-14T09:06:54Z</time>
      </trkpt>
      <trkpt lat="45.7355140" lon="8.3589550">
        <ele>722.5700000</ele>
        <time>2010-03-14T09:06:57Z</time>
      </trkpt>
      <trkpt lat="45.7353180" lon="8.3588700">
        <ele>723.0500000</ele>
        <time>2010-03-14T09:07:12Z</time>
      </trkpt>
      <trkpt lat="45.7352730" lon="8.3588360">
        <ele>722.5700000</ele>
        <time>2010-03-14T09:07:16Z</time>
      </trkpt>
      <trkpt lat="45.7351900" lon="8.3587040">
        <ele>720.1600000</ele>
        <time>2010-03-14T09:07:22Z</time>
      </trkpt>
      <trkpt lat="45.7350030" lon="8.3584080">
        <ele>719.2000000</ele>
        <time>2010-03-14T09:07:30Z</time>
      </trkpt>
      <trkpt lat="45.7348520" lon="8.3581430">
        <ele>720.1600000</ele>
        <time>2010-03-14T09:07:38Z</time>
      </trkpt>
      <trkpt lat="45.7346770" lon="8.3580060">
        <ele>720.1600000</ele>
        <time>2010-03-14T09:07:48Z</time>
      </trkpt>
      <trkpt lat="45.7346670" lon="8.3579940">
        <ele>720.1600000</ele>
        <time>2010-03-14T09:07:49Z</time>
      </trkpt>
      <trkpt lat="45.7345520" lon="8.3579250">
        <ele>721.1300000</ele>
        <time>2010-03-14T09:07:57Z</time>
      </trkpt>
      <trkpt lat="45.7345140" lon="8.3579020">
        <ele>721.6100000</ele>
        <time>2010-03-14T09:08:01Z</time>
      </trkpt>
      <trkpt lat="45.7344760" lon="8.3578950">
        <ele>721.6100000</ele>
        <time>2010-03-14T09:08:04Z</time>
      </trkpt>
      <trkpt lat="45.7344160" lon="8.3578910">
        <ele>722.0900000</ele>
        <time>2010-03-14T09:08:08Z</time>
      </trkpt>
      <trkpt lat="45.7343070" lon="8.3578930">
        <ele>723.5300000</ele>
        <time>2010-03-14T09:08:20Z</time>
      </trkpt>
      <trkpt lat="45.7342940" lon="8.3578950">
        <ele>723.5300000</ele>
        <time>2010-03-14T09:08:22Z</time>
      </trkpt>
      <trkpt lat="45.7342500" lon="8.3579210">
        <ele>724.4900000</ele>
        <time>2010-03-14T09:08:26Z</time>
      </trkpt>
      <trkpt lat="45.7342220" lon="8.3579250">
        <ele>724.9700000</ele>
        <time>2010-03-14T09:08:28Z</time>
      </trkpt>
      <trkpt lat="45.7340400" lon="8.3580040">
        <ele>728.3400000</ele>
        <time>2010-03-14T09:08:40Z</time>
      </trkpt>
      <trkpt lat="45.7338810" lon="8.3580270">
        <ele>730.7400000</ele>
        <time>2010-03-14T09:08:52Z</time>
      </trkpt>
      <trkpt lat="45.7337080" lon="8.3580450">
        <ele>732.6600000</ele>
        <time>2010-03-14T09:09:03Z</time>
      </trkpt>
      <trkpt lat="45.7335500" lon="8.3580860">
        <ele>734.5800000</ele>
        <time>2010-03-14T09:09:16Z</time>
      </trkpt>
      <trkpt lat="45.7334300" lon="8.3580840">
        <ele>735.0700000</ele>
        <time>2010-03-14T09:09:23Z</time>
      </trkpt>
      <trkpt lat="45.7333380" lon="8.3580570">
        <ele>735.5500000</ele>
        <time>2010-03-14T09:09:30Z</time>
      </trkpt>
      <trkpt lat="45.7333140" lon="8.3580530">
        <ele>736.0300000</ele>
        <time>2010-03-14T09:09:32Z</time>
      </trkpt>
      <trkpt lat="45.7332310" lon="8.3580330">
        <ele>736.5100000</ele>
        <time>2010-03-14T09:09:39Z</time>
      </trkpt>
      <trkpt lat="45.7331620" lon="8.3580260">
        <ele>736.9900000</ele>
        <time>2010-03-14T09:09:44Z</time>
      </trkpt>
      <trkpt lat="45.7330650" lon="8.3579720">
        <ele>738.4300000</ele>
        <time>2010-03-14T09:09:55Z</time>
      </trkpt>
      <trkpt lat="45.7330090" lon="8.3579740">
        <ele>739.3900000</ele>
        <time>2010-03-14T09:10:06Z</time>
      </trkpt>
      <trkpt lat="45.7328350" lon="8.3579280">
        <ele>741.3100000</ele>
        <time>2010-03-14T09:10:20Z</time>
      </trkpt>
      <trkpt lat="45.7327360" lon="8.3579510">
        <ele>743.2400000</ele>
        <time>2010-03-14T09:10:30Z</time>
      </trkpt>
      <trkpt lat="45.7326560" lon="8.3580180">
        <ele>745.1600000</ele>
        <time>2010-03-14T09:10:42Z</time>
      </trkpt>
      <trkpt lat="45.7326040" lon="8.3580520">
        <ele>748.5200000</ele>
        <time>2010-03-14T09:10:58Z</time>
      </trkpt>
      <trkpt lat="45.7325430" lon="8.3580700">
        <ele>749.4900000</ele>
        <time>2010-03-14T09:11:08Z</time>
      </trkpt>
      <trkpt lat="45.7324130" lon="8.3580950">
        <ele>750.4500000</ele>
        <time>2010-03-14T09:11:20Z</time>
      </trkpt>
      <trkpt lat="45.7323620" lon="8.3580440">
        <ele>751.4100000</ele>
        <time>2010-03-14T09:11:29Z</time>
      </trkpt>
      <trkpt lat="45.7322900" lon="8.3579360">
        <ele>752.3700000</ele>
        <time>2010-03-14T09:11:41Z</time>
      </trkpt>
      <trkpt lat="45.7322370" lon="8.3579300">
        <ele>753.8100000</ele>
        <time>2010-03-14T09:11:57Z</time>
      </trkpt>
      <trkpt lat="45.7321460" lon="8.3579690">
        <ele>755.2500000</ele>
        <time>2010-03-14T09:12:08Z</time>
      </trkpt>
      <trkpt lat="45.7320360" lon="8.3579810">
        <ele>756.6900000</ele>
        <time>2010-03-14T09:12:13Z</time>
      </trkpt>
      <trkpt lat="45.7317480" lon="8.3580220">
        <ele>757.6600000</ele>
        <time>2010-03-14T09:12:24Z</time>
      </trkpt>
      <trkpt lat="45.7317300" lon="8.3580150">
        <ele>757.6600000</ele>
        <time>2010-03-14T09:12:26Z</time>
      </trkpt>
      <trkpt lat="45.7316980" lon="8.3579990">
        <ele>757.6600000</ele>
        <time>2010-03-14T09:12:29Z</time>
      </trkpt>
      <trkpt lat="45.7315890" lon="8.3578560">
        <ele>757.1800000</ele>
        <time>2010-03-14T09:12:40Z</time>
      </trkpt>
      <trkpt lat="45.7315220" lon="8.3577960">
        <ele>758.1400000</ele>
        <time>2010-03-14T09:12:46Z</time>
      </trkpt>
      <trkpt lat="45.7314170" lon="8.3576880">
        <ele>757.1800000</ele>
        <time>2010-03-14T09:12:53Z</time>
      </trkpt>
      <trkpt lat="45.7313540" lon="8.3576580">
        <ele>757.6600000</ele>
        <time>2010-03-14T09:12:56Z</time>
      </trkpt>
      <trkpt lat="45.7312150" lon="8.3575400">
        <ele>758.1400000</ele>
        <time>2010-03-14T09:13:03Z</time>
      </trkpt>
      <trkpt lat="45.7311430" lon="8.3574340">
        <ele>758.6200000</ele>
        <time>2010-03-14T09:13:09Z</time>
      </trkpt>
      <trkpt lat="45.7310630" lon="8.3573300">
        <ele>759.5800000</ele>
        <time>2010-03-14T09:13:16Z</time>
      </trkpt>
      <trkpt lat="45.7309970" lon="8.3572330">
        <ele>761.5000000</ele>
        <time>2010-03-14T09:13:26Z</time>
      </trkpt>
      <trkpt lat="45.7309720" lon="8.3572020">
        <ele>761.5000000</ele>
        <time>2010-03-14T09:13:31Z</time>
      </trkpt>
      <trkpt lat="45.7308540" lon="8.3572370">
        <ele>762.9400000</ele>
        <time>2010-03-14T09:13:41Z</time>
      </trkpt>
      <trkpt lat="45.7307370" lon="8.3572230">
        <ele>765.3500000</ele>
        <time>2010-03-14T09:13:49Z</time>
      </trkpt>
      <trkpt lat="45.7306540" lon="8.3572080">
        <ele>766.3100000</ele>
        <time>2010-03-14T09:13:55Z</time>
      </trkpt>
      <trkpt lat="45.7305420" lon="8.3571710">
        <ele>767.2700000</ele>
        <time>2010-03-14T09:14:04Z</time>
      </trkpt>
      <trkpt lat="45.7304270" lon="8.3570360">
        <ele>768.7100000</ele>
        <time>2010-03-14T09:14:17Z</time>
      </trkpt>
      <trkpt lat="45.7304230" lon="8.3570230">
        <ele>769.6700000</ele>
        <time>2010-03-14T09:14:19Z</time>
      </trkpt>
      <trkpt lat="45.7303600" lon="8.3569270">
        <ele>771.6000000</ele>
        <time>2010-03-14T09:14:29Z</time>
      </trkpt>
      <trkpt lat="45.7303130" lon="8.3567960">
        <ele>774.0000000</ele>
        <time>2010-03-14T09:14:40Z</time>
      </trkpt>
      <trkpt lat="45.7302940" lon="8.3567810">
        <ele>774.4800000</ele>
        <time>2010-03-14T09:14:42Z</time>
      </trkpt>
      <trkpt lat="45.7301500" lon="8.3567010">
        <ele>775.9200000</ele>
        <time>2010-03-14T09:14:55Z</time>
      </trkpt>
      <trkpt lat="45.7301320" lon="8.3566800">
        <ele>775.9200000</ele>
        <time>2010-03-14T09:14:57Z</time>
      </trkpt>
      <trkpt lat="45.7300070" lon="8.3565130">
        <ele>776.4000000</ele>
        <time>2010-03-14T09:15:10Z</time>
      </trkpt>
      <trkpt lat="45.7299920" lon="8.3564890">
        <ele>776.8800000</ele>
        <time>2010-03-14T09:15:13Z</time>
      </trkpt>
      <trkpt lat="45.7298900" lon="8.3562920">
        <ele>777.3600000</ele>
        <time>2010-03-14T09:15:22Z</time>
      </trkpt>
      <trkpt lat="45.7298340" lon="8.3560050">
        <ele>780.2500000</ele>
        <time>2010-03-14T09:15:31Z</time>
      </trkpt>
      <trkpt lat="45.7298170" lon="8.3559190">
        <ele>780.7300000</ele>
        <time>2010-03-14T09:15:33Z</time>
      </trkpt>
      <trkpt lat="45.7297740" lon="8.3554980">
        <ele>779.2900000</ele>
        <time>2010-03-14T09:15:46Z</time>
      </trkpt>
      <trkpt lat="45.7297750" lon="8.3554180">
        <ele>778.8100000</ele>
        <time>2010-03-14T09:15:48Z</time>
      </trkpt>
      <trkpt lat="45.7297660" lon="8.3553300">
        <ele>778.3200000</ele>
        <time>2010-03-14T09:15:50Z</time>
      </trkpt>
      <trkpt lat="45.7295280" lon="8.3550380">
        <ele>777.3600000</ele>
        <time>2010-03-14T09:16:01Z</time>
      </trkpt>
      <trkpt lat="45.7294630" lon="8.3549470">
        <ele>777.3600000</ele>
        <time>2010-03-14T09:16:05Z</time>
      </trkpt>
      <trkpt lat="45.7294030" lon="8.3547900">
        <ele>778.3200000</ele>
        <time>2010-03-14T09:16:12Z</time>
      </trkpt>
      <trkpt lat="45.7293900" lon="8.3547370">
        <ele>778.3200000</ele>
        <time>2010-03-14T09:16:15Z</time>
      </trkpt>
      <trkpt lat="45.7292800" lon="8.3546310">
        <ele>779.2900000</ele>
        <time>2010-03-14T09:16:25Z</time>
      </trkpt>
      <trkpt lat="45.7291780" lon="8.3544780">
        <ele>782.6500000</ele>
        <time>2010-03-14T09:16:36Z</time>
      </trkpt>
      <trkpt lat="45.7290590" lon="8.3543890">
        <ele>782.1700000</ele>
        <time>2010-03-14T09:16:45Z</time>
      </trkpt>
      <trkpt lat="45.7289890" lon="8.3543890">
        <ele>781.6900000</ele>
        <time>2010-03-14T09:16:48Z</time>
      </trkpt>
      <trkpt lat="45.7288320" lon="8.3544240">
        <ele>782.1700000</ele>
        <time>2010-03-14T09:16:58Z</time>
      </trkpt>
      <trkpt lat="45.7288050" lon="8.3544480">
        <ele>781.6900000</ele>
        <time>2010-03-14T09:17:00Z</time>
      </trkpt>
      <trkpt lat="45.7287210" lon="8.3545600">
        <ele>781.2100000</ele>
        <time>2010-03-14T09:17:05Z</time>
      </trkpt>
      <trkpt lat="45.7287010" lon="8.3546330">
        <ele>780.7300000</ele>
        <time>2010-03-14T09:17:07Z</time>
      </trkpt>
      <trkpt lat="45.7286160" lon="8.3549050">
        <ele>779.2900000</ele>
        <time>2010-03-14T09:17:16Z</time>
      </trkpt>
      <trkpt lat="45.7285230" lon="8.3549670">
        <ele>779.7700000</ele>
        <time>2010-03-14T09:17:21Z</time>
      </trkpt>
      <trkpt lat="45.7284710" lon="8.3549690">
        <ele>779.2900000</ele>
        <time>2010-03-14T09:17:24Z</time>
      </trkpt>
      <trkpt lat="45.7282800" lon="8.3548900">
        <ele>779.2900000</ele>
        <time>2010-03-14T09:17:35Z</time>
      </trkpt>
      <trkpt lat="45.7282570" lon="8.3548740">
        <ele>779.2900000</ele>
        <time>2010-03-14T09:17:37Z</time>
      </trkpt>
      <trkpt lat="45.7281590" lon="8.3548270">
        <ele>779.2900000</ele>
        <time>2010-03-14T09:17:42Z</time>
      </trkpt>
      <trkpt lat="45.7280960" lon="8.3548200">
        <ele>779.2900000</ele>
        <time>2010-03-14T09:17:46Z</time>
      </trkpt>
      <trkpt lat="45.7277990" lon="8.3547810">
        <ele>780.2500000</ele>
        <time>2010-03-14T09:17:57Z</time>
      </trkpt>
      <trkpt lat="45.7275880" lon="8.3548420">
        <ele>779.7700000</ele>
        <time>2010-03-14T09:18:09Z</time>
      </trkpt>
      <trkpt lat="45.7275620" lon="8.3548500">
        <ele>779.7700000</ele>
        <time>2010-03-14T09:18:11Z</time>
      </trkpt>
      <trkpt lat="45.7274890" lon="8.3548260">
        <ele>779.7700000</ele>
        <time>2010-03-14T09:18:17Z</time>
      </trkpt>
      <trkpt lat="45.7273010" lon="8.3548550">
        <ele>781.2100000</ele>
        <time>2010-03-14T09:18:29Z</time>
      </trkpt>
      <trkpt lat="45.7271180" lon="8.3548000">
        <ele>781.2100000</ele>
        <time>2010-03-14T09:18:40Z</time>
      </trkpt>
      <trkpt lat="45.7269640" lon="8.3548450">
        <ele>782.1700000</ele>
        <time>2010-03-14T09:18:49Z</time>
      </trkpt>
      <trkpt lat="45.7268070" lon="8.3549380">
        <ele>783.1300000</ele>
        <time>2010-03-14T09:19:00Z</time>
      </trkpt>
      <trkpt lat="45.7265680" lon="8.3550230">
        <ele>782.6500000</ele>
        <time>2010-03-14T09:19:12Z</time>
      </trkpt>
      <trkpt lat="45.7264620" lon="8.3551090">
        <ele>783.6100000</ele>
        <time>2010-03-14T09:19:19Z</time>
      </trkpt>
      <trkpt lat="45.7263520" lon="8.3552160">
        <ele>784.5700000</ele>
        <time>2010-03-14T09:19:26Z</time>
      </trkpt>
      <trkpt lat="45.7262680" lon="8.3552380">
        <ele>784.0900000</ele>
        <time>2010-03-14T09:19:31Z</time>
      </trkpt>
      <trkpt lat="45.7261760" lon="8.3553110">
        <ele>785.0500000</ele>
        <time>2010-03-14T09:19:37Z</time>
      </trkpt>
      <trkpt lat="45.7259940" lon="8.3554570">
        <ele>786.5000000</ele>
        <time>2010-03-14T09:19:50Z</time>
      </trkpt>
      <trkpt lat="45.7259730" lon="8.3554800">
        <ele>786.9800000</ele>
        <time>2010-03-14T09:19:52Z</time>
      </trkpt>
      <trkpt lat="45.7258450" lon="8.3555120">
        <ele>788.4200000</ele>
        <time>2010-03-14T09:20:05Z</time>
      </trkpt>
      <trkpt lat="45.7257370" lon="8.3554780">
        <ele>789.3800000</ele>
        <time>2010-03-14T09:20:19Z</time>
      </trkpt>
      <trkpt lat="45.7255300" lon="8.3554300">
        <ele>789.8600000</ele>
        <time>2010-03-14T09:20:34Z</time>
      </trkpt>
      <trkpt lat="45.7253880" lon="8.3552840">
        <ele>792.7400000</ele>
        <time>2010-03-14T09:20:49Z</time>
      </trkpt>
      <trkpt lat="45.7253060" lon="8.3552020">
        <ele>794.1900000</ele>
        <time>2010-03-14T09:21:00Z</time>
      </trkpt>
      <trkpt lat="45.7252360" lon="8.3551150">
        <ele>794.6700000</ele>
        <time>2010-03-14T09:21:12Z</time>
      </trkpt>
      <trkpt lat="45.7251510" lon="8.3550560">
        <ele>796.5900000</ele>
        <time>2010-03-14T09:21:23Z</time>
      </trkpt>
      <trkpt lat="45.7251010" lon="8.3549960">
        <ele>797.0700000</ele>
        <time>2010-03-14T09:21:32Z</time>
      </trkpt>
      <trkpt lat="45.7250090" lon="8.3549260">
        <ele>798.9900000</ele>
        <time>2010-03-14T09:21:44Z</time>
      </trkpt>
      <trkpt lat="45.7249470" lon="8.3549010">
        <ele>799.9500000</ele>
        <time>2010-03-14T09:21:54Z</time>
      </trkpt>
      <trkpt lat="45.7248420" lon="8.3548600">
        <ele>800.9200000</ele>
        <time>2010-03-14T09:22:06Z</time>
      </trkpt>
      <trkpt lat="45.7247560" lon="8.3547960">
        <ele>802.3600000</ele>
        <time>2010-03-14T09:22:15Z</time>
      </trkpt>
      <trkpt lat="45.7246720" lon="8.3547270">
        <ele>802.8400000</ele>
        <time>2010-03-14T09:22:27Z</time>
      </trkpt>
      <trkpt lat="45.7245930" lon="8.3546290">
        <ele>804.2800000</ele>
        <time>2010-03-14T09:22:40Z</time>
      </trkpt>
      <trkpt lat="45.7244950" lon="8.3545050">
        <ele>804.7600000</ele>
        <time>2010-03-14T09:22:52Z</time>
      </trkpt>
      <trkpt lat="45.7244710" lon="8.3544910">
        <ele>805.7200000</ele>
        <time>2010-03-14T09:22:55Z</time>
      </trkpt>
      <trkpt lat="45.7244460" lon="8.3543690">
        <ele>806.2000000</ele>
        <time>2010-03-14T09:23:06Z</time>
      </trkpt>
      <trkpt lat="45.7244240" lon="8.3543140">
        <ele>806.6800000</ele>
        <time>2010-03-14T09:23:10Z</time>
      </trkpt>
      <trkpt lat="45.7244250" lon="8.3542730">
        <ele>807.1600000</ele>
        <time>2010-03-14T09:23:12Z</time>
      </trkpt>
      <trkpt lat="45.7244090" lon="8.3542040">
        <ele>806.2000000</ele>
        <time>2010-03-14T09:23:27Z</time>
      </trkpt>
      <trkpt lat="45.7243950" lon="8.3542160">
        <ele>806.6800000</ele>
        <time>2010-03-14T09:23:44Z</time>
      </trkpt>
      <trkpt lat="45.7243850" lon="8.3542210">
        <ele>805.7200000</ele>
        <time>2010-03-14T09:24:32Z</time>
      </trkpt>
      <trkpt lat="45.7243850" lon="8.3542210">
        <ele>800.9200000</ele>
        <time>2010-03-14T09:24:33Z</time>
      </trkpt>
    </trkseg>
  </trk>

  <trk>
    <name>TRSFERIMENTO a CO</name>
    <extensions>
      <gpxx:TrackExtension xmlns:gpxx="http://www.garmin.com/xmlschemas/GpxExtensions/v3">
        <gpxx:DisplayColor>Yellow</gpxx:DisplayColor>
      </gpxx:TrackExtension>
    </extensions>
    <trkseg>
      <trkpt lat="45.7565540" lon="8.3789050">
        <ele>452.4400000</ele>
        <time>2010-03-12T10:47:39Z</time>
      </trkpt>
      <trkpt lat="45.7565540" lon="8.3789050">
        <ele>470.2200000</ele>
        <time>2010-03-12T10:47:40Z</time>
      </trkpt>
      <trkpt lat="45.7565540" lon="8.3789050">
        <ele>464.9300000</ele>
        <time>2010-03-12T10:47:43Z</time>
      </trkpt>
      <trkpt lat="45.7565540" lon="8.3789050">
        <ele>475.0300000</ele>
        <time>2010-03-12T10:47:44Z</time>
      </trkpt>
      <trkpt lat="45.7565540" lon="8.3789050">
        <ele>454.8400000</ele>
        <time>2010-03-12T10:47:45Z</time>
      </trkpt>
      <trkpt lat="45.7565540" lon="8.3789050">
        <ele>475.0300000</ele>
        <time>2010-03-12T10:47:46Z</time>
      </trkpt>
      <trkpt lat="45.7565540" lon="8.3789050">
        <ele>467.3400000</ele>
        <time>2010-03-12T10:47:47Z</time>
      </trkpt>
      <trkpt lat="45.7565540" lon="8.3789050">
        <ele>461.0900000</ele>
        <time>2010-03-12T10:47:48Z</time>
      </trkpt>
      <trkpt lat="45.7565540" lon="8.3789050">
        <ele>467.8200000</ele>
        <time>2010-03-12T10:47:49Z</time>
      </trkpt>
      <trkpt lat="45.7565540" lon="8.3789050">
        <ele>466.8600000</ele>
        <time>2010-03-12T10:47:51Z</time>
      </trkpt>
      <trkpt lat="45.7565560" lon="8.3789840">
        <ele>466.8600000</ele>
        <time>2010-03-12T10:47:55Z</time>
      </trkpt>
      <trkpt lat="45.7566120" lon="8.3795720">
        <ele>465.9000000</ele>
        <time>2010-03-12T10:48:09Z</time>
      </trkpt>
      <trkpt lat="45.7565880" lon="8.3801680">
        <ele>465.4200000</ele>
        <time>2010-03-12T10:48:23Z</time>
      </trkpt>
      <trkpt lat="45.7564450" lon="8.3807520">
        <ele>463.9700000</ele>
        <time>2010-03-12T10:48:33Z</time>
      </trkpt>
      <trkpt lat="45.7564360" lon="8.3808090">
        <ele>463.4900000</ele>
        <time>2010-03-12T10:48:34Z</time>
      </trkpt>
      <trkpt lat="45.7564290" lon="8.3808680">
        <ele>463.0100000</ele>
        <time>2010-03-12T10:48:35Z</time>
      </trkpt>
      <trkpt lat="45.7564260" lon="8.3809220">
        <ele>463.0100000</ele>
        <time>2010-03-12T10:48:36Z</time>
      </trkpt>
      <trkpt lat="45.7564240" lon="8.3809690">
        <ele>463.0100000</ele>
        <time>2010-03-12T10:48:37Z</time>
      </trkpt>
      <trkpt lat="45.7564090" lon="8.3811370">
        <ele>462.5300000</ele>
        <time>2010-03-12T10:48:47Z</time>
      </trkpt>
      <trkpt lat="45.7564190" lon="8.3811720">
        <ele>462.5300000</ele>
        <time>2010-03-12T10:48:50Z</time>
      </trkpt>
      <trkpt lat="45.7564220" lon="8.3811920">
        <ele>462.5300000</ele>
        <time>2010-03-12T10:48:51Z</time>
      </trkpt>
      <trkpt lat="45.7564250" lon="8.3812190">
        <ele>462.5300000</ele>
        <time>2010-03-12T10:48:52Z</time>
      </trkpt>
      <trkpt lat="45.7564250" lon="8.3812480">
        <ele>462.5300000</ele>
        <time>2010-03-12T10:48:53Z</time>
      </trkpt>
      <trkpt lat="45.7564190" lon="8.3812770">
        <ele>462.5300000</ele>
        <time>2010-03-12T10:48:54Z</time>
      </trkpt>
      <trkpt lat="45.7564120" lon="8.3813080">
        <ele>462.0500000</ele>
        <time>2010-03-12T10:48:55Z</time>
      </trkpt>
      <trkpt lat="45.7563990" lon="8.3813390">
        <ele>462.5300000</ele>
        <time>2010-03-12T10:48:56Z</time>
      </trkpt>
      <trkpt lat="45.7564400" lon="8.3816370">
        <ele>461.5700000</ele>
        <time>2010-03-12T10:49:06Z</time>
      </trkpt>
      <trkpt lat="45.7568960" lon="8.3821640">
        <ele>460.1300000</ele>
        <time>2010-03-12T10:49:24Z</time>
      </trkpt>
      <trkpt lat="45.7569610" lon="8.3822470">
        <ele>459.6500000</ele>
        <time>2010-03-12T10:49:27Z</time>
      </trkpt>
      <trkpt lat="45.7569620" lon="8.3822860">
        <ele>459.1700000</ele>
        <time>2010-03-12T10:49:28Z</time>
      </trkpt>
      <trkpt lat="45.7569210" lon="8.3823710">
        <ele>459.1700000</ele>
        <time>2010-03-12T10:49:36Z</time>
      </trkpt>
      <trkpt lat="45.7569260" lon="8.3823920">
        <ele>459.1700000</ele>
        <time>2010-03-12T10:49:53Z</time>
      </trkpt>
      <trkpt lat="45.7569250" lon="8.3823850">
        <ele>463.0100000</ele>
        <time>2010-03-12T10:50:27Z</time>
      </trkpt>
      <trkpt lat="45.7569250" lon="8.3823850">
        <ele>447.6300000</ele>
        <time>2010-03-12T10:50:28Z</time>
      </trkpt>
      <trkpt lat="45.7569250" lon="8.3823850">
        <ele>461.5700000</ele>
        <time>2010-03-12T10:50:29Z</time>
      </trkpt>
      <trkpt lat="45.7569250" lon="8.3823850">
        <ele>445.7100000</ele>
        <time>2010-03-12T10:50:30Z</time>
      </trkpt>
      <trkpt lat="45.7569250" lon="8.3823850">
        <ele>461.5700000</ele>
        <time>2010-03-12T10:50:31Z</time>
      </trkpt>
      <trkpt lat="45.7569250" lon="8.3823850">
        <ele>457.2400000</ele>
        <time>2010-03-12T10:50:34Z</time>
      </trkpt>
      <trkpt lat="45.7569250" lon="8.3823850">
        <ele>460.6100000</ele>
        <time>2010-03-12T10:50:35Z</time>
      </trkpt>
      <trkpt lat="45.7569220" lon="8.3823860">
        <ele>456.2800000</ele>
        <time>2010-03-12T10:50:58Z</time>
      </trkpt>
      <trkpt lat="45.7569220" lon="8.3823860">
        <ele>460.1300000</ele>
        <time>2010-03-12T10:50:59Z</time>
      </trkpt>
      <trkpt lat="45.7569220" lon="8.3823860">
        <ele>463.4900000</ele>
        <time>2010-03-12T10:51:00Z</time>
      </trkpt>
      <trkpt lat="45.7569200" lon="8.3823860">
        <ele>460.1300000</ele>
        <time>2010-03-12T10:51:01Z</time>
      </trkpt>
      <trkpt lat="45.7569200" lon="8.3823860">
        <ele>460.1300000</ele>
        <time>2010-03-12T10:51:14Z</time>
      </trkpt>
    </trkseg>
  </trk>

</gpx>
